<?xml version="1.0" encoding="UTF-8" standalone="no" ?>
<gpx xmlns="http://www.topografix.com/GPX/1/1" xmlns:xsi="http://www.w3.org/2001/XMLSchema-instance" xsi:schemaLocation="http://www.topografix.com/GPX/1/1 http://www.topografix.com/GPX/1/1/gpx.xsd" version="1.1" creator="VisuGPX - https://www.visugpx.com">
  <metadata>
    <name>Ronchamp mont de vanne le magny Belfahy plancher les mines la gd cote Belfort</name>
    <desc><![CDATA[Ronchamp mont de vanne le magny Belfahy plancher les mines la gd cote Belfort]]></desc>
  </metadata>
  <trk>
    <name><![CDATA[Ronchamp mont de vanne le magny Belfahy plancher les mines la gd cote Belfort_1]]></name>
    <trkseg>
      <trkpt lat="47.69889" lon="6.62352">
        <ele>350.3</ele>
        <time>2018-11-03T06:58:02.000Z</time>
      </trkpt>
      <trkpt lat="47.69888" lon="6.62379">
        <ele>350.34</ele>
        <time>2018-11-03T06:58:07.000Z</time>
      </trkpt>
      <trkpt lat="47.69897" lon="6.62409">
        <ele>350.39</ele>
        <time>2018-11-03T06:58:12.000Z</time>
      </trkpt>
      <trkpt lat="47.69905" lon="6.62441">
        <ele>349.09</ele>
        <time>2018-11-03T06:58:17.000Z</time>
      </trkpt>
      <trkpt lat="47.69911" lon="6.62479">
        <ele>347.8</ele>
        <time>2018-11-03T06:58:22.000Z</time>
      </trkpt>
      <trkpt lat="47.69918" lon="6.62524">
        <ele>346.51</ele>
        <time>2018-11-03T06:58:27.000Z</time>
      </trkpt>
      <trkpt lat="47.69929" lon="6.62584">
        <ele>344.58</ele>
        <time>2018-11-03T06:58:32.000Z</time>
      </trkpt>
      <trkpt lat="47.6994" lon="6.62638">
        <ele>342.65</ele>
        <time>2018-11-03T06:58:37.000Z</time>
      </trkpt>
      <trkpt lat="47.69951" lon="6.62693">
        <ele>340.72</ele>
        <time>2018-11-03T06:58:42.000Z</time>
      </trkpt>
      <trkpt lat="47.69956" lon="6.62746">
        <ele>340.99</ele>
        <time>2018-11-03T06:58:47.000Z</time>
      </trkpt>
      <trkpt lat="47.69966" lon="6.62788">
        <ele>341.26</ele>
        <time>2018-11-03T06:58:52.000Z</time>
      </trkpt>
      <trkpt lat="47.69976" lon="6.62819">
        <ele>341.53</ele>
        <time>2018-11-03T06:58:57.000Z</time>
      </trkpt>
      <trkpt lat="47.69981" lon="6.62855">
        <ele>341.48</ele>
        <time>2018-11-03T06:59:02.000Z</time>
      </trkpt>
      <trkpt lat="47.69989" lon="6.629">
        <ele>341.42</ele>
        <time>2018-11-03T06:59:07.000Z</time>
      </trkpt>
      <trkpt lat="47.69999" lon="6.62947">
        <ele>341.37</ele>
        <time>2018-11-03T06:59:12.000Z</time>
      </trkpt>
      <trkpt lat="47.7001" lon="6.62991">
        <ele>341.88</ele>
        <time>2018-11-03T06:59:17.000Z</time>
      </trkpt>
      <trkpt lat="47.70018" lon="6.63024">
        <ele>342.4</ele>
        <time>2018-11-03T06:59:22.000Z</time>
      </trkpt>
      <trkpt lat="47.70028" lon="6.63062">
        <ele>342.92</ele>
        <time>2018-11-03T06:59:27.000Z</time>
      </trkpt>
      <trkpt lat="47.70029" lon="6.63105">
        <ele>343.18</ele>
        <time>2018-11-03T06:59:32.000Z</time>
      </trkpt>
      <trkpt lat="47.7003" lon="6.6315">
        <ele>343.43</ele>
        <time>2018-11-03T06:59:37.000Z</time>
      </trkpt>
      <trkpt lat="47.70035" lon="6.63193">
        <ele>343.69</ele>
        <time>2018-11-03T06:59:42.000Z</time>
      </trkpt>
      <trkpt lat="47.70041" lon="6.63236">
        <ele>343.47</ele>
        <time>2018-11-03T06:59:47.000Z</time>
      </trkpt>
      <trkpt lat="47.70039" lon="6.63273">
        <ele>343.25</ele>
        <time>2018-11-03T06:59:52.000Z</time>
      </trkpt>
      <trkpt lat="47.70045" lon="6.63294">
        <ele>343.03</ele>
        <time>2018-11-03T06:59:57.000Z</time>
      </trkpt>
      <trkpt lat="47.70052" lon="6.63328">
        <ele>343.69</ele>
        <time>2018-11-03T07:00:02.000Z</time>
      </trkpt>
      <trkpt lat="47.70061" lon="6.63369">
        <ele>344.35</ele>
        <time>2018-11-03T07:00:07.000Z</time>
      </trkpt>
      <trkpt lat="47.70069" lon="6.63411">
        <ele>345</ele>
        <time>2018-11-03T07:00:12.000Z</time>
      </trkpt>
      <trkpt lat="47.70077" lon="6.6345">
        <ele>345.26</ele>
        <time>2018-11-03T07:00:17.000Z</time>
      </trkpt>
      <trkpt lat="47.70084" lon="6.63489">
        <ele>345.52</ele>
        <time>2018-11-03T07:00:22.000Z</time>
      </trkpt>
      <trkpt lat="47.70089" lon="6.63532">
        <ele>345.77</ele>
        <time>2018-11-03T07:00:27.000Z</time>
      </trkpt>
      <trkpt lat="47.70093" lon="6.6358">
        <ele>345.29</ele>
        <time>2018-11-03T07:00:32.000Z</time>
      </trkpt>
      <trkpt lat="47.70097" lon="6.63633">
        <ele>344.81</ele>
        <time>2018-11-03T07:00:37.000Z</time>
      </trkpt>
      <trkpt lat="47.70102" lon="6.63686">
        <ele>344.34</ele>
        <time>2018-11-03T07:00:42.000Z</time>
      </trkpt>
      <trkpt lat="47.70111" lon="6.63728">
        <ele>344.64</ele>
        <time>2018-11-03T07:00:47.000Z</time>
      </trkpt>
      <trkpt lat="47.7012" lon="6.63771">
        <ele>344.94</ele>
        <time>2018-11-03T07:00:52.000Z</time>
      </trkpt>
      <trkpt lat="47.70136" lon="6.63819">
        <ele>345.25</ele>
        <time>2018-11-03T07:00:57.000Z</time>
      </trkpt>
      <trkpt lat="47.70149" lon="6.63862">
        <ele>345.67</ele>
        <time>2018-11-03T07:01:02.000Z</time>
      </trkpt>
      <trkpt lat="47.70162" lon="6.63903">
        <ele>346.1</ele>
        <time>2018-11-03T07:01:07.000Z</time>
      </trkpt>
      <trkpt lat="47.70176" lon="6.63944">
        <ele>346.53</ele>
        <time>2018-11-03T07:01:12.000Z</time>
      </trkpt>
      <trkpt lat="47.7019" lon="6.63986">
        <ele>346.67</ele>
        <time>2018-11-03T07:01:17.000Z</time>
      </trkpt>
      <trkpt lat="47.70203" lon="6.64028">
        <ele>346.82</ele>
        <time>2018-11-03T07:01:22.000Z</time>
      </trkpt>
      <trkpt lat="47.70217" lon="6.6407">
        <ele>346.96</ele>
        <time>2018-11-03T07:01:27.000Z</time>
      </trkpt>
      <trkpt lat="47.70228" lon="6.64114">
        <ele>346.67</ele>
        <time>2018-11-03T07:01:32.000Z</time>
      </trkpt>
      <trkpt lat="47.70239" lon="6.64159">
        <ele>346.38</ele>
        <time>2018-11-03T07:01:37.000Z</time>
      </trkpt>
      <trkpt lat="47.7025" lon="6.64206">
        <ele>346.09</ele>
        <time>2018-11-03T07:01:42.000Z</time>
      </trkpt>
      <trkpt lat="47.70256" lon="6.64243">
        <ele>346.38</ele>
        <time>2018-11-03T07:01:47.000Z</time>
      </trkpt>
      <trkpt lat="47.70264" lon="6.64289">
        <ele>346.67</ele>
        <time>2018-11-03T07:01:52.000Z</time>
      </trkpt>
      <trkpt lat="47.70271" lon="6.64334">
        <ele>346.96</ele>
        <time>2018-11-03T07:01:57.000Z</time>
      </trkpt>
      <trkpt lat="47.70278" lon="6.64377">
        <ele>347.46</ele>
        <time>2018-11-03T07:02:02.000Z</time>
      </trkpt>
      <trkpt lat="47.70284" lon="6.64417">
        <ele>347.96</ele>
        <time>2018-11-03T07:02:07.000Z</time>
      </trkpt>
      <trkpt lat="47.70286" lon="6.64457">
        <ele>348.46</ele>
        <time>2018-11-03T07:02:12.000Z</time>
      </trkpt>
      <trkpt lat="47.70285" lon="6.64497">
        <ele>348.4</ele>
        <time>2018-11-03T07:02:17.000Z</time>
      </trkpt>
      <trkpt lat="47.70285" lon="6.64537">
        <ele>348.34</ele>
        <time>2018-11-03T07:02:22.000Z</time>
      </trkpt>
      <trkpt lat="47.70286" lon="6.64581">
        <ele>348.29</ele>
        <time>2018-11-03T07:02:27.000Z</time>
      </trkpt>
      <trkpt lat="47.70288" lon="6.64626">
        <ele>349.18</ele>
        <time>2018-11-03T07:02:32.000Z</time>
      </trkpt>
      <trkpt lat="47.70289" lon="6.64667">
        <ele>350.07</ele>
        <time>2018-11-03T07:02:37.000Z</time>
      </trkpt>
      <trkpt lat="47.70289" lon="6.64702">
        <ele>350.97</ele>
        <time>2018-11-03T07:02:42.000Z</time>
      </trkpt>
      <trkpt lat="47.70288" lon="6.64737">
        <ele>351.87</ele>
        <time>2018-11-03T07:02:47.000Z</time>
      </trkpt>
      <trkpt lat="47.70287" lon="6.64773">
        <ele>352.78</ele>
        <time>2018-11-03T07:02:52.000Z</time>
      </trkpt>
      <trkpt lat="47.7029" lon="6.64806">
        <ele>353.69</ele>
        <time>2018-11-03T07:02:57.000Z</time>
      </trkpt>
      <trkpt lat="47.703" lon="6.64834">
        <ele>354.5</ele>
        <time>2018-11-03T07:03:02.000Z</time>
      </trkpt>
      <trkpt lat="47.70307" lon="6.64859">
        <ele>355.32</ele>
        <time>2018-11-03T07:03:07.000Z</time>
      </trkpt>
      <trkpt lat="47.70309" lon="6.64887">
        <ele>356.13</ele>
        <time>2018-11-03T07:03:12.000Z</time>
      </trkpt>
      <trkpt lat="47.70313" lon="6.6492">
        <ele>356.45</ele>
        <time>2018-11-03T07:03:17.000Z</time>
      </trkpt>
      <trkpt lat="47.70316" lon="6.64966">
        <ele>356.76</ele>
        <time>2018-11-03T07:03:22.000Z</time>
      </trkpt>
      <trkpt lat="47.7032" lon="6.65006">
        <ele>357.08</ele>
        <time>2018-11-03T07:03:27.000Z</time>
      </trkpt>
      <trkpt lat="47.70323" lon="6.65047">
        <ele>356.88</ele>
        <time>2018-11-03T07:03:32.000Z</time>
      </trkpt>
      <trkpt lat="47.70326" lon="6.65087">
        <ele>356.68</ele>
        <time>2018-11-03T07:03:37.000Z</time>
      </trkpt>
      <trkpt lat="47.70327" lon="6.6513">
        <ele>356.48</ele>
        <time>2018-11-03T07:03:42.000Z</time>
      </trkpt>
      <trkpt lat="47.70328" lon="6.65175">
        <ele>355.86</ele>
        <time>2018-11-03T07:03:47.000Z</time>
      </trkpt>
      <trkpt lat="47.70328" lon="6.65218">
        <ele>355.23</ele>
        <time>2018-11-03T07:03:52.000Z</time>
      </trkpt>
      <trkpt lat="47.70319" lon="6.65259">
        <ele>354.61</ele>
        <time>2018-11-03T07:03:57.000Z</time>
      </trkpt>
      <trkpt lat="47.70309" lon="6.65303">
        <ele>355.28</ele>
        <time>2018-11-03T07:04:02.000Z</time>
      </trkpt>
      <trkpt lat="47.70312" lon="6.65332">
        <ele>355.95</ele>
        <time>2018-11-03T07:04:07.000Z</time>
      </trkpt>
      <trkpt lat="47.70321" lon="6.65338">
        <ele>356.61</ele>
        <time>2018-11-03T07:04:12.000Z</time>
      </trkpt>
      <trkpt lat="47.70329" lon="6.6534">
        <ele>356.4</ele>
        <time>2018-11-03T07:04:17.000Z</time>
      </trkpt>
      <trkpt lat="47.70337" lon="6.65343">
        <ele>356.18</ele>
        <time>2018-11-03T07:04:22.000Z</time>
      </trkpt>
      <trkpt lat="47.70377" lon="6.65348">
        <ele>355.97</ele>
        <time>2018-11-03T07:04:27.000Z</time>
      </trkpt>
      <trkpt lat="47.70421" lon="6.65344">
        <ele>356.82</ele>
        <time>2018-11-03T07:04:32.000Z</time>
      </trkpt>
      <trkpt lat="47.7044" lon="6.65347">
        <ele>357.68</ele>
        <time>2018-11-03T07:04:37.000Z</time>
      </trkpt>
      <trkpt lat="47.70459" lon="6.6535">
        <ele>358.53</ele>
        <time>2018-11-03T07:04:42.000Z</time>
      </trkpt>
      <trkpt lat="47.7048" lon="6.65351">
        <ele>359.25</ele>
        <time>2018-11-03T07:04:47.000Z</time>
      </trkpt>
      <trkpt lat="47.70504" lon="6.65351">
        <ele>359.97</ele>
        <time>2018-11-03T07:04:52.000Z</time>
      </trkpt>
      <trkpt lat="47.70528" lon="6.65351">
        <ele>360.69</ele>
        <time>2018-11-03T07:04:57.000Z</time>
      </trkpt>
      <trkpt lat="47.70552" lon="6.6535">
        <ele>360.41</ele>
        <time>2018-11-03T07:05:02.000Z</time>
      </trkpt>
      <trkpt lat="47.70577" lon="6.65347">
        <ele>360.14</ele>
        <time>2018-11-03T07:05:07.000Z</time>
      </trkpt>
      <trkpt lat="47.70601" lon="6.6534">
        <ele>359.86</ele>
        <time>2018-11-03T07:05:12.000Z</time>
      </trkpt>
      <trkpt lat="47.70626" lon="6.65334">
        <ele>361.08</ele>
        <time>2018-11-03T07:05:17.000Z</time>
      </trkpt>
      <trkpt lat="47.70645" lon="6.65331">
        <ele>362.29</ele>
        <time>2018-11-03T07:05:22.000Z</time>
      </trkpt>
      <trkpt lat="47.70652" lon="6.6534">
        <ele>363.5</ele>
        <time>2018-11-03T07:05:27.000Z</time>
      </trkpt>
      <trkpt lat="47.70656" lon="6.65345">
        <ele>366.78</ele>
        <time>2018-11-03T07:05:32.000Z</time>
      </trkpt>
      <trkpt lat="47.70651" lon="6.65354">
        <ele>370.05</ele>
        <time>2018-11-03T07:05:37.000Z</time>
      </trkpt>
      <trkpt lat="47.70645" lon="6.65361">
        <ele>373.32</ele>
        <time>2018-11-03T07:05:42.000Z</time>
      </trkpt>
      <trkpt lat="47.7064" lon="6.65372">
        <ele>374.92</ele>
        <time>2018-11-03T07:05:47.000Z</time>
      </trkpt>
      <trkpt lat="47.70636" lon="6.65381">
        <ele>376.51</ele>
        <time>2018-11-03T07:05:52.000Z</time>
      </trkpt>
      <trkpt lat="47.70632" lon="6.6539">
        <ele>378.1</ele>
        <time>2018-11-03T07:05:57.000Z</time>
      </trkpt>
      <trkpt lat="47.7063" lon="6.654">
        <ele>380.35</ele>
        <time>2018-11-03T07:06:02.000Z</time>
      </trkpt>
      <trkpt lat="47.70629" lon="6.65412">
        <ele>382.59</ele>
        <time>2018-11-03T07:06:07.000Z</time>
      </trkpt>
      <trkpt lat="47.70629" lon="6.65424">
        <ele>384.84</ele>
        <time>2018-11-03T07:06:12.000Z</time>
      </trkpt>
      <trkpt lat="47.70629" lon="6.65437">
        <ele>386.32</ele>
        <time>2018-11-03T07:06:17.000Z</time>
      </trkpt>
      <trkpt lat="47.70629" lon="6.65451">
        <ele>387.81</ele>
        <time>2018-11-03T07:06:22.000Z</time>
      </trkpt>
      <trkpt lat="47.70628" lon="6.65463">
        <ele>389.29</ele>
        <time>2018-11-03T07:06:27.000Z</time>
      </trkpt>
      <trkpt lat="47.70628" lon="6.65471">
        <ele>390.11</ele>
        <time>2018-11-03T07:06:32.000Z</time>
      </trkpt>
      <trkpt lat="47.70626" lon="6.65484">
        <ele>390.92</ele>
        <time>2018-11-03T07:06:37.000Z</time>
      </trkpt>
      <trkpt lat="47.70622" lon="6.65495">
        <ele>391.74</ele>
        <time>2018-11-03T07:06:42.000Z</time>
      </trkpt>
      <trkpt lat="47.7062" lon="6.65507">
        <ele>392.25</ele>
        <time>2018-11-03T07:06:47.000Z</time>
      </trkpt>
      <trkpt lat="47.70615" lon="6.6552">
        <ele>392.75</ele>
        <time>2018-11-03T07:06:52.000Z</time>
      </trkpt>
      <trkpt lat="47.70616" lon="6.65534">
        <ele>393.26</ele>
        <time>2018-11-03T07:06:57.000Z</time>
      </trkpt>
      <trkpt lat="47.70624" lon="6.65547">
        <ele>394.89</ele>
        <time>2018-11-03T07:07:02.000Z</time>
      </trkpt>
      <trkpt lat="47.70632" lon="6.65561">
        <ele>396.52</ele>
        <time>2018-11-03T07:07:07.000Z</time>
      </trkpt>
      <trkpt lat="47.70634" lon="6.65577">
        <ele>398.15</ele>
        <time>2018-11-03T07:07:12.000Z</time>
      </trkpt>
      <trkpt lat="47.70638" lon="6.65594">
        <ele>398.96</ele>
        <time>2018-11-03T07:07:17.000Z</time>
      </trkpt>
      <trkpt lat="47.70645" lon="6.65605">
        <ele>399.77</ele>
        <time>2018-11-03T07:07:22.000Z</time>
      </trkpt>
      <trkpt lat="47.70653" lon="6.65618">
        <ele>400.58</ele>
        <time>2018-11-03T07:07:27.000Z</time>
      </trkpt>
      <trkpt lat="47.70662" lon="6.65631">
        <ele>401.22</ele>
        <time>2018-11-03T07:07:32.000Z</time>
      </trkpt>
      <trkpt lat="47.70672" lon="6.65642">
        <ele>401.86</ele>
        <time>2018-11-03T07:07:37.000Z</time>
      </trkpt>
      <trkpt lat="47.70682" lon="6.65654">
        <ele>402.5</ele>
        <time>2018-11-03T07:07:42.000Z</time>
      </trkpt>
      <trkpt lat="47.7069" lon="6.65664">
        <ele>403.39</ele>
        <time>2018-11-03T07:07:47.000Z</time>
      </trkpt>
      <trkpt lat="47.707" lon="6.65671">
        <ele>404.28</ele>
        <time>2018-11-03T07:07:52.000Z</time>
      </trkpt>
      <trkpt lat="47.70711" lon="6.65678">
        <ele>405.17</ele>
        <time>2018-11-03T07:07:57.000Z</time>
      </trkpt>
      <trkpt lat="47.70721" lon="6.65682">
        <ele>405.38</ele>
        <time>2018-11-03T07:08:02.000Z</time>
      </trkpt>
      <trkpt lat="47.70732" lon="6.65687">
        <ele>405.6</ele>
        <time>2018-11-03T07:08:07.000Z</time>
      </trkpt>
      <trkpt lat="47.70737" lon="6.65693">
        <ele>405.81</ele>
        <time>2018-11-03T07:08:12.000Z</time>
      </trkpt>
      <trkpt lat="47.70744" lon="6.65698">
        <ele>406.7</ele>
        <time>2018-11-03T07:08:17.000Z</time>
      </trkpt>
      <trkpt lat="47.70752" lon="6.65706">
        <ele>407.59</ele>
        <time>2018-11-03T07:08:22.000Z</time>
      </trkpt>
      <trkpt lat="47.70759" lon="6.65717">
        <ele>408.49</ele>
        <time>2018-11-03T07:08:27.000Z</time>
      </trkpt>
      <trkpt lat="47.70767" lon="6.6573">
        <ele>409.85</ele>
        <time>2018-11-03T07:08:32.000Z</time>
      </trkpt>
      <trkpt lat="47.70773" lon="6.65742">
        <ele>411.22</ele>
        <time>2018-11-03T07:08:37.000Z</time>
      </trkpt>
      <trkpt lat="47.70778" lon="6.65758">
        <ele>412.59</ele>
        <time>2018-11-03T07:08:42.000Z</time>
      </trkpt>
      <trkpt lat="47.70782" lon="6.65771">
        <ele>413.97</ele>
        <time>2018-11-03T07:08:47.000Z</time>
      </trkpt>
      <trkpt lat="47.70787" lon="6.65785">
        <ele>415.35</ele>
        <time>2018-11-03T07:08:52.000Z</time>
      </trkpt>
      <trkpt lat="47.70788" lon="6.65796">
        <ele>416.73</ele>
        <time>2018-11-03T07:08:57.000Z</time>
      </trkpt>
      <trkpt lat="47.70792" lon="6.65814">
        <ele>417.82</ele>
        <time>2018-11-03T07:09:02.000Z</time>
      </trkpt>
      <trkpt lat="47.70796" lon="6.65831">
        <ele>418.91</ele>
        <time>2018-11-03T07:09:07.000Z</time>
      </trkpt>
      <trkpt lat="47.70801" lon="6.65847">
        <ele>419.99</ele>
        <time>2018-11-03T07:09:12.000Z</time>
      </trkpt>
      <trkpt lat="47.70806" lon="6.65865">
        <ele>420.97</ele>
        <time>2018-11-03T07:09:17.000Z</time>
      </trkpt>
      <trkpt lat="47.70808" lon="6.65882">
        <ele>421.95</ele>
        <time>2018-11-03T07:09:22.000Z</time>
      </trkpt>
      <trkpt lat="47.70812" lon="6.65902">
        <ele>422.93</ele>
        <time>2018-11-03T07:09:27.000Z</time>
      </trkpt>
      <trkpt lat="47.70813" lon="6.65921">
        <ele>424.24</ele>
        <time>2018-11-03T07:09:32.000Z</time>
      </trkpt>
      <trkpt lat="47.70816" lon="6.65938">
        <ele>425.55</ele>
        <time>2018-11-03T07:09:37.000Z</time>
      </trkpt>
      <trkpt lat="47.70818" lon="6.65958">
        <ele>426.85</ele>
        <time>2018-11-03T07:09:42.000Z</time>
      </trkpt>
      <trkpt lat="47.70817" lon="6.65978">
        <ele>428.14</ele>
        <time>2018-11-03T07:09:47.000Z</time>
      </trkpt>
      <trkpt lat="47.70813" lon="6.66">
        <ele>429.43</ele>
        <time>2018-11-03T07:09:52.000Z</time>
      </trkpt>
      <trkpt lat="47.70808" lon="6.66027">
        <ele>430.72</ele>
        <time>2018-11-03T07:09:57.000Z</time>
      </trkpt>
      <trkpt lat="47.70805" lon="6.6605">
        <ele>430.66</ele>
        <time>2018-11-03T07:10:02.000Z</time>
      </trkpt>
      <trkpt lat="47.70808" lon="6.66068">
        <ele>430.6</ele>
        <time>2018-11-03T07:10:07.000Z</time>
      </trkpt>
      <trkpt lat="47.70813" lon="6.66084">
        <ele>430.55</ele>
        <time>2018-11-03T07:10:12.000Z</time>
      </trkpt>
      <trkpt lat="47.70813" lon="6.66104">
        <ele>429.91</ele>
        <time>2018-11-03T07:10:17.000Z</time>
      </trkpt>
      <trkpt lat="47.70815" lon="6.66128">
        <ele>429.28</ele>
        <time>2018-11-03T07:10:22.000Z</time>
      </trkpt>
      <trkpt lat="47.70824" lon="6.66146">
        <ele>428.64</ele>
        <time>2018-11-03T07:10:27.000Z</time>
      </trkpt>
      <trkpt lat="47.70835" lon="6.66175">
        <ele>427.22</ele>
        <time>2018-11-03T07:10:32.000Z</time>
      </trkpt>
      <trkpt lat="47.70845" lon="6.66201">
        <ele>425.79</ele>
        <time>2018-11-03T07:10:37.000Z</time>
      </trkpt>
      <trkpt lat="47.70859" lon="6.66233">
        <ele>424.36</ele>
        <time>2018-11-03T07:10:42.000Z</time>
      </trkpt>
      <trkpt lat="47.70866" lon="6.66284">
        <ele>424.31</ele>
        <time>2018-11-03T07:10:47.000Z</time>
      </trkpt>
      <trkpt lat="47.70866" lon="6.66333">
        <ele>424.25</ele>
        <time>2018-11-03T07:10:52.000Z</time>
      </trkpt>
      <trkpt lat="47.70862" lon="6.66381">
        <ele>424.2</ele>
        <time>2018-11-03T07:10:57.000Z</time>
      </trkpt>
      <trkpt lat="47.70861" lon="6.66437">
        <ele>426.05</ele>
        <time>2018-11-03T07:11:02.000Z</time>
      </trkpt>
      <trkpt lat="47.7087" lon="6.66469">
        <ele>427.91</ele>
        <time>2018-11-03T07:11:07.000Z</time>
      </trkpt>
      <trkpt lat="47.70884" lon="6.66474">
        <ele>429.76</ele>
        <time>2018-11-03T07:11:12.000Z</time>
      </trkpt>
      <trkpt lat="47.70897" lon="6.66478">
        <ele>430.58</ele>
        <time>2018-11-03T07:11:17.000Z</time>
      </trkpt>
      <trkpt lat="47.7091" lon="6.66477">
        <ele>431.39</ele>
        <time>2018-11-03T07:11:22.000Z</time>
      </trkpt>
      <trkpt lat="47.70929" lon="6.66466">
        <ele>432.21</ele>
        <time>2018-11-03T07:11:27.000Z</time>
      </trkpt>
      <trkpt lat="47.70952" lon="6.66453">
        <ele>430.5</ele>
        <time>2018-11-03T07:11:32.000Z</time>
      </trkpt>
      <trkpt lat="47.70968" lon="6.66434">
        <ele>428.78</ele>
        <time>2018-11-03T07:11:37.000Z</time>
      </trkpt>
      <trkpt lat="47.70981" lon="6.66404">
        <ele>427.06</ele>
        <time>2018-11-03T07:11:42.000Z</time>
      </trkpt>
      <trkpt lat="47.70992" lon="6.6638">
        <ele>422.75</ele>
        <time>2018-11-03T07:11:47.000Z</time>
      </trkpt>
      <trkpt lat="47.71003" lon="6.66375">
        <ele>418.44</ele>
        <time>2018-11-03T07:11:52.000Z</time>
      </trkpt>
      <trkpt lat="47.71021" lon="6.66376">
        <ele>414.13</ele>
        <time>2018-11-03T07:11:57.000Z</time>
      </trkpt>
      <trkpt lat="47.71056" lon="6.66357">
        <ele>411.88</ele>
        <time>2018-11-03T07:12:02.000Z</time>
      </trkpt>
      <trkpt lat="47.71079" lon="6.6636">
        <ele>409.63</ele>
        <time>2018-11-03T07:12:07.000Z</time>
      </trkpt>
      <trkpt lat="47.71085" lon="6.66383">
        <ele>407.39</ele>
        <time>2018-11-03T07:12:12.000Z</time>
      </trkpt>
      <trkpt lat="47.71097" lon="6.66397">
        <ele>409.33</ele>
        <time>2018-11-03T07:12:17.000Z</time>
      </trkpt>
      <trkpt lat="47.71109" lon="6.66397">
        <ele>411.28</ele>
        <time>2018-11-03T07:12:22.000Z</time>
      </trkpt>
      <trkpt lat="47.71122" lon="6.66392">
        <ele>413.22</ele>
        <time>2018-11-03T07:12:27.000Z</time>
      </trkpt>
      <trkpt lat="47.7113" lon="6.66382">
        <ele>415.71</ele>
        <time>2018-11-03T07:12:32.000Z</time>
      </trkpt>
      <trkpt lat="47.7114" lon="6.66374">
        <ele>418.19</ele>
        <time>2018-11-03T07:12:37.000Z</time>
      </trkpt>
      <trkpt lat="47.71146" lon="6.66366">
        <ele>420.67</ele>
        <time>2018-11-03T07:12:42.000Z</time>
      </trkpt>
      <trkpt lat="47.71156" lon="6.66356">
        <ele>422.49</ele>
        <time>2018-11-03T07:12:47.000Z</time>
      </trkpt>
      <trkpt lat="47.71168" lon="6.66345">
        <ele>424.31</ele>
        <time>2018-11-03T07:12:52.000Z</time>
      </trkpt>
      <trkpt lat="47.71184" lon="6.66331">
        <ele>426.12</ele>
        <time>2018-11-03T07:12:57.000Z</time>
      </trkpt>
      <trkpt lat="47.71197" lon="6.66321">
        <ele>427.89</ele>
        <time>2018-11-03T07:13:02.000Z</time>
      </trkpt>
      <trkpt lat="47.71209" lon="6.66309">
        <ele>429.66</ele>
        <time>2018-11-03T07:13:07.000Z</time>
      </trkpt>
      <trkpt lat="47.71223" lon="6.66297">
        <ele>431.43</ele>
        <time>2018-11-03T07:13:12.000Z</time>
      </trkpt>
      <trkpt lat="47.71235" lon="6.66284">
        <ele>431.51</ele>
        <time>2018-11-03T07:13:17.000Z</time>
      </trkpt>
      <trkpt lat="47.71245" lon="6.6627">
        <ele>431.6</ele>
        <time>2018-11-03T07:13:22.000Z</time>
      </trkpt>
      <trkpt lat="47.71253" lon="6.66258">
        <ele>431.68</ele>
        <time>2018-11-03T07:13:27.000Z</time>
      </trkpt>
      <trkpt lat="47.71264" lon="6.66248">
        <ele>430.54</ele>
        <time>2018-11-03T07:13:32.000Z</time>
      </trkpt>
      <trkpt lat="47.71276" lon="6.66244">
        <ele>429.39</ele>
        <time>2018-11-03T07:13:37.000Z</time>
      </trkpt>
      <trkpt lat="47.71288" lon="6.66251">
        <ele>428.24</ele>
        <time>2018-11-03T07:13:42.000Z</time>
      </trkpt>
      <trkpt lat="47.71299" lon="6.66262">
        <ele>428.4</ele>
        <time>2018-11-03T07:13:47.000Z</time>
      </trkpt>
      <trkpt lat="47.71315" lon="6.66277">
        <ele>428.55</ele>
        <time>2018-11-03T07:13:52.000Z</time>
      </trkpt>
      <trkpt lat="47.71325" lon="6.66275">
        <ele>428.71</ele>
        <time>2018-11-03T07:13:57.000Z</time>
      </trkpt>
      <trkpt lat="47.71331" lon="6.66269">
        <ele>430.37</ele>
        <time>2018-11-03T07:14:02.000Z</time>
      </trkpt>
      <trkpt lat="47.71337" lon="6.66268">
        <ele>432.03</ele>
        <time>2018-11-03T07:14:07.000Z</time>
      </trkpt>
      <trkpt lat="47.71344" lon="6.66262">
        <ele>433.7</ele>
        <time>2018-11-03T07:14:12.000Z</time>
      </trkpt>
      <trkpt lat="47.7135" lon="6.66257">
        <ele>435.18</ele>
        <time>2018-11-03T07:14:17.000Z</time>
      </trkpt>
      <trkpt lat="47.71356" lon="6.66255">
        <ele>436.66</ele>
        <time>2018-11-03T07:14:22.000Z</time>
      </trkpt>
      <trkpt lat="47.71364" lon="6.66257">
        <ele>438.14</ele>
        <time>2018-11-03T07:14:27.000Z</time>
      </trkpt>
      <trkpt lat="47.71371" lon="6.66256">
        <ele>439.45</ele>
        <time>2018-11-03T07:14:32.000Z</time>
      </trkpt>
      <trkpt lat="47.71375" lon="6.66253">
        <ele>440.77</ele>
        <time>2018-11-03T07:14:37.000Z</time>
      </trkpt>
      <trkpt lat="47.71379" lon="6.66247">
        <ele>442.08</ele>
        <time>2018-11-03T07:14:42.000Z</time>
      </trkpt>
      <trkpt lat="47.71384" lon="6.66243">
        <ele>443.34</ele>
        <time>2018-11-03T07:14:47.000Z</time>
      </trkpt>
      <trkpt lat="47.71389" lon="6.66238">
        <ele>444.6</ele>
        <time>2018-11-03T07:14:52.000Z</time>
      </trkpt>
      <trkpt lat="47.71394" lon="6.66237">
        <ele>445.86</ele>
        <time>2018-11-03T07:14:57.000Z</time>
      </trkpt>
      <trkpt lat="47.714" lon="6.66237">
        <ele>447.33</ele>
        <time>2018-11-03T07:15:02.000Z</time>
      </trkpt>
      <trkpt lat="47.71408" lon="6.66235">
        <ele>448.79</ele>
        <time>2018-11-03T07:15:07.000Z</time>
      </trkpt>
      <trkpt lat="47.71413" lon="6.66232">
        <ele>450.26</ele>
        <time>2018-11-03T07:15:12.000Z</time>
      </trkpt>
      <trkpt lat="47.71418" lon="6.66229">
        <ele>451.51</ele>
        <time>2018-11-03T07:15:17.000Z</time>
      </trkpt>
      <trkpt lat="47.71422" lon="6.66224">
        <ele>452.76</ele>
        <time>2018-11-03T07:15:22.000Z</time>
      </trkpt>
      <trkpt lat="47.71426" lon="6.6622">
        <ele>454.02</ele>
        <time>2018-11-03T07:15:27.000Z</time>
      </trkpt>
      <trkpt lat="47.71432" lon="6.66217">
        <ele>454.95</ele>
        <time>2018-11-03T07:15:32.000Z</time>
      </trkpt>
      <trkpt lat="47.71438" lon="6.66216">
        <ele>455.87</ele>
        <time>2018-11-03T07:15:37.000Z</time>
      </trkpt>
      <trkpt lat="47.7144" lon="6.66212">
        <ele>456.8</ele>
        <time>2018-11-03T07:15:42.000Z</time>
      </trkpt>
      <trkpt lat="47.71443" lon="6.66209">
        <ele>457.91</ele>
        <time>2018-11-03T07:15:47.000Z</time>
      </trkpt>
      <trkpt lat="47.71448" lon="6.66207">
        <ele>459.02</ele>
        <time>2018-11-03T07:15:52.000Z</time>
      </trkpt>
      <trkpt lat="47.71453" lon="6.66203">
        <ele>460.14</ele>
        <time>2018-11-03T07:15:57.000Z</time>
      </trkpt>
      <trkpt lat="47.71456" lon="6.66198">
        <ele>461.28</ele>
        <time>2018-11-03T07:16:02.000Z</time>
      </trkpt>
      <trkpt lat="47.7146" lon="6.66195">
        <ele>462.41</ele>
        <time>2018-11-03T07:16:07.000Z</time>
      </trkpt>
      <trkpt lat="47.71466" lon="6.66192">
        <ele>463.55</ele>
        <time>2018-11-03T07:16:12.000Z</time>
      </trkpt>
      <trkpt lat="47.7147" lon="6.66186">
        <ele>465.07</ele>
        <time>2018-11-03T07:16:17.000Z</time>
      </trkpt>
      <trkpt lat="47.71476" lon="6.66181">
        <ele>466.58</ele>
        <time>2018-11-03T07:16:22.000Z</time>
      </trkpt>
      <trkpt lat="47.7148" lon="6.66177">
        <ele>468.1</ele>
        <time>2018-11-03T07:16:27.000Z</time>
      </trkpt>
      <trkpt lat="47.71485" lon="6.66174">
        <ele>469.41</ele>
        <time>2018-11-03T07:16:32.000Z</time>
      </trkpt>
      <trkpt lat="47.71491" lon="6.66171">
        <ele>470.73</ele>
        <time>2018-11-03T07:16:37.000Z</time>
      </trkpt>
      <trkpt lat="47.71496" lon="6.66167">
        <ele>472.05</ele>
        <time>2018-11-03T07:16:42.000Z</time>
      </trkpt>
      <trkpt lat="47.715" lon="6.66163">
        <ele>473.02</ele>
        <time>2018-11-03T07:16:47.000Z</time>
      </trkpt>
      <trkpt lat="47.71504" lon="6.66161">
        <ele>473.99</ele>
        <time>2018-11-03T07:16:52.000Z</time>
      </trkpt>
      <trkpt lat="47.71508" lon="6.66164">
        <ele>474.96</ele>
        <time>2018-11-03T07:16:57.000Z</time>
      </trkpt>
      <trkpt lat="47.71512" lon="6.66164">
        <ele>475.31</ele>
        <time>2018-11-03T07:17:02.000Z</time>
      </trkpt>
      <trkpt lat="47.71513" lon="6.66161">
        <ele>475.67</ele>
        <time>2018-11-03T07:17:07.000Z</time>
      </trkpt>
      <trkpt lat="47.71515" lon="6.6616">
        <ele>476.02</ele>
        <time>2018-11-03T07:17:12.000Z</time>
      </trkpt>
      <trkpt lat="47.71515" lon="6.66155">
        <ele>476.61</ele>
        <time>2018-11-03T07:17:17.000Z</time>
      </trkpt>
      <trkpt lat="47.71516" lon="6.66151">
        <ele>477.19</ele>
        <time>2018-11-03T07:17:22.000Z</time>
      </trkpt>
      <trkpt lat="47.71519" lon="6.6615">
        <ele>477.77</ele>
        <time>2018-11-03T07:17:27.000Z</time>
      </trkpt>
      <trkpt lat="47.71521" lon="6.66148">
        <ele>478.91</ele>
        <time>2018-11-03T07:17:32.000Z</time>
      </trkpt>
      <trkpt lat="47.71525" lon="6.66144">
        <ele>480.04</ele>
        <time>2018-11-03T07:17:37.000Z</time>
      </trkpt>
      <trkpt lat="47.71529" lon="6.66141">
        <ele>481.18</ele>
        <time>2018-11-03T07:17:42.000Z</time>
      </trkpt>
      <trkpt lat="47.71533" lon="6.66136">
        <ele>482.38</ele>
        <time>2018-11-03T07:17:47.000Z</time>
      </trkpt>
      <trkpt lat="47.71537" lon="6.66135">
        <ele>483.58</ele>
        <time>2018-11-03T07:17:52.000Z</time>
      </trkpt>
      <trkpt lat="47.71543" lon="6.66135">
        <ele>484.78</ele>
        <time>2018-11-03T07:17:57.000Z</time>
      </trkpt>
      <trkpt lat="47.71546" lon="6.66132">
        <ele>485.93</ele>
        <time>2018-11-03T07:18:02.000Z</time>
      </trkpt>
      <trkpt lat="47.71549" lon="6.66133">
        <ele>487.07</ele>
        <time>2018-11-03T07:18:07.000Z</time>
      </trkpt>
      <trkpt lat="47.71552" lon="6.66134">
        <ele>488.22</ele>
        <time>2018-11-03T07:18:12.000Z</time>
      </trkpt>
      <trkpt lat="47.71558" lon="6.66132">
        <ele>489.33</ele>
        <time>2018-11-03T07:18:17.000Z</time>
      </trkpt>
      <trkpt lat="47.71564" lon="6.66131">
        <ele>490.43</ele>
        <time>2018-11-03T07:18:22.000Z</time>
      </trkpt>
      <trkpt lat="47.71567" lon="6.66127">
        <ele>491.54</ele>
        <time>2018-11-03T07:18:27.000Z</time>
      </trkpt>
      <trkpt lat="47.71569" lon="6.66127">
        <ele>492.42</ele>
        <time>2018-11-03T07:18:32.000Z</time>
      </trkpt>
      <trkpt lat="47.71571" lon="6.66122">
        <ele>493.3</ele>
        <time>2018-11-03T07:18:37.000Z</time>
      </trkpt>
      <trkpt lat="47.71575" lon="6.66117">
        <ele>494.18</ele>
        <time>2018-11-03T07:18:42.000Z</time>
      </trkpt>
      <trkpt lat="47.71581" lon="6.66113">
        <ele>495.51</ele>
        <time>2018-11-03T07:18:47.000Z</time>
      </trkpt>
      <trkpt lat="47.71585" lon="6.66108">
        <ele>496.84</ele>
        <time>2018-11-03T07:18:52.000Z</time>
      </trkpt>
      <trkpt lat="47.7159" lon="6.66107">
        <ele>498.16</ele>
        <time>2018-11-03T07:18:57.000Z</time>
      </trkpt>
      <trkpt lat="47.71596" lon="6.66107">
        <ele>499.56</ele>
        <time>2018-11-03T07:19:02.000Z</time>
      </trkpt>
      <trkpt lat="47.71602" lon="6.66106">
        <ele>500.96</ele>
        <time>2018-11-03T07:19:07.000Z</time>
      </trkpt>
      <trkpt lat="47.71607" lon="6.66105">
        <ele>502.35</ele>
        <time>2018-11-03T07:19:12.000Z</time>
      </trkpt>
      <trkpt lat="47.71613" lon="6.66104">
        <ele>503.73</ele>
        <time>2018-11-03T07:19:17.000Z</time>
      </trkpt>
      <trkpt lat="47.71617" lon="6.66103">
        <ele>505.11</ele>
        <time>2018-11-03T07:19:22.000Z</time>
      </trkpt>
      <trkpt lat="47.71625" lon="6.66105">
        <ele>506.48</ele>
        <time>2018-11-03T07:19:27.000Z</time>
      </trkpt>
      <trkpt lat="47.71631" lon="6.66108">
        <ele>507.57</ele>
        <time>2018-11-03T07:19:32.000Z</time>
      </trkpt>
      <trkpt lat="47.71636" lon="6.66111">
        <ele>508.66</ele>
        <time>2018-11-03T07:19:37.000Z</time>
      </trkpt>
      <trkpt lat="47.71642" lon="6.66113">
        <ele>509.75</ele>
        <time>2018-11-03T07:19:42.000Z</time>
      </trkpt>
      <trkpt lat="47.71646" lon="6.66115">
        <ele>510.96</ele>
        <time>2018-11-03T07:19:47.000Z</time>
      </trkpt>
      <trkpt lat="47.71651" lon="6.66119">
        <ele>512.17</ele>
        <time>2018-11-03T07:19:52.000Z</time>
      </trkpt>
      <trkpt lat="47.71657" lon="6.66125">
        <ele>513.38</ele>
        <time>2018-11-03T07:19:57.000Z</time>
      </trkpt>
      <trkpt lat="47.71662" lon="6.66131">
        <ele>514.46</ele>
        <time>2018-11-03T07:20:02.000Z</time>
      </trkpt>
      <trkpt lat="47.71666" lon="6.66138">
        <ele>515.54</ele>
        <time>2018-11-03T07:20:07.000Z</time>
      </trkpt>
      <trkpt lat="47.71674" lon="6.66148">
        <ele>516.62</ele>
        <time>2018-11-03T07:20:12.000Z</time>
      </trkpt>
      <trkpt lat="47.71678" lon="6.66155">
        <ele>517.27</ele>
        <time>2018-11-03T07:20:17.000Z</time>
      </trkpt>
      <trkpt lat="47.71679" lon="6.66156">
        <ele>517.92</ele>
        <time>2018-11-03T07:20:22.000Z</time>
      </trkpt>
      <trkpt lat="47.71681" lon="6.6616">
        <ele>518.57</ele>
        <time>2018-11-03T07:20:27.000Z</time>
      </trkpt>
      <trkpt lat="47.71685" lon="6.66165">
        <ele>519.24</ele>
        <time>2018-11-03T07:20:32.000Z</time>
      </trkpt>
      <trkpt lat="47.71689" lon="6.6617">
        <ele>519.91</ele>
        <time>2018-11-03T07:20:37.000Z</time>
      </trkpt>
      <trkpt lat="47.71691" lon="6.66177">
        <ele>520.57</ele>
        <time>2018-11-03T07:20:42.000Z</time>
      </trkpt>
      <trkpt lat="47.71694" lon="6.66182">
        <ele>520.56</ele>
        <time>2018-11-03T07:20:47.000Z</time>
      </trkpt>
      <trkpt lat="47.71696" lon="6.66187">
        <ele>520.55</ele>
        <time>2018-11-03T07:20:52.000Z</time>
      </trkpt>
      <trkpt lat="47.71697" lon="6.66193">
        <ele>520.53</ele>
        <time>2018-11-03T07:20:57.000Z</time>
      </trkpt>
      <trkpt lat="47.71699" lon="6.66201">
        <ele>520.11</ele>
        <time>2018-11-03T07:21:02.000Z</time>
      </trkpt>
      <trkpt lat="47.71701" lon="6.66209">
        <ele>519.69</ele>
        <time>2018-11-03T07:21:07.000Z</time>
      </trkpt>
      <trkpt lat="47.71705" lon="6.66216">
        <ele>519.26</ele>
        <time>2018-11-03T07:21:12.000Z</time>
      </trkpt>
      <trkpt lat="47.71709" lon="6.66224">
        <ele>518.92</ele>
        <time>2018-11-03T07:21:17.000Z</time>
      </trkpt>
      <trkpt lat="47.71711" lon="6.6623">
        <ele>518.57</ele>
        <time>2018-11-03T07:21:22.000Z</time>
      </trkpt>
      <trkpt lat="47.71716" lon="6.66238">
        <ele>518.22</ele>
        <time>2018-11-03T07:21:27.000Z</time>
      </trkpt>
      <trkpt lat="47.71721" lon="6.66244">
        <ele>518.11</ele>
        <time>2018-11-03T07:21:32.000Z</time>
      </trkpt>
      <trkpt lat="47.71726" lon="6.6625">
        <ele>518.01</ele>
        <time>2018-11-03T07:21:37.000Z</time>
      </trkpt>
      <trkpt lat="47.71729" lon="6.66257">
        <ele>517.9</ele>
        <time>2018-11-03T07:21:42.000Z</time>
      </trkpt>
      <trkpt lat="47.71735" lon="6.66261">
        <ele>517.71</ele>
        <time>2018-11-03T07:21:47.000Z</time>
      </trkpt>
      <trkpt lat="47.71739" lon="6.66266">
        <ele>517.53</ele>
        <time>2018-11-03T07:21:52.000Z</time>
      </trkpt>
      <trkpt lat="47.71742" lon="6.66272">
        <ele>517.34</ele>
        <time>2018-11-03T07:21:57.000Z</time>
      </trkpt>
      <trkpt lat="47.71747" lon="6.66278">
        <ele>517.05</ele>
        <time>2018-11-03T07:22:02.000Z</time>
      </trkpt>
      <trkpt lat="47.7175" lon="6.66283">
        <ele>516.75</ele>
        <time>2018-11-03T07:22:07.000Z</time>
      </trkpt>
      <trkpt lat="47.71753" lon="6.6629">
        <ele>516.46</ele>
        <time>2018-11-03T07:22:12.000Z</time>
      </trkpt>
      <trkpt lat="47.71757" lon="6.66295">
        <ele>516.43</ele>
        <time>2018-11-03T07:22:17.000Z</time>
      </trkpt>
      <trkpt lat="47.71764" lon="6.66299">
        <ele>516.39</ele>
        <time>2018-11-03T07:22:22.000Z</time>
      </trkpt>
      <trkpt lat="47.71769" lon="6.66303">
        <ele>516.36</ele>
        <time>2018-11-03T07:22:27.000Z</time>
      </trkpt>
      <trkpt lat="47.71772" lon="6.66307">
        <ele>516.27</ele>
        <time>2018-11-03T07:22:32.000Z</time>
      </trkpt>
      <trkpt lat="47.71773" lon="6.66309">
        <ele>516.19</ele>
        <time>2018-11-03T07:22:37.000Z</time>
      </trkpt>
      <trkpt lat="47.71775" lon="6.66312">
        <ele>516.11</ele>
        <time>2018-11-03T07:22:42.000Z</time>
      </trkpt>
      <trkpt lat="47.71777" lon="6.66313">
        <ele>516.74</ele>
        <time>2018-11-03T07:22:47.000Z</time>
      </trkpt>
      <trkpt lat="47.71778" lon="6.6631">
        <ele>517.36</ele>
        <time>2018-11-03T07:22:52.000Z</time>
      </trkpt>
      <trkpt lat="47.71781" lon="6.66306">
        <ele>517.99</ele>
        <time>2018-11-03T07:22:57.000Z</time>
      </trkpt>
      <trkpt lat="47.71785" lon="6.66302">
        <ele>518.37</ele>
        <time>2018-11-03T07:23:02.000Z</time>
      </trkpt>
      <trkpt lat="47.7179" lon="6.66299">
        <ele>518.76</ele>
        <time>2018-11-03T07:23:07.000Z</time>
      </trkpt>
      <trkpt lat="47.71791" lon="6.66298">
        <ele>519.14</ele>
        <time>2018-11-03T07:23:12.000Z</time>
      </trkpt>
      <trkpt lat="47.71794" lon="6.66297">
        <ele>519.47</ele>
        <time>2018-11-03T07:23:17.000Z</time>
      </trkpt>
      <trkpt lat="47.71796" lon="6.66297">
        <ele>519.8</ele>
        <time>2018-11-03T07:23:22.000Z</time>
      </trkpt>
      <trkpt lat="47.71799" lon="6.66294">
        <ele>520.13</ele>
        <time>2018-11-03T07:23:27.000Z</time>
      </trkpt>
      <trkpt lat="47.71801" lon="6.66293">
        <ele>520.81</ele>
        <time>2018-11-03T07:23:32.000Z</time>
      </trkpt>
      <trkpt lat="47.71804" lon="6.66293">
        <ele>521.49</ele>
        <time>2018-11-03T07:23:37.000Z</time>
      </trkpt>
      <trkpt lat="47.71804" lon="6.66286">
        <ele>522.16</ele>
        <time>2018-11-03T07:23:42.000Z</time>
      </trkpt>
      <trkpt lat="47.71805" lon="6.66279">
        <ele>523.12</ele>
        <time>2018-11-03T07:23:47.000Z</time>
      </trkpt>
      <trkpt lat="47.71807" lon="6.66273">
        <ele>524.08</ele>
        <time>2018-11-03T07:23:52.000Z</time>
      </trkpt>
      <trkpt lat="47.71811" lon="6.66269">
        <ele>525.04</ele>
        <time>2018-11-03T07:23:57.000Z</time>
      </trkpt>
      <trkpt lat="47.71816" lon="6.66264">
        <ele>526.01</ele>
        <time>2018-11-03T07:24:02.000Z</time>
      </trkpt>
      <trkpt lat="47.71821" lon="6.66263">
        <ele>526.98</ele>
        <time>2018-11-03T07:24:07.000Z</time>
      </trkpt>
      <trkpt lat="47.71825" lon="6.66258">
        <ele>527.96</ele>
        <time>2018-11-03T07:24:12.000Z</time>
      </trkpt>
      <trkpt lat="47.71829" lon="6.66253">
        <ele>529.04</ele>
        <time>2018-11-03T07:24:17.000Z</time>
      </trkpt>
      <trkpt lat="47.71831" lon="6.66248">
        <ele>530.13</ele>
        <time>2018-11-03T07:24:22.000Z</time>
      </trkpt>
      <trkpt lat="47.71837" lon="6.66245">
        <ele>531.21</ele>
        <time>2018-11-03T07:24:27.000Z</time>
      </trkpt>
      <trkpt lat="47.71839" lon="6.66239">
        <ele>533.18</ele>
        <time>2018-11-03T07:24:32.000Z</time>
      </trkpt>
      <trkpt lat="47.71841" lon="6.66231">
        <ele>535.16</ele>
        <time>2018-11-03T07:24:37.000Z</time>
      </trkpt>
      <trkpt lat="47.71845" lon="6.66224">
        <ele>537.13</ele>
        <time>2018-11-03T07:24:42.000Z</time>
      </trkpt>
      <trkpt lat="47.71849" lon="6.66218">
        <ele>538.78</ele>
        <time>2018-11-03T07:24:47.000Z</time>
      </trkpt>
      <trkpt lat="47.71853" lon="6.66213">
        <ele>540.44</ele>
        <time>2018-11-03T07:24:52.000Z</time>
      </trkpt>
      <trkpt lat="47.71858" lon="6.66209">
        <ele>542.09</ele>
        <time>2018-11-03T07:24:57.000Z</time>
      </trkpt>
      <trkpt lat="47.71862" lon="6.66206">
        <ele>543.91</ele>
        <time>2018-11-03T07:25:02.000Z</time>
      </trkpt>
      <trkpt lat="47.71868" lon="6.66203">
        <ele>545.73</ele>
        <time>2018-11-03T07:25:07.000Z</time>
      </trkpt>
      <trkpt lat="47.71873" lon="6.66201">
        <ele>547.55</ele>
        <time>2018-11-03T07:25:12.000Z</time>
      </trkpt>
      <trkpt lat="47.71878" lon="6.66194">
        <ele>548.87</ele>
        <time>2018-11-03T07:25:17.000Z</time>
      </trkpt>
      <trkpt lat="47.7188" lon="6.6619">
        <ele>550.2</ele>
        <time>2018-11-03T07:25:22.000Z</time>
      </trkpt>
      <trkpt lat="47.71882" lon="6.66183">
        <ele>551.53</ele>
        <time>2018-11-03T07:25:27.000Z</time>
      </trkpt>
      <trkpt lat="47.71884" lon="6.66178">
        <ele>552.88</ele>
        <time>2018-11-03T07:25:32.000Z</time>
      </trkpt>
      <trkpt lat="47.71885" lon="6.66167">
        <ele>554.23</ele>
        <time>2018-11-03T07:25:37.000Z</time>
      </trkpt>
      <trkpt lat="47.71888" lon="6.6616">
        <ele>555.58</ele>
        <time>2018-11-03T07:25:42.000Z</time>
      </trkpt>
      <trkpt lat="47.71888" lon="6.66156">
        <ele>556.48</ele>
        <time>2018-11-03T07:25:47.000Z</time>
      </trkpt>
      <trkpt lat="47.71889" lon="6.66148">
        <ele>557.39</ele>
        <time>2018-11-03T07:25:52.000Z</time>
      </trkpt>
      <trkpt lat="47.71889" lon="6.66141">
        <ele>558.29</ele>
        <time>2018-11-03T07:25:57.000Z</time>
      </trkpt>
      <trkpt lat="47.71888" lon="6.66132">
        <ele>559.24</ele>
        <time>2018-11-03T07:26:02.000Z</time>
      </trkpt>
      <trkpt lat="47.7189" lon="6.66127">
        <ele>560.2</ele>
        <time>2018-11-03T07:26:07.000Z</time>
      </trkpt>
      <trkpt lat="47.71895" lon="6.66121">
        <ele>561.15</ele>
        <time>2018-11-03T07:26:12.000Z</time>
      </trkpt>
      <trkpt lat="47.71899" lon="6.66115">
        <ele>561.96</ele>
        <time>2018-11-03T07:26:17.000Z</time>
      </trkpt>
      <trkpt lat="47.71901" lon="6.66109">
        <ele>562.78</ele>
        <time>2018-11-03T07:26:22.000Z</time>
      </trkpt>
      <trkpt lat="47.71905" lon="6.66104">
        <ele>563.6</ele>
        <time>2018-11-03T07:26:27.000Z</time>
      </trkpt>
      <trkpt lat="47.7191" lon="6.66099">
        <ele>564.37</ele>
        <time>2018-11-03T07:26:32.000Z</time>
      </trkpt>
      <trkpt lat="47.71914" lon="6.66095">
        <ele>565.14</ele>
        <time>2018-11-03T07:26:37.000Z</time>
      </trkpt>
      <trkpt lat="47.71918" lon="6.6609">
        <ele>565.92</ele>
        <time>2018-11-03T07:26:42.000Z</time>
      </trkpt>
      <trkpt lat="47.71923" lon="6.66085">
        <ele>566.62</ele>
        <time>2018-11-03T07:26:47.000Z</time>
      </trkpt>
      <trkpt lat="47.71928" lon="6.6608">
        <ele>567.32</ele>
        <time>2018-11-03T07:26:52.000Z</time>
      </trkpt>
      <trkpt lat="47.71932" lon="6.66076">
        <ele>568.03</ele>
        <time>2018-11-03T07:26:57.000Z</time>
      </trkpt>
      <trkpt lat="47.71937" lon="6.66073">
        <ele>568.78</ele>
        <time>2018-11-03T07:27:02.000Z</time>
      </trkpt>
      <trkpt lat="47.71941" lon="6.66069">
        <ele>569.53</ele>
        <time>2018-11-03T07:27:07.000Z</time>
      </trkpt>
      <trkpt lat="47.71948" lon="6.66067">
        <ele>570.28</ele>
        <time>2018-11-03T07:27:12.000Z</time>
      </trkpt>
      <trkpt lat="47.71954" lon="6.66065">
        <ele>571.04</ele>
        <time>2018-11-03T07:27:17.000Z</time>
      </trkpt>
      <trkpt lat="47.71959" lon="6.66061">
        <ele>571.8</ele>
        <time>2018-11-03T07:27:22.000Z</time>
      </trkpt>
      <trkpt lat="47.71966" lon="6.66055">
        <ele>572.57</ele>
        <time>2018-11-03T07:27:27.000Z</time>
      </trkpt>
      <trkpt lat="47.7197" lon="6.66051">
        <ele>573.28</ele>
        <time>2018-11-03T07:27:32.000Z</time>
      </trkpt>
      <trkpt lat="47.71976" lon="6.66045">
        <ele>573.99</ele>
        <time>2018-11-03T07:27:37.000Z</time>
      </trkpt>
      <trkpt lat="47.71983" lon="6.66041">
        <ele>574.7</ele>
        <time>2018-11-03T07:27:42.000Z</time>
      </trkpt>
      <trkpt lat="47.71986" lon="6.66037">
        <ele>575.09</ele>
        <time>2018-11-03T07:27:47.000Z</time>
      </trkpt>
      <trkpt lat="47.71993" lon="6.66033">
        <ele>575.48</ele>
        <time>2018-11-03T07:27:52.000Z</time>
      </trkpt>
      <trkpt lat="47.72004" lon="6.66036">
        <ele>575.87</ele>
        <time>2018-11-03T07:27:57.000Z</time>
      </trkpt>
      <trkpt lat="47.72011" lon="6.66035">
        <ele>576.01</ele>
        <time>2018-11-03T07:28:02.000Z</time>
      </trkpt>
      <trkpt lat="47.72017" lon="6.66035">
        <ele>576.15</ele>
        <time>2018-11-03T07:28:07.000Z</time>
      </trkpt>
      <trkpt lat="47.72021" lon="6.66035">
        <ele>576.3</ele>
        <time>2018-11-03T07:28:12.000Z</time>
      </trkpt>
      <trkpt lat="47.72028" lon="6.66037">
        <ele>576.42</ele>
        <time>2018-11-03T07:28:17.000Z</time>
      </trkpt>
      <trkpt lat="47.7203" lon="6.66037">
        <ele>576.54</ele>
        <time>2018-11-03T07:28:22.000Z</time>
      </trkpt>
      <trkpt lat="47.72034" lon="6.66034">
        <ele>576.66</ele>
        <time>2018-11-03T07:28:27.000Z</time>
      </trkpt>
      <trkpt lat="47.72039" lon="6.66033">
        <ele>576.74</ele>
        <time>2018-11-03T07:28:32.000Z</time>
      </trkpt>
      <trkpt lat="47.72044" lon="6.66034">
        <ele>576.81</ele>
        <time>2018-11-03T07:28:37.000Z</time>
      </trkpt>
      <trkpt lat="47.72046" lon="6.66038">
        <ele>576.89</ele>
        <time>2018-11-03T07:28:42.000Z</time>
      </trkpt>
      <trkpt lat="47.7205" lon="6.66042">
        <ele>577.03</ele>
        <time>2018-11-03T07:28:47.000Z</time>
      </trkpt>
      <trkpt lat="47.72055" lon="6.66047">
        <ele>577.18</ele>
        <time>2018-11-03T07:28:52.000Z</time>
      </trkpt>
      <trkpt lat="47.72057" lon="6.66056">
        <ele>577.33</ele>
        <time>2018-11-03T07:28:57.000Z</time>
      </trkpt>
      <trkpt lat="47.72062" lon="6.66059">
        <ele>577.78</ele>
        <time>2018-11-03T07:29:02.000Z</time>
      </trkpt>
      <trkpt lat="47.7207" lon="6.66059">
        <ele>578.24</ele>
        <time>2018-11-03T07:29:07.000Z</time>
      </trkpt>
      <trkpt lat="47.72076" lon="6.66064">
        <ele>578.7</ele>
        <time>2018-11-03T07:29:12.000Z</time>
      </trkpt>
      <trkpt lat="47.72084" lon="6.6607">
        <ele>579.41</ele>
        <time>2018-11-03T07:29:17.000Z</time>
      </trkpt>
      <trkpt lat="47.72091" lon="6.66076">
        <ele>580.11</ele>
        <time>2018-11-03T07:29:22.000Z</time>
      </trkpt>
      <trkpt lat="47.721" lon="6.66079">
        <ele>580.81</ele>
        <time>2018-11-03T07:29:27.000Z</time>
      </trkpt>
      <trkpt lat="47.7211" lon="6.66083">
        <ele>581.6</ele>
        <time>2018-11-03T07:29:32.000Z</time>
      </trkpt>
      <trkpt lat="47.72118" lon="6.66089">
        <ele>582.39</ele>
        <time>2018-11-03T07:29:37.000Z</time>
      </trkpt>
      <trkpt lat="47.72128" lon="6.66094">
        <ele>583.18</ele>
        <time>2018-11-03T07:29:42.000Z</time>
      </trkpt>
      <trkpt lat="47.72136" lon="6.66101">
        <ele>584.02</ele>
        <time>2018-11-03T07:29:47.000Z</time>
      </trkpt>
      <trkpt lat="47.72145" lon="6.66109">
        <ele>584.86</ele>
        <time>2018-11-03T07:29:52.000Z</time>
      </trkpt>
      <trkpt lat="47.72153" lon="6.66117">
        <ele>585.7</ele>
        <time>2018-11-03T07:29:57.000Z</time>
      </trkpt>
      <trkpt lat="47.72161" lon="6.66125">
        <ele>586.9</ele>
        <time>2018-11-03T07:30:02.000Z</time>
      </trkpt>
      <trkpt lat="47.72164" lon="6.66135">
        <ele>588.1</ele>
        <time>2018-11-03T07:30:07.000Z</time>
      </trkpt>
      <trkpt lat="47.72171" lon="6.66149">
        <ele>589.31</ele>
        <time>2018-11-03T07:30:12.000Z</time>
      </trkpt>
      <trkpt lat="47.72184" lon="6.66163">
        <ele>591.47</ele>
        <time>2018-11-03T07:30:17.000Z</time>
      </trkpt>
      <trkpt lat="47.72193" lon="6.6618">
        <ele>593.63</ele>
        <time>2018-11-03T07:30:22.000Z</time>
      </trkpt>
      <trkpt lat="47.722" lon="6.66195">
        <ele>595.79</ele>
        <time>2018-11-03T07:30:27.000Z</time>
      </trkpt>
      <trkpt lat="47.72208" lon="6.66211">
        <ele>598.28</ele>
        <time>2018-11-03T07:30:32.000Z</time>
      </trkpt>
      <trkpt lat="47.72214" lon="6.66223">
        <ele>600.76</ele>
        <time>2018-11-03T07:30:37.000Z</time>
      </trkpt>
      <trkpt lat="47.72224" lon="6.66238">
        <ele>603.25</ele>
        <time>2018-11-03T07:30:42.000Z</time>
      </trkpt>
      <trkpt lat="47.72229" lon="6.66253">
        <ele>605.04</ele>
        <time>2018-11-03T07:30:47.000Z</time>
      </trkpt>
      <trkpt lat="47.72232" lon="6.66262">
        <ele>606.84</ele>
        <time>2018-11-03T07:30:52.000Z</time>
      </trkpt>
      <trkpt lat="47.72237" lon="6.66271">
        <ele>608.63</ele>
        <time>2018-11-03T07:30:57.000Z</time>
      </trkpt>
      <trkpt lat="47.7224" lon="6.6628">
        <ele>610.54</ele>
        <time>2018-11-03T07:31:02.000Z</time>
      </trkpt>
      <trkpt lat="47.72244" lon="6.66289">
        <ele>612.44</ele>
        <time>2018-11-03T07:31:07.000Z</time>
      </trkpt>
      <trkpt lat="47.72248" lon="6.66296">
        <ele>614.35</ele>
        <time>2018-11-03T07:31:12.000Z</time>
      </trkpt>
      <trkpt lat="47.72252" lon="6.66302">
        <ele>615.12</ele>
        <time>2018-11-03T07:31:17.000Z</time>
      </trkpt>
      <trkpt lat="47.72254" lon="6.66309">
        <ele>615.9</ele>
        <time>2018-11-03T07:31:22.000Z</time>
      </trkpt>
      <trkpt lat="47.72255" lon="6.66314">
        <ele>616.68</ele>
        <time>2018-11-03T07:31:27.000Z</time>
      </trkpt>
      <trkpt lat="47.72257" lon="6.66322">
        <ele>617.25</ele>
        <time>2018-11-03T07:31:32.000Z</time>
      </trkpt>
      <trkpt lat="47.72261" lon="6.66327">
        <ele>617.82</ele>
        <time>2018-11-03T07:31:37.000Z</time>
      </trkpt>
      <trkpt lat="47.72262" lon="6.66334">
        <ele>618.39</ele>
        <time>2018-11-03T07:31:42.000Z</time>
      </trkpt>
      <trkpt lat="47.72263" lon="6.66342">
        <ele>619.09</ele>
        <time>2018-11-03T07:31:47.000Z</time>
      </trkpt>
      <trkpt lat="47.72265" lon="6.66349">
        <ele>619.78</ele>
        <time>2018-11-03T07:31:52.000Z</time>
      </trkpt>
      <trkpt lat="47.72269" lon="6.66357">
        <ele>620.47</ele>
        <time>2018-11-03T07:31:57.000Z</time>
      </trkpt>
      <trkpt lat="47.72272" lon="6.66364">
        <ele>620.98</ele>
        <time>2018-11-03T07:32:02.000Z</time>
      </trkpt>
      <trkpt lat="47.72276" lon="6.66371">
        <ele>621.49</ele>
        <time>2018-11-03T07:32:07.000Z</time>
      </trkpt>
      <trkpt lat="47.72279" lon="6.66378">
        <ele>622</ele>
        <time>2018-11-03T07:32:12.000Z</time>
      </trkpt>
      <trkpt lat="47.72282" lon="6.66386">
        <ele>622.24</ele>
        <time>2018-11-03T07:32:17.000Z</time>
      </trkpt>
      <trkpt lat="47.72282" lon="6.66395">
        <ele>622.48</ele>
        <time>2018-11-03T07:32:22.000Z</time>
      </trkpt>
      <trkpt lat="47.72286" lon="6.66404">
        <ele>622.71</ele>
        <time>2018-11-03T07:32:27.000Z</time>
      </trkpt>
      <trkpt lat="47.7229" lon="6.66413">
        <ele>622.8</ele>
        <time>2018-11-03T07:32:32.000Z</time>
      </trkpt>
      <trkpt lat="47.72293" lon="6.6642">
        <ele>622.89</ele>
        <time>2018-11-03T07:32:37.000Z</time>
      </trkpt>
      <trkpt lat="47.72295" lon="6.66429">
        <ele>622.98</ele>
        <time>2018-11-03T07:32:42.000Z</time>
      </trkpt>
      <trkpt lat="47.72298" lon="6.66439">
        <ele>623.1</ele>
        <time>2018-11-03T07:32:47.000Z</time>
      </trkpt>
      <trkpt lat="47.72302" lon="6.66453">
        <ele>623.22</ele>
        <time>2018-11-03T07:32:52.000Z</time>
      </trkpt>
      <trkpt lat="47.72306" lon="6.66469">
        <ele>623.34</ele>
        <time>2018-11-03T07:32:57.000Z</time>
      </trkpt>
      <trkpt lat="47.72311" lon="6.66481">
        <ele>623.56</ele>
        <time>2018-11-03T07:33:02.000Z</time>
      </trkpt>
      <trkpt lat="47.72317" lon="6.66492">
        <ele>623.77</ele>
        <time>2018-11-03T07:33:07.000Z</time>
      </trkpt>
      <trkpt lat="47.72325" lon="6.66502">
        <ele>623.98</ele>
        <time>2018-11-03T07:33:12.000Z</time>
      </trkpt>
      <trkpt lat="47.7233" lon="6.66515">
        <ele>621.87</ele>
        <time>2018-11-03T07:33:17.000Z</time>
      </trkpt>
      <trkpt lat="47.72336" lon="6.66537">
        <ele>619.77</ele>
        <time>2018-11-03T07:33:22.000Z</time>
      </trkpt>
      <trkpt lat="47.72339" lon="6.66563">
        <ele>617.67</ele>
        <time>2018-11-03T07:33:27.000Z</time>
      </trkpt>
      <trkpt lat="47.72348" lon="6.66599">
        <ele>616.84</ele>
        <time>2018-11-03T07:33:32.000Z</time>
      </trkpt>
      <trkpt lat="47.72361" lon="6.66635">
        <ele>616.01</ele>
        <time>2018-11-03T07:33:37.000Z</time>
      </trkpt>
      <trkpt lat="47.72378" lon="6.66662">
        <ele>615.18</ele>
        <time>2018-11-03T07:33:42.000Z</time>
      </trkpt>
      <trkpt lat="47.72398" lon="6.66688">
        <ele>615.3</ele>
        <time>2018-11-03T07:33:47.000Z</time>
      </trkpt>
      <trkpt lat="47.72423" lon="6.66721">
        <ele>615.42</ele>
        <time>2018-11-03T07:33:52.000Z</time>
      </trkpt>
      <trkpt lat="47.72432" lon="6.66768">
        <ele>615.54</ele>
        <time>2018-11-03T07:33:57.000Z</time>
      </trkpt>
      <trkpt lat="47.72437" lon="6.66798">
        <ele>615.73</ele>
        <time>2018-11-03T07:34:02.000Z</time>
      </trkpt>
      <trkpt lat="47.72441" lon="6.66814">
        <ele>615.93</ele>
        <time>2018-11-03T07:34:07.000Z</time>
      </trkpt>
      <trkpt lat="47.72445" lon="6.66824">
        <ele>616.12</ele>
        <time>2018-11-03T07:34:12.000Z</time>
      </trkpt>
      <trkpt lat="47.72448" lon="6.66832">
        <ele>616.26</ele>
        <time>2018-11-03T07:34:17.000Z</time>
      </trkpt>
      <trkpt lat="47.7245" lon="6.66842">
        <ele>616.4</ele>
        <time>2018-11-03T07:34:22.000Z</time>
      </trkpt>
      <trkpt lat="47.72453" lon="6.6685">
        <ele>616.55</ele>
        <time>2018-11-03T07:34:27.000Z</time>
      </trkpt>
      <trkpt lat="47.72454" lon="6.66859">
        <ele>616.31</ele>
        <time>2018-11-03T07:34:32.000Z</time>
      </trkpt>
      <trkpt lat="47.72453" lon="6.66866">
        <ele>616.08</ele>
        <time>2018-11-03T07:34:37.000Z</time>
      </trkpt>
      <trkpt lat="47.72457" lon="6.66875">
        <ele>615.85</ele>
        <time>2018-11-03T07:34:42.000Z</time>
      </trkpt>
      <trkpt lat="47.7246" lon="6.66882">
        <ele>615.18</ele>
        <time>2018-11-03T07:34:47.000Z</time>
      </trkpt>
      <trkpt lat="47.72463" lon="6.6689">
        <ele>614.52</ele>
        <time>2018-11-03T07:34:52.000Z</time>
      </trkpt>
      <trkpt lat="47.72464" lon="6.669">
        <ele>613.86</ele>
        <time>2018-11-03T07:34:57.000Z</time>
      </trkpt>
      <trkpt lat="47.72463" lon="6.6691">
        <ele>613.42</ele>
        <time>2018-11-03T07:35:02.000Z</time>
      </trkpt>
      <trkpt lat="47.72462" lon="6.66922">
        <ele>612.98</ele>
        <time>2018-11-03T07:35:07.000Z</time>
      </trkpt>
      <trkpt lat="47.72463" lon="6.66934">
        <ele>612.54</ele>
        <time>2018-11-03T07:35:12.000Z</time>
      </trkpt>
      <trkpt lat="47.7246" lon="6.66946">
        <ele>612.42</ele>
        <time>2018-11-03T07:35:17.000Z</time>
      </trkpt>
      <trkpt lat="47.72461" lon="6.66957">
        <ele>612.3</ele>
        <time>2018-11-03T07:35:22.000Z</time>
      </trkpt>
      <trkpt lat="47.72462" lon="6.66967">
        <ele>612.18</ele>
        <time>2018-11-03T07:35:27.000Z</time>
      </trkpt>
      <trkpt lat="47.72463" lon="6.6698">
        <ele>612.15</ele>
        <time>2018-11-03T07:35:32.000Z</time>
      </trkpt>
      <trkpt lat="47.72462" lon="6.66996">
        <ele>612.12</ele>
        <time>2018-11-03T07:35:37.000Z</time>
      </trkpt>
      <trkpt lat="47.72464" lon="6.67009">
        <ele>612.09</ele>
        <time>2018-11-03T07:35:42.000Z</time>
      </trkpt>
      <trkpt lat="47.72465" lon="6.67023">
        <ele>612</ele>
        <time>2018-11-03T07:35:47.000Z</time>
      </trkpt>
      <trkpt lat="47.72465" lon="6.67038">
        <ele>611.91</ele>
        <time>2018-11-03T07:35:52.000Z</time>
      </trkpt>
      <trkpt lat="47.72466" lon="6.67055">
        <ele>611.82</ele>
        <time>2018-11-03T07:35:57.000Z</time>
      </trkpt>
      <trkpt lat="47.72465" lon="6.6707">
        <ele>611.7</ele>
        <time>2018-11-03T07:36:02.000Z</time>
      </trkpt>
      <trkpt lat="47.72464" lon="6.67084">
        <ele>611.58</ele>
        <time>2018-11-03T07:36:07.000Z</time>
      </trkpt>
      <trkpt lat="47.72463" lon="6.67096">
        <ele>611.46</ele>
        <time>2018-11-03T07:36:12.000Z</time>
      </trkpt>
      <trkpt lat="47.72461" lon="6.67108">
        <ele>611.03</ele>
        <time>2018-11-03T07:36:17.000Z</time>
      </trkpt>
      <trkpt lat="47.72458" lon="6.67124">
        <ele>610.61</ele>
        <time>2018-11-03T07:36:22.000Z</time>
      </trkpt>
      <trkpt lat="47.72459" lon="6.6714">
        <ele>610.18</ele>
        <time>2018-11-03T07:36:27.000Z</time>
      </trkpt>
      <trkpt lat="47.72462" lon="6.67153">
        <ele>609.61</ele>
        <time>2018-11-03T07:36:32.000Z</time>
      </trkpt>
      <trkpt lat="47.72465" lon="6.67167">
        <ele>609.04</ele>
        <time>2018-11-03T07:36:37.000Z</time>
      </trkpt>
      <trkpt lat="47.72467" lon="6.67184">
        <ele>608.47</ele>
        <time>2018-11-03T07:36:42.000Z</time>
      </trkpt>
      <trkpt lat="47.72469" lon="6.67199">
        <ele>608.24</ele>
        <time>2018-11-03T07:36:47.000Z</time>
      </trkpt>
      <trkpt lat="47.7247" lon="6.67215">
        <ele>608.02</ele>
        <time>2018-11-03T07:36:52.000Z</time>
      </trkpt>
      <trkpt lat="47.72469" lon="6.67234">
        <ele>607.79</ele>
        <time>2018-11-03T07:36:57.000Z</time>
      </trkpt>
      <trkpt lat="47.72467" lon="6.67254">
        <ele>607.75</ele>
        <time>2018-11-03T07:37:02.000Z</time>
      </trkpt>
      <trkpt lat="47.72464" lon="6.6728">
        <ele>607.7</ele>
        <time>2018-11-03T07:37:07.000Z</time>
      </trkpt>
      <trkpt lat="47.72463" lon="6.67303">
        <ele>607.65</ele>
        <time>2018-11-03T07:37:12.000Z</time>
      </trkpt>
      <trkpt lat="47.72462" lon="6.67332">
        <ele>609.21</ele>
        <time>2018-11-03T07:37:17.000Z</time>
      </trkpt>
      <trkpt lat="47.72472" lon="6.67367">
        <ele>610.76</ele>
        <time>2018-11-03T07:37:22.000Z</time>
      </trkpt>
      <trkpt lat="47.72477" lon="6.67401">
        <ele>612.31</ele>
        <time>2018-11-03T07:37:27.000Z</time>
      </trkpt>
      <trkpt lat="47.72478" lon="6.67434">
        <ele>610.25</ele>
        <time>2018-11-03T07:37:32.000Z</time>
      </trkpt>
      <trkpt lat="47.72476" lon="6.67476">
        <ele>608.18</ele>
        <time>2018-11-03T07:37:37.000Z</time>
      </trkpt>
      <trkpt lat="47.72483" lon="6.67525">
        <ele>606.12</ele>
        <time>2018-11-03T07:37:42.000Z</time>
      </trkpt>
      <trkpt lat="47.72498" lon="6.67587">
        <ele>606.13</ele>
        <time>2018-11-03T07:37:47.000Z</time>
      </trkpt>
      <trkpt lat="47.72511" lon="6.67625">
        <ele>606.15</ele>
        <time>2018-11-03T07:37:52.000Z</time>
      </trkpt>
      <trkpt lat="47.72526" lon="6.67652">
        <ele>606.16</ele>
        <time>2018-11-03T07:37:57.000Z</time>
      </trkpt>
      <trkpt lat="47.72536" lon="6.67665">
        <ele>607.35</ele>
        <time>2018-11-03T07:38:02.000Z</time>
      </trkpt>
      <trkpt lat="47.72546" lon="6.67675">
        <ele>608.54</ele>
        <time>2018-11-03T07:38:07.000Z</time>
      </trkpt>
      <trkpt lat="47.72554" lon="6.67685">
        <ele>609.73</ele>
        <time>2018-11-03T07:38:12.000Z</time>
      </trkpt>
      <trkpt lat="47.72562" lon="6.67694">
        <ele>611.22</ele>
        <time>2018-11-03T07:38:17.000Z</time>
      </trkpt>
      <trkpt lat="47.72569" lon="6.67701">
        <ele>612.71</ele>
        <time>2018-11-03T07:38:22.000Z</time>
      </trkpt>
      <trkpt lat="47.72577" lon="6.67706">
        <ele>614.2</ele>
        <time>2018-11-03T07:38:27.000Z</time>
      </trkpt>
      <trkpt lat="47.72583" lon="6.6771">
        <ele>615.08</ele>
        <time>2018-11-03T07:38:32.000Z</time>
      </trkpt>
      <trkpt lat="47.7259" lon="6.67715">
        <ele>615.95</ele>
        <time>2018-11-03T07:38:37.000Z</time>
      </trkpt>
      <trkpt lat="47.72592" lon="6.67719">
        <ele>616.82</ele>
        <time>2018-11-03T07:38:42.000Z</time>
      </trkpt>
      <trkpt lat="47.72597" lon="6.67724">
        <ele>617.8</ele>
        <time>2018-11-03T07:38:47.000Z</time>
      </trkpt>
      <trkpt lat="47.72602" lon="6.67728">
        <ele>618.77</ele>
        <time>2018-11-03T07:38:52.000Z</time>
      </trkpt>
      <trkpt lat="47.72608" lon="6.67731">
        <ele>619.75</ele>
        <time>2018-11-03T07:38:57.000Z</time>
      </trkpt>
      <trkpt lat="47.72613" lon="6.67733">
        <ele>619.94</ele>
        <time>2018-11-03T07:39:02.000Z</time>
      </trkpt>
      <trkpt lat="47.72614" lon="6.67733">
        <ele>620.14</ele>
        <time>2018-11-03T07:39:07.000Z</time>
      </trkpt>
      <trkpt lat="47.72614" lon="6.67734">
        <ele>620.34</ele>
        <time>2018-11-03T07:39:12.000Z</time>
      </trkpt>
      <trkpt lat="47.72615" lon="6.67735">
        <ele>620.71</ele>
        <time>2018-11-03T07:39:17.000Z</time>
      </trkpt>
      <trkpt lat="47.72619" lon="6.67737">
        <ele>621.08</ele>
        <time>2018-11-03T07:39:22.000Z</time>
      </trkpt>
      <trkpt lat="47.72623" lon="6.67741">
        <ele>621.45</ele>
        <time>2018-11-03T07:39:27.000Z</time>
      </trkpt>
      <trkpt lat="47.72631" lon="6.67748">
        <ele>621.44</ele>
        <time>2018-11-03T07:39:32.000Z</time>
      </trkpt>
      <trkpt lat="47.72637" lon="6.67751">
        <ele>621.44</ele>
        <time>2018-11-03T07:39:37.000Z</time>
      </trkpt>
      <trkpt lat="47.72642" lon="6.67754">
        <ele>621.43</ele>
        <time>2018-11-03T07:39:42.000Z</time>
      </trkpt>
      <trkpt lat="47.72649" lon="6.67759">
        <ele>621.96</ele>
        <time>2018-11-03T07:39:47.000Z</time>
      </trkpt>
      <trkpt lat="47.72656" lon="6.67764">
        <ele>622.49</ele>
        <time>2018-11-03T07:39:52.000Z</time>
      </trkpt>
      <trkpt lat="47.72663" lon="6.67769">
        <ele>623.02</ele>
        <time>2018-11-03T07:39:57.000Z</time>
      </trkpt>
      <trkpt lat="47.72677" lon="6.67776">
        <ele>623.38</ele>
        <time>2018-11-03T07:40:02.000Z</time>
      </trkpt>
      <trkpt lat="47.72684" lon="6.67786">
        <ele>623.75</ele>
        <time>2018-11-03T07:40:07.000Z</time>
      </trkpt>
      <trkpt lat="47.7269" lon="6.67803">
        <ele>624.11</ele>
        <time>2018-11-03T07:40:12.000Z</time>
      </trkpt>
      <trkpt lat="47.72691" lon="6.67819">
        <ele>624.75</ele>
        <time>2018-11-03T07:40:17.000Z</time>
      </trkpt>
      <trkpt lat="47.72698" lon="6.67828">
        <ele>625.39</ele>
        <time>2018-11-03T07:40:22.000Z</time>
      </trkpt>
      <trkpt lat="47.72704" lon="6.67825">
        <ele>626.03</ele>
        <time>2018-11-03T07:40:27.000Z</time>
      </trkpt>
      <trkpt lat="47.72711" lon="6.67821">
        <ele>626.52</ele>
        <time>2018-11-03T07:40:32.000Z</time>
      </trkpt>
      <trkpt lat="47.72719" lon="6.67822">
        <ele>627.01</ele>
        <time>2018-11-03T07:40:37.000Z</time>
      </trkpt>
      <trkpt lat="47.72723" lon="6.67823">
        <ele>627.5</ele>
        <time>2018-11-03T07:40:42.000Z</time>
      </trkpt>
      <trkpt lat="47.72724" lon="6.67824">
        <ele>627.53</ele>
        <time>2018-11-03T07:40:47.000Z</time>
      </trkpt>
      <trkpt lat="47.72725" lon="6.67825">
        <ele>627.57</ele>
        <time>2018-11-03T07:40:52.000Z</time>
      </trkpt>
      <trkpt lat="47.72724" lon="6.67826">
        <ele>627.6</ele>
        <time>2018-11-03T07:40:57.000Z</time>
      </trkpt>
      <trkpt lat="47.72725" lon="6.67826">
        <ele>627.89</ele>
        <time>2018-11-03T07:41:02.000Z</time>
      </trkpt>
      <trkpt lat="47.72725" lon="6.67826">
        <ele>628.17</ele>
        <time>2018-11-03T07:41:07.000Z</time>
      </trkpt>
      <trkpt lat="47.72726" lon="6.67826">
        <ele>628.45</ele>
        <time>2018-11-03T07:41:12.000Z</time>
      </trkpt>
      <trkpt lat="47.72731" lon="6.67833">
        <ele>629.55</ele>
        <time>2018-11-03T07:41:17.000Z</time>
      </trkpt>
      <trkpt lat="47.72738" lon="6.6784">
        <ele>630.66</ele>
        <time>2018-11-03T07:41:22.000Z</time>
      </trkpt>
      <trkpt lat="47.72747" lon="6.67846">
        <ele>631.76</ele>
        <time>2018-11-03T07:41:27.000Z</time>
      </trkpt>
      <trkpt lat="47.72755" lon="6.67851">
        <ele>632.59</ele>
        <time>2018-11-03T07:41:32.000Z</time>
      </trkpt>
      <trkpt lat="47.72762" lon="6.67855">
        <ele>633.42</ele>
        <time>2018-11-03T07:41:37.000Z</time>
      </trkpt>
      <trkpt lat="47.72768" lon="6.67862">
        <ele>634.26</ele>
        <time>2018-11-03T07:41:42.000Z</time>
      </trkpt>
      <trkpt lat="47.72772" lon="6.67868">
        <ele>635.05</ele>
        <time>2018-11-03T07:41:47.000Z</time>
      </trkpt>
      <trkpt lat="47.72776" lon="6.67874">
        <ele>635.85</ele>
        <time>2018-11-03T07:41:52.000Z</time>
      </trkpt>
      <trkpt lat="47.72781" lon="6.67884">
        <ele>636.65</ele>
        <time>2018-11-03T07:41:57.000Z</time>
      </trkpt>
      <trkpt lat="47.72785" lon="6.67892">
        <ele>637.05</ele>
        <time>2018-11-03T07:42:02.000Z</time>
      </trkpt>
      <trkpt lat="47.72789" lon="6.67899">
        <ele>637.44</ele>
        <time>2018-11-03T07:42:07.000Z</time>
      </trkpt>
      <trkpt lat="47.72792" lon="6.67907">
        <ele>637.84</ele>
        <time>2018-11-03T07:42:12.000Z</time>
      </trkpt>
      <trkpt lat="47.72796" lon="6.67915">
        <ele>638.41</ele>
        <time>2018-11-03T07:42:17.000Z</time>
      </trkpt>
      <trkpt lat="47.72799" lon="6.67923">
        <ele>638.99</ele>
        <time>2018-11-03T07:42:22.000Z</time>
      </trkpt>
      <trkpt lat="47.72803" lon="6.67933">
        <ele>639.56</ele>
        <time>2018-11-03T07:42:27.000Z</time>
      </trkpt>
      <trkpt lat="47.72807" lon="6.67941">
        <ele>640.34</ele>
        <time>2018-11-03T07:42:32.000Z</time>
      </trkpt>
      <trkpt lat="47.7281" lon="6.67946">
        <ele>641.13</ele>
        <time>2018-11-03T07:42:37.000Z</time>
      </trkpt>
      <trkpt lat="47.72814" lon="6.67949">
        <ele>641.91</ele>
        <time>2018-11-03T07:42:42.000Z</time>
      </trkpt>
      <trkpt lat="47.72818" lon="6.67953">
        <ele>643.1</ele>
        <time>2018-11-03T07:42:47.000Z</time>
      </trkpt>
      <trkpt lat="47.72822" lon="6.67958">
        <ele>644.29</ele>
        <time>2018-11-03T07:42:52.000Z</time>
      </trkpt>
      <trkpt lat="47.72828" lon="6.67965">
        <ele>645.48</ele>
        <time>2018-11-03T07:42:57.000Z</time>
      </trkpt>
      <trkpt lat="47.72833" lon="6.67972">
        <ele>647</ele>
        <time>2018-11-03T07:43:02.000Z</time>
      </trkpt>
      <trkpt lat="47.72839" lon="6.67976">
        <ele>648.52</ele>
        <time>2018-11-03T07:43:07.000Z</time>
      </trkpt>
      <trkpt lat="47.72845" lon="6.67981">
        <ele>650.03</ele>
        <time>2018-11-03T07:43:12.000Z</time>
      </trkpt>
      <trkpt lat="47.72852" lon="6.67985">
        <ele>651.42</ele>
        <time>2018-11-03T07:43:17.000Z</time>
      </trkpt>
      <trkpt lat="47.72859" lon="6.67987">
        <ele>652.81</ele>
        <time>2018-11-03T07:43:22.000Z</time>
      </trkpt>
      <trkpt lat="47.72864" lon="6.6799">
        <ele>654.2</ele>
        <time>2018-11-03T07:43:27.000Z</time>
      </trkpt>
      <trkpt lat="47.72871" lon="6.67993">
        <ele>655.39</ele>
        <time>2018-11-03T07:43:32.000Z</time>
      </trkpt>
      <trkpt lat="47.72878" lon="6.67997">
        <ele>656.58</ele>
        <time>2018-11-03T07:43:37.000Z</time>
      </trkpt>
      <trkpt lat="47.72885" lon="6.68002">
        <ele>657.77</ele>
        <time>2018-11-03T07:43:42.000Z</time>
      </trkpt>
      <trkpt lat="47.7289" lon="6.68007">
        <ele>658.61</ele>
        <time>2018-11-03T07:43:47.000Z</time>
      </trkpt>
      <trkpt lat="47.72895" lon="6.68013">
        <ele>659.44</ele>
        <time>2018-11-03T07:43:52.000Z</time>
      </trkpt>
      <trkpt lat="47.729" lon="6.6802">
        <ele>660.27</ele>
        <time>2018-11-03T07:43:57.000Z</time>
      </trkpt>
      <trkpt lat="47.72907" lon="6.68026">
        <ele>660.61</ele>
        <time>2018-11-03T07:44:02.000Z</time>
      </trkpt>
      <trkpt lat="47.72914" lon="6.68034">
        <ele>660.94</ele>
        <time>2018-11-03T07:44:07.000Z</time>
      </trkpt>
      <trkpt lat="47.72922" lon="6.68042">
        <ele>661.27</ele>
        <time>2018-11-03T07:44:12.000Z</time>
      </trkpt>
      <trkpt lat="47.72928" lon="6.68048">
        <ele>662.18</ele>
        <time>2018-11-03T07:44:17.000Z</time>
      </trkpt>
      <trkpt lat="47.72933" lon="6.68054">
        <ele>663.09</ele>
        <time>2018-11-03T07:44:22.000Z</time>
      </trkpt>
      <trkpt lat="47.72938" lon="6.68059">
        <ele>664</ele>
        <time>2018-11-03T07:44:27.000Z</time>
      </trkpt>
      <trkpt lat="47.72942" lon="6.68063">
        <ele>665.33</ele>
        <time>2018-11-03T07:44:32.000Z</time>
      </trkpt>
      <trkpt lat="47.72947" lon="6.68072">
        <ele>666.65</ele>
        <time>2018-11-03T07:44:37.000Z</time>
      </trkpt>
      <trkpt lat="47.72953" lon="6.68087">
        <ele>667.97</ele>
        <time>2018-11-03T07:44:42.000Z</time>
      </trkpt>
      <trkpt lat="47.72958" lon="6.68105">
        <ele>668.73</ele>
        <time>2018-11-03T07:44:47.000Z</time>
      </trkpt>
      <trkpt lat="47.72963" lon="6.68118">
        <ele>669.49</ele>
        <time>2018-11-03T07:44:52.000Z</time>
      </trkpt>
      <trkpt lat="47.72969" lon="6.68136">
        <ele>670.25</ele>
        <time>2018-11-03T07:44:57.000Z</time>
      </trkpt>
      <trkpt lat="47.72983" lon="6.68151">
        <ele>669.55</ele>
        <time>2018-11-03T07:45:02.000Z</time>
      </trkpt>
      <trkpt lat="47.72993" lon="6.68167">
        <ele>668.85</ele>
        <time>2018-11-03T07:45:07.000Z</time>
      </trkpt>
      <trkpt lat="47.73007" lon="6.68189">
        <ele>668.15</ele>
        <time>2018-11-03T07:45:12.000Z</time>
      </trkpt>
      <trkpt lat="47.73012" lon="6.68212">
        <ele>668.52</ele>
        <time>2018-11-03T07:45:17.000Z</time>
      </trkpt>
      <trkpt lat="47.73024" lon="6.68229">
        <ele>668.89</ele>
        <time>2018-11-03T07:45:22.000Z</time>
      </trkpt>
      <trkpt lat="47.73035" lon="6.68246">
        <ele>669.27</ele>
        <time>2018-11-03T07:45:27.000Z</time>
      </trkpt>
      <trkpt lat="47.73042" lon="6.68265">
        <ele>668.84</ele>
        <time>2018-11-03T07:45:32.000Z</time>
      </trkpt>
      <trkpt lat="47.73053" lon="6.68289">
        <ele>668.41</ele>
        <time>2018-11-03T07:45:37.000Z</time>
      </trkpt>
      <trkpt lat="47.73063" lon="6.68313">
        <ele>667.98</ele>
        <time>2018-11-03T07:45:42.000Z</time>
      </trkpt>
      <trkpt lat="47.73071" lon="6.6834">
        <ele>665.27</ele>
        <time>2018-11-03T07:45:47.000Z</time>
      </trkpt>
      <trkpt lat="47.73087" lon="6.68366">
        <ele>662.55</ele>
        <time>2018-11-03T07:45:52.000Z</time>
      </trkpt>
      <trkpt lat="47.73105" lon="6.68397">
        <ele>659.83</ele>
        <time>2018-11-03T07:45:57.000Z</time>
      </trkpt>
      <trkpt lat="47.73129" lon="6.68438">
        <ele>658.98</ele>
        <time>2018-11-03T07:46:02.000Z</time>
      </trkpt>
      <trkpt lat="47.73155" lon="6.68487">
        <ele>658.12</ele>
        <time>2018-11-03T07:46:07.000Z</time>
      </trkpt>
      <trkpt lat="47.73173" lon="6.68522">
        <ele>657.27</ele>
        <time>2018-11-03T07:46:12.000Z</time>
      </trkpt>
      <trkpt lat="47.73183" lon="6.68542">
        <ele>658.85</ele>
        <time>2018-11-03T07:46:17.000Z</time>
      </trkpt>
      <trkpt lat="47.73189" lon="6.68556">
        <ele>660.43</ele>
        <time>2018-11-03T07:46:22.000Z</time>
      </trkpt>
      <trkpt lat="47.73198" lon="6.68568">
        <ele>662.01</ele>
        <time>2018-11-03T07:46:27.000Z</time>
      </trkpt>
      <trkpt lat="47.73203" lon="6.68579">
        <ele>663.49</ele>
        <time>2018-11-03T07:46:32.000Z</time>
      </trkpt>
      <trkpt lat="47.73208" lon="6.68587">
        <ele>664.98</ele>
        <time>2018-11-03T07:46:37.000Z</time>
      </trkpt>
      <trkpt lat="47.73211" lon="6.68595">
        <ele>666.46</ele>
        <time>2018-11-03T07:46:42.000Z</time>
      </trkpt>
      <trkpt lat="47.73216" lon="6.68605">
        <ele>667.99</ele>
        <time>2018-11-03T07:46:47.000Z</time>
      </trkpt>
      <trkpt lat="47.73219" lon="6.68612">
        <ele>669.51</ele>
        <time>2018-11-03T07:46:52.000Z</time>
      </trkpt>
      <trkpt lat="47.73226" lon="6.6862">
        <ele>671.03</ele>
        <time>2018-11-03T07:46:57.000Z</time>
      </trkpt>
      <trkpt lat="47.73234" lon="6.68622">
        <ele>670.91</ele>
        <time>2018-11-03T07:47:02.000Z</time>
      </trkpt>
      <trkpt lat="47.73243" lon="6.68621">
        <ele>670.8</ele>
        <time>2018-11-03T07:47:07.000Z</time>
      </trkpt>
      <trkpt lat="47.73249" lon="6.68621">
        <ele>670.68</ele>
        <time>2018-11-03T07:47:12.000Z</time>
      </trkpt>
      <trkpt lat="47.73254" lon="6.6862">
        <ele>671.09</ele>
        <time>2018-11-03T07:47:17.000Z</time>
      </trkpt>
      <trkpt lat="47.73259" lon="6.68618">
        <ele>671.5</ele>
        <time>2018-11-03T07:47:22.000Z</time>
      </trkpt>
      <trkpt lat="47.73263" lon="6.68615">
        <ele>671.91</ele>
        <time>2018-11-03T07:47:27.000Z</time>
      </trkpt>
      <trkpt lat="47.73269" lon="6.68613">
        <ele>672.81</ele>
        <time>2018-11-03T07:47:32.000Z</time>
      </trkpt>
      <trkpt lat="47.73274" lon="6.68614">
        <ele>673.71</ele>
        <time>2018-11-03T07:47:37.000Z</time>
      </trkpt>
      <trkpt lat="47.73279" lon="6.68617">
        <ele>674.61</ele>
        <time>2018-11-03T07:47:42.000Z</time>
      </trkpt>
      <trkpt lat="47.7328" lon="6.68618">
        <ele>675.67</ele>
        <time>2018-11-03T07:47:47.000Z</time>
      </trkpt>
      <trkpt lat="47.7328" lon="6.6862">
        <ele>676.73</ele>
        <time>2018-11-03T07:47:52.000Z</time>
      </trkpt>
      <trkpt lat="47.7328" lon="6.68624">
        <ele>677.79</ele>
        <time>2018-11-03T07:47:57.000Z</time>
      </trkpt>
      <trkpt lat="47.73284" lon="6.68627">
        <ele>678.65</ele>
        <time>2018-11-03T07:48:02.000Z</time>
      </trkpt>
      <trkpt lat="47.73288" lon="6.6863">
        <ele>679.52</ele>
        <time>2018-11-03T07:48:07.000Z</time>
      </trkpt>
      <trkpt lat="47.73291" lon="6.68632">
        <ele>680.39</ele>
        <time>2018-11-03T07:48:12.000Z</time>
      </trkpt>
      <trkpt lat="47.73295" lon="6.68636">
        <ele>680.96</ele>
        <time>2018-11-03T07:48:17.000Z</time>
      </trkpt>
      <trkpt lat="47.73296" lon="6.68639">
        <ele>681.53</ele>
        <time>2018-11-03T07:48:22.000Z</time>
      </trkpt>
      <trkpt lat="47.73299" lon="6.6864">
        <ele>682.1</ele>
        <time>2018-11-03T07:48:27.000Z</time>
      </trkpt>
      <trkpt lat="47.73301" lon="6.68641">
        <ele>682.86</ele>
        <time>2018-11-03T07:48:32.000Z</time>
      </trkpt>
      <trkpt lat="47.73304" lon="6.68643">
        <ele>683.62</ele>
        <time>2018-11-03T07:48:37.000Z</time>
      </trkpt>
      <trkpt lat="47.73307" lon="6.68646">
        <ele>684.38</ele>
        <time>2018-11-03T07:48:42.000Z</time>
      </trkpt>
      <trkpt lat="47.7331" lon="6.68649">
        <ele>685.29</ele>
        <time>2018-11-03T07:48:47.000Z</time>
      </trkpt>
      <trkpt lat="47.73313" lon="6.68652">
        <ele>686.21</ele>
        <time>2018-11-03T07:48:52.000Z</time>
      </trkpt>
      <trkpt lat="47.73316" lon="6.68654">
        <ele>687.12</ele>
        <time>2018-11-03T07:48:57.000Z</time>
      </trkpt>
      <trkpt lat="47.73319" lon="6.68657">
        <ele>687.93</ele>
        <time>2018-11-03T07:49:02.000Z</time>
      </trkpt>
      <trkpt lat="47.73323" lon="6.68658">
        <ele>688.73</ele>
        <time>2018-11-03T07:49:07.000Z</time>
      </trkpt>
      <trkpt lat="47.73327" lon="6.6866">
        <ele>689.54</ele>
        <time>2018-11-03T07:49:12.000Z</time>
      </trkpt>
      <trkpt lat="47.73329" lon="6.68664">
        <ele>690.39</ele>
        <time>2018-11-03T07:49:17.000Z</time>
      </trkpt>
      <trkpt lat="47.73332" lon="6.68666">
        <ele>691.23</ele>
        <time>2018-11-03T07:49:22.000Z</time>
      </trkpt>
      <trkpt lat="47.73332" lon="6.68666">
        <ele>692.08</ele>
        <time>2018-11-03T07:49:27.000Z</time>
      </trkpt>
      <trkpt lat="47.73334" lon="6.68668">
        <ele>693.09</ele>
        <time>2018-11-03T07:49:32.000Z</time>
      </trkpt>
      <trkpt lat="47.73338" lon="6.68672">
        <ele>694.1</ele>
        <time>2018-11-03T07:49:37.000Z</time>
      </trkpt>
      <trkpt lat="47.7334" lon="6.68675">
        <ele>695.11</ele>
        <time>2018-11-03T07:49:42.000Z</time>
      </trkpt>
      <trkpt lat="47.73342" lon="6.68679">
        <ele>695.24</ele>
        <time>2018-11-03T07:49:47.000Z</time>
      </trkpt>
      <trkpt lat="47.73343" lon="6.68681">
        <ele>695.36</ele>
        <time>2018-11-03T07:49:52.000Z</time>
      </trkpt>
      <trkpt lat="47.73344" lon="6.68684">
        <ele>695.48</ele>
        <time>2018-11-03T07:49:57.000Z</time>
      </trkpt>
      <trkpt lat="47.73344" lon="6.68684">
        <ele>695.54</ele>
        <time>2018-11-03T07:50:02.000Z</time>
      </trkpt>
      <trkpt lat="47.73345" lon="6.68687">
        <ele>695.6</ele>
        <time>2018-11-03T07:50:07.000Z</time>
      </trkpt>
      <trkpt lat="47.73347" lon="6.6869">
        <ele>695.66</ele>
        <time>2018-11-03T07:50:12.000Z</time>
      </trkpt>
      <trkpt lat="47.73349" lon="6.68693">
        <ele>695.92</ele>
        <time>2018-11-03T07:50:17.000Z</time>
      </trkpt>
      <trkpt lat="47.73351" lon="6.68697">
        <ele>696.18</ele>
        <time>2018-11-03T07:50:22.000Z</time>
      </trkpt>
      <trkpt lat="47.73354" lon="6.68698">
        <ele>696.44</ele>
        <time>2018-11-03T07:50:27.000Z</time>
      </trkpt>
      <trkpt lat="47.73358" lon="6.687">
        <ele>697.3</ele>
        <time>2018-11-03T07:50:32.000Z</time>
      </trkpt>
      <trkpt lat="47.73359" lon="6.68699">
        <ele>698.16</ele>
        <time>2018-11-03T07:50:37.000Z</time>
      </trkpt>
      <trkpt lat="47.73362" lon="6.68703">
        <ele>699.01</ele>
        <time>2018-11-03T07:50:42.000Z</time>
      </trkpt>
      <trkpt lat="47.73366" lon="6.68706">
        <ele>699.75</ele>
        <time>2018-11-03T07:50:47.000Z</time>
      </trkpt>
      <trkpt lat="47.7337" lon="6.68708">
        <ele>700.49</ele>
        <time>2018-11-03T07:50:52.000Z</time>
      </trkpt>
      <trkpt lat="47.73373" lon="6.68711">
        <ele>701.22</ele>
        <time>2018-11-03T07:50:57.000Z</time>
      </trkpt>
      <trkpt lat="47.73376" lon="6.68714">
        <ele>701.93</ele>
        <time>2018-11-03T07:51:02.000Z</time>
      </trkpt>
      <trkpt lat="47.73379" lon="6.68718">
        <ele>702.64</ele>
        <time>2018-11-03T07:51:07.000Z</time>
      </trkpt>
      <trkpt lat="47.73381" lon="6.68721">
        <ele>703.36</ele>
        <time>2018-11-03T07:51:12.000Z</time>
      </trkpt>
      <trkpt lat="47.73382" lon="6.68727">
        <ele>704.14</ele>
        <time>2018-11-03T07:51:17.000Z</time>
      </trkpt>
      <trkpt lat="47.73383" lon="6.68732">
        <ele>704.93</ele>
        <time>2018-11-03T07:51:22.000Z</time>
      </trkpt>
      <trkpt lat="47.73383" lon="6.68735">
        <ele>705.72</ele>
        <time>2018-11-03T07:51:27.000Z</time>
      </trkpt>
      <trkpt lat="47.73385" lon="6.6874">
        <ele>706.45</ele>
        <time>2018-11-03T07:51:32.000Z</time>
      </trkpt>
      <trkpt lat="47.7339" lon="6.68748">
        <ele>707.18</ele>
        <time>2018-11-03T07:51:37.000Z</time>
      </trkpt>
      <trkpt lat="47.73391" lon="6.68755">
        <ele>707.92</ele>
        <time>2018-11-03T07:51:42.000Z</time>
      </trkpt>
      <trkpt lat="47.73392" lon="6.68762">
        <ele>708.84</ele>
        <time>2018-11-03T07:51:47.000Z</time>
      </trkpt>
      <trkpt lat="47.73393" lon="6.68769">
        <ele>709.75</ele>
        <time>2018-11-03T07:51:52.000Z</time>
      </trkpt>
      <trkpt lat="47.734" lon="6.68769">
        <ele>710.67</ele>
        <time>2018-11-03T07:51:57.000Z</time>
      </trkpt>
      <trkpt lat="47.73407" lon="6.6877">
        <ele>711.27</ele>
        <time>2018-11-03T07:52:02.000Z</time>
      </trkpt>
      <trkpt lat="47.73414" lon="6.68769">
        <ele>711.86</ele>
        <time>2018-11-03T07:52:07.000Z</time>
      </trkpt>
      <trkpt lat="47.73417" lon="6.68768">
        <ele>712.45</ele>
        <time>2018-11-03T07:52:12.000Z</time>
      </trkpt>
      <trkpt lat="47.73418" lon="6.6877">
        <ele>713.05</ele>
        <time>2018-11-03T07:52:17.000Z</time>
      </trkpt>
      <trkpt lat="47.73421" lon="6.68769">
        <ele>713.64</ele>
        <time>2018-11-03T07:52:22.000Z</time>
      </trkpt>
      <trkpt lat="47.73425" lon="6.68769">
        <ele>714.23</ele>
        <time>2018-11-03T07:52:27.000Z</time>
      </trkpt>
      <trkpt lat="47.73431" lon="6.68767">
        <ele>714.6</ele>
        <time>2018-11-03T07:52:32.000Z</time>
      </trkpt>
      <trkpt lat="47.73434" lon="6.68768">
        <ele>714.98</ele>
        <time>2018-11-03T07:52:37.000Z</time>
      </trkpt>
      <trkpt lat="47.73437" lon="6.68768">
        <ele>715.35</ele>
        <time>2018-11-03T07:52:42.000Z</time>
      </trkpt>
      <trkpt lat="47.73441" lon="6.68769">
        <ele>716.1</ele>
        <time>2018-11-03T07:52:47.000Z</time>
      </trkpt>
      <trkpt lat="47.73445" lon="6.68768">
        <ele>716.86</ele>
        <time>2018-11-03T07:52:52.000Z</time>
      </trkpt>
      <trkpt lat="47.73447" lon="6.68769">
        <ele>717.61</ele>
        <time>2018-11-03T07:52:57.000Z</time>
      </trkpt>
      <trkpt lat="47.73454" lon="6.68769">
        <ele>718.85</ele>
        <time>2018-11-03T07:53:02.000Z</time>
      </trkpt>
      <trkpt lat="47.73461" lon="6.68768">
        <ele>720.09</ele>
        <time>2018-11-03T07:53:07.000Z</time>
      </trkpt>
      <trkpt lat="47.73467" lon="6.68768">
        <ele>721.34</ele>
        <time>2018-11-03T07:53:12.000Z</time>
      </trkpt>
      <trkpt lat="47.73474" lon="6.68767">
        <ele>721.76</ele>
        <time>2018-11-03T07:53:17.000Z</time>
      </trkpt>
      <trkpt lat="47.73479" lon="6.68766">
        <ele>722.19</ele>
        <time>2018-11-03T07:53:22.000Z</time>
      </trkpt>
      <trkpt lat="47.73486" lon="6.68767">
        <ele>722.61</ele>
        <time>2018-11-03T07:53:27.000Z</time>
      </trkpt>
      <trkpt lat="47.73493" lon="6.68766">
        <ele>723.14</ele>
        <time>2018-11-03T07:53:32.000Z</time>
      </trkpt>
      <trkpt lat="47.73498" lon="6.68765">
        <ele>723.67</ele>
        <time>2018-11-03T07:53:37.000Z</time>
      </trkpt>
      <trkpt lat="47.73504" lon="6.68765">
        <ele>724.2</ele>
        <time>2018-11-03T07:53:42.000Z</time>
      </trkpt>
      <trkpt lat="47.73508" lon="6.68766">
        <ele>725.76</ele>
        <time>2018-11-03T07:53:47.000Z</time>
      </trkpt>
      <trkpt lat="47.73513" lon="6.68766">
        <ele>727.33</ele>
        <time>2018-11-03T07:53:52.000Z</time>
      </trkpt>
      <trkpt lat="47.73519" lon="6.68765">
        <ele>728.89</ele>
        <time>2018-11-03T07:53:57.000Z</time>
      </trkpt>
      <trkpt lat="47.73524" lon="6.68764">
        <ele>729.51</ele>
        <time>2018-11-03T07:54:02.000Z</time>
      </trkpt>
      <trkpt lat="47.73526" lon="6.68765">
        <ele>730.13</ele>
        <time>2018-11-03T07:54:07.000Z</time>
      </trkpt>
      <trkpt lat="47.73529" lon="6.68764">
        <ele>730.75</ele>
        <time>2018-11-03T07:54:12.000Z</time>
      </trkpt>
      <trkpt lat="47.73533" lon="6.68763">
        <ele>730.73</ele>
        <time>2018-11-03T07:54:17.000Z</time>
      </trkpt>
      <trkpt lat="47.73536" lon="6.68763">
        <ele>730.72</ele>
        <time>2018-11-03T07:54:22.000Z</time>
      </trkpt>
      <trkpt lat="47.73537" lon="6.68762">
        <ele>730.71</ele>
        <time>2018-11-03T07:54:27.000Z</time>
      </trkpt>
      <trkpt lat="47.7354" lon="6.68761">
        <ele>730.71</ele>
        <time>2018-11-03T07:54:32.000Z</time>
      </trkpt>
      <trkpt lat="47.73541" lon="6.68759">
        <ele>730.71</ele>
        <time>2018-11-03T07:54:37.000Z</time>
      </trkpt>
      <trkpt lat="47.73542" lon="6.68758">
        <ele>730.72</ele>
        <time>2018-11-03T07:54:42.000Z</time>
      </trkpt>
      <trkpt lat="47.73542" lon="6.68756">
        <ele>731.52</ele>
        <time>2018-11-03T07:54:47.000Z</time>
      </trkpt>
      <trkpt lat="47.73544" lon="6.68751">
        <ele>732.31</ele>
        <time>2018-11-03T07:54:52.000Z</time>
      </trkpt>
      <trkpt lat="47.73547" lon="6.68747">
        <ele>733.11</ele>
        <time>2018-11-03T07:54:57.000Z</time>
      </trkpt>
      <trkpt lat="47.73548" lon="6.68744">
        <ele>733.99</ele>
        <time>2018-11-03T07:55:02.000Z</time>
      </trkpt>
      <trkpt lat="47.73551" lon="6.68742">
        <ele>734.86</ele>
        <time>2018-11-03T07:55:07.000Z</time>
      </trkpt>
      <trkpt lat="47.73554" lon="6.6874">
        <ele>735.74</ele>
        <time>2018-11-03T07:55:12.000Z</time>
      </trkpt>
      <trkpt lat="47.73556" lon="6.68738">
        <ele>736.34</ele>
        <time>2018-11-03T07:55:17.000Z</time>
      </trkpt>
      <trkpt lat="47.7356" lon="6.68736">
        <ele>736.95</ele>
        <time>2018-11-03T07:55:22.000Z</time>
      </trkpt>
      <trkpt lat="47.73563" lon="6.68736">
        <ele>737.56</ele>
        <time>2018-11-03T07:55:27.000Z</time>
      </trkpt>
      <trkpt lat="47.73566" lon="6.68736">
        <ele>737.98</ele>
        <time>2018-11-03T07:55:32.000Z</time>
      </trkpt>
      <trkpt lat="47.73567" lon="6.68737">
        <ele>738.4</ele>
        <time>2018-11-03T07:55:37.000Z</time>
      </trkpt>
      <trkpt lat="47.73567" lon="6.68737">
        <ele>738.81</ele>
        <time>2018-11-03T07:55:42.000Z</time>
      </trkpt>
      <trkpt lat="47.73571" lon="6.68737">
        <ele>740.04</ele>
        <time>2018-11-03T07:55:47.000Z</time>
      </trkpt>
      <trkpt lat="47.73577" lon="6.68735">
        <ele>741.27</ele>
        <time>2018-11-03T07:55:52.000Z</time>
      </trkpt>
      <trkpt lat="47.73581" lon="6.68735">
        <ele>742.5</ele>
        <time>2018-11-03T07:55:57.000Z</time>
      </trkpt>
      <trkpt lat="47.73584" lon="6.68735">
        <ele>743.41</ele>
        <time>2018-11-03T07:56:02.000Z</time>
      </trkpt>
      <trkpt lat="47.73586" lon="6.68736">
        <ele>744.32</ele>
        <time>2018-11-03T07:56:07.000Z</time>
      </trkpt>
      <trkpt lat="47.73587" lon="6.68736">
        <ele>745.24</ele>
        <time>2018-11-03T07:56:12.000Z</time>
      </trkpt>
      <trkpt lat="47.73589" lon="6.68737">
        <ele>746.16</ele>
        <time>2018-11-03T07:56:17.000Z</time>
      </trkpt>
      <trkpt lat="47.73591" lon="6.68736">
        <ele>747.08</ele>
        <time>2018-11-03T07:56:22.000Z</time>
      </trkpt>
      <trkpt lat="47.73596" lon="6.68734">
        <ele>748.01</ele>
        <time>2018-11-03T07:56:27.000Z</time>
      </trkpt>
      <trkpt lat="47.73599" lon="6.68731">
        <ele>748.11</ele>
        <time>2018-11-03T07:56:32.000Z</time>
      </trkpt>
      <trkpt lat="47.73601" lon="6.68729">
        <ele>748.21</ele>
        <time>2018-11-03T07:56:37.000Z</time>
      </trkpt>
      <trkpt lat="47.73603" lon="6.68727">
        <ele>748.31</ele>
        <time>2018-11-03T07:56:42.000Z</time>
      </trkpt>
      <trkpt lat="47.73607" lon="6.68726">
        <ele>748.59</ele>
        <time>2018-11-03T07:56:47.000Z</time>
      </trkpt>
      <trkpt lat="47.73609" lon="6.68723">
        <ele>748.87</ele>
        <time>2018-11-03T07:56:52.000Z</time>
      </trkpt>
      <trkpt lat="47.73609" lon="6.68722">
        <ele>749.14</ele>
        <time>2018-11-03T07:56:57.000Z</time>
      </trkpt>
      <trkpt lat="47.7361" lon="6.6872">
        <ele>750.13</ele>
        <time>2018-11-03T07:57:02.000Z</time>
      </trkpt>
      <trkpt lat="47.73612" lon="6.68718">
        <ele>751.12</ele>
        <time>2018-11-03T07:57:07.000Z</time>
      </trkpt>
      <trkpt lat="47.73615" lon="6.68715">
        <ele>752.11</ele>
        <time>2018-11-03T07:57:12.000Z</time>
      </trkpt>
      <trkpt lat="47.73617" lon="6.68713">
        <ele>752.76</ele>
        <time>2018-11-03T07:57:17.000Z</time>
      </trkpt>
      <trkpt lat="47.7362" lon="6.6871">
        <ele>753.41</ele>
        <time>2018-11-03T07:57:22.000Z</time>
      </trkpt>
      <trkpt lat="47.73623" lon="6.6871">
        <ele>754.06</ele>
        <time>2018-11-03T07:57:27.000Z</time>
      </trkpt>
      <trkpt lat="47.73623" lon="6.6871">
        <ele>754.76</ele>
        <time>2018-11-03T07:57:32.000Z</time>
      </trkpt>
      <trkpt lat="47.73625" lon="6.68709">
        <ele>755.47</ele>
        <time>2018-11-03T07:57:37.000Z</time>
      </trkpt>
      <trkpt lat="47.73627" lon="6.68709">
        <ele>756.17</ele>
        <time>2018-11-03T07:57:42.000Z</time>
      </trkpt>
      <trkpt lat="47.73629" lon="6.68709">
        <ele>757.41</ele>
        <time>2018-11-03T07:57:47.000Z</time>
      </trkpt>
      <trkpt lat="47.73632" lon="6.68707">
        <ele>758.65</ele>
        <time>2018-11-03T07:57:52.000Z</time>
      </trkpt>
      <trkpt lat="47.73635" lon="6.68706">
        <ele>759.89</ele>
        <time>2018-11-03T07:57:57.000Z</time>
      </trkpt>
      <trkpt lat="47.73637" lon="6.68705">
        <ele>760.62</ele>
        <time>2018-11-03T07:58:02.000Z</time>
      </trkpt>
      <trkpt lat="47.73638" lon="6.68703">
        <ele>761.35</ele>
        <time>2018-11-03T07:58:07.000Z</time>
      </trkpt>
      <trkpt lat="47.7364" lon="6.68701">
        <ele>762.08</ele>
        <time>2018-11-03T07:58:12.000Z</time>
      </trkpt>
      <trkpt lat="47.73643" lon="6.687">
        <ele>763.23</ele>
        <time>2018-11-03T07:58:17.000Z</time>
      </trkpt>
      <trkpt lat="47.73646" lon="6.68698">
        <ele>764.37</ele>
        <time>2018-11-03T07:58:22.000Z</time>
      </trkpt>
      <trkpt lat="47.7365" lon="6.68696">
        <ele>765.52</ele>
        <time>2018-11-03T07:58:27.000Z</time>
      </trkpt>
      <trkpt lat="47.73654" lon="6.68693">
        <ele>766.11</ele>
        <time>2018-11-03T07:58:32.000Z</time>
      </trkpt>
      <trkpt lat="47.73657" lon="6.68691">
        <ele>766.7</ele>
        <time>2018-11-03T07:58:37.000Z</time>
      </trkpt>
      <trkpt lat="47.73659" lon="6.68688">
        <ele>767.29</ele>
        <time>2018-11-03T07:58:42.000Z</time>
      </trkpt>
      <trkpt lat="47.73659" lon="6.68686">
        <ele>768.29</ele>
        <time>2018-11-03T07:58:47.000Z</time>
      </trkpt>
      <trkpt lat="47.73663" lon="6.68683">
        <ele>769.28</ele>
        <time>2018-11-03T07:58:52.000Z</time>
      </trkpt>
      <trkpt lat="47.73666" lon="6.68682">
        <ele>770.28</ele>
        <time>2018-11-03T07:58:57.000Z</time>
      </trkpt>
      <trkpt lat="47.7367" lon="6.68681">
        <ele>771.06</ele>
        <time>2018-11-03T07:59:02.000Z</time>
      </trkpt>
      <trkpt lat="47.73672" lon="6.6868">
        <ele>771.84</ele>
        <time>2018-11-03T07:59:07.000Z</time>
      </trkpt>
      <trkpt lat="47.73675" lon="6.68679">
        <ele>772.63</ele>
        <time>2018-11-03T07:59:12.000Z</time>
      </trkpt>
      <trkpt lat="47.73677" lon="6.68677">
        <ele>773.37</ele>
        <time>2018-11-03T07:59:17.000Z</time>
      </trkpt>
      <trkpt lat="47.73679" lon="6.68678">
        <ele>774.11</ele>
        <time>2018-11-03T07:59:22.000Z</time>
      </trkpt>
      <trkpt lat="47.73681" lon="6.68678">
        <ele>774.85</ele>
        <time>2018-11-03T07:59:27.000Z</time>
      </trkpt>
      <trkpt lat="47.73684" lon="6.68678">
        <ele>775.79</ele>
        <time>2018-11-03T07:59:32.000Z</time>
      </trkpt>
      <trkpt lat="47.73687" lon="6.68677">
        <ele>776.73</ele>
        <time>2018-11-03T07:59:37.000Z</time>
      </trkpt>
      <trkpt lat="47.73689" lon="6.68677">
        <ele>777.67</ele>
        <time>2018-11-03T07:59:42.000Z</time>
      </trkpt>
      <trkpt lat="47.73692" lon="6.68677">
        <ele>778.18</ele>
        <time>2018-11-03T07:59:47.000Z</time>
      </trkpt>
      <trkpt lat="47.73695" lon="6.68678">
        <ele>778.68</ele>
        <time>2018-11-03T07:59:52.000Z</time>
      </trkpt>
      <trkpt lat="47.73697" lon="6.68679">
        <ele>779.18</ele>
        <time>2018-11-03T07:59:57.000Z</time>
      </trkpt>
      <trkpt lat="47.73697" lon="6.6868">
        <ele>780.54</ele>
        <time>2018-11-03T08:00:02.000Z</time>
      </trkpt>
      <trkpt lat="47.737" lon="6.68684">
        <ele>781.9</ele>
        <time>2018-11-03T08:00:07.000Z</time>
      </trkpt>
      <trkpt lat="47.73703" lon="6.68683">
        <ele>783.26</ele>
        <time>2018-11-03T08:00:12.000Z</time>
      </trkpt>
      <trkpt lat="47.73707" lon="6.68679">
        <ele>783.82</ele>
        <time>2018-11-03T08:00:17.000Z</time>
      </trkpt>
      <trkpt lat="47.73708" lon="6.68674">
        <ele>784.38</ele>
        <time>2018-11-03T08:00:22.000Z</time>
      </trkpt>
      <trkpt lat="47.7371" lon="6.68672">
        <ele>784.95</ele>
        <time>2018-11-03T08:00:27.000Z</time>
      </trkpt>
      <trkpt lat="47.73711" lon="6.6867">
        <ele>784.96</ele>
        <time>2018-11-03T08:00:32.000Z</time>
      </trkpt>
      <trkpt lat="47.73712" lon="6.68669">
        <ele>784.97</ele>
        <time>2018-11-03T08:00:37.000Z</time>
      </trkpt>
      <trkpt lat="47.73711" lon="6.68668">
        <ele>784.98</ele>
        <time>2018-11-03T08:00:42.000Z</time>
      </trkpt>
      <trkpt lat="47.73711" lon="6.68668">
        <ele>785</ele>
        <time>2018-11-03T08:00:47.000Z</time>
      </trkpt>
      <trkpt lat="47.7371" lon="6.68668">
        <ele>785.03</ele>
        <time>2018-11-03T08:00:52.000Z</time>
      </trkpt>
      <trkpt lat="47.73711" lon="6.68668">
        <ele>785.05</ele>
        <time>2018-11-03T08:00:57.000Z</time>
      </trkpt>
      <trkpt lat="47.73711" lon="6.68668">
        <ele>785.06</ele>
        <time>2018-11-03T08:01:02.000Z</time>
      </trkpt>
      <trkpt lat="47.73712" lon="6.68669">
        <ele>785.06</ele>
        <time>2018-11-03T08:01:07.000Z</time>
      </trkpt>
      <trkpt lat="47.73712" lon="6.6867">
        <ele>785.07</ele>
        <time>2018-11-03T08:01:12.000Z</time>
      </trkpt>
      <trkpt lat="47.73711" lon="6.6867">
        <ele>785.13</ele>
        <time>2018-11-03T08:01:17.000Z</time>
      </trkpt>
      <trkpt lat="47.73711" lon="6.68671">
        <ele>785.19</ele>
        <time>2018-11-03T08:01:22.000Z</time>
      </trkpt>
      <trkpt lat="47.73712" lon="6.68671">
        <ele>785.25</ele>
        <time>2018-11-03T08:01:27.000Z</time>
      </trkpt>
      <trkpt lat="47.73712" lon="6.68671">
        <ele>785.05</ele>
        <time>2018-11-03T08:01:32.000Z</time>
      </trkpt>
      <trkpt lat="47.73712" lon="6.68671">
        <ele>784.85</ele>
        <time>2018-11-03T08:01:37.000Z</time>
      </trkpt>
      <trkpt lat="47.73711" lon="6.68672">
        <ele>784.66</ele>
        <time>2018-11-03T08:01:42.000Z</time>
      </trkpt>
      <trkpt lat="47.7371" lon="6.68674">
        <ele>784.44</ele>
        <time>2018-11-03T08:01:47.000Z</time>
      </trkpt>
      <trkpt lat="47.73709" lon="6.68674">
        <ele>784.23</ele>
        <time>2018-11-03T08:01:52.000Z</time>
      </trkpt>
      <trkpt lat="47.73708" lon="6.68675">
        <ele>784.02</ele>
        <time>2018-11-03T08:01:57.000Z</time>
      </trkpt>
      <trkpt lat="47.73708" lon="6.68675">
        <ele>784.08</ele>
        <time>2018-11-03T08:02:02.000Z</time>
      </trkpt>
      <trkpt lat="47.73708" lon="6.68674">
        <ele>784.14</ele>
        <time>2018-11-03T08:02:07.000Z</time>
      </trkpt>
      <trkpt lat="47.73708" lon="6.68674">
        <ele>784.2</ele>
        <time>2018-11-03T08:02:12.000Z</time>
      </trkpt>
      <trkpt lat="47.73709" lon="6.68674">
        <ele>785.07</ele>
        <time>2018-11-03T08:02:17.000Z</time>
      </trkpt>
      <trkpt lat="47.73712" lon="6.68672">
        <ele>785.94</ele>
        <time>2018-11-03T08:02:22.000Z</time>
      </trkpt>
      <trkpt lat="47.73716" lon="6.68664">
        <ele>786.81</ele>
        <time>2018-11-03T08:02:27.000Z</time>
      </trkpt>
      <trkpt lat="47.7372" lon="6.68655">
        <ele>788.38</ele>
        <time>2018-11-03T08:02:32.000Z</time>
      </trkpt>
      <trkpt lat="47.73723" lon="6.68646">
        <ele>789.96</ele>
        <time>2018-11-03T08:02:37.000Z</time>
      </trkpt>
      <trkpt lat="47.73726" lon="6.68637">
        <ele>791.54</ele>
        <time>2018-11-03T08:02:42.000Z</time>
      </trkpt>
      <trkpt lat="47.73727" lon="6.68627">
        <ele>792.49</ele>
        <time>2018-11-03T08:02:47.000Z</time>
      </trkpt>
      <trkpt lat="47.73725" lon="6.68614">
        <ele>793.44</ele>
        <time>2018-11-03T08:02:52.000Z</time>
      </trkpt>
      <trkpt lat="47.73722" lon="6.68598">
        <ele>794.39</ele>
        <time>2018-11-03T08:02:57.000Z</time>
      </trkpt>
      <trkpt lat="47.73718" lon="6.68583">
        <ele>794.57</ele>
        <time>2018-11-03T08:03:02.000Z</time>
      </trkpt>
      <trkpt lat="47.73717" lon="6.68567">
        <ele>794.75</ele>
        <time>2018-11-03T08:03:07.000Z</time>
      </trkpt>
      <trkpt lat="47.73718" lon="6.68552">
        <ele>794.93</ele>
        <time>2018-11-03T08:03:12.000Z</time>
      </trkpt>
      <trkpt lat="47.73719" lon="6.6854">
        <ele>795.51</ele>
        <time>2018-11-03T08:03:17.000Z</time>
      </trkpt>
      <trkpt lat="47.73721" lon="6.6853">
        <ele>796.1</ele>
        <time>2018-11-03T08:03:22.000Z</time>
      </trkpt>
      <trkpt lat="47.73723" lon="6.68517">
        <ele>796.68</ele>
        <time>2018-11-03T08:03:27.000Z</time>
      </trkpt>
      <trkpt lat="47.73724" lon="6.68504">
        <ele>796.95</ele>
        <time>2018-11-03T08:03:32.000Z</time>
      </trkpt>
      <trkpt lat="47.73727" lon="6.68488">
        <ele>797.23</ele>
        <time>2018-11-03T08:03:37.000Z</time>
      </trkpt>
      <trkpt lat="47.7373" lon="6.68458">
        <ele>797.5</ele>
        <time>2018-11-03T08:03:42.000Z</time>
      </trkpt>
      <trkpt lat="47.73736" lon="6.6845">
        <ele>797.75</ele>
        <time>2018-11-03T08:03:47.000Z</time>
      </trkpt>
      <trkpt lat="47.73741" lon="6.68449">
        <ele>798</ele>
        <time>2018-11-03T08:03:52.000Z</time>
      </trkpt>
      <trkpt lat="47.73749" lon="6.68443">
        <ele>798.25</ele>
        <time>2018-11-03T08:03:57.000Z</time>
      </trkpt>
      <trkpt lat="47.73755" lon="6.68435">
        <ele>798.27</ele>
        <time>2018-11-03T08:04:02.000Z</time>
      </trkpt>
      <trkpt lat="47.73764" lon="6.68426">
        <ele>798.29</ele>
        <time>2018-11-03T08:04:07.000Z</time>
      </trkpt>
      <trkpt lat="47.73771" lon="6.68414">
        <ele>798.32</ele>
        <time>2018-11-03T08:04:12.000Z</time>
      </trkpt>
      <trkpt lat="47.73777" lon="6.68407">
        <ele>797.99</ele>
        <time>2018-11-03T08:04:17.000Z</time>
      </trkpt>
      <trkpt lat="47.73783" lon="6.68399">
        <ele>797.66</ele>
        <time>2018-11-03T08:04:22.000Z</time>
      </trkpt>
      <trkpt lat="47.7379" lon="6.6839">
        <ele>797.33</ele>
        <time>2018-11-03T08:04:27.000Z</time>
      </trkpt>
      <trkpt lat="47.73797" lon="6.68377">
        <ele>797.11</ele>
        <time>2018-11-03T08:04:32.000Z</time>
      </trkpt>
      <trkpt lat="47.73806" lon="6.68362">
        <ele>796.9</ele>
        <time>2018-11-03T08:04:37.000Z</time>
      </trkpt>
      <trkpt lat="47.73819" lon="6.6834">
        <ele>796.69</ele>
        <time>2018-11-03T08:04:42.000Z</time>
      </trkpt>
      <trkpt lat="47.73832" lon="6.68308">
        <ele>795.74</ele>
        <time>2018-11-03T08:04:47.000Z</time>
      </trkpt>
      <trkpt lat="47.73839" lon="6.68265">
        <ele>794.79</ele>
        <time>2018-11-03T08:04:52.000Z</time>
      </trkpt>
      <trkpt lat="47.73839" lon="6.68221">
        <ele>793.84</ele>
        <time>2018-11-03T08:04:57.000Z</time>
      </trkpt>
      <trkpt lat="47.73832" lon="6.68175">
        <ele>790.87</ele>
        <time>2018-11-03T08:05:02.000Z</time>
      </trkpt>
      <trkpt lat="47.73819" lon="6.68125">
        <ele>787.9</ele>
        <time>2018-11-03T08:05:07.000Z</time>
      </trkpt>
      <trkpt lat="47.73811" lon="6.68066">
        <ele>784.93</ele>
        <time>2018-11-03T08:05:12.000Z</time>
      </trkpt>
      <trkpt lat="47.73804" lon="6.6801">
        <ele>784.46</ele>
        <time>2018-11-03T08:05:17.000Z</time>
      </trkpt>
      <trkpt lat="47.738" lon="6.67952">
        <ele>783.98</ele>
        <time>2018-11-03T08:05:22.000Z</time>
      </trkpt>
      <trkpt lat="47.73813" lon="6.67905">
        <ele>783.5</ele>
        <time>2018-11-03T08:05:27.000Z</time>
      </trkpt>
      <trkpt lat="47.73816" lon="6.67852">
        <ele>782.95</ele>
        <time>2018-11-03T08:05:32.000Z</time>
      </trkpt>
      <trkpt lat="47.73831" lon="6.67802">
        <ele>782.39</ele>
        <time>2018-11-03T08:05:37.000Z</time>
      </trkpt>
      <trkpt lat="47.73858" lon="6.67776">
        <ele>781.83</ele>
        <time>2018-11-03T08:05:42.000Z</time>
      </trkpt>
      <trkpt lat="47.73891" lon="6.67757">
        <ele>777.64</ele>
        <time>2018-11-03T08:05:47.000Z</time>
      </trkpt>
      <trkpt lat="47.73919" lon="6.67735">
        <ele>773.45</ele>
        <time>2018-11-03T08:05:52.000Z</time>
      </trkpt>
      <trkpt lat="47.73948" lon="6.67711">
        <ele>769.26</ele>
        <time>2018-11-03T08:05:57.000Z</time>
      </trkpt>
      <trkpt lat="47.73983" lon="6.67686">
        <ele>769.08</ele>
        <time>2018-11-03T08:06:02.000Z</time>
      </trkpt>
      <trkpt lat="47.74008" lon="6.67628">
        <ele>768.9</ele>
        <time>2018-11-03T08:06:07.000Z</time>
      </trkpt>
      <trkpt lat="47.74019" lon="6.67576">
        <ele>768.72</ele>
        <time>2018-11-03T08:06:12.000Z</time>
      </trkpt>
      <trkpt lat="47.74008" lon="6.67542">
        <ele>767.79</ele>
        <time>2018-11-03T08:06:17.000Z</time>
      </trkpt>
      <trkpt lat="47.73987" lon="6.67506">
        <ele>766.87</ele>
        <time>2018-11-03T08:06:22.000Z</time>
      </trkpt>
      <trkpt lat="47.73958" lon="6.67478">
        <ele>765.94</ele>
        <time>2018-11-03T08:06:27.000Z</time>
      </trkpt>
      <trkpt lat="47.73937" lon="6.67443">
        <ele>765.02</ele>
        <time>2018-11-03T08:06:32.000Z</time>
      </trkpt>
      <trkpt lat="47.73924" lon="6.67392">
        <ele>764.11</ele>
        <time>2018-11-03T08:06:37.000Z</time>
      </trkpt>
      <trkpt lat="47.73916" lon="6.67351">
        <ele>763.19</ele>
        <time>2018-11-03T08:06:42.000Z</time>
      </trkpt>
      <trkpt lat="47.73908" lon="6.67299">
        <ele>763.55</ele>
        <time>2018-11-03T08:06:47.000Z</time>
      </trkpt>
      <trkpt lat="47.7391" lon="6.67261">
        <ele>763.9</ele>
        <time>2018-11-03T08:06:52.000Z</time>
      </trkpt>
      <trkpt lat="47.73913" lon="6.67244">
        <ele>764.25</ele>
        <time>2018-11-03T08:06:57.000Z</time>
      </trkpt>
      <trkpt lat="47.73913" lon="6.67236">
        <ele>764.02</ele>
        <time>2018-11-03T08:07:02.000Z</time>
      </trkpt>
      <trkpt lat="47.73914" lon="6.67235">
        <ele>763.78</ele>
        <time>2018-11-03T08:07:07.000Z</time>
      </trkpt>
      <trkpt lat="47.73916" lon="6.67243">
        <ele>763.54</ele>
        <time>2018-11-03T08:07:12.000Z</time>
      </trkpt>
      <trkpt lat="47.73912" lon="6.67253">
        <ele>763.62</ele>
        <time>2018-11-03T08:07:17.000Z</time>
      </trkpt>
      <trkpt lat="47.73911" lon="6.67259">
        <ele>763.69</ele>
        <time>2018-11-03T08:07:22.000Z</time>
      </trkpt>
      <trkpt lat="47.73911" lon="6.67258">
        <ele>763.77</ele>
        <time>2018-11-03T08:07:27.000Z</time>
      </trkpt>
      <trkpt lat="47.73911" lon="6.67258">
        <ele>763.88</ele>
        <time>2018-11-03T08:07:32.000Z</time>
      </trkpt>
      <trkpt lat="47.73911" lon="6.67259">
        <ele>763.98</ele>
        <time>2018-11-03T08:07:37.000Z</time>
      </trkpt>
      <trkpt lat="47.73911" lon="6.67258">
        <ele>764.09</ele>
        <time>2018-11-03T08:07:42.000Z</time>
      </trkpt>
      <trkpt lat="47.7391" lon="6.67258">
        <ele>763.85</ele>
        <time>2018-11-03T08:07:47.000Z</time>
      </trkpt>
      <trkpt lat="47.7391" lon="6.67258">
        <ele>763.61</ele>
        <time>2018-11-03T08:07:52.000Z</time>
      </trkpt>
      <trkpt lat="47.73912" lon="6.67258">
        <ele>763.37</ele>
        <time>2018-11-03T08:07:57.000Z</time>
      </trkpt>
      <trkpt lat="47.73913" lon="6.67257">
        <ele>763.13</ele>
        <time>2018-11-03T08:08:02.000Z</time>
      </trkpt>
      <trkpt lat="47.73914" lon="6.67256">
        <ele>762.88</ele>
        <time>2018-11-03T08:08:07.000Z</time>
      </trkpt>
      <trkpt lat="47.73914" lon="6.67247">
        <ele>762.63</ele>
        <time>2018-11-03T08:08:12.000Z</time>
      </trkpt>
      <trkpt lat="47.73918" lon="6.67237">
        <ele>762.6</ele>
        <time>2018-11-03T08:08:17.000Z</time>
      </trkpt>
      <trkpt lat="47.73923" lon="6.67216">
        <ele>762.57</ele>
        <time>2018-11-03T08:08:22.000Z</time>
      </trkpt>
      <trkpt lat="47.73929" lon="6.67184">
        <ele>762.54</ele>
        <time>2018-11-03T08:08:27.000Z</time>
      </trkpt>
      <trkpt lat="47.73933" lon="6.67138">
        <ele>759.65</ele>
        <time>2018-11-03T08:08:32.000Z</time>
      </trkpt>
      <trkpt lat="47.73934" lon="6.67093">
        <ele>756.77</ele>
        <time>2018-11-03T08:08:37.000Z</time>
      </trkpt>
      <trkpt lat="47.73934" lon="6.6704">
        <ele>753.88</ele>
        <time>2018-11-03T08:08:42.000Z</time>
      </trkpt>
      <trkpt lat="47.73928" lon="6.66982">
        <ele>745.5</ele>
        <time>2018-11-03T08:08:47.000Z</time>
      </trkpt>
      <trkpt lat="47.7392" lon="6.66916">
        <ele>737.11</ele>
        <time>2018-11-03T08:08:52.000Z</time>
      </trkpt>
      <trkpt lat="47.73913" lon="6.66849">
        <ele>728.73</ele>
        <time>2018-11-03T08:08:57.000Z</time>
      </trkpt>
      <trkpt lat="47.73917" lon="6.66778">
        <ele>723.69</ele>
        <time>2018-11-03T08:09:02.000Z</time>
      </trkpt>
      <trkpt lat="47.73916" lon="6.66721">
        <ele>718.65</ele>
        <time>2018-11-03T08:09:07.000Z</time>
      </trkpt>
      <trkpt lat="47.73905" lon="6.66655">
        <ele>713.6</ele>
        <time>2018-11-03T08:09:12.000Z</time>
      </trkpt>
      <trkpt lat="47.73892" lon="6.66595">
        <ele>712</ele>
        <time>2018-11-03T08:09:17.000Z</time>
      </trkpt>
      <trkpt lat="47.73885" lon="6.66564">
        <ele>710.39</ele>
        <time>2018-11-03T08:09:22.000Z</time>
      </trkpt>
      <trkpt lat="47.73891" lon="6.66544">
        <ele>708.78</ele>
        <time>2018-11-03T08:09:27.000Z</time>
      </trkpt>
      <trkpt lat="47.73891" lon="6.66533">
        <ele>708.8</ele>
        <time>2018-11-03T08:09:32.000Z</time>
      </trkpt>
      <trkpt lat="47.7389" lon="6.66534">
        <ele>708.81</ele>
        <time>2018-11-03T08:09:37.000Z</time>
      </trkpt>
      <trkpt lat="47.7389" lon="6.66534">
        <ele>708.83</ele>
        <time>2018-11-03T08:09:42.000Z</time>
      </trkpt>
      <trkpt lat="47.73891" lon="6.66534">
        <ele>707.35</ele>
        <time>2018-11-03T08:09:47.000Z</time>
      </trkpt>
      <trkpt lat="47.73892" lon="6.66531">
        <ele>705.87</ele>
        <time>2018-11-03T08:09:52.000Z</time>
      </trkpt>
      <trkpt lat="47.73896" lon="6.66509">
        <ele>704.39</ele>
        <time>2018-11-03T08:09:57.000Z</time>
      </trkpt>
      <trkpt lat="47.73911" lon="6.66474">
        <ele>704.6</ele>
        <time>2018-11-03T08:10:02.000Z</time>
      </trkpt>
      <trkpt lat="47.73929" lon="6.66428">
        <ele>704.81</ele>
        <time>2018-11-03T08:10:07.000Z</time>
      </trkpt>
      <trkpt lat="47.73937" lon="6.6637">
        <ele>705.02</ele>
        <time>2018-11-03T08:10:12.000Z</time>
      </trkpt>
      <trkpt lat="47.73946" lon="6.66324">
        <ele>705.88</ele>
        <time>2018-11-03T08:10:17.000Z</time>
      </trkpt>
      <trkpt lat="47.73946" lon="6.66281">
        <ele>706.74</ele>
        <time>2018-11-03T08:10:22.000Z</time>
      </trkpt>
      <trkpt lat="47.7395" lon="6.66236">
        <ele>707.6</ele>
        <time>2018-11-03T08:10:27.000Z</time>
      </trkpt>
      <trkpt lat="47.73975" lon="6.66198">
        <ele>702.03</ele>
        <time>2018-11-03T08:10:32.000Z</time>
      </trkpt>
      <trkpt lat="47.7401" lon="6.66175">
        <ele>696.46</ele>
        <time>2018-11-03T08:10:37.000Z</time>
      </trkpt>
      <trkpt lat="47.74046" lon="6.66175">
        <ele>690.89</ele>
        <time>2018-11-03T08:10:42.000Z</time>
      </trkpt>
      <trkpt lat="47.74083" lon="6.6616">
        <ele>684.81</ele>
        <time>2018-11-03T08:10:47.000Z</time>
      </trkpt>
      <trkpt lat="47.74118" lon="6.66108">
        <ele>678.74</ele>
        <time>2018-11-03T08:10:52.000Z</time>
      </trkpt>
      <trkpt lat="47.74139" lon="6.66006">
        <ele>672.66</ele>
        <time>2018-11-03T08:10:57.000Z</time>
      </trkpt>
      <trkpt lat="47.74123" lon="6.65929">
        <ele>672.32</ele>
        <time>2018-11-03T08:11:02.000Z</time>
      </trkpt>
      <trkpt lat="47.74094" lon="6.65874">
        <ele>671.98</ele>
        <time>2018-11-03T08:11:07.000Z</time>
      </trkpt>
      <trkpt lat="47.74088" lon="6.65873">
        <ele>671.64</ele>
        <time>2018-11-03T08:11:12.000Z</time>
      </trkpt>
      <trkpt lat="47.74089" lon="6.6588">
        <ele>671.54</ele>
        <time>2018-11-03T08:11:17.000Z</time>
      </trkpt>
      <trkpt lat="47.74089" lon="6.65873">
        <ele>671.45</ele>
        <time>2018-11-03T08:11:22.000Z</time>
      </trkpt>
      <trkpt lat="47.74087" lon="6.6585">
        <ele>671.35</ele>
        <time>2018-11-03T08:11:27.000Z</time>
      </trkpt>
      <trkpt lat="47.7409" lon="6.65825">
        <ele>672.38</ele>
        <time>2018-11-03T08:11:32.000Z</time>
      </trkpt>
      <trkpt lat="47.74099" lon="6.65797">
        <ele>673.41</ele>
        <time>2018-11-03T08:11:37.000Z</time>
      </trkpt>
      <trkpt lat="47.74102" lon="6.65768">
        <ele>674.44</ele>
        <time>2018-11-03T08:11:42.000Z</time>
      </trkpt>
      <trkpt lat="47.74097" lon="6.65746">
        <ele>675.49</ele>
        <time>2018-11-03T08:11:47.000Z</time>
      </trkpt>
      <trkpt lat="47.74089" lon="6.65728">
        <ele>676.54</ele>
        <time>2018-11-03T08:11:52.000Z</time>
      </trkpt>
      <trkpt lat="47.74083" lon="6.65712">
        <ele>677.59</ele>
        <time>2018-11-03T08:11:57.000Z</time>
      </trkpt>
      <trkpt lat="47.74077" lon="6.65695">
        <ele>678.84</ele>
        <time>2018-11-03T08:12:02.000Z</time>
      </trkpt>
      <trkpt lat="47.7407" lon="6.65675">
        <ele>680.09</ele>
        <time>2018-11-03T08:12:07.000Z</time>
      </trkpt>
      <trkpt lat="47.74065" lon="6.65658">
        <ele>681.35</ele>
        <time>2018-11-03T08:12:12.000Z</time>
      </trkpt>
      <trkpt lat="47.74061" lon="6.65642">
        <ele>681.96</ele>
        <time>2018-11-03T08:12:17.000Z</time>
      </trkpt>
      <trkpt lat="47.74057" lon="6.65627">
        <ele>682.58</ele>
        <time>2018-11-03T08:12:22.000Z</time>
      </trkpt>
      <trkpt lat="47.74054" lon="6.65611">
        <ele>683.19</ele>
        <time>2018-11-03T08:12:27.000Z</time>
      </trkpt>
      <trkpt lat="47.74052" lon="6.65593">
        <ele>684.15</ele>
        <time>2018-11-03T08:12:32.000Z</time>
      </trkpt>
      <trkpt lat="47.74049" lon="6.65576">
        <ele>685.11</ele>
        <time>2018-11-03T08:12:37.000Z</time>
      </trkpt>
      <trkpt lat="47.74048" lon="6.65561">
        <ele>686.06</ele>
        <time>2018-11-03T08:12:42.000Z</time>
      </trkpt>
      <trkpt lat="47.74045" lon="6.65544">
        <ele>687.76</ele>
        <time>2018-11-03T08:12:47.000Z</time>
      </trkpt>
      <trkpt lat="47.74043" lon="6.65526">
        <ele>689.45</ele>
        <time>2018-11-03T08:12:52.000Z</time>
      </trkpt>
      <trkpt lat="47.74044" lon="6.65506">
        <ele>691.14</ele>
        <time>2018-11-03T08:12:57.000Z</time>
      </trkpt>
      <trkpt lat="47.74047" lon="6.65485">
        <ele>691.39</ele>
        <time>2018-11-03T08:13:02.000Z</time>
      </trkpt>
      <trkpt lat="47.74051" lon="6.65463">
        <ele>691.63</ele>
        <time>2018-11-03T08:13:07.000Z</time>
      </trkpt>
      <trkpt lat="47.74056" lon="6.65438">
        <ele>691.88</ele>
        <time>2018-11-03T08:13:12.000Z</time>
      </trkpt>
      <trkpt lat="47.74061" lon="6.65411">
        <ele>691.11</ele>
        <time>2018-11-03T08:13:17.000Z</time>
      </trkpt>
      <trkpt lat="47.74063" lon="6.65377">
        <ele>690.35</ele>
        <time>2018-11-03T08:13:22.000Z</time>
      </trkpt>
      <trkpt lat="47.74064" lon="6.65354">
        <ele>689.58</ele>
        <time>2018-11-03T08:13:27.000Z</time>
      </trkpt>
      <trkpt lat="47.7407" lon="6.65329">
        <ele>689.82</ele>
        <time>2018-11-03T08:13:32.000Z</time>
      </trkpt>
      <trkpt lat="47.74078" lon="6.65294">
        <ele>690.06</ele>
        <time>2018-11-03T08:13:37.000Z</time>
      </trkpt>
      <trkpt lat="47.74087" lon="6.65263">
        <ele>690.3</ele>
        <time>2018-11-03T08:13:42.000Z</time>
      </trkpt>
      <trkpt lat="47.74096" lon="6.65231">
        <ele>691.55</ele>
        <time>2018-11-03T08:13:47.000Z</time>
      </trkpt>
      <trkpt lat="47.74112" lon="6.652">
        <ele>692.8</ele>
        <time>2018-11-03T08:13:52.000Z</time>
      </trkpt>
      <trkpt lat="47.74126" lon="6.65179">
        <ele>694.04</ele>
        <time>2018-11-03T08:13:57.000Z</time>
      </trkpt>
      <trkpt lat="47.74141" lon="6.65145">
        <ele>695.69</ele>
        <time>2018-11-03T08:14:02.000Z</time>
      </trkpt>
      <trkpt lat="47.74149" lon="6.65112">
        <ele>697.34</ele>
        <time>2018-11-03T08:14:07.000Z</time>
      </trkpt>
      <trkpt lat="47.74151" lon="6.65082">
        <ele>698.99</ele>
        <time>2018-11-03T08:14:12.000Z</time>
      </trkpt>
      <trkpt lat="47.7415" lon="6.65059">
        <ele>699.61</ele>
        <time>2018-11-03T08:14:17.000Z</time>
      </trkpt>
      <trkpt lat="47.74148" lon="6.65036">
        <ele>700.22</ele>
        <time>2018-11-03T08:14:22.000Z</time>
      </trkpt>
      <trkpt lat="47.74145" lon="6.65013">
        <ele>700.84</ele>
        <time>2018-11-03T08:14:27.000Z</time>
      </trkpt>
      <trkpt lat="47.74145" lon="6.64993">
        <ele>701.32</ele>
        <time>2018-11-03T08:14:32.000Z</time>
      </trkpt>
      <trkpt lat="47.74146" lon="6.64984">
        <ele>701.8</ele>
        <time>2018-11-03T08:14:37.000Z</time>
      </trkpt>
      <trkpt lat="47.74147" lon="6.64978">
        <ele>702.28</ele>
        <time>2018-11-03T08:14:42.000Z</time>
      </trkpt>
      <trkpt lat="47.74154" lon="6.64973">
        <ele>703.59</ele>
        <time>2018-11-03T08:14:47.000Z</time>
      </trkpt>
      <trkpt lat="47.74164" lon="6.64964">
        <ele>704.91</ele>
        <time>2018-11-03T08:14:52.000Z</time>
      </trkpt>
      <trkpt lat="47.74174" lon="6.64953">
        <ele>706.22</ele>
        <time>2018-11-03T08:14:57.000Z</time>
      </trkpt>
      <trkpt lat="47.74185" lon="6.64941">
        <ele>707.12</ele>
        <time>2018-11-03T08:15:02.000Z</time>
      </trkpt>
      <trkpt lat="47.74195" lon="6.64927">
        <ele>708.02</ele>
        <time>2018-11-03T08:15:07.000Z</time>
      </trkpt>
      <trkpt lat="47.74214" lon="6.64916">
        <ele>708.92</ele>
        <time>2018-11-03T08:15:12.000Z</time>
      </trkpt>
      <trkpt lat="47.74233" lon="6.64897">
        <ele>708.14</ele>
        <time>2018-11-03T08:15:17.000Z</time>
      </trkpt>
      <trkpt lat="47.74248" lon="6.64869">
        <ele>707.36</ele>
        <time>2018-11-03T08:15:22.000Z</time>
      </trkpt>
      <trkpt lat="47.74261" lon="6.64848">
        <ele>706.57</ele>
        <time>2018-11-03T08:15:27.000Z</time>
      </trkpt>
      <trkpt lat="47.74272" lon="6.64819">
        <ele>707.83</ele>
        <time>2018-11-03T08:15:32.000Z</time>
      </trkpt>
      <trkpt lat="47.74276" lon="6.64785">
        <ele>709.08</ele>
        <time>2018-11-03T08:15:37.000Z</time>
      </trkpt>
      <trkpt lat="47.74275" lon="6.64752">
        <ele>710.34</ele>
        <time>2018-11-03T08:15:42.000Z</time>
      </trkpt>
      <trkpt lat="47.74282" lon="6.64726">
        <ele>711.15</ele>
        <time>2018-11-03T08:15:47.000Z</time>
      </trkpt>
      <trkpt lat="47.74287" lon="6.64705">
        <ele>711.96</ele>
        <time>2018-11-03T08:15:52.000Z</time>
      </trkpt>
      <trkpt lat="47.7429" lon="6.64685">
        <ele>712.77</ele>
        <time>2018-11-03T08:15:57.000Z</time>
      </trkpt>
      <trkpt lat="47.74291" lon="6.64662">
        <ele>710.62</ele>
        <time>2018-11-03T08:16:02.000Z</time>
      </trkpt>
      <trkpt lat="47.74297" lon="6.64633">
        <ele>708.48</ele>
        <time>2018-11-03T08:16:07.000Z</time>
      </trkpt>
      <trkpt lat="47.74303" lon="6.64598">
        <ele>706.33</ele>
        <time>2018-11-03T08:16:12.000Z</time>
      </trkpt>
      <trkpt lat="47.74303" lon="6.64554">
        <ele>706.27</ele>
        <time>2018-11-03T08:16:17.000Z</time>
      </trkpt>
      <trkpt lat="47.74299" lon="6.64516">
        <ele>706.2</ele>
        <time>2018-11-03T08:16:22.000Z</time>
      </trkpt>
      <trkpt lat="47.74296" lon="6.64475">
        <ele>706.13</ele>
        <time>2018-11-03T08:16:27.000Z</time>
      </trkpt>
      <trkpt lat="47.74293" lon="6.64438">
        <ele>706.47</ele>
        <time>2018-11-03T08:16:32.000Z</time>
      </trkpt>
      <trkpt lat="47.74297" lon="6.64414">
        <ele>706.81</ele>
        <time>2018-11-03T08:16:37.000Z</time>
      </trkpt>
      <trkpt lat="47.743" lon="6.64403">
        <ele>707.15</ele>
        <time>2018-11-03T08:16:42.000Z</time>
      </trkpt>
      <trkpt lat="47.74304" lon="6.64395">
        <ele>706.68</ele>
        <time>2018-11-03T08:16:47.000Z</time>
      </trkpt>
      <trkpt lat="47.74307" lon="6.64378">
        <ele>706.21</ele>
        <time>2018-11-03T08:16:52.000Z</time>
      </trkpt>
      <trkpt lat="47.74308" lon="6.64354">
        <ele>705.74</ele>
        <time>2018-11-03T08:16:57.000Z</time>
      </trkpt>
      <trkpt lat="47.74315" lon="6.64317">
        <ele>702.9</ele>
        <time>2018-11-03T08:17:02.000Z</time>
      </trkpt>
      <trkpt lat="47.7432" lon="6.64275">
        <ele>700.06</ele>
        <time>2018-11-03T08:17:07.000Z</time>
      </trkpt>
      <trkpt lat="47.74327" lon="6.64244">
        <ele>697.23</ele>
        <time>2018-11-03T08:17:12.000Z</time>
      </trkpt>
      <trkpt lat="47.74333" lon="6.64218">
        <ele>695.23</ele>
        <time>2018-11-03T08:17:17.000Z</time>
      </trkpt>
      <trkpt lat="47.74337" lon="6.6419">
        <ele>693.23</ele>
        <time>2018-11-03T08:17:22.000Z</time>
      </trkpt>
      <trkpt lat="47.74339" lon="6.64158">
        <ele>691.23</ele>
        <time>2018-11-03T08:17:27.000Z</time>
      </trkpt>
      <trkpt lat="47.74344" lon="6.64129">
        <ele>689.65</ele>
        <time>2018-11-03T08:17:32.000Z</time>
      </trkpt>
      <trkpt lat="47.74342" lon="6.64101">
        <ele>688.06</ele>
        <time>2018-11-03T08:17:37.000Z</time>
      </trkpt>
      <trkpt lat="47.74335" lon="6.64091">
        <ele>686.48</ele>
        <time>2018-11-03T08:17:42.000Z</time>
      </trkpt>
      <trkpt lat="47.74327" lon="6.64079">
        <ele>688.04</ele>
        <time>2018-11-03T08:17:47.000Z</time>
      </trkpt>
      <trkpt lat="47.7432" lon="6.64069">
        <ele>689.6</ele>
        <time>2018-11-03T08:17:52.000Z</time>
      </trkpt>
      <trkpt lat="47.74323" lon="6.64055">
        <ele>691.16</ele>
        <time>2018-11-03T08:17:57.000Z</time>
      </trkpt>
      <trkpt lat="47.74327" lon="6.6404">
        <ele>692.27</ele>
        <time>2018-11-03T08:18:02.000Z</time>
      </trkpt>
      <trkpt lat="47.74331" lon="6.6402">
        <ele>693.39</ele>
        <time>2018-11-03T08:18:07.000Z</time>
      </trkpt>
      <trkpt lat="47.7433" lon="6.63991">
        <ele>694.5</ele>
        <time>2018-11-03T08:18:12.000Z</time>
      </trkpt>
      <trkpt lat="47.74331" lon="6.63966">
        <ele>695.38</ele>
        <time>2018-11-03T08:18:17.000Z</time>
      </trkpt>
      <trkpt lat="47.74329" lon="6.63936">
        <ele>696.26</ele>
        <time>2018-11-03T08:18:22.000Z</time>
      </trkpt>
      <trkpt lat="47.74328" lon="6.63904">
        <ele>697.14</ele>
        <time>2018-11-03T08:18:27.000Z</time>
      </trkpt>
      <trkpt lat="47.74332" lon="6.63868">
        <ele>696.74</ele>
        <time>2018-11-03T08:18:32.000Z</time>
      </trkpt>
      <trkpt lat="47.74339" lon="6.63838">
        <ele>696.33</ele>
        <time>2018-11-03T08:18:37.000Z</time>
      </trkpt>
      <trkpt lat="47.74345" lon="6.63806">
        <ele>695.93</ele>
        <time>2018-11-03T08:18:42.000Z</time>
      </trkpt>
      <trkpt lat="47.74348" lon="6.63779">
        <ele>694.17</ele>
        <time>2018-11-03T08:18:47.000Z</time>
      </trkpt>
      <trkpt lat="47.7436" lon="6.63747">
        <ele>692.41</ele>
        <time>2018-11-03T08:18:52.000Z</time>
      </trkpt>
      <trkpt lat="47.74371" lon="6.63732">
        <ele>690.66</ele>
        <time>2018-11-03T08:18:57.000Z</time>
      </trkpt>
      <trkpt lat="47.74372" lon="6.63731">
        <ele>690.59</ele>
        <time>2018-11-03T08:19:02.000Z</time>
      </trkpt>
      <trkpt lat="47.74372" lon="6.6373">
        <ele>690.52</ele>
        <time>2018-11-03T08:19:07.000Z</time>
      </trkpt>
      <trkpt lat="47.7437" lon="6.63729">
        <ele>690.45</ele>
        <time>2018-11-03T08:19:12.000Z</time>
      </trkpt>
      <trkpt lat="47.74369" lon="6.63728">
        <ele>690.13</ele>
        <time>2018-11-03T08:19:17.000Z</time>
      </trkpt>
      <trkpt lat="47.74368" lon="6.63727">
        <ele>689.82</ele>
        <time>2018-11-03T08:19:22.000Z</time>
      </trkpt>
      <trkpt lat="47.74374" lon="6.63719">
        <ele>689.5</ele>
        <time>2018-11-03T08:19:27.000Z</time>
      </trkpt>
      <trkpt lat="47.74379" lon="6.63711">
        <ele>688.62</ele>
        <time>2018-11-03T08:19:32.000Z</time>
      </trkpt>
      <trkpt lat="47.74386" lon="6.63693">
        <ele>687.75</ele>
        <time>2018-11-03T08:19:37.000Z</time>
      </trkpt>
      <trkpt lat="47.74394" lon="6.63668">
        <ele>686.88</ele>
        <time>2018-11-03T08:19:42.000Z</time>
      </trkpt>
      <trkpt lat="47.74403" lon="6.63637">
        <ele>685.69</ele>
        <time>2018-11-03T08:19:47.000Z</time>
      </trkpt>
      <trkpt lat="47.74411" lon="6.63605">
        <ele>684.5</ele>
        <time>2018-11-03T08:19:52.000Z</time>
      </trkpt>
      <trkpt lat="47.74411" lon="6.63567">
        <ele>683.31</ele>
        <time>2018-11-03T08:19:57.000Z</time>
      </trkpt>
      <trkpt lat="47.74409" lon="6.63524">
        <ele>682.35</ele>
        <time>2018-11-03T08:20:02.000Z</time>
      </trkpt>
      <trkpt lat="47.74403" lon="6.63481">
        <ele>681.39</ele>
        <time>2018-11-03T08:20:07.000Z</time>
      </trkpt>
      <trkpt lat="47.74408" lon="6.63444">
        <ele>680.43</ele>
        <time>2018-11-03T08:20:12.000Z</time>
      </trkpt>
      <trkpt lat="47.74411" lon="6.6343">
        <ele>679.85</ele>
        <time>2018-11-03T08:20:17.000Z</time>
      </trkpt>
      <trkpt lat="47.74411" lon="6.63428">
        <ele>679.28</ele>
        <time>2018-11-03T08:20:22.000Z</time>
      </trkpt>
      <trkpt lat="47.74419" lon="6.63413">
        <ele>678.71</ele>
        <time>2018-11-03T08:20:27.000Z</time>
      </trkpt>
      <trkpt lat="47.74432" lon="6.63383">
        <ele>677.73</ele>
        <time>2018-11-03T08:20:32.000Z</time>
      </trkpt>
      <trkpt lat="47.74447" lon="6.6333">
        <ele>676.74</ele>
        <time>2018-11-03T08:20:37.000Z</time>
      </trkpt>
      <trkpt lat="47.74462" lon="6.63291">
        <ele>675.76</ele>
        <time>2018-11-03T08:20:42.000Z</time>
      </trkpt>
      <trkpt lat="47.74473" lon="6.63249">
        <ele>672.67</ele>
        <time>2018-11-03T08:20:47.000Z</time>
      </trkpt>
      <trkpt lat="47.74491" lon="6.63223">
        <ele>669.57</ele>
        <time>2018-11-03T08:20:52.000Z</time>
      </trkpt>
      <trkpt lat="47.74519" lon="6.63217">
        <ele>666.47</ele>
        <time>2018-11-03T08:20:57.000Z</time>
      </trkpt>
      <trkpt lat="47.74542" lon="6.63216">
        <ele>666.43</ele>
        <time>2018-11-03T08:21:02.000Z</time>
      </trkpt>
      <trkpt lat="47.74564" lon="6.63215">
        <ele>666.38</ele>
        <time>2018-11-03T08:21:07.000Z</time>
      </trkpt>
      <trkpt lat="47.74583" lon="6.63215">
        <ele>666.34</ele>
        <time>2018-11-03T08:21:12.000Z</time>
      </trkpt>
      <trkpt lat="47.74605" lon="6.6321">
        <ele>667.46</ele>
        <time>2018-11-03T08:21:17.000Z</time>
      </trkpt>
      <trkpt lat="47.74627" lon="6.63199">
        <ele>668.58</ele>
        <time>2018-11-03T08:21:22.000Z</time>
      </trkpt>
      <trkpt lat="47.74654" lon="6.63188">
        <ele>669.7</ele>
        <time>2018-11-03T08:21:27.000Z</time>
      </trkpt>
      <trkpt lat="47.74671" lon="6.63168">
        <ele>669.39</ele>
        <time>2018-11-03T08:21:32.000Z</time>
      </trkpt>
      <trkpt lat="47.74679" lon="6.6315">
        <ele>669.08</ele>
        <time>2018-11-03T08:21:37.000Z</time>
      </trkpt>
      <trkpt lat="47.7469" lon="6.63134">
        <ele>668.77</ele>
        <time>2018-11-03T08:21:42.000Z</time>
      </trkpt>
      <trkpt lat="47.74701" lon="6.63118">
        <ele>668.56</ele>
        <time>2018-11-03T08:21:47.000Z</time>
      </trkpt>
      <trkpt lat="47.74714" lon="6.63102">
        <ele>668.36</ele>
        <time>2018-11-03T08:21:52.000Z</time>
      </trkpt>
      <trkpt lat="47.74728" lon="6.63079">
        <ele>668.16</ele>
        <time>2018-11-03T08:21:57.000Z</time>
      </trkpt>
      <trkpt lat="47.7474" lon="6.63055">
        <ele>669.49</ele>
        <time>2018-11-03T08:22:02.000Z</time>
      </trkpt>
      <trkpt lat="47.74755" lon="6.63038">
        <ele>670.82</ele>
        <time>2018-11-03T08:22:07.000Z</time>
      </trkpt>
      <trkpt lat="47.74769" lon="6.63019">
        <ele>672.14</ele>
        <time>2018-11-03T08:22:12.000Z</time>
      </trkpt>
      <trkpt lat="47.74784" lon="6.63007">
        <ele>673.99</ele>
        <time>2018-11-03T08:22:17.000Z</time>
      </trkpt>
      <trkpt lat="47.74799" lon="6.62998">
        <ele>675.84</ele>
        <time>2018-11-03T08:22:22.000Z</time>
      </trkpt>
      <trkpt lat="47.74812" lon="6.62982">
        <ele>677.68</ele>
        <time>2018-11-03T08:22:27.000Z</time>
      </trkpt>
      <trkpt lat="47.7483" lon="6.6297">
        <ele>679.91</ele>
        <time>2018-11-03T08:22:32.000Z</time>
      </trkpt>
      <trkpt lat="47.74848" lon="6.6296">
        <ele>682.15</ele>
        <time>2018-11-03T08:22:37.000Z</time>
      </trkpt>
      <trkpt lat="47.7487" lon="6.62947">
        <ele>684.38</ele>
        <time>2018-11-03T08:22:42.000Z</time>
      </trkpt>
      <trkpt lat="47.74891" lon="6.62935">
        <ele>683.97</ele>
        <time>2018-11-03T08:22:47.000Z</time>
      </trkpt>
      <trkpt lat="47.74911" lon="6.62919">
        <ele>683.57</ele>
        <time>2018-11-03T08:22:52.000Z</time>
      </trkpt>
      <trkpt lat="47.7493" lon="6.62907">
        <ele>683.16</ele>
        <time>2018-11-03T08:22:57.000Z</time>
      </trkpt>
      <trkpt lat="47.74955" lon="6.62895">
        <ele>681.58</ele>
        <time>2018-11-03T08:23:02.000Z</time>
      </trkpt>
      <trkpt lat="47.74978" lon="6.62885">
        <ele>680</ele>
        <time>2018-11-03T08:23:07.000Z</time>
      </trkpt>
      <trkpt lat="47.74997" lon="6.6287">
        <ele>678.42</ele>
        <time>2018-11-03T08:23:12.000Z</time>
      </trkpt>
      <trkpt lat="47.75013" lon="6.62865">
        <ele>675.45</ele>
        <time>2018-11-03T08:23:17.000Z</time>
      </trkpt>
      <trkpt lat="47.75036" lon="6.62852">
        <ele>672.48</ele>
        <time>2018-11-03T08:23:22.000Z</time>
      </trkpt>
      <trkpt lat="47.75067" lon="6.62848">
        <ele>669.51</ele>
        <time>2018-11-03T08:23:27.000Z</time>
      </trkpt>
      <trkpt lat="47.75097" lon="6.62835">
        <ele>667.6</ele>
        <time>2018-11-03T08:23:32.000Z</time>
      </trkpt>
      <trkpt lat="47.75122" lon="6.6283">
        <ele>665.7</ele>
        <time>2018-11-03T08:23:37.000Z</time>
      </trkpt>
      <trkpt lat="47.75152" lon="6.62825">
        <ele>663.79</ele>
        <time>2018-11-03T08:23:42.000Z</time>
      </trkpt>
      <trkpt lat="47.7518" lon="6.62822">
        <ele>662.1</ele>
        <time>2018-11-03T08:23:47.000Z</time>
      </trkpt>
      <trkpt lat="47.75206" lon="6.62827">
        <ele>660.4</ele>
        <time>2018-11-03T08:23:52.000Z</time>
      </trkpt>
      <trkpt lat="47.75233" lon="6.62836">
        <ele>658.71</ele>
        <time>2018-11-03T08:23:57.000Z</time>
      </trkpt>
      <trkpt lat="47.75257" lon="6.62854">
        <ele>659.25</ele>
        <time>2018-11-03T08:24:02.000Z</time>
      </trkpt>
      <trkpt lat="47.75279" lon="6.62863">
        <ele>659.79</ele>
        <time>2018-11-03T08:24:07.000Z</time>
      </trkpt>
      <trkpt lat="47.753" lon="6.62868">
        <ele>660.33</ele>
        <time>2018-11-03T08:24:12.000Z</time>
      </trkpt>
      <trkpt lat="47.75322" lon="6.62871">
        <ele>660.51</ele>
        <time>2018-11-03T08:24:17.000Z</time>
      </trkpt>
      <trkpt lat="47.7534" lon="6.62875">
        <ele>660.7</ele>
        <time>2018-11-03T08:24:22.000Z</time>
      </trkpt>
      <trkpt lat="47.75356" lon="6.62877">
        <ele>660.88</ele>
        <time>2018-11-03T08:24:27.000Z</time>
      </trkpt>
      <trkpt lat="47.75377" lon="6.62869">
        <ele>661.26</ele>
        <time>2018-11-03T08:24:32.000Z</time>
      </trkpt>
      <trkpt lat="47.7539" lon="6.62864">
        <ele>661.64</ele>
        <time>2018-11-03T08:24:37.000Z</time>
      </trkpt>
      <trkpt lat="47.75388" lon="6.62858">
        <ele>662.01</ele>
        <time>2018-11-03T08:24:42.000Z</time>
      </trkpt>
      <trkpt lat="47.75388" lon="6.62863">
        <ele>661.96</ele>
        <time>2018-11-03T08:24:47.000Z</time>
      </trkpt>
      <trkpt lat="47.75389" lon="6.62859">
        <ele>661.9</ele>
        <time>2018-11-03T08:24:52.000Z</time>
      </trkpt>
      <trkpt lat="47.75388" lon="6.62858">
        <ele>661.85</ele>
        <time>2018-11-03T08:24:57.000Z</time>
      </trkpt>
      <trkpt lat="47.75388" lon="6.62857">
        <ele>661.79</ele>
        <time>2018-11-03T08:25:02.000Z</time>
      </trkpt>
      <trkpt lat="47.75387" lon="6.62857">
        <ele>661.74</ele>
        <time>2018-11-03T08:25:07.000Z</time>
      </trkpt>
      <trkpt lat="47.75388" lon="6.62857">
        <ele>661.68</ele>
        <time>2018-11-03T08:25:12.000Z</time>
      </trkpt>
      <trkpt lat="47.75384" lon="6.62859">
        <ele>661.47</ele>
        <time>2018-11-03T08:25:17.000Z</time>
      </trkpt>
      <trkpt lat="47.75384" lon="6.62865">
        <ele>661.25</ele>
        <time>2018-11-03T08:25:22.000Z</time>
      </trkpt>
      <trkpt lat="47.75388" lon="6.62866">
        <ele>661.04</ele>
        <time>2018-11-03T08:25:27.000Z</time>
      </trkpt>
      <trkpt lat="47.75394" lon="6.62846">
        <ele>662.14</ele>
        <time>2018-11-03T08:25:32.000Z</time>
      </trkpt>
      <trkpt lat="47.75405" lon="6.62818">
        <ele>663.24</ele>
        <time>2018-11-03T08:25:37.000Z</time>
      </trkpt>
      <trkpt lat="47.75417" lon="6.6279">
        <ele>664.34</ele>
        <time>2018-11-03T08:25:42.000Z</time>
      </trkpt>
      <trkpt lat="47.75432" lon="6.62766">
        <ele>664.3</ele>
        <time>2018-11-03T08:25:47.000Z</time>
      </trkpt>
      <trkpt lat="47.75455" lon="6.62743">
        <ele>664.27</ele>
        <time>2018-11-03T08:25:52.000Z</time>
      </trkpt>
      <trkpt lat="47.75475" lon="6.62734">
        <ele>664.23</ele>
        <time>2018-11-03T08:25:57.000Z</time>
      </trkpt>
      <trkpt lat="47.75488" lon="6.62752">
        <ele>661.84</ele>
        <time>2018-11-03T08:26:02.000Z</time>
      </trkpt>
      <trkpt lat="47.75513" lon="6.62777">
        <ele>659.46</ele>
        <time>2018-11-03T08:26:07.000Z</time>
      </trkpt>
      <trkpt lat="47.75532" lon="6.62804">
        <ele>657.07</ele>
        <time>2018-11-03T08:26:12.000Z</time>
      </trkpt>
      <trkpt lat="47.75545" lon="6.62832">
        <ele>651.79</ele>
        <time>2018-11-03T08:26:17.000Z</time>
      </trkpt>
      <trkpt lat="47.75551" lon="6.62865">
        <ele>646.51</ele>
        <time>2018-11-03T08:26:22.000Z</time>
      </trkpt>
      <trkpt lat="47.75554" lon="6.62913">
        <ele>641.23</ele>
        <time>2018-11-03T08:26:27.000Z</time>
      </trkpt>
      <trkpt lat="47.75558" lon="6.62957">
        <ele>637.29</ele>
        <time>2018-11-03T08:26:32.000Z</time>
      </trkpt>
      <trkpt lat="47.75562" lon="6.62997">
        <ele>633.36</ele>
        <time>2018-11-03T08:26:37.000Z</time>
      </trkpt>
      <trkpt lat="47.75572" lon="6.63043">
        <ele>629.43</ele>
        <time>2018-11-03T08:26:42.000Z</time>
      </trkpt>
      <trkpt lat="47.75579" lon="6.63075">
        <ele>628.09</ele>
        <time>2018-11-03T08:26:47.000Z</time>
      </trkpt>
      <trkpt lat="47.75585" lon="6.63082">
        <ele>626.76</ele>
        <time>2018-11-03T08:26:52.000Z</time>
      </trkpt>
      <trkpt lat="47.75588" lon="6.63086">
        <ele>625.42</ele>
        <time>2018-11-03T08:26:57.000Z</time>
      </trkpt>
      <trkpt lat="47.75596" lon="6.63103">
        <ele>620.54</ele>
        <time>2018-11-03T08:27:02.000Z</time>
      </trkpt>
      <trkpt lat="47.75608" lon="6.63121">
        <ele>615.66</ele>
        <time>2018-11-03T08:27:07.000Z</time>
      </trkpt>
      <trkpt lat="47.75624" lon="6.63131">
        <ele>610.78</ele>
        <time>2018-11-03T08:27:12.000Z</time>
      </trkpt>
      <trkpt lat="47.75645" lon="6.6313">
        <ele>610.56</ele>
        <time>2018-11-03T08:27:17.000Z</time>
      </trkpt>
      <trkpt lat="47.75659" lon="6.63136">
        <ele>610.33</ele>
        <time>2018-11-03T08:27:22.000Z</time>
      </trkpt>
      <trkpt lat="47.75671" lon="6.63144">
        <ele>610.11</ele>
        <time>2018-11-03T08:27:27.000Z</time>
      </trkpt>
      <trkpt lat="47.7568" lon="6.63154">
        <ele>608.28</ele>
        <time>2018-11-03T08:27:32.000Z</time>
      </trkpt>
      <trkpt lat="47.75692" lon="6.63168">
        <ele>606.46</ele>
        <time>2018-11-03T08:27:37.000Z</time>
      </trkpt>
      <trkpt lat="47.75702" lon="6.63176">
        <ele>604.64</ele>
        <time>2018-11-03T08:27:42.000Z</time>
      </trkpt>
      <trkpt lat="47.75696" lon="6.63169">
        <ele>604.89</ele>
        <time>2018-11-03T08:27:47.000Z</time>
      </trkpt>
      <trkpt lat="47.75694" lon="6.63162">
        <ele>605.14</ele>
        <time>2018-11-03T08:27:52.000Z</time>
      </trkpt>
      <trkpt lat="47.75694" lon="6.63157">
        <ele>605.39</ele>
        <time>2018-11-03T08:27:57.000Z</time>
      </trkpt>
      <trkpt lat="47.75691" lon="6.63151">
        <ele>603.37</ele>
        <time>2018-11-03T08:28:02.000Z</time>
      </trkpt>
      <trkpt lat="47.75687" lon="6.6314">
        <ele>601.35</ele>
        <time>2018-11-03T08:28:07.000Z</time>
      </trkpt>
      <trkpt lat="47.75683" lon="6.63126">
        <ele>599.33</ele>
        <time>2018-11-03T08:28:12.000Z</time>
      </trkpt>
      <trkpt lat="47.75681" lon="6.63108">
        <ele>599.34</ele>
        <time>2018-11-03T08:28:17.000Z</time>
      </trkpt>
      <trkpt lat="47.75676" lon="6.63088">
        <ele>599.35</ele>
        <time>2018-11-03T08:28:22.000Z</time>
      </trkpt>
      <trkpt lat="47.75674" lon="6.63065">
        <ele>599.36</ele>
        <time>2018-11-03T08:28:27.000Z</time>
      </trkpt>
      <trkpt lat="47.75677" lon="6.63022">
        <ele>595.62</ele>
        <time>2018-11-03T08:28:32.000Z</time>
      </trkpt>
      <trkpt lat="47.75693" lon="6.62999">
        <ele>591.88</ele>
        <time>2018-11-03T08:28:37.000Z</time>
      </trkpt>
      <trkpt lat="47.75701" lon="6.62991">
        <ele>588.14</ele>
        <time>2018-11-03T08:28:42.000Z</time>
      </trkpt>
      <trkpt lat="47.75705" lon="6.62995">
        <ele>587.11</ele>
        <time>2018-11-03T08:28:47.000Z</time>
      </trkpt>
      <trkpt lat="47.75704" lon="6.63012">
        <ele>586.08</ele>
        <time>2018-11-03T08:28:52.000Z</time>
      </trkpt>
      <trkpt lat="47.75704" lon="6.63029">
        <ele>585.05</ele>
        <time>2018-11-03T08:28:57.000Z</time>
      </trkpt>
      <trkpt lat="47.75707" lon="6.63043">
        <ele>583.19</ele>
        <time>2018-11-03T08:29:02.000Z</time>
      </trkpt>
      <trkpt lat="47.75713" lon="6.63056">
        <ele>581.33</ele>
        <time>2018-11-03T08:29:07.000Z</time>
      </trkpt>
      <trkpt lat="47.75721" lon="6.63071">
        <ele>579.48</ele>
        <time>2018-11-03T08:29:12.000Z</time>
      </trkpt>
      <trkpt lat="47.75733" lon="6.63084">
        <ele>574.54</ele>
        <time>2018-11-03T08:29:17.000Z</time>
      </trkpt>
      <trkpt lat="47.75743" lon="6.63101">
        <ele>569.6</ele>
        <time>2018-11-03T08:29:22.000Z</time>
      </trkpt>
      <trkpt lat="47.75753" lon="6.63117">
        <ele>564.66</ele>
        <time>2018-11-03T08:29:27.000Z</time>
      </trkpt>
      <trkpt lat="47.75761" lon="6.63131">
        <ele>563.75</ele>
        <time>2018-11-03T08:29:32.000Z</time>
      </trkpt>
      <trkpt lat="47.75767" lon="6.63147">
        <ele>562.84</ele>
        <time>2018-11-03T08:29:37.000Z</time>
      </trkpt>
      <trkpt lat="47.75769" lon="6.63167">
        <ele>561.92</ele>
        <time>2018-11-03T08:29:42.000Z</time>
      </trkpt>
      <trkpt lat="47.75775" lon="6.63185">
        <ele>559</ele>
        <time>2018-11-03T08:29:47.000Z</time>
      </trkpt>
      <trkpt lat="47.75782" lon="6.63201">
        <ele>556.08</ele>
        <time>2018-11-03T08:29:52.000Z</time>
      </trkpt>
      <trkpt lat="47.75784" lon="6.63219">
        <ele>553.16</ele>
        <time>2018-11-03T08:29:57.000Z</time>
      </trkpt>
      <trkpt lat="47.7579" lon="6.63242">
        <ele>548.88</ele>
        <time>2018-11-03T08:30:02.000Z</time>
      </trkpt>
      <trkpt lat="47.75792" lon="6.63264">
        <ele>544.6</ele>
        <time>2018-11-03T08:30:07.000Z</time>
      </trkpt>
      <trkpt lat="47.75793" lon="6.63284">
        <ele>540.32</ele>
        <time>2018-11-03T08:30:12.000Z</time>
      </trkpt>
      <trkpt lat="47.75799" lon="6.63316">
        <ele>538.83</ele>
        <time>2018-11-03T08:30:17.000Z</time>
      </trkpt>
      <trkpt lat="47.75797" lon="6.63345">
        <ele>537.34</ele>
        <time>2018-11-03T08:30:22.000Z</time>
      </trkpt>
      <trkpt lat="47.75794" lon="6.63373">
        <ele>535.85</ele>
        <time>2018-11-03T08:30:27.000Z</time>
      </trkpt>
      <trkpt lat="47.75791" lon="6.63392">
        <ele>532.31</ele>
        <time>2018-11-03T08:30:32.000Z</time>
      </trkpt>
      <trkpt lat="47.75791" lon="6.63414">
        <ele>528.77</ele>
        <time>2018-11-03T08:30:37.000Z</time>
      </trkpt>
      <trkpt lat="47.75789" lon="6.63434">
        <ele>525.23</ele>
        <time>2018-11-03T08:30:42.000Z</time>
      </trkpt>
      <trkpt lat="47.75794" lon="6.6344">
        <ele>524.86</ele>
        <time>2018-11-03T08:30:47.000Z</time>
      </trkpt>
      <trkpt lat="47.75796" lon="6.63436">
        <ele>524.48</ele>
        <time>2018-11-03T08:30:52.000Z</time>
      </trkpt>
      <trkpt lat="47.75798" lon="6.63435">
        <ele>524.11</ele>
        <time>2018-11-03T08:30:57.000Z</time>
      </trkpt>
      <trkpt lat="47.75799" lon="6.63436">
        <ele>523.44</ele>
        <time>2018-11-03T08:31:02.000Z</time>
      </trkpt>
      <trkpt lat="47.75798" lon="6.63438">
        <ele>522.78</ele>
        <time>2018-11-03T08:31:07.000Z</time>
      </trkpt>
      <trkpt lat="47.758" lon="6.6344">
        <ele>522.11</ele>
        <time>2018-11-03T08:31:12.000Z</time>
      </trkpt>
      <trkpt lat="47.758" lon="6.63442">
        <ele>521.25</ele>
        <time>2018-11-03T08:31:17.000Z</time>
      </trkpt>
      <trkpt lat="47.75799" lon="6.63439">
        <ele>520.39</ele>
        <time>2018-11-03T08:31:22.000Z</time>
      </trkpt>
      <trkpt lat="47.75799" lon="6.63442">
        <ele>519.53</ele>
        <time>2018-11-03T08:31:27.000Z</time>
      </trkpt>
      <trkpt lat="47.758" lon="6.6345">
        <ele>516.38</ele>
        <time>2018-11-03T08:31:32.000Z</time>
      </trkpt>
      <trkpt lat="47.75801" lon="6.63461">
        <ele>513.23</ele>
        <time>2018-11-03T08:31:37.000Z</time>
      </trkpt>
      <trkpt lat="47.75802" lon="6.63479">
        <ele>510.08</ele>
        <time>2018-11-03T08:31:42.000Z</time>
      </trkpt>
      <trkpt lat="47.75806" lon="6.63497">
        <ele>506.5</ele>
        <time>2018-11-03T08:31:47.000Z</time>
      </trkpt>
      <trkpt lat="47.75809" lon="6.63515">
        <ele>502.92</ele>
        <time>2018-11-03T08:31:52.000Z</time>
      </trkpt>
      <trkpt lat="47.75814" lon="6.63533">
        <ele>499.34</ele>
        <time>2018-11-03T08:31:57.000Z</time>
      </trkpt>
      <trkpt lat="47.75816" lon="6.63543">
        <ele>495.88</ele>
        <time>2018-11-03T08:32:02.000Z</time>
      </trkpt>
      <trkpt lat="47.75823" lon="6.63552">
        <ele>492.41</ele>
        <time>2018-11-03T08:32:07.000Z</time>
      </trkpt>
      <trkpt lat="47.7583" lon="6.63562">
        <ele>488.95</ele>
        <time>2018-11-03T08:32:12.000Z</time>
      </trkpt>
      <trkpt lat="47.75835" lon="6.63567">
        <ele>486.44</ele>
        <time>2018-11-03T08:32:17.000Z</time>
      </trkpt>
      <trkpt lat="47.75841" lon="6.63574">
        <ele>483.93</ele>
        <time>2018-11-03T08:32:22.000Z</time>
      </trkpt>
      <trkpt lat="47.75843" lon="6.63582">
        <ele>481.42</ele>
        <time>2018-11-03T08:32:27.000Z</time>
      </trkpt>
      <trkpt lat="47.75847" lon="6.6359">
        <ele>478.82</ele>
        <time>2018-11-03T08:32:32.000Z</time>
      </trkpt>
      <trkpt lat="47.75854" lon="6.63601">
        <ele>476.22</ele>
        <time>2018-11-03T08:32:37.000Z</time>
      </trkpt>
      <trkpt lat="47.75868" lon="6.63615">
        <ele>473.62</ele>
        <time>2018-11-03T08:32:42.000Z</time>
      </trkpt>
      <trkpt lat="47.75872" lon="6.63621">
        <ele>471.35</ele>
        <time>2018-11-03T08:32:47.000Z</time>
      </trkpt>
      <trkpt lat="47.75875" lon="6.63631">
        <ele>469.07</ele>
        <time>2018-11-03T08:32:52.000Z</time>
      </trkpt>
      <trkpt lat="47.7588" lon="6.63636">
        <ele>466.79</ele>
        <time>2018-11-03T08:32:57.000Z</time>
      </trkpt>
      <trkpt lat="47.75884" lon="6.63641">
        <ele>464.59</ele>
        <time>2018-11-03T08:33:02.000Z</time>
      </trkpt>
      <trkpt lat="47.7589" lon="6.63647">
        <ele>462.39</ele>
        <time>2018-11-03T08:33:07.000Z</time>
      </trkpt>
      <trkpt lat="47.75898" lon="6.63648">
        <ele>460.18</ele>
        <time>2018-11-03T08:33:12.000Z</time>
      </trkpt>
      <trkpt lat="47.75902" lon="6.63648">
        <ele>458.25</ele>
        <time>2018-11-03T08:33:17.000Z</time>
      </trkpt>
      <trkpt lat="47.75906" lon="6.63654">
        <ele>456.32</ele>
        <time>2018-11-03T08:33:22.000Z</time>
      </trkpt>
      <trkpt lat="47.7591" lon="6.63658">
        <ele>454.39</ele>
        <time>2018-11-03T08:33:27.000Z</time>
      </trkpt>
      <trkpt lat="47.75914" lon="6.6366">
        <ele>452.61</ele>
        <time>2018-11-03T08:33:32.000Z</time>
      </trkpt>
      <trkpt lat="47.75918" lon="6.63661">
        <ele>450.83</ele>
        <time>2018-11-03T08:33:37.000Z</time>
      </trkpt>
      <trkpt lat="47.75923" lon="6.63664">
        <ele>449.05</ele>
        <time>2018-11-03T08:33:42.000Z</time>
      </trkpt>
      <trkpt lat="47.75927" lon="6.63663">
        <ele>447.72</ele>
        <time>2018-11-03T08:33:47.000Z</time>
      </trkpt>
      <trkpt lat="47.75931" lon="6.63665">
        <ele>446.38</ele>
        <time>2018-11-03T08:33:52.000Z</time>
      </trkpt>
      <trkpt lat="47.75933" lon="6.63666">
        <ele>445.05</ele>
        <time>2018-11-03T08:33:57.000Z</time>
      </trkpt>
      <trkpt lat="47.75934" lon="6.63666">
        <ele>444.9</ele>
        <time>2018-11-03T08:34:02.000Z</time>
      </trkpt>
      <trkpt lat="47.75933" lon="6.63666">
        <ele>444.75</ele>
        <time>2018-11-03T08:34:07.000Z</time>
      </trkpt>
      <trkpt lat="47.75934" lon="6.63665">
        <ele>444.6</ele>
        <time>2018-11-03T08:34:12.000Z</time>
      </trkpt>
      <trkpt lat="47.75936" lon="6.63664">
        <ele>441.47</ele>
        <time>2018-11-03T08:34:17.000Z</time>
      </trkpt>
      <trkpt lat="47.75938" lon="6.63666">
        <ele>438.35</ele>
        <time>2018-11-03T08:34:22.000Z</time>
      </trkpt>
      <trkpt lat="47.75943" lon="6.63675">
        <ele>435.22</ele>
        <time>2018-11-03T08:34:27.000Z</time>
      </trkpt>
      <trkpt lat="47.75952" lon="6.63696">
        <ele>433.56</ele>
        <time>2018-11-03T08:34:32.000Z</time>
      </trkpt>
      <trkpt lat="47.75964" lon="6.63742">
        <ele>431.9</ele>
        <time>2018-11-03T08:34:37.000Z</time>
      </trkpt>
      <trkpt lat="47.75981" lon="6.63783">
        <ele>430.24</ele>
        <time>2018-11-03T08:34:42.000Z</time>
      </trkpt>
      <trkpt lat="47.75991" lon="6.63823">
        <ele>430.12</ele>
        <time>2018-11-03T08:34:47.000Z</time>
      </trkpt>
      <trkpt lat="47.76001" lon="6.63849">
        <ele>430.01</ele>
        <time>2018-11-03T08:34:52.000Z</time>
      </trkpt>
      <trkpt lat="47.76009" lon="6.63867">
        <ele>429.89</ele>
        <time>2018-11-03T08:34:57.000Z</time>
      </trkpt>
      <trkpt lat="47.76016" lon="6.63888">
        <ele>430.04</ele>
        <time>2018-11-03T08:35:02.000Z</time>
      </trkpt>
      <trkpt lat="47.76025" lon="6.63919">
        <ele>430.19</ele>
        <time>2018-11-03T08:35:07.000Z</time>
      </trkpt>
      <trkpt lat="47.76022" lon="6.63945">
        <ele>430.33</ele>
        <time>2018-11-03T08:35:12.000Z</time>
      </trkpt>
      <trkpt lat="47.76019" lon="6.6397">
        <ele>431.35</ele>
        <time>2018-11-03T08:35:17.000Z</time>
      </trkpt>
      <trkpt lat="47.76022" lon="6.63994">
        <ele>432.36</ele>
        <time>2018-11-03T08:35:22.000Z</time>
      </trkpt>
      <trkpt lat="47.76034" lon="6.64014">
        <ele>433.37</ele>
        <time>2018-11-03T08:35:27.000Z</time>
      </trkpt>
      <trkpt lat="47.76048" lon="6.64029">
        <ele>434.13</ele>
        <time>2018-11-03T08:35:32.000Z</time>
      </trkpt>
      <trkpt lat="47.76061" lon="6.64039">
        <ele>434.89</ele>
        <time>2018-11-03T08:35:37.000Z</time>
      </trkpt>
      <trkpt lat="47.76073" lon="6.64048">
        <ele>435.65</ele>
        <time>2018-11-03T08:35:42.000Z</time>
      </trkpt>
      <trkpt lat="47.76081" lon="6.64059">
        <ele>436.06</ele>
        <time>2018-11-03T08:35:47.000Z</time>
      </trkpt>
      <trkpt lat="47.76086" lon="6.64074">
        <ele>436.47</ele>
        <time>2018-11-03T08:35:52.000Z</time>
      </trkpt>
      <trkpt lat="47.76091" lon="6.64086">
        <ele>436.88</ele>
        <time>2018-11-03T08:35:57.000Z</time>
      </trkpt>
      <trkpt lat="47.76097" lon="6.64095">
        <ele>437.98</ele>
        <time>2018-11-03T08:36:02.000Z</time>
      </trkpt>
      <trkpt lat="47.76106" lon="6.64109">
        <ele>439.08</ele>
        <time>2018-11-03T08:36:07.000Z</time>
      </trkpt>
      <trkpt lat="47.76115" lon="6.6412">
        <ele>440.18</ele>
        <time>2018-11-03T08:36:12.000Z</time>
      </trkpt>
      <trkpt lat="47.76127" lon="6.64128">
        <ele>441.08</ele>
        <time>2018-11-03T08:36:17.000Z</time>
      </trkpt>
      <trkpt lat="47.76137" lon="6.64134">
        <ele>441.98</ele>
        <time>2018-11-03T08:36:22.000Z</time>
      </trkpt>
      <trkpt lat="47.76148" lon="6.64136">
        <ele>442.89</ele>
        <time>2018-11-03T08:36:27.000Z</time>
      </trkpt>
      <trkpt lat="47.76158" lon="6.64134">
        <ele>444.05</ele>
        <time>2018-11-03T08:36:32.000Z</time>
      </trkpt>
      <trkpt lat="47.76168" lon="6.64131">
        <ele>445.21</ele>
        <time>2018-11-03T08:36:37.000Z</time>
      </trkpt>
      <trkpt lat="47.76178" lon="6.64129">
        <ele>446.37</ele>
        <time>2018-11-03T08:36:42.000Z</time>
      </trkpt>
      <trkpt lat="47.76188" lon="6.64127">
        <ele>447.69</ele>
        <time>2018-11-03T08:36:47.000Z</time>
      </trkpt>
      <trkpt lat="47.76197" lon="6.64121">
        <ele>449.01</ele>
        <time>2018-11-03T08:36:52.000Z</time>
      </trkpt>
      <trkpt lat="47.76205" lon="6.64112">
        <ele>450.33</ele>
        <time>2018-11-03T08:36:57.000Z</time>
      </trkpt>
      <trkpt lat="47.76214" lon="6.64102">
        <ele>451.07</ele>
        <time>2018-11-03T08:37:02.000Z</time>
      </trkpt>
      <trkpt lat="47.76222" lon="6.6409">
        <ele>451.81</ele>
        <time>2018-11-03T08:37:07.000Z</time>
      </trkpt>
      <trkpt lat="47.76229" lon="6.64077">
        <ele>452.55</ele>
        <time>2018-11-03T08:37:12.000Z</time>
      </trkpt>
      <trkpt lat="47.76237" lon="6.64062">
        <ele>452.79</ele>
        <time>2018-11-03T08:37:17.000Z</time>
      </trkpt>
      <trkpt lat="47.76247" lon="6.64048">
        <ele>453.04</ele>
        <time>2018-11-03T08:37:22.000Z</time>
      </trkpt>
      <trkpt lat="47.76253" lon="6.64037">
        <ele>453.29</ele>
        <time>2018-11-03T08:37:27.000Z</time>
      </trkpt>
      <trkpt lat="47.7626" lon="6.64026">
        <ele>453.47</ele>
        <time>2018-11-03T08:37:32.000Z</time>
      </trkpt>
      <trkpt lat="47.76266" lon="6.64021">
        <ele>453.65</ele>
        <time>2018-11-03T08:37:37.000Z</time>
      </trkpt>
      <trkpt lat="47.76268" lon="6.64014">
        <ele>453.84</ele>
        <time>2018-11-03T08:37:42.000Z</time>
      </trkpt>
      <trkpt lat="47.76273" lon="6.64007">
        <ele>454.11</ele>
        <time>2018-11-03T08:37:47.000Z</time>
      </trkpt>
      <trkpt lat="47.7628" lon="6.64003">
        <ele>454.39</ele>
        <time>2018-11-03T08:37:52.000Z</time>
      </trkpt>
      <trkpt lat="47.7628" lon="6.63991">
        <ele>454.66</ele>
        <time>2018-11-03T08:37:57.000Z</time>
      </trkpt>
      <trkpt lat="47.76273" lon="6.63974">
        <ele>454.76</ele>
        <time>2018-11-03T08:38:02.000Z</time>
      </trkpt>
      <trkpt lat="47.76257" lon="6.63956">
        <ele>454.85</ele>
        <time>2018-11-03T08:38:07.000Z</time>
      </trkpt>
      <trkpt lat="47.76237" lon="6.63939">
        <ele>454.95</ele>
        <time>2018-11-03T08:38:12.000Z</time>
      </trkpt>
      <trkpt lat="47.76216" lon="6.63921">
        <ele>454.54</ele>
        <time>2018-11-03T08:38:17.000Z</time>
      </trkpt>
      <trkpt lat="47.76197" lon="6.63901">
        <ele>454.14</ele>
        <time>2018-11-03T08:38:22.000Z</time>
      </trkpt>
      <trkpt lat="47.76181" lon="6.63877">
        <ele>453.73</ele>
        <time>2018-11-03T08:38:27.000Z</time>
      </trkpt>
      <trkpt lat="47.76169" lon="6.63851">
        <ele>453.96</ele>
        <time>2018-11-03T08:38:32.000Z</time>
      </trkpt>
      <trkpt lat="47.76159" lon="6.63818">
        <ele>454.19</ele>
        <time>2018-11-03T08:38:37.000Z</time>
      </trkpt>
      <trkpt lat="47.76158" lon="6.638">
        <ele>454.42</ele>
        <time>2018-11-03T08:38:42.000Z</time>
      </trkpt>
      <trkpt lat="47.76166" lon="6.63802">
        <ele>455.49</ele>
        <time>2018-11-03T08:38:47.000Z</time>
      </trkpt>
      <trkpt lat="47.76175" lon="6.63807">
        <ele>456.57</ele>
        <time>2018-11-03T08:38:52.000Z</time>
      </trkpt>
      <trkpt lat="47.76185" lon="6.63811">
        <ele>457.64</ele>
        <time>2018-11-03T08:38:57.000Z</time>
      </trkpt>
      <trkpt lat="47.76197" lon="6.63815">
        <ele>458.04</ele>
        <time>2018-11-03T08:39:02.000Z</time>
      </trkpt>
      <trkpt lat="47.7621" lon="6.63818">
        <ele>458.43</ele>
        <time>2018-11-03T08:39:07.000Z</time>
      </trkpt>
      <trkpt lat="47.76228" lon="6.63821">
        <ele>458.83</ele>
        <time>2018-11-03T08:39:12.000Z</time>
      </trkpt>
      <trkpt lat="47.76244" lon="6.63829">
        <ele>458.85</ele>
        <time>2018-11-03T08:39:17.000Z</time>
      </trkpt>
      <trkpt lat="47.76259" lon="6.63838">
        <ele>458.87</ele>
        <time>2018-11-03T08:39:22.000Z</time>
      </trkpt>
      <trkpt lat="47.76266" lon="6.63846">
        <ele>458.89</ele>
        <time>2018-11-03T08:39:27.000Z</time>
      </trkpt>
      <trkpt lat="47.76273" lon="6.63853">
        <ele>459.21</ele>
        <time>2018-11-03T08:39:32.000Z</time>
      </trkpt>
      <trkpt lat="47.7628" lon="6.63862">
        <ele>459.52</ele>
        <time>2018-11-03T08:39:37.000Z</time>
      </trkpt>
      <trkpt lat="47.76289" lon="6.63869">
        <ele>459.84</ele>
        <time>2018-11-03T08:39:42.000Z</time>
      </trkpt>
      <trkpt lat="47.76298" lon="6.63875">
        <ele>460.44</ele>
        <time>2018-11-03T08:39:47.000Z</time>
      </trkpt>
      <trkpt lat="47.76311" lon="6.63882">
        <ele>461.04</ele>
        <time>2018-11-03T08:39:52.000Z</time>
      </trkpt>
      <trkpt lat="47.76324" lon="6.63886">
        <ele>461.64</ele>
        <time>2018-11-03T08:39:57.000Z</time>
      </trkpt>
      <trkpt lat="47.76338" lon="6.63889">
        <ele>461.6</ele>
        <time>2018-11-03T08:40:02.000Z</time>
      </trkpt>
      <trkpt lat="47.76351" lon="6.63889">
        <ele>461.57</ele>
        <time>2018-11-03T08:40:07.000Z</time>
      </trkpt>
      <trkpt lat="47.76368" lon="6.6389">
        <ele>461.53</ele>
        <time>2018-11-03T08:40:12.000Z</time>
      </trkpt>
      <trkpt lat="47.76382" lon="6.6389">
        <ele>460.97</ele>
        <time>2018-11-03T08:40:17.000Z</time>
      </trkpt>
      <trkpt lat="47.76396" lon="6.63891">
        <ele>460.41</ele>
        <time>2018-11-03T08:40:22.000Z</time>
      </trkpt>
      <trkpt lat="47.76403" lon="6.63891">
        <ele>459.86</ele>
        <time>2018-11-03T08:40:27.000Z</time>
      </trkpt>
      <trkpt lat="47.76416" lon="6.63889">
        <ele>459.91</ele>
        <time>2018-11-03T08:40:32.000Z</time>
      </trkpt>
      <trkpt lat="47.76431" lon="6.63886">
        <ele>459.96</ele>
        <time>2018-11-03T08:40:37.000Z</time>
      </trkpt>
      <trkpt lat="47.76446" lon="6.63876">
        <ele>460.01</ele>
        <time>2018-11-03T08:40:42.000Z</time>
      </trkpt>
      <trkpt lat="47.76462" lon="6.63855">
        <ele>460.45</ele>
        <time>2018-11-03T08:40:47.000Z</time>
      </trkpt>
      <trkpt lat="47.76482" lon="6.63828">
        <ele>460.89</ele>
        <time>2018-11-03T08:40:52.000Z</time>
      </trkpt>
      <trkpt lat="47.76504" lon="6.6381">
        <ele>461.33</ele>
        <time>2018-11-03T08:40:57.000Z</time>
      </trkpt>
      <trkpt lat="47.76523" lon="6.63807">
        <ele>463.33</ele>
        <time>2018-11-03T08:41:02.000Z</time>
      </trkpt>
      <trkpt lat="47.76537" lon="6.63812">
        <ele>465.33</ele>
        <time>2018-11-03T08:41:07.000Z</time>
      </trkpt>
      <trkpt lat="47.76553" lon="6.63812">
        <ele>467.33</ele>
        <time>2018-11-03T08:41:12.000Z</time>
      </trkpt>
      <trkpt lat="47.76563" lon="6.6381">
        <ele>466.99</ele>
        <time>2018-11-03T08:41:17.000Z</time>
      </trkpt>
      <trkpt lat="47.76566" lon="6.63806">
        <ele>466.65</ele>
        <time>2018-11-03T08:41:22.000Z</time>
      </trkpt>
      <trkpt lat="47.76566" lon="6.63804">
        <ele>466.31</ele>
        <time>2018-11-03T08:41:27.000Z</time>
      </trkpt>
      <trkpt lat="47.76566" lon="6.63799">
        <ele>467.02</ele>
        <time>2018-11-03T08:41:32.000Z</time>
      </trkpt>
      <trkpt lat="47.76567" lon="6.63798">
        <ele>467.74</ele>
        <time>2018-11-03T08:41:37.000Z</time>
      </trkpt>
      <trkpt lat="47.76576" lon="6.63794">
        <ele>468.45</ele>
        <time>2018-11-03T08:41:42.000Z</time>
      </trkpt>
      <trkpt lat="47.76587" lon="6.6379">
        <ele>469.37</ele>
        <time>2018-11-03T08:41:47.000Z</time>
      </trkpt>
      <trkpt lat="47.76598" lon="6.63786">
        <ele>470.29</ele>
        <time>2018-11-03T08:41:52.000Z</time>
      </trkpt>
      <trkpt lat="47.76609" lon="6.63784">
        <ele>471.21</ele>
        <time>2018-11-03T08:41:57.000Z</time>
      </trkpt>
      <trkpt lat="47.76618" lon="6.63777">
        <ele>472.7</ele>
        <time>2018-11-03T08:42:02.000Z</time>
      </trkpt>
      <trkpt lat="47.76629" lon="6.63769">
        <ele>474.2</ele>
        <time>2018-11-03T08:42:07.000Z</time>
      </trkpt>
      <trkpt lat="47.76641" lon="6.63764">
        <ele>475.69</ele>
        <time>2018-11-03T08:42:12.000Z</time>
      </trkpt>
      <trkpt lat="47.76652" lon="6.63756">
        <ele>477.67</ele>
        <time>2018-11-03T08:42:17.000Z</time>
      </trkpt>
      <trkpt lat="47.76661" lon="6.63752">
        <ele>479.64</ele>
        <time>2018-11-03T08:42:22.000Z</time>
      </trkpt>
      <trkpt lat="47.76668" lon="6.63749">
        <ele>481.62</ele>
        <time>2018-11-03T08:42:27.000Z</time>
      </trkpt>
      <trkpt lat="47.76676" lon="6.63747">
        <ele>483.34</ele>
        <time>2018-11-03T08:42:32.000Z</time>
      </trkpt>
      <trkpt lat="47.76683" lon="6.63746">
        <ele>485.06</ele>
        <time>2018-11-03T08:42:37.000Z</time>
      </trkpt>
      <trkpt lat="47.76688" lon="6.63746">
        <ele>486.78</ele>
        <time>2018-11-03T08:42:42.000Z</time>
      </trkpt>
      <trkpt lat="47.76694" lon="6.63745">
        <ele>488.48</ele>
        <time>2018-11-03T08:42:47.000Z</time>
      </trkpt>
      <trkpt lat="47.76698" lon="6.63745">
        <ele>490.19</ele>
        <time>2018-11-03T08:42:52.000Z</time>
      </trkpt>
      <trkpt lat="47.76705" lon="6.63747">
        <ele>491.89</ele>
        <time>2018-11-03T08:42:57.000Z</time>
      </trkpt>
      <trkpt lat="47.76709" lon="6.6375">
        <ele>493.1</ele>
        <time>2018-11-03T08:43:02.000Z</time>
      </trkpt>
      <trkpt lat="47.76711" lon="6.63751">
        <ele>494.3</ele>
        <time>2018-11-03T08:43:07.000Z</time>
      </trkpt>
      <trkpt lat="47.76715" lon="6.63753">
        <ele>495.51</ele>
        <time>2018-11-03T08:43:12.000Z</time>
      </trkpt>
      <trkpt lat="47.76719" lon="6.63754">
        <ele>496.22</ele>
        <time>2018-11-03T08:43:17.000Z</time>
      </trkpt>
      <trkpt lat="47.76722" lon="6.63754">
        <ele>496.92</ele>
        <time>2018-11-03T08:43:22.000Z</time>
      </trkpt>
      <trkpt lat="47.76724" lon="6.63756">
        <ele>497.62</ele>
        <time>2018-11-03T08:43:27.000Z</time>
      </trkpt>
      <trkpt lat="47.76725" lon="6.63756">
        <ele>498.24</ele>
        <time>2018-11-03T08:43:32.000Z</time>
      </trkpt>
      <trkpt lat="47.76727" lon="6.63758">
        <ele>498.85</ele>
        <time>2018-11-03T08:43:37.000Z</time>
      </trkpt>
      <trkpt lat="47.76728" lon="6.63759">
        <ele>499.46</ele>
        <time>2018-11-03T08:43:42.000Z</time>
      </trkpt>
      <trkpt lat="47.7673" lon="6.6376">
        <ele>500.28</ele>
        <time>2018-11-03T08:43:47.000Z</time>
      </trkpt>
      <trkpt lat="47.76732" lon="6.63761">
        <ele>501.1</ele>
        <time>2018-11-03T08:43:52.000Z</time>
      </trkpt>
      <trkpt lat="47.76735" lon="6.63759">
        <ele>501.92</ele>
        <time>2018-11-03T08:43:57.000Z</time>
      </trkpt>
      <trkpt lat="47.76738" lon="6.63759">
        <ele>502.67</ele>
        <time>2018-11-03T08:44:02.000Z</time>
      </trkpt>
      <trkpt lat="47.76742" lon="6.6376">
        <ele>503.41</ele>
        <time>2018-11-03T08:44:07.000Z</time>
      </trkpt>
      <trkpt lat="47.76743" lon="6.6376">
        <ele>504.16</ele>
        <time>2018-11-03T08:44:12.000Z</time>
      </trkpt>
      <trkpt lat="47.76745" lon="6.63762">
        <ele>504.87</ele>
        <time>2018-11-03T08:44:17.000Z</time>
      </trkpt>
      <trkpt lat="47.76748" lon="6.63763">
        <ele>505.57</ele>
        <time>2018-11-03T08:44:22.000Z</time>
      </trkpt>
      <trkpt lat="47.76751" lon="6.63764">
        <ele>506.28</ele>
        <time>2018-11-03T08:44:27.000Z</time>
      </trkpt>
      <trkpt lat="47.76752" lon="6.63763">
        <ele>506.83</ele>
        <time>2018-11-03T08:44:32.000Z</time>
      </trkpt>
      <trkpt lat="47.76754" lon="6.63762">
        <ele>507.39</ele>
        <time>2018-11-03T08:44:37.000Z</time>
      </trkpt>
      <trkpt lat="47.76759" lon="6.63761">
        <ele>507.94</ele>
        <time>2018-11-03T08:44:42.000Z</time>
      </trkpt>
      <trkpt lat="47.7676" lon="6.63759">
        <ele>508.69</ele>
        <time>2018-11-03T08:44:47.000Z</time>
      </trkpt>
      <trkpt lat="47.76763" lon="6.63759">
        <ele>509.44</ele>
        <time>2018-11-03T08:44:52.000Z</time>
      </trkpt>
      <trkpt lat="47.76767" lon="6.63761">
        <ele>510.2</ele>
        <time>2018-11-03T08:44:57.000Z</time>
      </trkpt>
      <trkpt lat="47.76768" lon="6.63761">
        <ele>510.45</ele>
        <time>2018-11-03T08:45:02.000Z</time>
      </trkpt>
      <trkpt lat="47.76769" lon="6.63759">
        <ele>510.71</ele>
        <time>2018-11-03T08:45:07.000Z</time>
      </trkpt>
      <trkpt lat="47.76771" lon="6.63758">
        <ele>510.97</ele>
        <time>2018-11-03T08:45:12.000Z</time>
      </trkpt>
      <trkpt lat="47.76773" lon="6.63758">
        <ele>511.43</ele>
        <time>2018-11-03T08:45:17.000Z</time>
      </trkpt>
      <trkpt lat="47.76776" lon="6.63759">
        <ele>511.89</ele>
        <time>2018-11-03T08:45:22.000Z</time>
      </trkpt>
      <trkpt lat="47.76778" lon="6.63758">
        <ele>512.35</ele>
        <time>2018-11-03T08:45:27.000Z</time>
      </trkpt>
      <trkpt lat="47.76779" lon="6.63756">
        <ele>512.84</ele>
        <time>2018-11-03T08:45:32.000Z</time>
      </trkpt>
      <trkpt lat="47.76781" lon="6.63754">
        <ele>513.33</ele>
        <time>2018-11-03T08:45:37.000Z</time>
      </trkpt>
      <trkpt lat="47.76784" lon="6.63751">
        <ele>513.81</ele>
        <time>2018-11-03T08:45:42.000Z</time>
      </trkpt>
      <trkpt lat="47.76788" lon="6.63752">
        <ele>514.68</ele>
        <time>2018-11-03T08:45:47.000Z</time>
      </trkpt>
      <trkpt lat="47.76791" lon="6.63752">
        <ele>515.55</ele>
        <time>2018-11-03T08:45:52.000Z</time>
      </trkpt>
      <trkpt lat="47.76795" lon="6.63751">
        <ele>516.42</ele>
        <time>2018-11-03T08:45:57.000Z</time>
      </trkpt>
      <trkpt lat="47.76799" lon="6.63752">
        <ele>516.73</ele>
        <time>2018-11-03T08:46:02.000Z</time>
      </trkpt>
      <trkpt lat="47.76801" lon="6.63753">
        <ele>517.04</ele>
        <time>2018-11-03T08:46:07.000Z</time>
      </trkpt>
      <trkpt lat="47.768" lon="6.63751">
        <ele>517.34</ele>
        <time>2018-11-03T08:46:12.000Z</time>
      </trkpt>
      <trkpt lat="47.76803" lon="6.6375">
        <ele>518.28</ele>
        <time>2018-11-03T08:46:17.000Z</time>
      </trkpt>
      <trkpt lat="47.76806" lon="6.6375">
        <ele>519.21</ele>
        <time>2018-11-03T08:46:22.000Z</time>
      </trkpt>
      <trkpt lat="47.76809" lon="6.63752">
        <ele>520.15</ele>
        <time>2018-11-03T08:46:27.000Z</time>
      </trkpt>
      <trkpt lat="47.76812" lon="6.63752">
        <ele>520.93</ele>
        <time>2018-11-03T08:46:32.000Z</time>
      </trkpt>
      <trkpt lat="47.76815" lon="6.63753">
        <ele>521.71</ele>
        <time>2018-11-03T08:46:37.000Z</time>
      </trkpt>
      <trkpt lat="47.76816" lon="6.63753">
        <ele>522.48</ele>
        <time>2018-11-03T08:46:42.000Z</time>
      </trkpt>
      <trkpt lat="47.76819" lon="6.63752">
        <ele>523.53</ele>
        <time>2018-11-03T08:46:47.000Z</time>
      </trkpt>
      <trkpt lat="47.76822" lon="6.63752">
        <ele>524.58</ele>
        <time>2018-11-03T08:46:52.000Z</time>
      </trkpt>
      <trkpt lat="47.76826" lon="6.63753">
        <ele>525.63</ele>
        <time>2018-11-03T08:46:57.000Z</time>
      </trkpt>
      <trkpt lat="47.76828" lon="6.63753">
        <ele>526.65</ele>
        <time>2018-11-03T08:47:02.000Z</time>
      </trkpt>
      <trkpt lat="47.76831" lon="6.63754">
        <ele>527.67</ele>
        <time>2018-11-03T08:47:07.000Z</time>
      </trkpt>
      <trkpt lat="47.76835" lon="6.63755">
        <ele>528.69</ele>
        <time>2018-11-03T08:47:12.000Z</time>
      </trkpt>
      <trkpt lat="47.76836" lon="6.63755">
        <ele>529.67</ele>
        <time>2018-11-03T08:47:17.000Z</time>
      </trkpt>
      <trkpt lat="47.76837" lon="6.63756">
        <ele>530.65</ele>
        <time>2018-11-03T08:47:22.000Z</time>
      </trkpt>
      <trkpt lat="47.76839" lon="6.63757">
        <ele>531.63</ele>
        <time>2018-11-03T08:47:27.000Z</time>
      </trkpt>
      <trkpt lat="47.76844" lon="6.63755">
        <ele>532.4</ele>
        <time>2018-11-03T08:47:32.000Z</time>
      </trkpt>
      <trkpt lat="47.76848" lon="6.63753">
        <ele>533.17</ele>
        <time>2018-11-03T08:47:37.000Z</time>
      </trkpt>
      <trkpt lat="47.7685" lon="6.6375">
        <ele>533.94</ele>
        <time>2018-11-03T08:47:42.000Z</time>
      </trkpt>
      <trkpt lat="47.76852" lon="6.63746">
        <ele>534.82</ele>
        <time>2018-11-03T08:47:47.000Z</time>
      </trkpt>
      <trkpt lat="47.76856" lon="6.63743">
        <ele>535.7</ele>
        <time>2018-11-03T08:47:52.000Z</time>
      </trkpt>
      <trkpt lat="47.76859" lon="6.6374">
        <ele>536.57</ele>
        <time>2018-11-03T08:47:57.000Z</time>
      </trkpt>
      <trkpt lat="47.76862" lon="6.63737">
        <ele>536.67</ele>
        <time>2018-11-03T08:48:02.000Z</time>
      </trkpt>
      <trkpt lat="47.76864" lon="6.63733">
        <ele>536.76</ele>
        <time>2018-11-03T08:48:07.000Z</time>
      </trkpt>
      <trkpt lat="47.76866" lon="6.6373">
        <ele>536.85</ele>
        <time>2018-11-03T08:48:12.000Z</time>
      </trkpt>
      <trkpt lat="47.76867" lon="6.63724">
        <ele>537.01</ele>
        <time>2018-11-03T08:48:17.000Z</time>
      </trkpt>
      <trkpt lat="47.76869" lon="6.6372">
        <ele>537.17</ele>
        <time>2018-11-03T08:48:22.000Z</time>
      </trkpt>
      <trkpt lat="47.76871" lon="6.63718">
        <ele>537.33</ele>
        <time>2018-11-03T08:48:27.000Z</time>
      </trkpt>
      <trkpt lat="47.76872" lon="6.63716">
        <ele>537.56</ele>
        <time>2018-11-03T08:48:32.000Z</time>
      </trkpt>
      <trkpt lat="47.76874" lon="6.63715">
        <ele>537.79</ele>
        <time>2018-11-03T08:48:37.000Z</time>
      </trkpt>
      <trkpt lat="47.76875" lon="6.63712">
        <ele>538.03</ele>
        <time>2018-11-03T08:48:42.000Z</time>
      </trkpt>
      <trkpt lat="47.76878" lon="6.6371">
        <ele>538.48</ele>
        <time>2018-11-03T08:48:47.000Z</time>
      </trkpt>
      <trkpt lat="47.7688" lon="6.63704">
        <ele>538.93</ele>
        <time>2018-11-03T08:48:52.000Z</time>
      </trkpt>
      <trkpt lat="47.76883" lon="6.63699">
        <ele>539.38</ele>
        <time>2018-11-03T08:48:57.000Z</time>
      </trkpt>
      <trkpt lat="47.76885" lon="6.63695">
        <ele>540.05</ele>
        <time>2018-11-03T08:49:02.000Z</time>
      </trkpt>
      <trkpt lat="47.76886" lon="6.63691">
        <ele>540.72</ele>
        <time>2018-11-03T08:49:07.000Z</time>
      </trkpt>
      <trkpt lat="47.76888" lon="6.63687">
        <ele>541.39</ele>
        <time>2018-11-03T08:49:12.000Z</time>
      </trkpt>
      <trkpt lat="47.7689" lon="6.63684">
        <ele>542</ele>
        <time>2018-11-03T08:49:17.000Z</time>
      </trkpt>
      <trkpt lat="47.76892" lon="6.63682">
        <ele>542.61</ele>
        <time>2018-11-03T08:49:22.000Z</time>
      </trkpt>
      <trkpt lat="47.76893" lon="6.63681">
        <ele>543.21</ele>
        <time>2018-11-03T08:49:27.000Z</time>
      </trkpt>
      <trkpt lat="47.76896" lon="6.63679">
        <ele>544.84</ele>
        <time>2018-11-03T08:49:32.000Z</time>
      </trkpt>
      <trkpt lat="47.769" lon="6.63675">
        <ele>546.47</ele>
        <time>2018-11-03T08:49:37.000Z</time>
      </trkpt>
      <trkpt lat="47.76902" lon="6.63669">
        <ele>548.1</ele>
        <time>2018-11-03T08:49:42.000Z</time>
      </trkpt>
      <trkpt lat="47.76904" lon="6.63663">
        <ele>548.71</ele>
        <time>2018-11-03T08:49:47.000Z</time>
      </trkpt>
      <trkpt lat="47.76906" lon="6.63659">
        <ele>549.33</ele>
        <time>2018-11-03T08:49:52.000Z</time>
      </trkpt>
      <trkpt lat="47.76907" lon="6.63656">
        <ele>549.94</ele>
        <time>2018-11-03T08:49:57.000Z</time>
      </trkpt>
      <trkpt lat="47.76907" lon="6.63655">
        <ele>551.1</ele>
        <time>2018-11-03T08:50:02.000Z</time>
      </trkpt>
      <trkpt lat="47.7691" lon="6.63655">
        <ele>552.25</ele>
        <time>2018-11-03T08:50:07.000Z</time>
      </trkpt>
      <trkpt lat="47.76911" lon="6.63652">
        <ele>553.41</ele>
        <time>2018-11-03T08:50:12.000Z</time>
      </trkpt>
      <trkpt lat="47.76914" lon="6.63649">
        <ele>554.8</ele>
        <time>2018-11-03T08:50:17.000Z</time>
      </trkpt>
      <trkpt lat="47.76917" lon="6.63648">
        <ele>556.2</ele>
        <time>2018-11-03T08:50:22.000Z</time>
      </trkpt>
      <trkpt lat="47.76918" lon="6.63649">
        <ele>557.59</ele>
        <time>2018-11-03T08:50:27.000Z</time>
      </trkpt>
      <trkpt lat="47.76922" lon="6.63649">
        <ele>558.42</ele>
        <time>2018-11-03T08:50:32.000Z</time>
      </trkpt>
      <trkpt lat="47.76925" lon="6.63645">
        <ele>559.26</ele>
        <time>2018-11-03T08:50:37.000Z</time>
      </trkpt>
      <trkpt lat="47.76925" lon="6.6364">
        <ele>560.09</ele>
        <time>2018-11-03T08:50:42.000Z</time>
      </trkpt>
      <trkpt lat="47.76927" lon="6.63636">
        <ele>560.18</ele>
        <time>2018-11-03T08:50:47.000Z</time>
      </trkpt>
      <trkpt lat="47.7693" lon="6.63633">
        <ele>560.26</ele>
        <time>2018-11-03T08:50:52.000Z</time>
      </trkpt>
      <trkpt lat="47.7693" lon="6.6363">
        <ele>560.35</ele>
        <time>2018-11-03T08:50:57.000Z</time>
      </trkpt>
      <trkpt lat="47.76929" lon="6.63627">
        <ele>561.48</ele>
        <time>2018-11-03T08:51:02.000Z</time>
      </trkpt>
      <trkpt lat="47.76931" lon="6.63628">
        <ele>562.61</ele>
        <time>2018-11-03T08:51:07.000Z</time>
      </trkpt>
      <trkpt lat="47.76934" lon="6.63623">
        <ele>563.74</ele>
        <time>2018-11-03T08:51:12.000Z</time>
      </trkpt>
      <trkpt lat="47.76937" lon="6.63616">
        <ele>565.22</ele>
        <time>2018-11-03T08:51:17.000Z</time>
      </trkpt>
      <trkpt lat="47.7694" lon="6.6361">
        <ele>566.69</ele>
        <time>2018-11-03T08:51:22.000Z</time>
      </trkpt>
      <trkpt lat="47.76944" lon="6.63604">
        <ele>568.16</ele>
        <time>2018-11-03T08:51:27.000Z</time>
      </trkpt>
      <trkpt lat="47.76949" lon="6.63599">
        <ele>569.11</ele>
        <time>2018-11-03T08:51:32.000Z</time>
      </trkpt>
      <trkpt lat="47.76954" lon="6.63592">
        <ele>570.06</ele>
        <time>2018-11-03T08:51:37.000Z</time>
      </trkpt>
      <trkpt lat="47.76959" lon="6.63586">
        <ele>571.01</ele>
        <time>2018-11-03T08:51:42.000Z</time>
      </trkpt>
      <trkpt lat="47.76964" lon="6.6358">
        <ele>570.65</ele>
        <time>2018-11-03T08:51:47.000Z</time>
      </trkpt>
      <trkpt lat="47.76969" lon="6.63572">
        <ele>570.28</ele>
        <time>2018-11-03T08:51:52.000Z</time>
      </trkpt>
      <trkpt lat="47.76973" lon="6.63562">
        <ele>569.92</ele>
        <time>2018-11-03T08:51:57.000Z</time>
      </trkpt>
      <trkpt lat="47.76977" lon="6.63552">
        <ele>570.49</ele>
        <time>2018-11-03T08:52:02.000Z</time>
      </trkpt>
      <trkpt lat="47.7698" lon="6.63545">
        <ele>571.06</ele>
        <time>2018-11-03T08:52:07.000Z</time>
      </trkpt>
      <trkpt lat="47.76984" lon="6.63538">
        <ele>571.63</ele>
        <time>2018-11-03T08:52:12.000Z</time>
      </trkpt>
      <trkpt lat="47.76989" lon="6.63533">
        <ele>572.37</ele>
        <time>2018-11-03T08:52:17.000Z</time>
      </trkpt>
      <trkpt lat="47.76993" lon="6.63528">
        <ele>573.11</ele>
        <time>2018-11-03T08:52:22.000Z</time>
      </trkpt>
      <trkpt lat="47.76999" lon="6.63524">
        <ele>573.85</ele>
        <time>2018-11-03T08:52:27.000Z</time>
      </trkpt>
      <trkpt lat="47.77003" lon="6.6352">
        <ele>572.86</ele>
        <time>2018-11-03T08:52:32.000Z</time>
      </trkpt>
      <trkpt lat="47.77008" lon="6.63511">
        <ele>571.86</ele>
        <time>2018-11-03T08:52:37.000Z</time>
      </trkpt>
      <trkpt lat="47.77019" lon="6.63491">
        <ele>570.87</ele>
        <time>2018-11-03T08:52:42.000Z</time>
      </trkpt>
      <trkpt lat="47.77037" lon="6.63459">
        <ele>571.74</ele>
        <time>2018-11-03T08:52:47.000Z</time>
      </trkpt>
      <trkpt lat="47.7705" lon="6.63449">
        <ele>572.61</ele>
        <time>2018-11-03T08:52:52.000Z</time>
      </trkpt>
      <trkpt lat="47.77056" lon="6.63437">
        <ele>573.48</ele>
        <time>2018-11-03T08:52:57.000Z</time>
      </trkpt>
      <trkpt lat="47.77061" lon="6.63431">
        <ele>574.17</ele>
        <time>2018-11-03T08:53:02.000Z</time>
      </trkpt>
      <trkpt lat="47.77068" lon="6.63427">
        <ele>574.85</ele>
        <time>2018-11-03T08:53:07.000Z</time>
      </trkpt>
      <trkpt lat="47.77074" lon="6.63419">
        <ele>575.54</ele>
        <time>2018-11-03T08:53:12.000Z</time>
      </trkpt>
      <trkpt lat="47.7708" lon="6.63413">
        <ele>575.75</ele>
        <time>2018-11-03T08:53:17.000Z</time>
      </trkpt>
      <trkpt lat="47.77086" lon="6.63407">
        <ele>575.96</ele>
        <time>2018-11-03T08:53:22.000Z</time>
      </trkpt>
      <trkpt lat="47.77091" lon="6.63402">
        <ele>576.18</ele>
        <time>2018-11-03T08:53:27.000Z</time>
      </trkpt>
      <trkpt lat="47.77095" lon="6.63396">
        <ele>576.5</ele>
        <time>2018-11-03T08:53:32.000Z</time>
      </trkpt>
      <trkpt lat="47.77098" lon="6.63393">
        <ele>576.82</ele>
        <time>2018-11-03T08:53:37.000Z</time>
      </trkpt>
      <trkpt lat="47.77098" lon="6.63396">
        <ele>577.15</ele>
        <time>2018-11-03T08:53:42.000Z</time>
      </trkpt>
      <trkpt lat="47.77099" lon="6.634">
        <ele>577.05</ele>
        <time>2018-11-03T08:53:47.000Z</time>
      </trkpt>
      <trkpt lat="47.771" lon="6.63402">
        <ele>576.95</ele>
        <time>2018-11-03T08:53:52.000Z</time>
      </trkpt>
      <trkpt lat="47.771" lon="6.634">
        <ele>576.85</ele>
        <time>2018-11-03T08:53:57.000Z</time>
      </trkpt>
      <trkpt lat="47.771" lon="6.63397">
        <ele>576.78</ele>
        <time>2018-11-03T08:54:02.000Z</time>
      </trkpt>
      <trkpt lat="47.77099" lon="6.63395">
        <ele>576.7</ele>
        <time>2018-11-03T08:54:07.000Z</time>
      </trkpt>
      <trkpt lat="47.771" lon="6.63394">
        <ele>576.62</ele>
        <time>2018-11-03T08:54:12.000Z</time>
      </trkpt>
      <trkpt lat="47.771" lon="6.63394">
        <ele>576.81</ele>
        <time>2018-11-03T08:54:17.000Z</time>
      </trkpt>
      <trkpt lat="47.77101" lon="6.63397">
        <ele>576.99</ele>
        <time>2018-11-03T08:54:22.000Z</time>
      </trkpt>
      <trkpt lat="47.771" lon="6.63397">
        <ele>577.18</ele>
        <time>2018-11-03T08:54:27.000Z</time>
      </trkpt>
      <trkpt lat="47.77102" lon="6.63398">
        <ele>577.29</ele>
        <time>2018-11-03T08:54:32.000Z</time>
      </trkpt>
      <trkpt lat="47.77101" lon="6.63398">
        <ele>577.4</ele>
        <time>2018-11-03T08:54:37.000Z</time>
      </trkpt>
      <trkpt lat="47.77102" lon="6.634">
        <ele>577.51</ele>
        <time>2018-11-03T08:54:42.000Z</time>
      </trkpt>
      <trkpt lat="47.77102" lon="6.63401">
        <ele>577.59</ele>
        <time>2018-11-03T08:54:47.000Z</time>
      </trkpt>
      <trkpt lat="47.77103" lon="6.63401">
        <ele>577.67</ele>
        <time>2018-11-03T08:54:52.000Z</time>
      </trkpt>
      <trkpt lat="47.77103" lon="6.63401">
        <ele>577.76</ele>
        <time>2018-11-03T08:54:57.000Z</time>
      </trkpt>
      <trkpt lat="47.77104" lon="6.63402">
        <ele>578.03</ele>
        <time>2018-11-03T08:55:02.000Z</time>
      </trkpt>
      <trkpt lat="47.77106" lon="6.63404">
        <ele>578.31</ele>
        <time>2018-11-03T08:55:07.000Z</time>
      </trkpt>
      <trkpt lat="47.77105" lon="6.63406">
        <ele>578.59</ele>
        <time>2018-11-03T08:55:12.000Z</time>
      </trkpt>
      <trkpt lat="47.77107" lon="6.63406">
        <ele>578.22</ele>
        <time>2018-11-03T08:55:17.000Z</time>
      </trkpt>
      <trkpt lat="47.77107" lon="6.63405">
        <ele>577.84</ele>
        <time>2018-11-03T08:55:22.000Z</time>
      </trkpt>
      <trkpt lat="47.77105" lon="6.63403">
        <ele>577.47</ele>
        <time>2018-11-03T08:55:27.000Z</time>
      </trkpt>
      <trkpt lat="47.77103" lon="6.63399">
        <ele>577.37</ele>
        <time>2018-11-03T08:55:32.000Z</time>
      </trkpt>
      <trkpt lat="47.77101" lon="6.63397">
        <ele>577.28</ele>
        <time>2018-11-03T08:55:37.000Z</time>
      </trkpt>
      <trkpt lat="47.771" lon="6.63398">
        <ele>577.18</ele>
        <time>2018-11-03T08:55:42.000Z</time>
      </trkpt>
      <trkpt lat="47.771" lon="6.634">
        <ele>577.28</ele>
        <time>2018-11-03T08:55:47.000Z</time>
      </trkpt>
      <trkpt lat="47.771" lon="6.634">
        <ele>577.39</ele>
        <time>2018-11-03T08:55:52.000Z</time>
      </trkpt>
      <trkpt lat="47.77101" lon="6.63401">
        <ele>577.5</ele>
        <time>2018-11-03T08:55:57.000Z</time>
      </trkpt>
      <trkpt lat="47.77101" lon="6.63402">
        <ele>577.47</ele>
        <time>2018-11-03T08:56:02.000Z</time>
      </trkpt>
      <trkpt lat="47.77102" lon="6.63404">
        <ele>577.43</ele>
        <time>2018-11-03T08:56:07.000Z</time>
      </trkpt>
      <trkpt lat="47.77103" lon="6.63403">
        <ele>577.39</ele>
        <time>2018-11-03T08:56:12.000Z</time>
      </trkpt>
      <trkpt lat="47.77101" lon="6.63401">
        <ele>577.47</ele>
        <time>2018-11-03T08:56:17.000Z</time>
      </trkpt>
      <trkpt lat="47.771" lon="6.63402">
        <ele>577.56</ele>
        <time>2018-11-03T08:56:22.000Z</time>
      </trkpt>
      <trkpt lat="47.77101" lon="6.63403">
        <ele>577.64</ele>
        <time>2018-11-03T08:56:27.000Z</time>
      </trkpt>
      <trkpt lat="47.77102" lon="6.63402">
        <ele>577.94</ele>
        <time>2018-11-03T08:56:32.000Z</time>
      </trkpt>
      <trkpt lat="47.77102" lon="6.63402">
        <ele>578.24</ele>
        <time>2018-11-03T08:56:37.000Z</time>
      </trkpt>
      <trkpt lat="47.77105" lon="6.63404">
        <ele>578.55</ele>
        <time>2018-11-03T08:56:42.000Z</time>
      </trkpt>
      <trkpt lat="47.77106" lon="6.63406">
        <ele>579.13</ele>
        <time>2018-11-03T08:56:47.000Z</time>
      </trkpt>
      <trkpt lat="47.77107" lon="6.63409">
        <ele>579.72</ele>
        <time>2018-11-03T08:56:52.000Z</time>
      </trkpt>
      <trkpt lat="47.77109" lon="6.63412">
        <ele>580.3</ele>
        <time>2018-11-03T08:56:57.000Z</time>
      </trkpt>
      <trkpt lat="47.7711" lon="6.63416">
        <ele>580.99</ele>
        <time>2018-11-03T08:57:02.000Z</time>
      </trkpt>
      <trkpt lat="47.77111" lon="6.63419">
        <ele>581.67</ele>
        <time>2018-11-03T08:57:07.000Z</time>
      </trkpt>
      <trkpt lat="47.77112" lon="6.63424">
        <ele>582.36</ele>
        <time>2018-11-03T08:57:12.000Z</time>
      </trkpt>
      <trkpt lat="47.77113" lon="6.63431">
        <ele>583.08</ele>
        <time>2018-11-03T08:57:17.000Z</time>
      </trkpt>
      <trkpt lat="47.77114" lon="6.63435">
        <ele>583.81</ele>
        <time>2018-11-03T08:57:22.000Z</time>
      </trkpt>
      <trkpt lat="47.77115" lon="6.63442">
        <ele>584.54</ele>
        <time>2018-11-03T08:57:27.000Z</time>
      </trkpt>
      <trkpt lat="47.77117" lon="6.63448">
        <ele>584.94</ele>
        <time>2018-11-03T08:57:32.000Z</time>
      </trkpt>
      <trkpt lat="47.7712" lon="6.63449">
        <ele>585.33</ele>
        <time>2018-11-03T08:57:37.000Z</time>
      </trkpt>
      <trkpt lat="47.77124" lon="6.63448">
        <ele>585.73</ele>
        <time>2018-11-03T08:57:42.000Z</time>
      </trkpt>
      <trkpt lat="47.77127" lon="6.63449">
        <ele>586.22</ele>
        <time>2018-11-03T08:57:47.000Z</time>
      </trkpt>
      <trkpt lat="47.7713" lon="6.63455">
        <ele>586.71</ele>
        <time>2018-11-03T08:57:52.000Z</time>
      </trkpt>
      <trkpt lat="47.77132" lon="6.63459">
        <ele>587.2</ele>
        <time>2018-11-03T08:57:57.000Z</time>
      </trkpt>
      <trkpt lat="47.77131" lon="6.63465">
        <ele>587.78</ele>
        <time>2018-11-03T08:58:02.000Z</time>
      </trkpt>
      <trkpt lat="47.7713" lon="6.63469">
        <ele>588.36</ele>
        <time>2018-11-03T08:58:07.000Z</time>
      </trkpt>
      <trkpt lat="47.77131" lon="6.63474">
        <ele>588.94</ele>
        <time>2018-11-03T08:58:12.000Z</time>
      </trkpt>
      <trkpt lat="47.77135" lon="6.63484">
        <ele>589.9</ele>
        <time>2018-11-03T08:58:17.000Z</time>
      </trkpt>
      <trkpt lat="47.77137" lon="6.63493">
        <ele>590.85</ele>
        <time>2018-11-03T08:58:22.000Z</time>
      </trkpt>
      <trkpt lat="47.7714" lon="6.63502">
        <ele>591.81</ele>
        <time>2018-11-03T08:58:27.000Z</time>
      </trkpt>
      <trkpt lat="47.77142" lon="6.63509">
        <ele>593.53</ele>
        <time>2018-11-03T08:58:32.000Z</time>
      </trkpt>
      <trkpt lat="47.77144" lon="6.63518">
        <ele>595.24</ele>
        <time>2018-11-03T08:58:37.000Z</time>
      </trkpt>
      <trkpt lat="47.77145" lon="6.63528">
        <ele>596.96</ele>
        <time>2018-11-03T08:58:42.000Z</time>
      </trkpt>
      <trkpt lat="47.77144" lon="6.63539">
        <ele>598.87</ele>
        <time>2018-11-03T08:58:47.000Z</time>
      </trkpt>
      <trkpt lat="47.77144" lon="6.63548">
        <ele>600.78</ele>
        <time>2018-11-03T08:58:52.000Z</time>
      </trkpt>
      <trkpt lat="47.77144" lon="6.63556">
        <ele>602.69</ele>
        <time>2018-11-03T08:58:57.000Z</time>
      </trkpt>
      <trkpt lat="47.77143" lon="6.63565">
        <ele>604.38</ele>
        <time>2018-11-03T08:59:02.000Z</time>
      </trkpt>
      <trkpt lat="47.77137" lon="6.6357">
        <ele>606.08</ele>
        <time>2018-11-03T08:59:07.000Z</time>
      </trkpt>
      <trkpt lat="47.77132" lon="6.63576">
        <ele>607.78</ele>
        <time>2018-11-03T08:59:12.000Z</time>
      </trkpt>
      <trkpt lat="47.77129" lon="6.63584">
        <ele>609.81</ele>
        <time>2018-11-03T08:59:17.000Z</time>
      </trkpt>
      <trkpt lat="47.77127" lon="6.63592">
        <ele>611.84</ele>
        <time>2018-11-03T08:59:22.000Z</time>
      </trkpt>
      <trkpt lat="47.77125" lon="6.63601">
        <ele>613.88</ele>
        <time>2018-11-03T08:59:27.000Z</time>
      </trkpt>
      <trkpt lat="47.77125" lon="6.6361">
        <ele>615.09</ele>
        <time>2018-11-03T08:59:32.000Z</time>
      </trkpt>
      <trkpt lat="47.77125" lon="6.63618">
        <ele>616.3</ele>
        <time>2018-11-03T08:59:37.000Z</time>
      </trkpt>
      <trkpt lat="47.77127" lon="6.63624">
        <ele>617.51</ele>
        <time>2018-11-03T08:59:42.000Z</time>
      </trkpt>
      <trkpt lat="47.77129" lon="6.63628">
        <ele>618.67</ele>
        <time>2018-11-03T08:59:47.000Z</time>
      </trkpt>
      <trkpt lat="47.77132" lon="6.63634">
        <ele>619.83</ele>
        <time>2018-11-03T08:59:52.000Z</time>
      </trkpt>
      <trkpt lat="47.77136" lon="6.63642">
        <ele>620.99</ele>
        <time>2018-11-03T08:59:57.000Z</time>
      </trkpt>
      <trkpt lat="47.7714" lon="6.6365">
        <ele>622.63</ele>
        <time>2018-11-03T09:00:02.000Z</time>
      </trkpt>
      <trkpt lat="47.77144" lon="6.63659">
        <ele>624.28</ele>
        <time>2018-11-03T09:00:07.000Z</time>
      </trkpt>
      <trkpt lat="47.77149" lon="6.63667">
        <ele>625.93</ele>
        <time>2018-11-03T09:00:12.000Z</time>
      </trkpt>
      <trkpt lat="47.77154" lon="6.63681">
        <ele>627.66</ele>
        <time>2018-11-03T09:00:17.000Z</time>
      </trkpt>
      <trkpt lat="47.77159" lon="6.63698">
        <ele>629.39</ele>
        <time>2018-11-03T09:00:22.000Z</time>
      </trkpt>
      <trkpt lat="47.77167" lon="6.63715">
        <ele>631.12</ele>
        <time>2018-11-03T09:00:27.000Z</time>
      </trkpt>
      <trkpt lat="47.77174" lon="6.63731">
        <ele>631.53</ele>
        <time>2018-11-03T09:00:32.000Z</time>
      </trkpt>
      <trkpt lat="47.77181" lon="6.63747">
        <ele>631.94</ele>
        <time>2018-11-03T09:00:37.000Z</time>
      </trkpt>
      <trkpt lat="47.77187" lon="6.63761">
        <ele>632.34</ele>
        <time>2018-11-03T09:00:42.000Z</time>
      </trkpt>
      <trkpt lat="47.77195" lon="6.63773">
        <ele>632.93</ele>
        <time>2018-11-03T09:00:47.000Z</time>
      </trkpt>
      <trkpt lat="47.772" lon="6.63787">
        <ele>633.51</ele>
        <time>2018-11-03T09:00:52.000Z</time>
      </trkpt>
      <trkpt lat="47.77205" lon="6.63799">
        <ele>634.09</ele>
        <time>2018-11-03T09:00:57.000Z</time>
      </trkpt>
      <trkpt lat="47.77209" lon="6.63815">
        <ele>634.18</ele>
        <time>2018-11-03T09:01:02.000Z</time>
      </trkpt>
      <trkpt lat="47.77213" lon="6.63828">
        <ele>634.27</ele>
        <time>2018-11-03T09:01:07.000Z</time>
      </trkpt>
      <trkpt lat="47.77217" lon="6.6384">
        <ele>634.36</ele>
        <time>2018-11-03T09:01:12.000Z</time>
      </trkpt>
      <trkpt lat="47.77221" lon="6.6385">
        <ele>635.87</ele>
        <time>2018-11-03T09:01:17.000Z</time>
      </trkpt>
      <trkpt lat="47.77222" lon="6.63861">
        <ele>637.38</ele>
        <time>2018-11-03T09:01:22.000Z</time>
      </trkpt>
      <trkpt lat="47.77227" lon="6.63872">
        <ele>638.9</ele>
        <time>2018-11-03T09:01:27.000Z</time>
      </trkpt>
      <trkpt lat="47.7723" lon="6.63882">
        <ele>639.26</ele>
        <time>2018-11-03T09:01:32.000Z</time>
      </trkpt>
      <trkpt lat="47.77232" lon="6.63895">
        <ele>639.63</ele>
        <time>2018-11-03T09:01:37.000Z</time>
      </trkpt>
      <trkpt lat="47.77235" lon="6.63904">
        <ele>639.99</ele>
        <time>2018-11-03T09:01:42.000Z</time>
      </trkpt>
      <trkpt lat="47.7724" lon="6.63909">
        <ele>641.26</ele>
        <time>2018-11-03T09:01:47.000Z</time>
      </trkpt>
      <trkpt lat="47.77247" lon="6.63914">
        <ele>642.52</ele>
        <time>2018-11-03T09:01:52.000Z</time>
      </trkpt>
      <trkpt lat="47.77255" lon="6.63921">
        <ele>643.78</ele>
        <time>2018-11-03T09:01:57.000Z</time>
      </trkpt>
      <trkpt lat="47.77273" lon="6.63936">
        <ele>645.06</ele>
        <time>2018-11-03T09:02:02.000Z</time>
      </trkpt>
      <trkpt lat="47.77286" lon="6.63953">
        <ele>646.33</ele>
        <time>2018-11-03T09:02:07.000Z</time>
      </trkpt>
      <trkpt lat="47.77293" lon="6.63967">
        <ele>647.6</ele>
        <time>2018-11-03T09:02:12.000Z</time>
      </trkpt>
      <trkpt lat="47.77298" lon="6.63978">
        <ele>648.31</ele>
        <time>2018-11-03T09:02:17.000Z</time>
      </trkpt>
      <trkpt lat="47.77301" lon="6.63991">
        <ele>649.02</ele>
        <time>2018-11-03T09:02:22.000Z</time>
      </trkpt>
      <trkpt lat="47.77305" lon="6.64003">
        <ele>649.73</ele>
        <time>2018-11-03T09:02:27.000Z</time>
      </trkpt>
      <trkpt lat="47.77307" lon="6.64011">
        <ele>650.53</ele>
        <time>2018-11-03T09:02:32.000Z</time>
      </trkpt>
      <trkpt lat="47.77309" lon="6.64022">
        <ele>651.34</ele>
        <time>2018-11-03T09:02:37.000Z</time>
      </trkpt>
      <trkpt lat="47.7731" lon="6.6403">
        <ele>652.14</ele>
        <time>2018-11-03T09:02:42.000Z</time>
      </trkpt>
      <trkpt lat="47.77312" lon="6.64037">
        <ele>651.71</ele>
        <time>2018-11-03T09:02:47.000Z</time>
      </trkpt>
      <trkpt lat="47.77314" lon="6.64038">
        <ele>651.27</ele>
        <time>2018-11-03T09:02:52.000Z</time>
      </trkpt>
      <trkpt lat="47.77316" lon="6.64039">
        <ele>650.84</ele>
        <time>2018-11-03T09:02:57.000Z</time>
      </trkpt>
      <trkpt lat="47.77318" lon="6.64038">
        <ele>650.63</ele>
        <time>2018-11-03T09:03:02.000Z</time>
      </trkpt>
      <trkpt lat="47.77322" lon="6.64039">
        <ele>650.41</ele>
        <time>2018-11-03T09:03:07.000Z</time>
      </trkpt>
      <trkpt lat="47.77326" lon="6.64042">
        <ele>650.2</ele>
        <time>2018-11-03T09:03:12.000Z</time>
      </trkpt>
      <trkpt lat="47.77326" lon="6.64047">
        <ele>651.52</ele>
        <time>2018-11-03T09:03:17.000Z</time>
      </trkpt>
      <trkpt lat="47.77325" lon="6.64052">
        <ele>652.85</ele>
        <time>2018-11-03T09:03:22.000Z</time>
      </trkpt>
      <trkpt lat="47.77324" lon="6.64057">
        <ele>654.17</ele>
        <time>2018-11-03T09:03:27.000Z</time>
      </trkpt>
      <trkpt lat="47.77323" lon="6.64061">
        <ele>655.42</ele>
        <time>2018-11-03T09:03:32.000Z</time>
      </trkpt>
      <trkpt lat="47.77321" lon="6.64067">
        <ele>656.68</ele>
        <time>2018-11-03T09:03:37.000Z</time>
      </trkpt>
      <trkpt lat="47.7732" lon="6.6407">
        <ele>657.93</ele>
        <time>2018-11-03T09:03:42.000Z</time>
      </trkpt>
      <trkpt lat="47.77319" lon="6.64075">
        <ele>658.59</ele>
        <time>2018-11-03T09:03:47.000Z</time>
      </trkpt>
      <trkpt lat="47.77319" lon="6.64077">
        <ele>659.24</ele>
        <time>2018-11-03T09:03:52.000Z</time>
      </trkpt>
      <trkpt lat="47.77319" lon="6.6408">
        <ele>659.9</ele>
        <time>2018-11-03T09:03:57.000Z</time>
      </trkpt>
      <trkpt lat="47.77315" lon="6.64083">
        <ele>660.66</ele>
        <time>2018-11-03T09:04:02.000Z</time>
      </trkpt>
      <trkpt lat="47.77312" lon="6.64087">
        <ele>661.41</ele>
        <time>2018-11-03T09:04:07.000Z</time>
      </trkpt>
      <trkpt lat="47.77311" lon="6.64093">
        <ele>662.17</ele>
        <time>2018-11-03T09:04:12.000Z</time>
      </trkpt>
      <trkpt lat="47.7731" lon="6.64096">
        <ele>662.69</ele>
        <time>2018-11-03T09:04:17.000Z</time>
      </trkpt>
      <trkpt lat="47.7731" lon="6.64098">
        <ele>663.22</ele>
        <time>2018-11-03T09:04:22.000Z</time>
      </trkpt>
      <trkpt lat="47.77308" lon="6.64103">
        <ele>663.74</ele>
        <time>2018-11-03T09:04:27.000Z</time>
      </trkpt>
      <trkpt lat="47.77306" lon="6.64108">
        <ele>664.11</ele>
        <time>2018-11-03T09:04:32.000Z</time>
      </trkpt>
      <trkpt lat="47.77307" lon="6.64111">
        <ele>664.47</ele>
        <time>2018-11-03T09:04:37.000Z</time>
      </trkpt>
      <trkpt lat="47.77308" lon="6.64115">
        <ele>664.83</ele>
        <time>2018-11-03T09:04:42.000Z</time>
      </trkpt>
      <trkpt lat="47.77307" lon="6.6412">
        <ele>665.51</ele>
        <time>2018-11-03T09:04:47.000Z</time>
      </trkpt>
      <trkpt lat="47.77306" lon="6.64126">
        <ele>666.19</ele>
        <time>2018-11-03T09:04:52.000Z</time>
      </trkpt>
      <trkpt lat="47.77305" lon="6.64129">
        <ele>666.86</ele>
        <time>2018-11-03T09:04:57.000Z</time>
      </trkpt>
      <trkpt lat="47.77305" lon="6.64136">
        <ele>667.73</ele>
        <time>2018-11-03T09:05:02.000Z</time>
      </trkpt>
      <trkpt lat="47.77306" lon="6.64141">
        <ele>668.59</ele>
        <time>2018-11-03T09:05:07.000Z</time>
      </trkpt>
      <trkpt lat="47.77303" lon="6.64146">
        <ele>669.45</ele>
        <time>2018-11-03T09:05:12.000Z</time>
      </trkpt>
      <trkpt lat="47.77303" lon="6.64153">
        <ele>670.56</ele>
        <time>2018-11-03T09:05:17.000Z</time>
      </trkpt>
      <trkpt lat="47.77303" lon="6.64165">
        <ele>671.67</ele>
        <time>2018-11-03T09:05:22.000Z</time>
      </trkpt>
      <trkpt lat="47.77305" lon="6.64179">
        <ele>672.78</ele>
        <time>2018-11-03T09:05:27.000Z</time>
      </trkpt>
      <trkpt lat="47.77312" lon="6.64197">
        <ele>671.08</ele>
        <time>2018-11-03T09:05:32.000Z</time>
      </trkpt>
      <trkpt lat="47.77318" lon="6.64216">
        <ele>669.38</ele>
        <time>2018-11-03T09:05:37.000Z</time>
      </trkpt>
      <trkpt lat="47.77328" lon="6.6423">
        <ele>667.69</ele>
        <time>2018-11-03T09:05:42.000Z</time>
      </trkpt>
      <trkpt lat="47.7734" lon="6.64244">
        <ele>667.15</ele>
        <time>2018-11-03T09:05:47.000Z</time>
      </trkpt>
      <trkpt lat="47.77349" lon="6.64259">
        <ele>666.62</ele>
        <time>2018-11-03T09:05:52.000Z</time>
      </trkpt>
      <trkpt lat="47.77357" lon="6.64273">
        <ele>666.09</ele>
        <time>2018-11-03T09:05:57.000Z</time>
      </trkpt>
      <trkpt lat="47.77363" lon="6.64283">
        <ele>666.96</ele>
        <time>2018-11-03T09:06:02.000Z</time>
      </trkpt>
      <trkpt lat="47.77367" lon="6.64292">
        <ele>667.82</ele>
        <time>2018-11-03T09:06:07.000Z</time>
      </trkpt>
      <trkpt lat="47.77377" lon="6.64298">
        <ele>668.68</ele>
        <time>2018-11-03T09:06:12.000Z</time>
      </trkpt>
      <trkpt lat="47.7739" lon="6.64301">
        <ele>668.94</ele>
        <time>2018-11-03T09:06:17.000Z</time>
      </trkpt>
      <trkpt lat="47.774" lon="6.643">
        <ele>669.2</ele>
        <time>2018-11-03T09:06:22.000Z</time>
      </trkpt>
      <trkpt lat="47.77402" lon="6.64299">
        <ele>669.45</ele>
        <time>2018-11-03T09:06:27.000Z</time>
      </trkpt>
      <trkpt lat="47.77403" lon="6.64299">
        <ele>669.39</ele>
        <time>2018-11-03T09:06:32.000Z</time>
      </trkpt>
      <trkpt lat="47.77403" lon="6.64298">
        <ele>669.33</ele>
        <time>2018-11-03T09:06:37.000Z</time>
      </trkpt>
      <trkpt lat="47.77403" lon="6.64297">
        <ele>669.27</ele>
        <time>2018-11-03T09:06:42.000Z</time>
      </trkpt>
      <trkpt lat="47.77404" lon="6.64297">
        <ele>669.14</ele>
        <time>2018-11-03T09:06:47.000Z</time>
      </trkpt>
      <trkpt lat="47.77404" lon="6.64297">
        <ele>669.01</ele>
        <time>2018-11-03T09:06:52.000Z</time>
      </trkpt>
      <trkpt lat="47.7741" lon="6.64294">
        <ele>668.88</ele>
        <time>2018-11-03T09:06:57.000Z</time>
      </trkpt>
      <trkpt lat="47.77426" lon="6.6429">
        <ele>668.35</ele>
        <time>2018-11-03T09:07:02.000Z</time>
      </trkpt>
      <trkpt lat="47.77449" lon="6.64294">
        <ele>667.81</ele>
        <time>2018-11-03T09:07:07.000Z</time>
      </trkpt>
      <trkpt lat="47.7747" lon="6.64309">
        <ele>667.28</ele>
        <time>2018-11-03T09:07:12.000Z</time>
      </trkpt>
      <trkpt lat="47.77477" lon="6.64334">
        <ele>667.4</ele>
        <time>2018-11-03T09:07:17.000Z</time>
      </trkpt>
      <trkpt lat="47.77481" lon="6.64365">
        <ele>667.52</ele>
        <time>2018-11-03T09:07:22.000Z</time>
      </trkpt>
      <trkpt lat="47.77482" lon="6.64394">
        <ele>667.64</ele>
        <time>2018-11-03T09:07:27.000Z</time>
      </trkpt>
      <trkpt lat="47.77475" lon="6.64424">
        <ele>666.49</ele>
        <time>2018-11-03T09:07:32.000Z</time>
      </trkpt>
      <trkpt lat="47.77467" lon="6.64457">
        <ele>665.33</ele>
        <time>2018-11-03T09:07:37.000Z</time>
      </trkpt>
      <trkpt lat="47.77465" lon="6.64496">
        <ele>664.18</ele>
        <time>2018-11-03T09:07:42.000Z</time>
      </trkpt>
      <trkpt lat="47.77461" lon="6.64533">
        <ele>663.86</ele>
        <time>2018-11-03T09:07:47.000Z</time>
      </trkpt>
      <trkpt lat="47.77462" lon="6.64568">
        <ele>663.54</ele>
        <time>2018-11-03T09:07:52.000Z</time>
      </trkpt>
      <trkpt lat="47.7746" lon="6.64613">
        <ele>663.22</ele>
        <time>2018-11-03T09:07:57.000Z</time>
      </trkpt>
      <trkpt lat="47.77464" lon="6.64649">
        <ele>663.51</ele>
        <time>2018-11-03T09:08:02.000Z</time>
      </trkpt>
      <trkpt lat="47.77466" lon="6.64687">
        <ele>663.79</ele>
        <time>2018-11-03T09:08:07.000Z</time>
      </trkpt>
      <trkpt lat="47.77452" lon="6.64718">
        <ele>664.07</ele>
        <time>2018-11-03T09:08:12.000Z</time>
      </trkpt>
      <trkpt lat="47.77429" lon="6.64743">
        <ele>662.96</ele>
        <time>2018-11-03T09:08:17.000Z</time>
      </trkpt>
      <trkpt lat="47.77406" lon="6.64768">
        <ele>661.85</ele>
        <time>2018-11-03T09:08:22.000Z</time>
      </trkpt>
      <trkpt lat="47.77393" lon="6.64799">
        <ele>660.74</ele>
        <time>2018-11-03T09:08:27.000Z</time>
      </trkpt>
      <trkpt lat="47.77389" lon="6.64804">
        <ele>660.7</ele>
        <time>2018-11-03T09:08:32.000Z</time>
      </trkpt>
      <trkpt lat="47.77379" lon="6.64799">
        <ele>660.66</ele>
        <time>2018-11-03T09:08:37.000Z</time>
      </trkpt>
      <trkpt lat="47.7737" lon="6.64794">
        <ele>660.62</ele>
        <time>2018-11-03T09:08:42.000Z</time>
      </trkpt>
      <trkpt lat="47.77367" lon="6.64793">
        <ele>660.36</ele>
        <time>2018-11-03T09:08:47.000Z</time>
      </trkpt>
      <trkpt lat="47.77352" lon="6.64782">
        <ele>660.1</ele>
        <time>2018-11-03T09:08:52.000Z</time>
      </trkpt>
      <trkpt lat="47.77332" lon="6.64759">
        <ele>659.83</ele>
        <time>2018-11-03T09:08:57.000Z</time>
      </trkpt>
      <trkpt lat="47.77314" lon="6.64728">
        <ele>657.64</ele>
        <time>2018-11-03T09:09:02.000Z</time>
      </trkpt>
      <trkpt lat="47.77291" lon="6.64713">
        <ele>655.46</ele>
        <time>2018-11-03T09:09:07.000Z</time>
      </trkpt>
      <trkpt lat="47.77266" lon="6.64694">
        <ele>653.27</ele>
        <time>2018-11-03T09:09:12.000Z</time>
      </trkpt>
      <trkpt lat="47.77234" lon="6.64678">
        <ele>651.95</ele>
        <time>2018-11-03T09:09:17.000Z</time>
      </trkpt>
      <trkpt lat="47.77208" lon="6.64673">
        <ele>650.62</ele>
        <time>2018-11-03T09:09:22.000Z</time>
      </trkpt>
      <trkpt lat="47.77186" lon="6.64655">
        <ele>649.3</ele>
        <time>2018-11-03T09:09:27.000Z</time>
      </trkpt>
      <trkpt lat="47.77172" lon="6.6462">
        <ele>646.64</ele>
        <time>2018-11-03T09:09:32.000Z</time>
      </trkpt>
      <trkpt lat="47.77162" lon="6.64621">
        <ele>643.99</ele>
        <time>2018-11-03T09:09:37.000Z</time>
      </trkpt>
      <trkpt lat="47.77165" lon="6.64672">
        <ele>641.34</ele>
        <time>2018-11-03T09:09:42.000Z</time>
      </trkpt>
      <trkpt lat="47.77166" lon="6.64751">
        <ele>640.13</ele>
        <time>2018-11-03T09:09:47.000Z</time>
      </trkpt>
      <trkpt lat="47.77146" lon="6.64788">
        <ele>638.92</ele>
        <time>2018-11-03T09:09:52.000Z</time>
      </trkpt>
      <trkpt lat="47.77117" lon="6.648">
        <ele>637.71</ele>
        <time>2018-11-03T09:09:57.000Z</time>
      </trkpt>
      <trkpt lat="47.77094" lon="6.64806">
        <ele>637.77</ele>
        <time>2018-11-03T09:10:02.000Z</time>
      </trkpt>
      <trkpt lat="47.77079" lon="6.64807">
        <ele>637.82</ele>
        <time>2018-11-03T09:10:07.000Z</time>
      </trkpt>
      <trkpt lat="47.77077" lon="6.64811">
        <ele>637.87</ele>
        <time>2018-11-03T09:10:12.000Z</time>
      </trkpt>
      <trkpt lat="47.77075" lon="6.64813">
        <ele>637.79</ele>
        <time>2018-11-03T09:10:17.000Z</time>
      </trkpt>
      <trkpt lat="47.77076" lon="6.6481">
        <ele>637.71</ele>
        <time>2018-11-03T09:10:22.000Z</time>
      </trkpt>
      <trkpt lat="47.77075" lon="6.64811">
        <ele>637.63</ele>
        <time>2018-11-03T09:10:27.000Z</time>
      </trkpt>
      <trkpt lat="47.77075" lon="6.64811">
        <ele>637.63</ele>
        <time>2018-11-03T09:10:32.000Z</time>
      </trkpt>
      <trkpt lat="47.77076" lon="6.64811">
        <ele>637.64</ele>
        <time>2018-11-03T09:10:37.000Z</time>
      </trkpt>
      <trkpt lat="47.77074" lon="6.64811">
        <ele>637.64</ele>
        <time>2018-11-03T09:10:42.000Z</time>
      </trkpt>
      <trkpt lat="47.77074" lon="6.64811">
        <ele>637.66</ele>
        <time>2018-11-03T09:10:47.000Z</time>
      </trkpt>
      <trkpt lat="47.77073" lon="6.64811">
        <ele>637.68</ele>
        <time>2018-11-03T09:10:52.000Z</time>
      </trkpt>
      <trkpt lat="47.77073" lon="6.64811">
        <ele>637.7</ele>
        <time>2018-11-03T09:10:57.000Z</time>
      </trkpt>
      <trkpt lat="47.77074" lon="6.64811">
        <ele>637.59</ele>
        <time>2018-11-03T09:11:02.000Z</time>
      </trkpt>
      <trkpt lat="47.77077" lon="6.6481">
        <ele>637.49</ele>
        <time>2018-11-03T09:11:07.000Z</time>
      </trkpt>
      <trkpt lat="47.77079" lon="6.64809">
        <ele>637.38</ele>
        <time>2018-11-03T09:11:12.000Z</time>
      </trkpt>
      <trkpt lat="47.77079" lon="6.64808">
        <ele>637.35</ele>
        <time>2018-11-03T09:11:17.000Z</time>
      </trkpt>
      <trkpt lat="47.77079" lon="6.64807">
        <ele>637.31</ele>
        <time>2018-11-03T09:11:22.000Z</time>
      </trkpt>
      <trkpt lat="47.77079" lon="6.64807">
        <ele>637.28</ele>
        <time>2018-11-03T09:11:27.000Z</time>
      </trkpt>
      <trkpt lat="47.77078" lon="6.64807">
        <ele>637.16</ele>
        <time>2018-11-03T09:11:32.000Z</time>
      </trkpt>
      <trkpt lat="47.77078" lon="6.64806">
        <ele>637.05</ele>
        <time>2018-11-03T09:11:37.000Z</time>
      </trkpt>
      <trkpt lat="47.77077" lon="6.64806">
        <ele>636.94</ele>
        <time>2018-11-03T09:11:42.000Z</time>
      </trkpt>
      <trkpt lat="47.7708" lon="6.64804">
        <ele>637.75</ele>
        <time>2018-11-03T09:11:47.000Z</time>
      </trkpt>
      <trkpt lat="47.77085" lon="6.64807">
        <ele>638.55</ele>
        <time>2018-11-03T09:11:52.000Z</time>
      </trkpt>
      <trkpt lat="47.77093" lon="6.64814">
        <ele>639.36</ele>
        <time>2018-11-03T09:11:57.000Z</time>
      </trkpt>
      <trkpt lat="47.771" lon="6.6482">
        <ele>640.57</ele>
        <time>2018-11-03T09:12:02.000Z</time>
      </trkpt>
      <trkpt lat="47.77107" lon="6.64826">
        <ele>641.78</ele>
        <time>2018-11-03T09:12:07.000Z</time>
      </trkpt>
      <trkpt lat="47.77114" lon="6.64833">
        <ele>642.99</ele>
        <time>2018-11-03T09:12:12.000Z</time>
      </trkpt>
      <trkpt lat="47.77121" lon="6.64842">
        <ele>644.5</ele>
        <time>2018-11-03T09:12:17.000Z</time>
      </trkpt>
      <trkpt lat="47.77128" lon="6.64852">
        <ele>646.01</ele>
        <time>2018-11-03T09:12:22.000Z</time>
      </trkpt>
      <trkpt lat="47.7713" lon="6.64866">
        <ele>647.51</ele>
        <time>2018-11-03T09:12:27.000Z</time>
      </trkpt>
      <trkpt lat="47.77134" lon="6.6488">
        <ele>647.7</ele>
        <time>2018-11-03T09:12:32.000Z</time>
      </trkpt>
      <trkpt lat="47.7714" lon="6.64894">
        <ele>647.88</ele>
        <time>2018-11-03T09:12:37.000Z</time>
      </trkpt>
      <trkpt lat="47.77147" lon="6.64906">
        <ele>648.06</ele>
        <time>2018-11-03T09:12:42.000Z</time>
      </trkpt>
      <trkpt lat="47.77157" lon="6.64918">
        <ele>649.38</ele>
        <time>2018-11-03T09:12:47.000Z</time>
      </trkpt>
      <trkpt lat="47.77165" lon="6.64931">
        <ele>650.71</ele>
        <time>2018-11-03T09:12:52.000Z</time>
      </trkpt>
      <trkpt lat="47.77171" lon="6.64944">
        <ele>652.04</ele>
        <time>2018-11-03T09:12:57.000Z</time>
      </trkpt>
      <trkpt lat="47.77175" lon="6.64956">
        <ele>652.94</ele>
        <time>2018-11-03T09:13:02.000Z</time>
      </trkpt>
      <trkpt lat="47.77179" lon="6.64969">
        <ele>653.84</ele>
        <time>2018-11-03T09:13:07.000Z</time>
      </trkpt>
      <trkpt lat="47.77181" lon="6.64981">
        <ele>654.74</ele>
        <time>2018-11-03T09:13:12.000Z</time>
      </trkpt>
      <trkpt lat="47.77182" lon="6.64994">
        <ele>655.67</ele>
        <time>2018-11-03T09:13:17.000Z</time>
      </trkpt>
      <trkpt lat="47.77183" lon="6.65009">
        <ele>656.6</ele>
        <time>2018-11-03T09:13:22.000Z</time>
      </trkpt>
      <trkpt lat="47.77185" lon="6.65026">
        <ele>657.53</ele>
        <time>2018-11-03T09:13:27.000Z</time>
      </trkpt>
      <trkpt lat="47.77185" lon="6.65044">
        <ele>658.33</ele>
        <time>2018-11-03T09:13:32.000Z</time>
      </trkpt>
      <trkpt lat="47.77188" lon="6.65063">
        <ele>659.13</ele>
        <time>2018-11-03T09:13:37.000Z</time>
      </trkpt>
      <trkpt lat="47.77192" lon="6.6509">
        <ele>659.93</ele>
        <time>2018-11-03T09:13:42.000Z</time>
      </trkpt>
      <trkpt lat="47.77196" lon="6.6511">
        <ele>660.99</ele>
        <time>2018-11-03T09:13:47.000Z</time>
      </trkpt>
      <trkpt lat="47.77197" lon="6.6513">
        <ele>662.05</ele>
        <time>2018-11-03T09:13:52.000Z</time>
      </trkpt>
      <trkpt lat="47.77202" lon="6.6514">
        <ele>663.11</ele>
        <time>2018-11-03T09:13:57.000Z</time>
      </trkpt>
      <trkpt lat="47.77207" lon="6.65149">
        <ele>664.19</ele>
        <time>2018-11-03T09:14:02.000Z</time>
      </trkpt>
      <trkpt lat="47.77214" lon="6.65161">
        <ele>665.28</ele>
        <time>2018-11-03T09:14:07.000Z</time>
      </trkpt>
      <trkpt lat="47.7722" lon="6.65172">
        <ele>666.37</ele>
        <time>2018-11-03T09:14:12.000Z</time>
      </trkpt>
      <trkpt lat="47.77231" lon="6.65189">
        <ele>666.94</ele>
        <time>2018-11-03T09:14:17.000Z</time>
      </trkpt>
      <trkpt lat="47.77239" lon="6.65204">
        <ele>667.51</ele>
        <time>2018-11-03T09:14:22.000Z</time>
      </trkpt>
      <trkpt lat="47.77246" lon="6.65214">
        <ele>668.08</ele>
        <time>2018-11-03T09:14:27.000Z</time>
      </trkpt>
      <trkpt lat="47.77257" lon="6.65228">
        <ele>668.95</ele>
        <time>2018-11-03T09:14:32.000Z</time>
      </trkpt>
      <trkpt lat="47.77262" lon="6.65244">
        <ele>669.82</ele>
        <time>2018-11-03T09:14:37.000Z</time>
      </trkpt>
      <trkpt lat="47.77266" lon="6.65263">
        <ele>670.7</ele>
        <time>2018-11-03T09:14:42.000Z</time>
      </trkpt>
      <trkpt lat="47.77269" lon="6.65281">
        <ele>670.92</ele>
        <time>2018-11-03T09:14:47.000Z</time>
      </trkpt>
      <trkpt lat="47.77271" lon="6.65302">
        <ele>671.15</ele>
        <time>2018-11-03T09:14:52.000Z</time>
      </trkpt>
      <trkpt lat="47.77273" lon="6.65326">
        <ele>671.38</ele>
        <time>2018-11-03T09:14:57.000Z</time>
      </trkpt>
      <trkpt lat="47.77274" lon="6.65345">
        <ele>672.93</ele>
        <time>2018-11-03T09:15:02.000Z</time>
      </trkpt>
      <trkpt lat="47.77274" lon="6.65363">
        <ele>674.49</ele>
        <time>2018-11-03T09:15:07.000Z</time>
      </trkpt>
      <trkpt lat="47.77276" lon="6.65382">
        <ele>676.04</ele>
        <time>2018-11-03T09:15:12.000Z</time>
      </trkpt>
      <trkpt lat="47.77279" lon="6.654">
        <ele>677</ele>
        <time>2018-11-03T09:15:17.000Z</time>
      </trkpt>
      <trkpt lat="47.77283" lon="6.65417">
        <ele>677.95</ele>
        <time>2018-11-03T09:15:22.000Z</time>
      </trkpt>
      <trkpt lat="47.77286" lon="6.65435">
        <ele>678.91</ele>
        <time>2018-11-03T09:15:27.000Z</time>
      </trkpt>
      <trkpt lat="47.7729" lon="6.65452">
        <ele>680.15</ele>
        <time>2018-11-03T09:15:32.000Z</time>
      </trkpt>
      <trkpt lat="47.77295" lon="6.6547">
        <ele>681.4</ele>
        <time>2018-11-03T09:15:37.000Z</time>
      </trkpt>
      <trkpt lat="47.77301" lon="6.65492">
        <ele>682.65</ele>
        <time>2018-11-03T09:15:42.000Z</time>
      </trkpt>
      <trkpt lat="47.77305" lon="6.65514">
        <ele>684.1</ele>
        <time>2018-11-03T09:15:47.000Z</time>
      </trkpt>
      <trkpt lat="47.77311" lon="6.65535">
        <ele>685.54</ele>
        <time>2018-11-03T09:15:52.000Z</time>
      </trkpt>
      <trkpt lat="47.77316" lon="6.65557">
        <ele>686.99</ele>
        <time>2018-11-03T09:15:57.000Z</time>
      </trkpt>
      <trkpt lat="47.77318" lon="6.65583">
        <ele>688.36</ele>
        <time>2018-11-03T09:16:02.000Z</time>
      </trkpt>
      <trkpt lat="47.7732" lon="6.65611">
        <ele>689.72</ele>
        <time>2018-11-03T09:16:07.000Z</time>
      </trkpt>
      <trkpt lat="47.77319" lon="6.6564">
        <ele>691.09</ele>
        <time>2018-11-03T09:16:12.000Z</time>
      </trkpt>
      <trkpt lat="47.7732" lon="6.65668">
        <ele>692.99</ele>
        <time>2018-11-03T09:16:17.000Z</time>
      </trkpt>
      <trkpt lat="47.7732" lon="6.65694">
        <ele>694.88</ele>
        <time>2018-11-03T09:16:22.000Z</time>
      </trkpt>
      <trkpt lat="47.77324" lon="6.65718">
        <ele>696.78</ele>
        <time>2018-11-03T09:16:27.000Z</time>
      </trkpt>
      <trkpt lat="47.77325" lon="6.65744">
        <ele>698.28</ele>
        <time>2018-11-03T09:16:32.000Z</time>
      </trkpt>
      <trkpt lat="47.7733" lon="6.65767">
        <ele>699.79</ele>
        <time>2018-11-03T09:16:37.000Z</time>
      </trkpt>
      <trkpt lat="47.77335" lon="6.65779">
        <ele>701.3</ele>
        <time>2018-11-03T09:16:42.000Z</time>
      </trkpt>
      <trkpt lat="47.77338" lon="6.65793">
        <ele>702.04</ele>
        <time>2018-11-03T09:16:47.000Z</time>
      </trkpt>
      <trkpt lat="47.77344" lon="6.65803">
        <ele>702.79</ele>
        <time>2018-11-03T09:16:52.000Z</time>
      </trkpt>
      <trkpt lat="47.77348" lon="6.65811">
        <ele>703.53</ele>
        <time>2018-11-03T09:16:57.000Z</time>
      </trkpt>
      <trkpt lat="47.77351" lon="6.6582">
        <ele>704.76</ele>
        <time>2018-11-03T09:17:02.000Z</time>
      </trkpt>
      <trkpt lat="47.77355" lon="6.65831">
        <ele>705.99</ele>
        <time>2018-11-03T09:17:07.000Z</time>
      </trkpt>
      <trkpt lat="47.77358" lon="6.65841">
        <ele>707.22</ele>
        <time>2018-11-03T09:17:12.000Z</time>
      </trkpt>
      <trkpt lat="47.77362" lon="6.65848">
        <ele>708.11</ele>
        <time>2018-11-03T09:17:17.000Z</time>
      </trkpt>
      <trkpt lat="47.77367" lon="6.65859">
        <ele>709</ele>
        <time>2018-11-03T09:17:22.000Z</time>
      </trkpt>
      <trkpt lat="47.77372" lon="6.65867">
        <ele>709.89</ele>
        <time>2018-11-03T09:17:27.000Z</time>
      </trkpt>
      <trkpt lat="47.77376" lon="6.65875">
        <ele>710.56</ele>
        <time>2018-11-03T09:17:32.000Z</time>
      </trkpt>
      <trkpt lat="47.77378" lon="6.65884">
        <ele>711.22</ele>
        <time>2018-11-03T09:17:37.000Z</time>
      </trkpt>
      <trkpt lat="47.77381" lon="6.65891">
        <ele>711.88</ele>
        <time>2018-11-03T09:17:42.000Z</time>
      </trkpt>
      <trkpt lat="47.77383" lon="6.65896">
        <ele>712.58</ele>
        <time>2018-11-03T09:17:47.000Z</time>
      </trkpt>
      <trkpt lat="47.77389" lon="6.65904">
        <ele>713.29</ele>
        <time>2018-11-03T09:17:52.000Z</time>
      </trkpt>
      <trkpt lat="47.77392" lon="6.65913">
        <ele>713.99</ele>
        <time>2018-11-03T09:17:57.000Z</time>
      </trkpt>
      <trkpt lat="47.77397" lon="6.6592">
        <ele>715.28</ele>
        <time>2018-11-03T09:18:02.000Z</time>
      </trkpt>
      <trkpt lat="47.774" lon="6.65926">
        <ele>716.57</ele>
        <time>2018-11-03T09:18:07.000Z</time>
      </trkpt>
      <trkpt lat="47.77404" lon="6.65936">
        <ele>717.86</ele>
        <time>2018-11-03T09:18:12.000Z</time>
      </trkpt>
      <trkpt lat="47.77407" lon="6.65945">
        <ele>719.44</ele>
        <time>2018-11-03T09:18:17.000Z</time>
      </trkpt>
      <trkpt lat="47.7741" lon="6.65951">
        <ele>721.02</ele>
        <time>2018-11-03T09:18:22.000Z</time>
      </trkpt>
      <trkpt lat="47.77411" lon="6.65963">
        <ele>722.61</ele>
        <time>2018-11-03T09:18:27.000Z</time>
      </trkpt>
      <trkpt lat="47.77415" lon="6.65972">
        <ele>723.59</ele>
        <time>2018-11-03T09:18:32.000Z</time>
      </trkpt>
      <trkpt lat="47.77421" lon="6.65983">
        <ele>724.56</ele>
        <time>2018-11-03T09:18:37.000Z</time>
      </trkpt>
      <trkpt lat="47.77423" lon="6.65995">
        <ele>725.54</ele>
        <time>2018-11-03T09:18:42.000Z</time>
      </trkpt>
      <trkpt lat="47.77427" lon="6.66004">
        <ele>726.59</ele>
        <time>2018-11-03T09:18:47.000Z</time>
      </trkpt>
      <trkpt lat="47.77429" lon="6.66016">
        <ele>727.63</ele>
        <time>2018-11-03T09:18:52.000Z</time>
      </trkpt>
      <trkpt lat="47.77432" lon="6.66025">
        <ele>728.68</ele>
        <time>2018-11-03T09:18:57.000Z</time>
      </trkpt>
      <trkpt lat="47.77437" lon="6.66037">
        <ele>729.28</ele>
        <time>2018-11-03T09:19:02.000Z</time>
      </trkpt>
      <trkpt lat="47.77443" lon="6.66047">
        <ele>729.89</ele>
        <time>2018-11-03T09:19:07.000Z</time>
      </trkpt>
      <trkpt lat="47.77448" lon="6.66057">
        <ele>730.5</ele>
        <time>2018-11-03T09:19:12.000Z</time>
      </trkpt>
      <trkpt lat="47.77453" lon="6.66068">
        <ele>730.07</ele>
        <time>2018-11-03T09:19:17.000Z</time>
      </trkpt>
      <trkpt lat="47.7746" lon="6.66075">
        <ele>729.64</ele>
        <time>2018-11-03T09:19:22.000Z</time>
      </trkpt>
      <trkpt lat="47.77466" lon="6.66084">
        <ele>729.21</ele>
        <time>2018-11-03T09:19:27.000Z</time>
      </trkpt>
      <trkpt lat="47.77478" lon="6.66091">
        <ele>728.97</ele>
        <time>2018-11-03T09:19:32.000Z</time>
      </trkpt>
      <trkpt lat="47.77486" lon="6.66098">
        <ele>728.74</ele>
        <time>2018-11-03T09:19:37.000Z</time>
      </trkpt>
      <trkpt lat="47.77494" lon="6.66106">
        <ele>728.5</ele>
        <time>2018-11-03T09:19:42.000Z</time>
      </trkpt>
      <trkpt lat="47.77503" lon="6.66114">
        <ele>729.14</ele>
        <time>2018-11-03T09:19:47.000Z</time>
      </trkpt>
      <trkpt lat="47.77513" lon="6.66122">
        <ele>729.77</ele>
        <time>2018-11-03T09:19:52.000Z</time>
      </trkpt>
      <trkpt lat="47.7752" lon="6.66131">
        <ele>730.4</ele>
        <time>2018-11-03T09:19:57.000Z</time>
      </trkpt>
      <trkpt lat="47.77526" lon="6.66137">
        <ele>730.96</ele>
        <time>2018-11-03T09:20:02.000Z</time>
      </trkpt>
      <trkpt lat="47.7753" lon="6.66142">
        <ele>731.52</ele>
        <time>2018-11-03T09:20:07.000Z</time>
      </trkpt>
      <trkpt lat="47.77537" lon="6.66147">
        <ele>732.08</ele>
        <time>2018-11-03T09:20:12.000Z</time>
      </trkpt>
      <trkpt lat="47.77545" lon="6.66151">
        <ele>732.81</ele>
        <time>2018-11-03T09:20:17.000Z</time>
      </trkpt>
      <trkpt lat="47.77555" lon="6.66158">
        <ele>733.54</ele>
        <time>2018-11-03T09:20:22.000Z</time>
      </trkpt>
      <trkpt lat="47.77559" lon="6.66165">
        <ele>734.28</ele>
        <time>2018-11-03T09:20:27.000Z</time>
      </trkpt>
      <trkpt lat="47.77563" lon="6.66172">
        <ele>735.07</ele>
        <time>2018-11-03T09:20:32.000Z</time>
      </trkpt>
      <trkpt lat="47.77571" lon="6.6618">
        <ele>735.87</ele>
        <time>2018-11-03T09:20:37.000Z</time>
      </trkpt>
      <trkpt lat="47.77577" lon="6.66188">
        <ele>736.66</ele>
        <time>2018-11-03T09:20:42.000Z</time>
      </trkpt>
      <trkpt lat="47.77581" lon="6.66198">
        <ele>737.96</ele>
        <time>2018-11-03T09:20:47.000Z</time>
      </trkpt>
      <trkpt lat="47.77585" lon="6.66207">
        <ele>739.25</ele>
        <time>2018-11-03T09:20:52.000Z</time>
      </trkpt>
      <trkpt lat="47.7759" lon="6.66219">
        <ele>740.55</ele>
        <time>2018-11-03T09:20:57.000Z</time>
      </trkpt>
      <trkpt lat="47.77593" lon="6.66233">
        <ele>742.1</ele>
        <time>2018-11-03T09:21:02.000Z</time>
      </trkpt>
      <trkpt lat="47.77594" lon="6.66248">
        <ele>743.65</ele>
        <time>2018-11-03T09:21:07.000Z</time>
      </trkpt>
      <trkpt lat="47.77594" lon="6.66267">
        <ele>745.2</ele>
        <time>2018-11-03T09:21:12.000Z</time>
      </trkpt>
      <trkpt lat="47.77602" lon="6.66293">
        <ele>745.03</ele>
        <time>2018-11-03T09:21:17.000Z</time>
      </trkpt>
      <trkpt lat="47.7761" lon="6.66322">
        <ele>744.85</ele>
        <time>2018-11-03T09:21:22.000Z</time>
      </trkpt>
      <trkpt lat="47.77614" lon="6.66344">
        <ele>744.68</ele>
        <time>2018-11-03T09:21:27.000Z</time>
      </trkpt>
      <trkpt lat="47.7762" lon="6.66369">
        <ele>744.17</ele>
        <time>2018-11-03T09:21:32.000Z</time>
      </trkpt>
      <trkpt lat="47.77625" lon="6.66369">
        <ele>743.67</ele>
        <time>2018-11-03T09:21:37.000Z</time>
      </trkpt>
      <trkpt lat="47.77627" lon="6.66368">
        <ele>743.16</ele>
        <time>2018-11-03T09:21:42.000Z</time>
      </trkpt>
      <trkpt lat="47.77628" lon="6.66383">
        <ele>738.38</ele>
        <time>2018-11-03T09:21:47.000Z</time>
      </trkpt>
      <trkpt lat="47.77629" lon="6.66416">
        <ele>733.6</ele>
        <time>2018-11-03T09:21:52.000Z</time>
      </trkpt>
      <trkpt lat="47.77632" lon="6.66455">
        <ele>728.82</ele>
        <time>2018-11-03T09:21:57.000Z</time>
      </trkpt>
      <trkpt lat="47.77635" lon="6.66497">
        <ele>725.89</ele>
        <time>2018-11-03T09:22:02.000Z</time>
      </trkpt>
      <trkpt lat="47.7765" lon="6.66538">
        <ele>722.96</ele>
        <time>2018-11-03T09:22:07.000Z</time>
      </trkpt>
      <trkpt lat="47.77677" lon="6.66566">
        <ele>720.03</ele>
        <time>2018-11-03T09:22:12.000Z</time>
      </trkpt>
      <trkpt lat="47.77709" lon="6.66599">
        <ele>719.68</ele>
        <time>2018-11-03T09:22:17.000Z</time>
      </trkpt>
      <trkpt lat="47.77744" lon="6.66613">
        <ele>719.32</ele>
        <time>2018-11-03T09:22:22.000Z</time>
      </trkpt>
      <trkpt lat="47.77767" lon="6.66626">
        <ele>718.97</ele>
        <time>2018-11-03T09:22:27.000Z</time>
      </trkpt>
      <trkpt lat="47.77784" lon="6.66644">
        <ele>717.19</ele>
        <time>2018-11-03T09:22:32.000Z</time>
      </trkpt>
      <trkpt lat="47.778" lon="6.66663">
        <ele>715.4</ele>
        <time>2018-11-03T09:22:37.000Z</time>
      </trkpt>
      <trkpt lat="47.77818" lon="6.66687">
        <ele>713.61</ele>
        <time>2018-11-03T09:22:42.000Z</time>
      </trkpt>
      <trkpt lat="47.77837" lon="6.66711">
        <ele>711.9</ele>
        <time>2018-11-03T09:22:47.000Z</time>
      </trkpt>
      <trkpt lat="47.77858" lon="6.6674">
        <ele>710.19</ele>
        <time>2018-11-03T09:22:52.000Z</time>
      </trkpt>
      <trkpt lat="47.77871" lon="6.66774">
        <ele>708.47</ele>
        <time>2018-11-03T09:22:57.000Z</time>
      </trkpt>
      <trkpt lat="47.77858" lon="6.6679">
        <ele>710.26</ele>
        <time>2018-11-03T09:23:02.000Z</time>
      </trkpt>
      <trkpt lat="47.77844" lon="6.66807">
        <ele>712.06</ele>
        <time>2018-11-03T09:23:07.000Z</time>
      </trkpt>
      <trkpt lat="47.77852" lon="6.66825">
        <ele>713.85</ele>
        <time>2018-11-03T09:23:12.000Z</time>
      </trkpt>
      <trkpt lat="47.7786" lon="6.66832">
        <ele>715.71</ele>
        <time>2018-11-03T09:23:17.000Z</time>
      </trkpt>
      <trkpt lat="47.7787" lon="6.66839">
        <ele>717.57</ele>
        <time>2018-11-03T09:23:22.000Z</time>
      </trkpt>
      <trkpt lat="47.77877" lon="6.66842">
        <ele>719.42</ele>
        <time>2018-11-03T09:23:27.000Z</time>
      </trkpt>
      <trkpt lat="47.77885" lon="6.66847">
        <ele>720.67</ele>
        <time>2018-11-03T09:23:32.000Z</time>
      </trkpt>
      <trkpt lat="47.77894" lon="6.66853">
        <ele>721.92</ele>
        <time>2018-11-03T09:23:37.000Z</time>
      </trkpt>
      <trkpt lat="47.77904" lon="6.66859">
        <ele>723.17</ele>
        <time>2018-11-03T09:23:42.000Z</time>
      </trkpt>
      <trkpt lat="47.77912" lon="6.66866">
        <ele>724.24</ele>
        <time>2018-11-03T09:23:47.000Z</time>
      </trkpt>
      <trkpt lat="47.77919" lon="6.66874">
        <ele>725.32</ele>
        <time>2018-11-03T09:23:52.000Z</time>
      </trkpt>
      <trkpt lat="47.77926" lon="6.66882">
        <ele>726.39</ele>
        <time>2018-11-03T09:23:57.000Z</time>
      </trkpt>
      <trkpt lat="47.77932" lon="6.6689">
        <ele>727.35</ele>
        <time>2018-11-03T09:24:02.000Z</time>
      </trkpt>
      <trkpt lat="47.77936" lon="6.66897">
        <ele>728.31</ele>
        <time>2018-11-03T09:24:07.000Z</time>
      </trkpt>
      <trkpt lat="47.77942" lon="6.66905">
        <ele>729.27</ele>
        <time>2018-11-03T09:24:12.000Z</time>
      </trkpt>
      <trkpt lat="47.77947" lon="6.66914">
        <ele>730.68</ele>
        <time>2018-11-03T09:24:17.000Z</time>
      </trkpt>
      <trkpt lat="47.77951" lon="6.66925">
        <ele>732.08</ele>
        <time>2018-11-03T09:24:22.000Z</time>
      </trkpt>
      <trkpt lat="47.77953" lon="6.66935">
        <ele>733.49</ele>
        <time>2018-11-03T09:24:27.000Z</time>
      </trkpt>
      <trkpt lat="47.77954" lon="6.66947">
        <ele>733.59</ele>
        <time>2018-11-03T09:24:32.000Z</time>
      </trkpt>
      <trkpt lat="47.77951" lon="6.66956">
        <ele>733.69</ele>
        <time>2018-11-03T09:24:37.000Z</time>
      </trkpt>
      <trkpt lat="47.77944" lon="6.66957">
        <ele>733.79</ele>
        <time>2018-11-03T09:24:42.000Z</time>
      </trkpt>
      <trkpt lat="47.77938" lon="6.6695">
        <ele>733.7</ele>
        <time>2018-11-03T09:24:47.000Z</time>
      </trkpt>
      <trkpt lat="47.77931" lon="6.66946">
        <ele>733.61</ele>
        <time>2018-11-03T09:24:52.000Z</time>
      </trkpt>
      <trkpt lat="47.77926" lon="6.66935">
        <ele>733.53</ele>
        <time>2018-11-03T09:24:57.000Z</time>
      </trkpt>
      <trkpt lat="47.77922" lon="6.66922">
        <ele>733.42</ele>
        <time>2018-11-03T09:25:02.000Z</time>
      </trkpt>
      <trkpt lat="47.77917" lon="6.66915">
        <ele>733.3</ele>
        <time>2018-11-03T09:25:07.000Z</time>
      </trkpt>
      <trkpt lat="47.77916" lon="6.66915">
        <ele>733.19</ele>
        <time>2018-11-03T09:25:12.000Z</time>
      </trkpt>
      <trkpt lat="47.77915" lon="6.66916">
        <ele>733.19</ele>
        <time>2018-11-03T09:25:17.000Z</time>
      </trkpt>
      <trkpt lat="47.77915" lon="6.66916">
        <ele>733.19</ele>
        <time>2018-11-03T09:25:22.000Z</time>
      </trkpt>
      <trkpt lat="47.77915" lon="6.66916">
        <ele>733.19</ele>
        <time>2018-11-03T09:25:27.000Z</time>
      </trkpt>
      <trkpt lat="47.77915" lon="6.66917">
        <ele>733.2</ele>
        <time>2018-11-03T09:25:32.000Z</time>
      </trkpt>
      <trkpt lat="47.77915" lon="6.66917">
        <ele>733.22</ele>
        <time>2018-11-03T09:25:37.000Z</time>
      </trkpt>
      <trkpt lat="47.77915" lon="6.66918">
        <ele>733.24</ele>
        <time>2018-11-03T09:25:42.000Z</time>
      </trkpt>
      <trkpt lat="47.77915" lon="6.66918">
        <ele>733.25</ele>
        <time>2018-11-03T09:25:47.000Z</time>
      </trkpt>
      <trkpt lat="47.77915" lon="6.66918">
        <ele>733.25</ele>
        <time>2018-11-03T09:25:52.000Z</time>
      </trkpt>
      <trkpt lat="47.77915" lon="6.66917">
        <ele>733.26</ele>
        <time>2018-11-03T09:25:57.000Z</time>
      </trkpt>
      <trkpt lat="47.77915" lon="6.66917">
        <ele>733.28</ele>
        <time>2018-11-03T09:26:02.000Z</time>
      </trkpt>
      <trkpt lat="47.77915" lon="6.66917">
        <ele>733.3</ele>
        <time>2018-11-03T09:26:07.000Z</time>
      </trkpt>
      <trkpt lat="47.77915" lon="6.66918">
        <ele>733.32</ele>
        <time>2018-11-03T09:26:12.000Z</time>
      </trkpt>
      <trkpt lat="47.77914" lon="6.66921">
        <ele>733.31</ele>
        <time>2018-11-03T09:26:17.000Z</time>
      </trkpt>
      <trkpt lat="47.77914" lon="6.66923">
        <ele>733.29</ele>
        <time>2018-11-03T09:26:22.000Z</time>
      </trkpt>
      <trkpt lat="47.77913" lon="6.66923">
        <ele>733.28</ele>
        <time>2018-11-03T09:26:27.000Z</time>
      </trkpt>
      <trkpt lat="47.77913" lon="6.66922">
        <ele>733.28</ele>
        <time>2018-11-03T09:26:32.000Z</time>
      </trkpt>
      <trkpt lat="47.77914" lon="6.66922">
        <ele>733.29</ele>
        <time>2018-11-03T09:26:37.000Z</time>
      </trkpt>
      <trkpt lat="47.77914" lon="6.66922">
        <ele>733.3</ele>
        <time>2018-11-03T09:26:42.000Z</time>
      </trkpt>
      <trkpt lat="47.77914" lon="6.66921">
        <ele>733.28</ele>
        <time>2018-11-03T09:26:47.000Z</time>
      </trkpt>
      <trkpt lat="47.77914" lon="6.66921">
        <ele>733.25</ele>
        <time>2018-11-03T09:26:52.000Z</time>
      </trkpt>
      <trkpt lat="47.77913" lon="6.66921">
        <ele>733.22</ele>
        <time>2018-11-03T09:26:57.000Z</time>
      </trkpt>
      <trkpt lat="47.77913" lon="6.66921">
        <ele>733.22</ele>
        <time>2018-11-03T09:27:02.000Z</time>
      </trkpt>
      <trkpt lat="47.77912" lon="6.66921">
        <ele>733.21</ele>
        <time>2018-11-03T09:27:07.000Z</time>
      </trkpt>
      <trkpt lat="47.77912" lon="6.66922">
        <ele>733.2</ele>
        <time>2018-11-03T09:27:12.000Z</time>
      </trkpt>
      <trkpt lat="47.77912" lon="6.66922">
        <ele>733.23</ele>
        <time>2018-11-03T09:27:17.000Z</time>
      </trkpt>
      <trkpt lat="47.77913" lon="6.66922">
        <ele>733.25</ele>
        <time>2018-11-03T09:27:22.000Z</time>
      </trkpt>
      <trkpt lat="47.77913" lon="6.6692">
        <ele>733.28</ele>
        <time>2018-11-03T09:27:27.000Z</time>
      </trkpt>
      <trkpt lat="47.77914" lon="6.6692">
        <ele>733.32</ele>
        <time>2018-11-03T09:27:32.000Z</time>
      </trkpt>
      <trkpt lat="47.77914" lon="6.66921">
        <ele>733.37</ele>
        <time>2018-11-03T09:27:37.000Z</time>
      </trkpt>
      <trkpt lat="47.77915" lon="6.66922">
        <ele>733.41</ele>
        <time>2018-11-03T09:27:42.000Z</time>
      </trkpt>
      <trkpt lat="47.77915" lon="6.66923">
        <ele>733.45</ele>
        <time>2018-11-03T09:27:47.000Z</time>
      </trkpt>
      <trkpt lat="47.77915" lon="6.66923">
        <ele>733.48</ele>
        <time>2018-11-03T09:27:52.000Z</time>
      </trkpt>
      <trkpt lat="47.77916" lon="6.66923">
        <ele>733.51</ele>
        <time>2018-11-03T09:27:57.000Z</time>
      </trkpt>
      <trkpt lat="47.77917" lon="6.66923">
        <ele>733.45</ele>
        <time>2018-11-03T09:28:02.000Z</time>
      </trkpt>
      <trkpt lat="47.77915" lon="6.66923">
        <ele>733.39</ele>
        <time>2018-11-03T09:28:07.000Z</time>
      </trkpt>
      <trkpt lat="47.77915" lon="6.66922">
        <ele>733.33</ele>
        <time>2018-11-03T09:28:12.000Z</time>
      </trkpt>
      <trkpt lat="47.77915" lon="6.66921">
        <ele>733.31</ele>
        <time>2018-11-03T09:28:17.000Z</time>
      </trkpt>
      <trkpt lat="47.77915" lon="6.6692">
        <ele>733.28</ele>
        <time>2018-11-03T09:28:22.000Z</time>
      </trkpt>
      <trkpt lat="47.77914" lon="6.6692">
        <ele>733.25</ele>
        <time>2018-11-03T09:28:27.000Z</time>
      </trkpt>
      <trkpt lat="47.77914" lon="6.6692">
        <ele>733.24</ele>
        <time>2018-11-03T09:28:32.000Z</time>
      </trkpt>
      <trkpt lat="47.77913" lon="6.66921">
        <ele>733.22</ele>
        <time>2018-11-03T09:28:37.000Z</time>
      </trkpt>
      <trkpt lat="47.77913" lon="6.6692">
        <ele>733.21</ele>
        <time>2018-11-03T09:28:42.000Z</time>
      </trkpt>
      <trkpt lat="47.77913" lon="6.66921">
        <ele>733.22</ele>
        <time>2018-11-03T09:28:47.000Z</time>
      </trkpt>
      <trkpt lat="47.77913" lon="6.6692">
        <ele>733.22</ele>
        <time>2018-11-03T09:28:52.000Z</time>
      </trkpt>
      <trkpt lat="47.77913" lon="6.6692">
        <ele>733.23</ele>
        <time>2018-11-03T09:28:57.000Z</time>
      </trkpt>
      <trkpt lat="47.77914" lon="6.6692">
        <ele>733.31</ele>
        <time>2018-11-03T09:29:02.000Z</time>
      </trkpt>
      <trkpt lat="47.77914" lon="6.66919">
        <ele>733.4</ele>
        <time>2018-11-03T09:29:07.000Z</time>
      </trkpt>
      <trkpt lat="47.77917" lon="6.66918">
        <ele>733.49</ele>
        <time>2018-11-03T09:29:12.000Z</time>
      </trkpt>
      <trkpt lat="47.7792" lon="6.66921">
        <ele>733.63</ele>
        <time>2018-11-03T09:29:17.000Z</time>
      </trkpt>
      <trkpt lat="47.77924" lon="6.66927">
        <ele>733.77</ele>
        <time>2018-11-03T09:29:22.000Z</time>
      </trkpt>
      <trkpt lat="47.77929" lon="6.66937">
        <ele>733.91</ele>
        <time>2018-11-03T09:29:27.000Z</time>
      </trkpt>
      <trkpt lat="47.77933" lon="6.6695">
        <ele>731.91</ele>
        <time>2018-11-03T09:29:32.000Z</time>
      </trkpt>
      <trkpt lat="47.77945" lon="6.66956">
        <ele>729.91</ele>
        <time>2018-11-03T09:29:37.000Z</time>
      </trkpt>
      <trkpt lat="47.77955" lon="6.66945">
        <ele>727.91</ele>
        <time>2018-11-03T09:29:42.000Z</time>
      </trkpt>
      <trkpt lat="47.77946" lon="6.66909">
        <ele>723.23</ele>
        <time>2018-11-03T09:29:47.000Z</time>
      </trkpt>
      <trkpt lat="47.77923" lon="6.66873">
        <ele>718.55</ele>
        <time>2018-11-03T09:29:52.000Z</time>
      </trkpt>
      <trkpt lat="47.77894" lon="6.66847">
        <ele>713.87</ele>
        <time>2018-11-03T09:29:57.000Z</time>
      </trkpt>
      <trkpt lat="47.77862" lon="6.66828">
        <ele>712.62</ele>
        <time>2018-11-03T09:30:02.000Z</time>
      </trkpt>
      <trkpt lat="47.77844" lon="6.668">
        <ele>711.36</ele>
        <time>2018-11-03T09:30:07.000Z</time>
      </trkpt>
      <trkpt lat="47.77858" lon="6.66787">
        <ele>710.1</ele>
        <time>2018-11-03T09:30:12.000Z</time>
      </trkpt>
      <trkpt lat="47.77876" lon="6.66781">
        <ele>709.94</ele>
        <time>2018-11-03T09:30:17.000Z</time>
      </trkpt>
      <trkpt lat="47.77901" lon="6.66794">
        <ele>709.78</ele>
        <time>2018-11-03T09:30:22.000Z</time>
      </trkpt>
      <trkpt lat="47.77925" lon="6.66814">
        <ele>709.63</ele>
        <time>2018-11-03T09:30:27.000Z</time>
      </trkpt>
      <trkpt lat="47.77948" lon="6.66836">
        <ele>710.98</ele>
        <time>2018-11-03T09:30:32.000Z</time>
      </trkpt>
      <trkpt lat="47.77974" lon="6.66859">
        <ele>712.34</ele>
        <time>2018-11-03T09:30:37.000Z</time>
      </trkpt>
      <trkpt lat="47.77994" lon="6.66873">
        <ele>713.69</ele>
        <time>2018-11-03T09:30:42.000Z</time>
      </trkpt>
      <trkpt lat="47.7801" lon="6.6689">
        <ele>715.15</ele>
        <time>2018-11-03T09:30:47.000Z</time>
      </trkpt>
      <trkpt lat="47.78025" lon="6.66909">
        <ele>716.6</ele>
        <time>2018-11-03T09:30:52.000Z</time>
      </trkpt>
      <trkpt lat="47.78043" lon="6.6693">
        <ele>718.05</ele>
        <time>2018-11-03T09:30:57.000Z</time>
      </trkpt>
      <trkpt lat="47.78052" lon="6.66953">
        <ele>718.04</ele>
        <time>2018-11-03T09:31:02.000Z</time>
      </trkpt>
      <trkpt lat="47.78062" lon="6.66974">
        <ele>718.03</ele>
        <time>2018-11-03T09:31:07.000Z</time>
      </trkpt>
      <trkpt lat="47.78071" lon="6.66993">
        <ele>718.03</ele>
        <time>2018-11-03T09:31:12.000Z</time>
      </trkpt>
      <trkpt lat="47.7808" lon="6.67011">
        <ele>717.91</ele>
        <time>2018-11-03T09:31:17.000Z</time>
      </trkpt>
      <trkpt lat="47.78087" lon="6.67038">
        <ele>717.79</ele>
        <time>2018-11-03T09:31:22.000Z</time>
      </trkpt>
      <trkpt lat="47.78094" lon="6.67066">
        <ele>717.66</ele>
        <time>2018-11-03T09:31:27.000Z</time>
      </trkpt>
      <trkpt lat="47.78101" lon="6.671">
        <ele>718.66</ele>
        <time>2018-11-03T09:31:32.000Z</time>
      </trkpt>
      <trkpt lat="47.78111" lon="6.67134">
        <ele>719.66</ele>
        <time>2018-11-03T09:31:37.000Z</time>
      </trkpt>
      <trkpt lat="47.78116" lon="6.67165">
        <ele>720.65</ele>
        <time>2018-11-03T09:31:42.000Z</time>
      </trkpt>
      <trkpt lat="47.78118" lon="6.67192">
        <ele>720.58</ele>
        <time>2018-11-03T09:31:47.000Z</time>
      </trkpt>
      <trkpt lat="47.78115" lon="6.67219">
        <ele>720.51</ele>
        <time>2018-11-03T09:31:52.000Z</time>
      </trkpt>
      <trkpt lat="47.78114" lon="6.67254">
        <ele>720.44</ele>
        <time>2018-11-03T09:31:57.000Z</time>
      </trkpt>
      <trkpt lat="47.78126" lon="6.67285">
        <ele>721.18</ele>
        <time>2018-11-03T09:32:02.000Z</time>
      </trkpt>
      <trkpt lat="47.78134" lon="6.6732">
        <ele>721.93</ele>
        <time>2018-11-03T09:32:07.000Z</time>
      </trkpt>
      <trkpt lat="47.78136" lon="6.67352">
        <ele>722.67</ele>
        <time>2018-11-03T09:32:12.000Z</time>
      </trkpt>
      <trkpt lat="47.7814" lon="6.67384">
        <ele>722.99</ele>
        <time>2018-11-03T09:32:17.000Z</time>
      </trkpt>
      <trkpt lat="47.7815" lon="6.67417">
        <ele>723.31</ele>
        <time>2018-11-03T09:32:22.000Z</time>
      </trkpt>
      <trkpt lat="47.7817" lon="6.67443">
        <ele>723.63</ele>
        <time>2018-11-03T09:32:27.000Z</time>
      </trkpt>
      <trkpt lat="47.78192" lon="6.67458">
        <ele>724.65</ele>
        <time>2018-11-03T09:32:32.000Z</time>
      </trkpt>
      <trkpt lat="47.78206" lon="6.67465">
        <ele>725.67</ele>
        <time>2018-11-03T09:32:37.000Z</time>
      </trkpt>
      <trkpt lat="47.78218" lon="6.67472">
        <ele>726.69</ele>
        <time>2018-11-03T09:32:42.000Z</time>
      </trkpt>
      <trkpt lat="47.78235" lon="6.67483">
        <ele>727.6</ele>
        <time>2018-11-03T09:32:47.000Z</time>
      </trkpt>
      <trkpt lat="47.7825" lon="6.67502">
        <ele>728.51</ele>
        <time>2018-11-03T09:32:52.000Z</time>
      </trkpt>
      <trkpt lat="47.78254" lon="6.6753">
        <ele>729.42</ele>
        <time>2018-11-03T09:32:57.000Z</time>
      </trkpt>
      <trkpt lat="47.78258" lon="6.67562">
        <ele>730.23</ele>
        <time>2018-11-03T09:33:02.000Z</time>
      </trkpt>
      <trkpt lat="47.78259" lon="6.67584">
        <ele>731.05</ele>
        <time>2018-11-03T09:33:07.000Z</time>
      </trkpt>
      <trkpt lat="47.78267" lon="6.67606">
        <ele>731.86</ele>
        <time>2018-11-03T09:33:12.000Z</time>
      </trkpt>
      <trkpt lat="47.78278" lon="6.67617">
        <ele>732.21</ele>
        <time>2018-11-03T09:33:17.000Z</time>
      </trkpt>
      <trkpt lat="47.78296" lon="6.67632">
        <ele>732.56</ele>
        <time>2018-11-03T09:33:22.000Z</time>
      </trkpt>
      <trkpt lat="47.7831" lon="6.67644">
        <ele>732.91</ele>
        <time>2018-11-03T09:33:27.000Z</time>
      </trkpt>
      <trkpt lat="47.78325" lon="6.67651">
        <ele>733.67</ele>
        <time>2018-11-03T09:33:32.000Z</time>
      </trkpt>
      <trkpt lat="47.78334" lon="6.67663">
        <ele>734.43</ele>
        <time>2018-11-03T09:33:37.000Z</time>
      </trkpt>
      <trkpt lat="47.78335" lon="6.67674">
        <ele>735.19</ele>
        <time>2018-11-03T09:33:42.000Z</time>
      </trkpt>
      <trkpt lat="47.78335" lon="6.67687">
        <ele>735.42</ele>
        <time>2018-11-03T09:33:47.000Z</time>
      </trkpt>
      <trkpt lat="47.78332" lon="6.67702">
        <ele>735.65</ele>
        <time>2018-11-03T09:33:52.000Z</time>
      </trkpt>
      <trkpt lat="47.78332" lon="6.67721">
        <ele>735.87</ele>
        <time>2018-11-03T09:33:57.000Z</time>
      </trkpt>
      <trkpt lat="47.78333" lon="6.67741">
        <ele>734.99</ele>
        <time>2018-11-03T09:34:02.000Z</time>
      </trkpt>
      <trkpt lat="47.78335" lon="6.67758">
        <ele>734.1</ele>
        <time>2018-11-03T09:34:07.000Z</time>
      </trkpt>
      <trkpt lat="47.78336" lon="6.67774">
        <ele>733.21</ele>
        <time>2018-11-03T09:34:12.000Z</time>
      </trkpt>
      <trkpt lat="47.78339" lon="6.67793">
        <ele>733.39</ele>
        <time>2018-11-03T09:34:17.000Z</time>
      </trkpt>
      <trkpt lat="47.7835" lon="6.67818">
        <ele>733.56</ele>
        <time>2018-11-03T09:34:22.000Z</time>
      </trkpt>
      <trkpt lat="47.78364" lon="6.67839">
        <ele>733.73</ele>
        <time>2018-11-03T09:34:27.000Z</time>
      </trkpt>
      <trkpt lat="47.7839" lon="6.67867">
        <ele>734.82</ele>
        <time>2018-11-03T09:34:32.000Z</time>
      </trkpt>
      <trkpt lat="47.7841" lon="6.67895">
        <ele>735.91</ele>
        <time>2018-11-03T09:34:37.000Z</time>
      </trkpt>
      <trkpt lat="47.78426" lon="6.67912">
        <ele>737.01</ele>
        <time>2018-11-03T09:34:42.000Z</time>
      </trkpt>
      <trkpt lat="47.78429" lon="6.67917">
        <ele>737.98</ele>
        <time>2018-11-03T09:34:47.000Z</time>
      </trkpt>
      <trkpt lat="47.78438" lon="6.67923">
        <ele>738.96</ele>
        <time>2018-11-03T09:34:52.000Z</time>
      </trkpt>
      <trkpt lat="47.78447" lon="6.67932">
        <ele>739.93</ele>
        <time>2018-11-03T09:34:57.000Z</time>
      </trkpt>
      <trkpt lat="47.78467" lon="6.67949">
        <ele>739.71</ele>
        <time>2018-11-03T09:35:02.000Z</time>
      </trkpt>
      <trkpt lat="47.78484" lon="6.67967">
        <ele>739.48</ele>
        <time>2018-11-03T09:35:07.000Z</time>
      </trkpt>
      <trkpt lat="47.78492" lon="6.67988">
        <ele>739.25</ele>
        <time>2018-11-03T09:35:12.000Z</time>
      </trkpt>
      <trkpt lat="47.78499" lon="6.68022">
        <ele>739.64</ele>
        <time>2018-11-03T09:35:17.000Z</time>
      </trkpt>
      <trkpt lat="47.78511" lon="6.68044">
        <ele>740.02</ele>
        <time>2018-11-03T09:35:22.000Z</time>
      </trkpt>
      <trkpt lat="47.78515" lon="6.68058">
        <ele>740.4</ele>
        <time>2018-11-03T09:35:27.000Z</time>
      </trkpt>
      <trkpt lat="47.78521" lon="6.68074">
        <ele>741.02</ele>
        <time>2018-11-03T09:35:32.000Z</time>
      </trkpt>
      <trkpt lat="47.7853" lon="6.6809">
        <ele>741.63</ele>
        <time>2018-11-03T09:35:37.000Z</time>
      </trkpt>
      <trkpt lat="47.78538" lon="6.68108">
        <ele>742.25</ele>
        <time>2018-11-03T09:35:42.000Z</time>
      </trkpt>
      <trkpt lat="47.7854" lon="6.68131">
        <ele>742.97</ele>
        <time>2018-11-03T09:35:47.000Z</time>
      </trkpt>
      <trkpt lat="47.78544" lon="6.68152">
        <ele>743.69</ele>
        <time>2018-11-03T09:35:52.000Z</time>
      </trkpt>
      <trkpt lat="47.78544" lon="6.68171">
        <ele>744.41</ele>
        <time>2018-11-03T09:35:57.000Z</time>
      </trkpt>
      <trkpt lat="47.78549" lon="6.6819">
        <ele>745.38</ele>
        <time>2018-11-03T09:36:02.000Z</time>
      </trkpt>
      <trkpt lat="47.78554" lon="6.68206">
        <ele>746.35</ele>
        <time>2018-11-03T09:36:07.000Z</time>
      </trkpt>
      <trkpt lat="47.78559" lon="6.68223">
        <ele>747.32</ele>
        <time>2018-11-03T09:36:12.000Z</time>
      </trkpt>
      <trkpt lat="47.78563" lon="6.68241">
        <ele>747.83</ele>
        <time>2018-11-03T09:36:17.000Z</time>
      </trkpt>
      <trkpt lat="47.78569" lon="6.68256">
        <ele>748.34</ele>
        <time>2018-11-03T09:36:22.000Z</time>
      </trkpt>
      <trkpt lat="47.78569" lon="6.68273">
        <ele>748.86</ele>
        <time>2018-11-03T09:36:27.000Z</time>
      </trkpt>
      <trkpt lat="47.78561" lon="6.68289">
        <ele>749.64</ele>
        <time>2018-11-03T09:36:32.000Z</time>
      </trkpt>
      <trkpt lat="47.78559" lon="6.68309">
        <ele>750.42</ele>
        <time>2018-11-03T09:36:37.000Z</time>
      </trkpt>
      <trkpt lat="47.78563" lon="6.68333">
        <ele>751.2</ele>
        <time>2018-11-03T09:36:42.000Z</time>
      </trkpt>
      <trkpt lat="47.78567" lon="6.68361">
        <ele>750.96</ele>
        <time>2018-11-03T09:36:47.000Z</time>
      </trkpt>
      <trkpt lat="47.78566" lon="6.68388">
        <ele>750.73</ele>
        <time>2018-11-03T09:36:52.000Z</time>
      </trkpt>
      <trkpt lat="47.78564" lon="6.68419">
        <ele>750.5</ele>
        <time>2018-11-03T09:36:57.000Z</time>
      </trkpt>
      <trkpt lat="47.78563" lon="6.68448">
        <ele>751.99</ele>
        <time>2018-11-03T09:37:02.000Z</time>
      </trkpt>
      <trkpt lat="47.78568" lon="6.68461">
        <ele>753.48</ele>
        <time>2018-11-03T09:37:07.000Z</time>
      </trkpt>
      <trkpt lat="47.78575" lon="6.68474">
        <ele>754.97</ele>
        <time>2018-11-03T09:37:12.000Z</time>
      </trkpt>
      <trkpt lat="47.78577" lon="6.68492">
        <ele>756.09</ele>
        <time>2018-11-03T09:37:17.000Z</time>
      </trkpt>
      <trkpt lat="47.78582" lon="6.68511">
        <ele>757.2</ele>
        <time>2018-11-03T09:37:22.000Z</time>
      </trkpt>
      <trkpt lat="47.78592" lon="6.68526">
        <ele>758.32</ele>
        <time>2018-11-03T09:37:27.000Z</time>
      </trkpt>
      <trkpt lat="47.78599" lon="6.68543">
        <ele>758.03</ele>
        <time>2018-11-03T09:37:32.000Z</time>
      </trkpt>
      <trkpt lat="47.78607" lon="6.68561">
        <ele>757.74</ele>
        <time>2018-11-03T09:37:37.000Z</time>
      </trkpt>
      <trkpt lat="47.78608" lon="6.68581">
        <ele>757.45</ele>
        <time>2018-11-03T09:37:42.000Z</time>
      </trkpt>
      <trkpt lat="47.78602" lon="6.686">
        <ele>758.23</ele>
        <time>2018-11-03T09:37:47.000Z</time>
      </trkpt>
      <trkpt lat="47.78599" lon="6.68623">
        <ele>759.01</ele>
        <time>2018-11-03T09:37:52.000Z</time>
      </trkpt>
      <trkpt lat="47.78601" lon="6.68642">
        <ele>759.79</ele>
        <time>2018-11-03T09:37:57.000Z</time>
      </trkpt>
      <trkpt lat="47.78607" lon="6.68651">
        <ele>761.8</ele>
        <time>2018-11-03T09:38:02.000Z</time>
      </trkpt>
      <trkpt lat="47.78617" lon="6.68667">
        <ele>763.81</ele>
        <time>2018-11-03T09:38:07.000Z</time>
      </trkpt>
      <trkpt lat="47.78625" lon="6.68678">
        <ele>765.82</ele>
        <time>2018-11-03T09:38:12.000Z</time>
      </trkpt>
      <trkpt lat="47.7863" lon="6.68689">
        <ele>766.4</ele>
        <time>2018-11-03T09:38:17.000Z</time>
      </trkpt>
      <trkpt lat="47.78638" lon="6.68699">
        <ele>766.97</ele>
        <time>2018-11-03T09:38:22.000Z</time>
      </trkpt>
      <trkpt lat="47.7864" lon="6.68715">
        <ele>767.54</ele>
        <time>2018-11-03T09:38:27.000Z</time>
      </trkpt>
      <trkpt lat="47.78645" lon="6.68725">
        <ele>768.16</ele>
        <time>2018-11-03T09:38:32.000Z</time>
      </trkpt>
      <trkpt lat="47.7865" lon="6.68736">
        <ele>768.78</ele>
        <time>2018-11-03T09:38:37.000Z</time>
      </trkpt>
      <trkpt lat="47.78657" lon="6.68748">
        <ele>769.41</ele>
        <time>2018-11-03T09:38:42.000Z</time>
      </trkpt>
      <trkpt lat="47.78663" lon="6.6876">
        <ele>769.15</ele>
        <time>2018-11-03T09:38:47.000Z</time>
      </trkpt>
      <trkpt lat="47.78669" lon="6.68774">
        <ele>768.89</ele>
        <time>2018-11-03T09:38:52.000Z</time>
      </trkpt>
      <trkpt lat="47.78674" lon="6.68784">
        <ele>768.63</ele>
        <time>2018-11-03T09:38:57.000Z</time>
      </trkpt>
      <trkpt lat="47.78676" lon="6.68794">
        <ele>769.09</ele>
        <time>2018-11-03T09:39:02.000Z</time>
      </trkpt>
      <trkpt lat="47.78676" lon="6.68806">
        <ele>769.55</ele>
        <time>2018-11-03T09:39:07.000Z</time>
      </trkpt>
      <trkpt lat="47.78675" lon="6.68819">
        <ele>770</ele>
        <time>2018-11-03T09:39:12.000Z</time>
      </trkpt>
      <trkpt lat="47.78675" lon="6.68832">
        <ele>770.06</ele>
        <time>2018-11-03T09:39:17.000Z</time>
      </trkpt>
      <trkpt lat="47.78675" lon="6.68845">
        <ele>770.11</ele>
        <time>2018-11-03T09:39:22.000Z</time>
      </trkpt>
      <trkpt lat="47.78674" lon="6.68861">
        <ele>770.17</ele>
        <time>2018-11-03T09:39:27.000Z</time>
      </trkpt>
      <trkpt lat="47.78671" lon="6.68876">
        <ele>771.15</ele>
        <time>2018-11-03T09:39:32.000Z</time>
      </trkpt>
      <trkpt lat="47.78662" lon="6.68888">
        <ele>772.14</ele>
        <time>2018-11-03T09:39:37.000Z</time>
      </trkpt>
      <trkpt lat="47.78644" lon="6.68894">
        <ele>773.12</ele>
        <time>2018-11-03T09:39:42.000Z</time>
      </trkpt>
      <trkpt lat="47.78631" lon="6.68888">
        <ele>773.5</ele>
        <time>2018-11-03T09:39:47.000Z</time>
      </trkpt>
      <trkpt lat="47.78621" lon="6.68888">
        <ele>773.88</ele>
        <time>2018-11-03T09:39:52.000Z</time>
      </trkpt>
      <trkpt lat="47.78615" lon="6.68887">
        <ele>774.26</ele>
        <time>2018-11-03T09:39:57.000Z</time>
      </trkpt>
      <trkpt lat="47.78611" lon="6.68892">
        <ele>775.07</ele>
        <time>2018-11-03T09:40:02.000Z</time>
      </trkpt>
      <trkpt lat="47.78609" lon="6.68898">
        <ele>775.88</ele>
        <time>2018-11-03T09:40:07.000Z</time>
      </trkpt>
      <trkpt lat="47.78608" lon="6.68903">
        <ele>776.7</ele>
        <time>2018-11-03T09:40:12.000Z</time>
      </trkpt>
      <trkpt lat="47.78604" lon="6.68907">
        <ele>776.34</ele>
        <time>2018-11-03T09:40:17.000Z</time>
      </trkpt>
      <trkpt lat="47.78604" lon="6.68914">
        <ele>775.97</ele>
        <time>2018-11-03T09:40:22.000Z</time>
      </trkpt>
      <trkpt lat="47.78604" lon="6.68923">
        <ele>775.61</ele>
        <time>2018-11-03T09:40:27.000Z</time>
      </trkpt>
      <trkpt lat="47.78606" lon="6.68929">
        <ele>775.75</ele>
        <time>2018-11-03T09:40:32.000Z</time>
      </trkpt>
      <trkpt lat="47.78607" lon="6.68934">
        <ele>775.89</ele>
        <time>2018-11-03T09:40:37.000Z</time>
      </trkpt>
      <trkpt lat="47.78609" lon="6.68938">
        <ele>776.04</ele>
        <time>2018-11-03T09:40:42.000Z</time>
      </trkpt>
      <trkpt lat="47.78607" lon="6.68941">
        <ele>776.48</ele>
        <time>2018-11-03T09:40:47.000Z</time>
      </trkpt>
      <trkpt lat="47.78605" lon="6.68942">
        <ele>776.92</ele>
        <time>2018-11-03T09:40:52.000Z</time>
      </trkpt>
      <trkpt lat="47.78603" lon="6.68941">
        <ele>777.36</ele>
        <time>2018-11-03T09:40:57.000Z</time>
      </trkpt>
      <trkpt lat="47.78601" lon="6.68942">
        <ele>778.29</ele>
        <time>2018-11-03T09:41:02.000Z</time>
      </trkpt>
      <trkpt lat="47.78597" lon="6.68945">
        <ele>779.23</ele>
        <time>2018-11-03T09:41:07.000Z</time>
      </trkpt>
      <trkpt lat="47.78595" lon="6.68948">
        <ele>780.16</ele>
        <time>2018-11-03T09:41:12.000Z</time>
      </trkpt>
      <trkpt lat="47.78595" lon="6.68948">
        <ele>780.43</ele>
        <time>2018-11-03T09:41:17.000Z</time>
      </trkpt>
      <trkpt lat="47.78594" lon="6.68949">
        <ele>780.7</ele>
        <time>2018-11-03T09:41:22.000Z</time>
      </trkpt>
      <trkpt lat="47.78595" lon="6.68954">
        <ele>780.97</ele>
        <time>2018-11-03T09:41:27.000Z</time>
      </trkpt>
      <trkpt lat="47.78594" lon="6.68962">
        <ele>782.01</ele>
        <time>2018-11-03T09:41:32.000Z</time>
      </trkpt>
      <trkpt lat="47.78591" lon="6.68968">
        <ele>783.06</ele>
        <time>2018-11-03T09:41:37.000Z</time>
      </trkpt>
      <trkpt lat="47.78588" lon="6.68974">
        <ele>784.1</ele>
        <time>2018-11-03T09:41:42.000Z</time>
      </trkpt>
      <trkpt lat="47.78586" lon="6.68978">
        <ele>784.72</ele>
        <time>2018-11-03T09:41:47.000Z</time>
      </trkpt>
      <trkpt lat="47.78583" lon="6.68979">
        <ele>785.33</ele>
        <time>2018-11-03T09:41:52.000Z</time>
      </trkpt>
      <trkpt lat="47.78581" lon="6.6898">
        <ele>785.94</ele>
        <time>2018-11-03T09:41:57.000Z</time>
      </trkpt>
      <trkpt lat="47.78577" lon="6.68985">
        <ele>787.61</ele>
        <time>2018-11-03T09:42:02.000Z</time>
      </trkpt>
      <trkpt lat="47.78575" lon="6.68991">
        <ele>789.27</ele>
        <time>2018-11-03T09:42:07.000Z</time>
      </trkpt>
      <trkpt lat="47.7857" lon="6.68996">
        <ele>790.94</ele>
        <time>2018-11-03T09:42:12.000Z</time>
      </trkpt>
      <trkpt lat="47.78566" lon="6.69001">
        <ele>791.61</ele>
        <time>2018-11-03T09:42:17.000Z</time>
      </trkpt>
      <trkpt lat="47.78564" lon="6.69005">
        <ele>792.28</ele>
        <time>2018-11-03T09:42:22.000Z</time>
      </trkpt>
      <trkpt lat="47.78559" lon="6.69005">
        <ele>792.96</ele>
        <time>2018-11-03T09:42:27.000Z</time>
      </trkpt>
      <trkpt lat="47.78556" lon="6.69006">
        <ele>793.92</ele>
        <time>2018-11-03T09:42:32.000Z</time>
      </trkpt>
      <trkpt lat="47.78551" lon="6.69011">
        <ele>794.89</ele>
        <time>2018-11-03T09:42:37.000Z</time>
      </trkpt>
      <trkpt lat="47.78549" lon="6.69017">
        <ele>795.85</ele>
        <time>2018-11-03T09:42:42.000Z</time>
      </trkpt>
      <trkpt lat="47.78551" lon="6.69024">
        <ele>796.61</ele>
        <time>2018-11-03T09:42:47.000Z</time>
      </trkpt>
      <trkpt lat="47.78552" lon="6.6903">
        <ele>797.37</ele>
        <time>2018-11-03T09:42:52.000Z</time>
      </trkpt>
      <trkpt lat="47.78553" lon="6.69036">
        <ele>798.13</ele>
        <time>2018-11-03T09:42:57.000Z</time>
      </trkpt>
      <trkpt lat="47.78552" lon="6.69042">
        <ele>798.53</ele>
        <time>2018-11-03T09:43:02.000Z</time>
      </trkpt>
      <trkpt lat="47.78552" lon="6.69047">
        <ele>798.93</ele>
        <time>2018-11-03T09:43:07.000Z</time>
      </trkpt>
      <trkpt lat="47.78549" lon="6.6905">
        <ele>799.34</ele>
        <time>2018-11-03T09:43:12.000Z</time>
      </trkpt>
      <trkpt lat="47.7855" lon="6.69053">
        <ele>799.76</ele>
        <time>2018-11-03T09:43:17.000Z</time>
      </trkpt>
      <trkpt lat="47.7855" lon="6.69059">
        <ele>800.19</ele>
        <time>2018-11-03T09:43:22.000Z</time>
      </trkpt>
      <trkpt lat="47.78551" lon="6.69065">
        <ele>800.61</ele>
        <time>2018-11-03T09:43:27.000Z</time>
      </trkpt>
      <trkpt lat="47.78552" lon="6.6907">
        <ele>800.87</ele>
        <time>2018-11-03T09:43:32.000Z</time>
      </trkpt>
      <trkpt lat="47.7855" lon="6.69077">
        <ele>801.13</ele>
        <time>2018-11-03T09:43:37.000Z</time>
      </trkpt>
      <trkpt lat="47.78553" lon="6.69081">
        <ele>801.39</ele>
        <time>2018-11-03T09:43:42.000Z</time>
      </trkpt>
      <trkpt lat="47.78558" lon="6.69082">
        <ele>802.23</ele>
        <time>2018-11-03T09:43:47.000Z</time>
      </trkpt>
      <trkpt lat="47.78559" lon="6.69088">
        <ele>803.08</ele>
        <time>2018-11-03T09:43:52.000Z</time>
      </trkpt>
      <trkpt lat="47.78561" lon="6.69096">
        <ele>803.92</ele>
        <time>2018-11-03T09:43:57.000Z</time>
      </trkpt>
      <trkpt lat="47.78562" lon="6.69105">
        <ele>804.34</ele>
        <time>2018-11-03T09:44:02.000Z</time>
      </trkpt>
      <trkpt lat="47.78565" lon="6.69115">
        <ele>804.77</ele>
        <time>2018-11-03T09:44:07.000Z</time>
      </trkpt>
      <trkpt lat="47.78568" lon="6.69123">
        <ele>805.19</ele>
        <time>2018-11-03T09:44:12.000Z</time>
      </trkpt>
      <trkpt lat="47.78568" lon="6.69134">
        <ele>805.83</ele>
        <time>2018-11-03T09:44:17.000Z</time>
      </trkpt>
      <trkpt lat="47.78568" lon="6.6914">
        <ele>806.47</ele>
        <time>2018-11-03T09:44:22.000Z</time>
      </trkpt>
      <trkpt lat="47.78568" lon="6.69145">
        <ele>807.11</ele>
        <time>2018-11-03T09:44:27.000Z</time>
      </trkpt>
      <trkpt lat="47.78565" lon="6.69149">
        <ele>808.06</ele>
        <time>2018-11-03T09:44:32.000Z</time>
      </trkpt>
      <trkpt lat="47.7856" lon="6.69151">
        <ele>809.01</ele>
        <time>2018-11-03T09:44:37.000Z</time>
      </trkpt>
      <trkpt lat="47.78557" lon="6.69154">
        <ele>809.95</ele>
        <time>2018-11-03T09:44:42.000Z</time>
      </trkpt>
      <trkpt lat="47.78556" lon="6.69154">
        <ele>810.95</ele>
        <time>2018-11-03T09:44:47.000Z</time>
      </trkpt>
      <trkpt lat="47.78551" lon="6.69156">
        <ele>811.94</ele>
        <time>2018-11-03T09:44:52.000Z</time>
      </trkpt>
      <trkpt lat="47.78547" lon="6.69156">
        <ele>812.93</ele>
        <time>2018-11-03T09:44:57.000Z</time>
      </trkpt>
      <trkpt lat="47.78542" lon="6.69159">
        <ele>813.26</ele>
        <time>2018-11-03T09:45:02.000Z</time>
      </trkpt>
      <trkpt lat="47.7854" lon="6.69164">
        <ele>813.59</ele>
        <time>2018-11-03T09:45:07.000Z</time>
      </trkpt>
      <trkpt lat="47.7854" lon="6.69168">
        <ele>813.91</ele>
        <time>2018-11-03T09:45:12.000Z</time>
      </trkpt>
      <trkpt lat="47.7854" lon="6.69172">
        <ele>814.67</ele>
        <time>2018-11-03T09:45:17.000Z</time>
      </trkpt>
      <trkpt lat="47.7854" lon="6.69175">
        <ele>815.43</ele>
        <time>2018-11-03T09:45:22.000Z</time>
      </trkpt>
      <trkpt lat="47.78538" lon="6.6918">
        <ele>816.18</ele>
        <time>2018-11-03T09:45:27.000Z</time>
      </trkpt>
      <trkpt lat="47.78533" lon="6.69184">
        <ele>816.66</ele>
        <time>2018-11-03T09:45:32.000Z</time>
      </trkpt>
      <trkpt lat="47.78531" lon="6.69186">
        <ele>817.13</ele>
        <time>2018-11-03T09:45:37.000Z</time>
      </trkpt>
      <trkpt lat="47.78529" lon="6.69188">
        <ele>817.61</ele>
        <time>2018-11-03T09:45:42.000Z</time>
      </trkpt>
      <trkpt lat="47.78529" lon="6.69191">
        <ele>818.57</ele>
        <time>2018-11-03T09:45:47.000Z</time>
      </trkpt>
      <trkpt lat="47.78526" lon="6.69193">
        <ele>819.53</ele>
        <time>2018-11-03T09:45:52.000Z</time>
      </trkpt>
      <trkpt lat="47.78522" lon="6.69195">
        <ele>820.48</ele>
        <time>2018-11-03T09:45:57.000Z</time>
      </trkpt>
      <trkpt lat="47.78518" lon="6.69199">
        <ele>821.27</ele>
        <time>2018-11-03T09:46:02.000Z</time>
      </trkpt>
      <trkpt lat="47.78517" lon="6.69202">
        <ele>822.06</ele>
        <time>2018-11-03T09:46:07.000Z</time>
      </trkpt>
      <trkpt lat="47.78515" lon="6.69205">
        <ele>822.85</ele>
        <time>2018-11-03T09:46:12.000Z</time>
      </trkpt>
      <trkpt lat="47.78513" lon="6.69208">
        <ele>823.14</ele>
        <time>2018-11-03T09:46:17.000Z</time>
      </trkpt>
      <trkpt lat="47.7851" lon="6.6921">
        <ele>823.43</ele>
        <time>2018-11-03T09:46:22.000Z</time>
      </trkpt>
      <trkpt lat="47.78506" lon="6.6921">
        <ele>823.72</ele>
        <time>2018-11-03T09:46:27.000Z</time>
      </trkpt>
      <trkpt lat="47.78503" lon="6.6921">
        <ele>823.89</ele>
        <time>2018-11-03T09:46:32.000Z</time>
      </trkpt>
      <trkpt lat="47.785" lon="6.69208">
        <ele>824.06</ele>
        <time>2018-11-03T09:46:37.000Z</time>
      </trkpt>
      <trkpt lat="47.78499" lon="6.69211">
        <ele>824.23</ele>
        <time>2018-11-03T09:46:42.000Z</time>
      </trkpt>
      <trkpt lat="47.78498" lon="6.69212">
        <ele>824.8</ele>
        <time>2018-11-03T09:46:47.000Z</time>
      </trkpt>
      <trkpt lat="47.78495" lon="6.69212">
        <ele>825.37</ele>
        <time>2018-11-03T09:46:52.000Z</time>
      </trkpt>
      <trkpt lat="47.78492" lon="6.69213">
        <ele>825.94</ele>
        <time>2018-11-03T09:46:57.000Z</time>
      </trkpt>
      <trkpt lat="47.78487" lon="6.69213">
        <ele>826.41</ele>
        <time>2018-11-03T09:47:02.000Z</time>
      </trkpt>
      <trkpt lat="47.78484" lon="6.69217">
        <ele>826.88</ele>
        <time>2018-11-03T09:47:07.000Z</time>
      </trkpt>
      <trkpt lat="47.78485" lon="6.69221">
        <ele>827.34</ele>
        <time>2018-11-03T09:47:12.000Z</time>
      </trkpt>
      <trkpt lat="47.78484" lon="6.69225">
        <ele>827.6</ele>
        <time>2018-11-03T09:47:17.000Z</time>
      </trkpt>
      <trkpt lat="47.78485" lon="6.69228">
        <ele>827.85</ele>
        <time>2018-11-03T09:47:22.000Z</time>
      </trkpt>
      <trkpt lat="47.78486" lon="6.69231">
        <ele>828.1</ele>
        <time>2018-11-03T09:47:27.000Z</time>
      </trkpt>
      <trkpt lat="47.78486" lon="6.69235">
        <ele>828.3</ele>
        <time>2018-11-03T09:47:32.000Z</time>
      </trkpt>
      <trkpt lat="47.78486" lon="6.6924">
        <ele>828.5</ele>
        <time>2018-11-03T09:47:37.000Z</time>
      </trkpt>
      <trkpt lat="47.7849" lon="6.69246">
        <ele>828.7</ele>
        <time>2018-11-03T09:47:42.000Z</time>
      </trkpt>
      <trkpt lat="47.78493" lon="6.69253">
        <ele>828.82</ele>
        <time>2018-11-03T09:47:47.000Z</time>
      </trkpt>
      <trkpt lat="47.78496" lon="6.69258">
        <ele>828.94</ele>
        <time>2018-11-03T09:47:52.000Z</time>
      </trkpt>
      <trkpt lat="47.78497" lon="6.69259">
        <ele>829.05</ele>
        <time>2018-11-03T09:47:57.000Z</time>
      </trkpt>
      <trkpt lat="47.78499" lon="6.69263">
        <ele>829.53</ele>
        <time>2018-11-03T09:48:02.000Z</time>
      </trkpt>
      <trkpt lat="47.785" lon="6.69267">
        <ele>830.01</ele>
        <time>2018-11-03T09:48:07.000Z</time>
      </trkpt>
      <trkpt lat="47.785" lon="6.69272">
        <ele>830.49</ele>
        <time>2018-11-03T09:48:12.000Z</time>
      </trkpt>
      <trkpt lat="47.78499" lon="6.6928">
        <ele>830.84</ele>
        <time>2018-11-03T09:48:17.000Z</time>
      </trkpt>
      <trkpt lat="47.78498" lon="6.69289">
        <ele>831.2</ele>
        <time>2018-11-03T09:48:22.000Z</time>
      </trkpt>
      <trkpt lat="47.78499" lon="6.69294">
        <ele>831.55</ele>
        <time>2018-11-03T09:48:27.000Z</time>
      </trkpt>
      <trkpt lat="47.78497" lon="6.69296">
        <ele>832.3</ele>
        <time>2018-11-03T09:48:32.000Z</time>
      </trkpt>
      <trkpt lat="47.78496" lon="6.69303">
        <ele>833.05</ele>
        <time>2018-11-03T09:48:37.000Z</time>
      </trkpt>
      <trkpt lat="47.78494" lon="6.69314">
        <ele>833.81</ele>
        <time>2018-11-03T09:48:42.000Z</time>
      </trkpt>
      <trkpt lat="47.78492" lon="6.69325">
        <ele>834.71</ele>
        <time>2018-11-03T09:48:47.000Z</time>
      </trkpt>
      <trkpt lat="47.7849" lon="6.69335">
        <ele>835.6</ele>
        <time>2018-11-03T09:48:52.000Z</time>
      </trkpt>
      <trkpt lat="47.78487" lon="6.69341">
        <ele>836.5</ele>
        <time>2018-11-03T09:48:57.000Z</time>
      </trkpt>
      <trkpt lat="47.78482" lon="6.69346">
        <ele>837.1</ele>
        <time>2018-11-03T09:49:02.000Z</time>
      </trkpt>
      <trkpt lat="47.7848" lon="6.69351">
        <ele>837.7</ele>
        <time>2018-11-03T09:49:07.000Z</time>
      </trkpt>
      <trkpt lat="47.78476" lon="6.69352">
        <ele>838.3</ele>
        <time>2018-11-03T09:49:12.000Z</time>
      </trkpt>
      <trkpt lat="47.78473" lon="6.69355">
        <ele>839.06</ele>
        <time>2018-11-03T09:49:17.000Z</time>
      </trkpt>
      <trkpt lat="47.78471" lon="6.69361">
        <ele>839.82</ele>
        <time>2018-11-03T09:49:22.000Z</time>
      </trkpt>
      <trkpt lat="47.7847" lon="6.69366">
        <ele>840.58</ele>
        <time>2018-11-03T09:49:27.000Z</time>
      </trkpt>
      <trkpt lat="47.78465" lon="6.6937">
        <ele>840.97</ele>
        <time>2018-11-03T09:49:32.000Z</time>
      </trkpt>
      <trkpt lat="47.78462" lon="6.69371">
        <ele>841.36</ele>
        <time>2018-11-03T09:49:37.000Z</time>
      </trkpt>
      <trkpt lat="47.78461" lon="6.69372">
        <ele>841.75</ele>
        <time>2018-11-03T09:49:42.000Z</time>
      </trkpt>
      <trkpt lat="47.78457" lon="6.69375">
        <ele>841.96</ele>
        <time>2018-11-03T09:49:47.000Z</time>
      </trkpt>
      <trkpt lat="47.78451" lon="6.69374">
        <ele>842.17</ele>
        <time>2018-11-03T09:49:52.000Z</time>
      </trkpt>
      <trkpt lat="47.78442" lon="6.69369">
        <ele>842.38</ele>
        <time>2018-11-03T09:49:57.000Z</time>
      </trkpt>
      <trkpt lat="47.78435" lon="6.69362">
        <ele>842.45</ele>
        <time>2018-11-03T09:50:02.000Z</time>
      </trkpt>
      <trkpt lat="47.78429" lon="6.69353">
        <ele>842.52</ele>
        <time>2018-11-03T09:50:07.000Z</time>
      </trkpt>
      <trkpt lat="47.78423" lon="6.69346">
        <ele>842.59</ele>
        <time>2018-11-03T09:50:12.000Z</time>
      </trkpt>
      <trkpt lat="47.78416" lon="6.69346">
        <ele>843.81</ele>
        <time>2018-11-03T09:50:17.000Z</time>
      </trkpt>
      <trkpt lat="47.78411" lon="6.69348">
        <ele>845.04</ele>
        <time>2018-11-03T09:50:22.000Z</time>
      </trkpt>
      <trkpt lat="47.78401" lon="6.69351">
        <ele>846.26</ele>
        <time>2018-11-03T09:50:27.000Z</time>
      </trkpt>
      <trkpt lat="47.78395" lon="6.69359">
        <ele>847.53</ele>
        <time>2018-11-03T09:50:32.000Z</time>
      </trkpt>
      <trkpt lat="47.7839" lon="6.69367">
        <ele>848.79</ele>
        <time>2018-11-03T09:50:37.000Z</time>
      </trkpt>
      <trkpt lat="47.78387" lon="6.69386">
        <ele>850.05</ele>
        <time>2018-11-03T09:50:42.000Z</time>
      </trkpt>
      <trkpt lat="47.78383" lon="6.69405">
        <ele>849.98</ele>
        <time>2018-11-03T09:50:47.000Z</time>
      </trkpt>
      <trkpt lat="47.78383" lon="6.69421">
        <ele>849.91</ele>
        <time>2018-11-03T09:50:52.000Z</time>
      </trkpt>
      <trkpt lat="47.78379" lon="6.6944">
        <ele>849.84</ele>
        <time>2018-11-03T09:50:57.000Z</time>
      </trkpt>
      <trkpt lat="47.78374" lon="6.69452">
        <ele>850.66</ele>
        <time>2018-11-03T09:51:02.000Z</time>
      </trkpt>
      <trkpt lat="47.78368" lon="6.69457">
        <ele>851.47</ele>
        <time>2018-11-03T09:51:07.000Z</time>
      </trkpt>
      <trkpt lat="47.78368" lon="6.69457">
        <ele>852.28</ele>
        <time>2018-11-03T09:51:12.000Z</time>
      </trkpt>
      <trkpt lat="47.78371" lon="6.69458">
        <ele>852.19</ele>
        <time>2018-11-03T09:51:17.000Z</time>
      </trkpt>
      <trkpt lat="47.78372" lon="6.69458">
        <ele>852.11</ele>
        <time>2018-11-03T09:51:22.000Z</time>
      </trkpt>
      <trkpt lat="47.78374" lon="6.69459">
        <ele>852.02</ele>
        <time>2018-11-03T09:51:27.000Z</time>
      </trkpt>
      <trkpt lat="47.78375" lon="6.6946">
        <ele>851.96</ele>
        <time>2018-11-03T09:51:32.000Z</time>
      </trkpt>
      <trkpt lat="47.78376" lon="6.6946">
        <ele>851.9</ele>
        <time>2018-11-03T09:51:37.000Z</time>
      </trkpt>
      <trkpt lat="47.78377" lon="6.6946">
        <ele>851.83</ele>
        <time>2018-11-03T09:51:42.000Z</time>
      </trkpt>
      <trkpt lat="47.78377" lon="6.69459">
        <ele>852.56</ele>
        <time>2018-11-03T09:51:47.000Z</time>
      </trkpt>
      <trkpt lat="47.78378" lon="6.6946">
        <ele>853.28</ele>
        <time>2018-11-03T09:51:52.000Z</time>
      </trkpt>
      <trkpt lat="47.78373" lon="6.69455">
        <ele>854</ele>
        <time>2018-11-03T09:51:57.000Z</time>
      </trkpt>
      <trkpt lat="47.78362" lon="6.6944">
        <ele>852.54</ele>
        <time>2018-11-03T09:52:02.000Z</time>
      </trkpt>
      <trkpt lat="47.78349" lon="6.69421">
        <ele>851.08</ele>
        <time>2018-11-03T09:52:07.000Z</time>
      </trkpt>
      <trkpt lat="47.78339" lon="6.69403">
        <ele>849.62</ele>
        <time>2018-11-03T09:52:12.000Z</time>
      </trkpt>
      <trkpt lat="47.78327" lon="6.69385">
        <ele>847.84</ele>
        <time>2018-11-03T09:52:17.000Z</time>
      </trkpt>
      <trkpt lat="47.78308" lon="6.69371">
        <ele>846.06</ele>
        <time>2018-11-03T09:52:22.000Z</time>
      </trkpt>
      <trkpt lat="47.78297" lon="6.69365">
        <ele>844.28</ele>
        <time>2018-11-03T09:52:27.000Z</time>
      </trkpt>
      <trkpt lat="47.78288" lon="6.6937">
        <ele>843.32</ele>
        <time>2018-11-03T09:52:32.000Z</time>
      </trkpt>
      <trkpt lat="47.78275" lon="6.69376">
        <ele>842.36</ele>
        <time>2018-11-03T09:52:37.000Z</time>
      </trkpt>
      <trkpt lat="47.78261" lon="6.69386">
        <ele>841.4</ele>
        <time>2018-11-03T09:52:42.000Z</time>
      </trkpt>
      <trkpt lat="47.78252" lon="6.69398">
        <ele>841.52</ele>
        <time>2018-11-03T09:52:47.000Z</time>
      </trkpt>
      <trkpt lat="47.78244" lon="6.69408">
        <ele>841.63</ele>
        <time>2018-11-03T09:52:52.000Z</time>
      </trkpt>
      <trkpt lat="47.78237" lon="6.69419">
        <ele>841.75</ele>
        <time>2018-11-03T09:52:57.000Z</time>
      </trkpt>
      <trkpt lat="47.78234" lon="6.69432">
        <ele>842.86</ele>
        <time>2018-11-03T09:53:02.000Z</time>
      </trkpt>
      <trkpt lat="47.78233" lon="6.69447">
        <ele>843.97</ele>
        <time>2018-11-03T09:53:07.000Z</time>
      </trkpt>
      <trkpt lat="47.78233" lon="6.69462">
        <ele>845.08</ele>
        <time>2018-11-03T09:53:12.000Z</time>
      </trkpt>
      <trkpt lat="47.78236" lon="6.69475">
        <ele>846.26</ele>
        <time>2018-11-03T09:53:17.000Z</time>
      </trkpt>
      <trkpt lat="47.78237" lon="6.69488">
        <ele>847.45</ele>
        <time>2018-11-03T09:53:22.000Z</time>
      </trkpt>
      <trkpt lat="47.78239" lon="6.69505">
        <ele>848.63</ele>
        <time>2018-11-03T09:53:27.000Z</time>
      </trkpt>
      <trkpt lat="47.7824" lon="6.69523">
        <ele>850.66</ele>
        <time>2018-11-03T09:53:32.000Z</time>
      </trkpt>
      <trkpt lat="47.78243" lon="6.69542">
        <ele>852.69</ele>
        <time>2018-11-03T09:53:37.000Z</time>
      </trkpt>
      <trkpt lat="47.78244" lon="6.69564">
        <ele>854.71</ele>
        <time>2018-11-03T09:53:42.000Z</time>
      </trkpt>
      <trkpt lat="47.78247" lon="6.69585">
        <ele>855.45</ele>
        <time>2018-11-03T09:53:47.000Z</time>
      </trkpt>
      <trkpt lat="47.7825" lon="6.69605">
        <ele>856.19</ele>
        <time>2018-11-03T09:53:52.000Z</time>
      </trkpt>
      <trkpt lat="47.78252" lon="6.69625">
        <ele>856.93</ele>
        <time>2018-11-03T09:53:57.000Z</time>
      </trkpt>
      <trkpt lat="47.78254" lon="6.69651">
        <ele>859.17</ele>
        <time>2018-11-03T09:54:02.000Z</time>
      </trkpt>
      <trkpt lat="47.78259" lon="6.69678">
        <ele>861.4</ele>
        <time>2018-11-03T09:54:07.000Z</time>
      </trkpt>
      <trkpt lat="47.78262" lon="6.69707">
        <ele>863.64</ele>
        <time>2018-11-03T09:54:12.000Z</time>
      </trkpt>
      <trkpt lat="47.78261" lon="6.69733">
        <ele>862.78</ele>
        <time>2018-11-03T09:54:17.000Z</time>
      </trkpt>
      <trkpt lat="47.78256" lon="6.69761">
        <ele>861.91</ele>
        <time>2018-11-03T09:54:22.000Z</time>
      </trkpt>
      <trkpt lat="47.78249" lon="6.69794">
        <ele>861.05</ele>
        <time>2018-11-03T09:54:27.000Z</time>
      </trkpt>
      <trkpt lat="47.78239" lon="6.69828">
        <ele>859.45</ele>
        <time>2018-11-03T09:54:32.000Z</time>
      </trkpt>
      <trkpt lat="47.78222" lon="6.6986">
        <ele>857.86</ele>
        <time>2018-11-03T09:54:37.000Z</time>
      </trkpt>
      <trkpt lat="47.78195" lon="6.69866">
        <ele>856.26</ele>
        <time>2018-11-03T09:54:42.000Z</time>
      </trkpt>
      <trkpt lat="47.78163" lon="6.69846">
        <ele>852.33</ele>
        <time>2018-11-03T09:54:47.000Z</time>
      </trkpt>
      <trkpt lat="47.7813" lon="6.69831">
        <ele>848.41</ele>
        <time>2018-11-03T09:54:52.000Z</time>
      </trkpt>
      <trkpt lat="47.78079" lon="6.69827">
        <ele>844.49</ele>
        <time>2018-11-03T09:54:57.000Z</time>
      </trkpt>
      <trkpt lat="47.78035" lon="6.69841">
        <ele>841.6</ele>
        <time>2018-11-03T09:55:02.000Z</time>
      </trkpt>
      <trkpt lat="47.77986" lon="6.69862">
        <ele>838.72</ele>
        <time>2018-11-03T09:55:07.000Z</time>
      </trkpt>
      <trkpt lat="47.77936" lon="6.69879">
        <ele>835.83</ele>
        <time>2018-11-03T09:55:12.000Z</time>
      </trkpt>
      <trkpt lat="47.77897" lon="6.69867">
        <ele>834.63</ele>
        <time>2018-11-03T09:55:17.000Z</time>
      </trkpt>
      <trkpt lat="47.77883" lon="6.69854">
        <ele>833.42</ele>
        <time>2018-11-03T09:55:22.000Z</time>
      </trkpt>
      <trkpt lat="47.77865" lon="6.69832">
        <ele>832.22</ele>
        <time>2018-11-03T09:55:27.000Z</time>
      </trkpt>
      <trkpt lat="47.77845" lon="6.69812">
        <ele>833.32</ele>
        <time>2018-11-03T09:55:32.000Z</time>
      </trkpt>
      <trkpt lat="47.77823" lon="6.69796">
        <ele>834.42</ele>
        <time>2018-11-03T09:55:37.000Z</time>
      </trkpt>
      <trkpt lat="47.77796" lon="6.69778">
        <ele>835.52</ele>
        <time>2018-11-03T09:55:42.000Z</time>
      </trkpt>
      <trkpt lat="47.77776" lon="6.69754">
        <ele>833.45</ele>
        <time>2018-11-03T09:55:47.000Z</time>
      </trkpt>
      <trkpt lat="47.77754" lon="6.69733">
        <ele>831.38</ele>
        <time>2018-11-03T09:55:52.000Z</time>
      </trkpt>
      <trkpt lat="47.77728" lon="6.69722">
        <ele>829.31</ele>
        <time>2018-11-03T09:55:57.000Z</time>
      </trkpt>
      <trkpt lat="47.77703" lon="6.69719">
        <ele>828.55</ele>
        <time>2018-11-03T09:56:02.000Z</time>
      </trkpt>
      <trkpt lat="47.77679" lon="6.69735">
        <ele>827.79</ele>
        <time>2018-11-03T09:56:07.000Z</time>
      </trkpt>
      <trkpt lat="47.77653" lon="6.69753">
        <ele>827.03</ele>
        <time>2018-11-03T09:56:12.000Z</time>
      </trkpt>
      <trkpt lat="47.77622" lon="6.69769">
        <ele>826.32</ele>
        <time>2018-11-03T09:56:17.000Z</time>
      </trkpt>
      <trkpt lat="47.77599" lon="6.69803">
        <ele>825.61</ele>
        <time>2018-11-03T09:56:22.000Z</time>
      </trkpt>
      <trkpt lat="47.77588" lon="6.69844">
        <ele>824.9</ele>
        <time>2018-11-03T09:56:27.000Z</time>
      </trkpt>
      <trkpt lat="47.7759" lon="6.6987">
        <ele>825.12</ele>
        <time>2018-11-03T09:56:32.000Z</time>
      </trkpt>
      <trkpt lat="47.77591" lon="6.69897">
        <ele>825.33</ele>
        <time>2018-11-03T09:56:37.000Z</time>
      </trkpt>
      <trkpt lat="47.77594" lon="6.69927">
        <ele>825.55</ele>
        <time>2018-11-03T09:56:42.000Z</time>
      </trkpt>
      <trkpt lat="47.77598" lon="6.69958">
        <ele>824.6</ele>
        <time>2018-11-03T09:56:47.000Z</time>
      </trkpt>
      <trkpt lat="47.77603" lon="6.6999">
        <ele>823.66</ele>
        <time>2018-11-03T09:56:52.000Z</time>
      </trkpt>
      <trkpt lat="47.77612" lon="6.70013">
        <ele>822.72</ele>
        <time>2018-11-03T09:56:57.000Z</time>
      </trkpt>
      <trkpt lat="47.7762" lon="6.70037">
        <ele>822.27</ele>
        <time>2018-11-03T09:57:02.000Z</time>
      </trkpt>
      <trkpt lat="47.77625" lon="6.70054">
        <ele>821.81</ele>
        <time>2018-11-03T09:57:07.000Z</time>
      </trkpt>
      <trkpt lat="47.77632" lon="6.70059">
        <ele>821.36</ele>
        <time>2018-11-03T09:57:12.000Z</time>
      </trkpt>
      <trkpt lat="47.77633" lon="6.70058">
        <ele>821.17</ele>
        <time>2018-11-03T09:57:17.000Z</time>
      </trkpt>
      <trkpt lat="47.77631" lon="6.7006">
        <ele>820.98</ele>
        <time>2018-11-03T09:57:22.000Z</time>
      </trkpt>
      <trkpt lat="47.77631" lon="6.70061">
        <ele>820.79</ele>
        <time>2018-11-03T09:57:27.000Z</time>
      </trkpt>
      <trkpt lat="47.77632" lon="6.70061">
        <ele>820.59</ele>
        <time>2018-11-03T09:57:32.000Z</time>
      </trkpt>
      <trkpt lat="47.77631" lon="6.70063">
        <ele>820.39</ele>
        <time>2018-11-03T09:57:37.000Z</time>
      </trkpt>
      <trkpt lat="47.77631" lon="6.70065">
        <ele>820.19</ele>
        <time>2018-11-03T09:57:42.000Z</time>
      </trkpt>
      <trkpt lat="47.77631" lon="6.70065">
        <ele>820.08</ele>
        <time>2018-11-03T09:57:47.000Z</time>
      </trkpt>
      <trkpt lat="47.77631" lon="6.70066">
        <ele>819.96</ele>
        <time>2018-11-03T09:57:52.000Z</time>
      </trkpt>
      <trkpt lat="47.77631" lon="6.70068">
        <ele>819.84</ele>
        <time>2018-11-03T09:57:57.000Z</time>
      </trkpt>
      <trkpt lat="47.77629" lon="6.70069">
        <ele>819.94</ele>
        <time>2018-11-03T09:58:02.000Z</time>
      </trkpt>
      <trkpt lat="47.77629" lon="6.70068">
        <ele>820.05</ele>
        <time>2018-11-03T09:58:07.000Z</time>
      </trkpt>
      <trkpt lat="47.77629" lon="6.70067">
        <ele>820.15</ele>
        <time>2018-11-03T09:58:12.000Z</time>
      </trkpt>
      <trkpt lat="47.77629" lon="6.70066">
        <ele>820.21</ele>
        <time>2018-11-03T09:58:17.000Z</time>
      </trkpt>
      <trkpt lat="47.77629" lon="6.70066">
        <ele>820.26</ele>
        <time>2018-11-03T09:58:22.000Z</time>
      </trkpt>
      <trkpt lat="47.77629" lon="6.70066">
        <ele>820.32</ele>
        <time>2018-11-03T09:58:27.000Z</time>
      </trkpt>
      <trkpt lat="47.77629" lon="6.70064">
        <ele>820.32</ele>
        <time>2018-11-03T09:58:32.000Z</time>
      </trkpt>
      <trkpt lat="47.77629" lon="6.70064">
        <ele>820.33</ele>
        <time>2018-11-03T09:58:37.000Z</time>
      </trkpt>
      <trkpt lat="47.77629" lon="6.70064">
        <ele>820.34</ele>
        <time>2018-11-03T09:58:42.000Z</time>
      </trkpt>
      <trkpt lat="47.77629" lon="6.70064">
        <ele>820.32</ele>
        <time>2018-11-03T09:58:47.000Z</time>
      </trkpt>
      <trkpt lat="47.7763" lon="6.70064">
        <ele>820.3</ele>
        <time>2018-11-03T09:58:52.000Z</time>
      </trkpt>
      <trkpt lat="47.7763" lon="6.70064">
        <ele>820.29</ele>
        <time>2018-11-03T09:58:57.000Z</time>
      </trkpt>
      <trkpt lat="47.77631" lon="6.70065">
        <ele>820.38</ele>
        <time>2018-11-03T09:59:02.000Z</time>
      </trkpt>
      <trkpt lat="47.77632" lon="6.70065">
        <ele>820.48</ele>
        <time>2018-11-03T09:59:07.000Z</time>
      </trkpt>
      <trkpt lat="47.77632" lon="6.70064">
        <ele>820.58</ele>
        <time>2018-11-03T09:59:12.000Z</time>
      </trkpt>
      <trkpt lat="47.77632" lon="6.70062">
        <ele>820.83</ele>
        <time>2018-11-03T09:59:17.000Z</time>
      </trkpt>
      <trkpt lat="47.77633" lon="6.7006">
        <ele>821.08</ele>
        <time>2018-11-03T09:59:22.000Z</time>
      </trkpt>
      <trkpt lat="47.77634" lon="6.70059">
        <ele>821.33</ele>
        <time>2018-11-03T09:59:27.000Z</time>
      </trkpt>
      <trkpt lat="47.77634" lon="6.70059">
        <ele>821.4</ele>
        <time>2018-11-03T09:59:32.000Z</time>
      </trkpt>
      <trkpt lat="47.77634" lon="6.70058">
        <ele>821.47</ele>
        <time>2018-11-03T09:59:37.000Z</time>
      </trkpt>
      <trkpt lat="47.77634" lon="6.70058">
        <ele>821.54</ele>
        <time>2018-11-03T09:59:42.000Z</time>
      </trkpt>
      <trkpt lat="47.77634" lon="6.70058">
        <ele>821.47</ele>
        <time>2018-11-03T09:59:47.000Z</time>
      </trkpt>
      <trkpt lat="47.77634" lon="6.70059">
        <ele>821.4</ele>
        <time>2018-11-03T09:59:52.000Z</time>
      </trkpt>
      <trkpt lat="47.77634" lon="6.70059">
        <ele>821.33</ele>
        <time>2018-11-03T09:59:57.000Z</time>
      </trkpt>
      <trkpt lat="47.77634" lon="6.70059">
        <ele>820.8</ele>
        <time>2018-11-03T10:00:02.000Z</time>
      </trkpt>
      <trkpt lat="47.77635" lon="6.70059">
        <ele>820.27</ele>
        <time>2018-11-03T10:00:07.000Z</time>
      </trkpt>
      <trkpt lat="47.77638" lon="6.70067">
        <ele>819.74</ele>
        <time>2018-11-03T10:00:12.000Z</time>
      </trkpt>
      <trkpt lat="47.77653" lon="6.70085">
        <ele>817.6</ele>
        <time>2018-11-03T10:00:17.000Z</time>
      </trkpt>
      <trkpt lat="47.77673" lon="6.70103">
        <ele>815.46</ele>
        <time>2018-11-03T10:00:22.000Z</time>
      </trkpt>
      <trkpt lat="47.77698" lon="6.70128">
        <ele>813.32</ele>
        <time>2018-11-03T10:00:27.000Z</time>
      </trkpt>
      <trkpt lat="47.77729" lon="6.70155">
        <ele>812.63</ele>
        <time>2018-11-03T10:00:32.000Z</time>
      </trkpt>
      <trkpt lat="47.77758" lon="6.70198">
        <ele>811.93</ele>
        <time>2018-11-03T10:00:37.000Z</time>
      </trkpt>
      <trkpt lat="47.77788" lon="6.7023">
        <ele>811.24</ele>
        <time>2018-11-03T10:00:42.000Z</time>
      </trkpt>
      <trkpt lat="47.77814" lon="6.7027">
        <ele>807.8</ele>
        <time>2018-11-03T10:00:47.000Z</time>
      </trkpt>
      <trkpt lat="47.77827" lon="6.70328">
        <ele>804.36</ele>
        <time>2018-11-03T10:00:52.000Z</time>
      </trkpt>
      <trkpt lat="47.77823" lon="6.70391">
        <ele>800.93</ele>
        <time>2018-11-03T10:00:57.000Z</time>
      </trkpt>
      <trkpt lat="47.77813" lon="6.70434">
        <ele>795.15</ele>
        <time>2018-11-03T10:01:02.000Z</time>
      </trkpt>
      <trkpt lat="47.77797" lon="6.70474">
        <ele>789.38</ele>
        <time>2018-11-03T10:01:07.000Z</time>
      </trkpt>
      <trkpt lat="47.77777" lon="6.70528">
        <ele>783.6</ele>
        <time>2018-11-03T10:01:12.000Z</time>
      </trkpt>
      <trkpt lat="47.77739" lon="6.70559">
        <ele>783.1</ele>
        <time>2018-11-03T10:01:17.000Z</time>
      </trkpt>
      <trkpt lat="47.77713" lon="6.70584">
        <ele>782.59</ele>
        <time>2018-11-03T10:01:22.000Z</time>
      </trkpt>
      <trkpt lat="47.77727" lon="6.70626">
        <ele>782.09</ele>
        <time>2018-11-03T10:01:27.000Z</time>
      </trkpt>
      <trkpt lat="47.77754" lon="6.70667">
        <ele>779.43</ele>
        <time>2018-11-03T10:01:32.000Z</time>
      </trkpt>
      <trkpt lat="47.77781" lon="6.70713">
        <ele>776.76</ele>
        <time>2018-11-03T10:01:37.000Z</time>
      </trkpt>
      <trkpt lat="47.77804" lon="6.70765">
        <ele>774.1</ele>
        <time>2018-11-03T10:01:42.000Z</time>
      </trkpt>
      <trkpt lat="47.77805" lon="6.70826">
        <ele>770.48</ele>
        <time>2018-11-03T10:01:47.000Z</time>
      </trkpt>
      <trkpt lat="47.77774" lon="6.70879">
        <ele>766.86</ele>
        <time>2018-11-03T10:01:52.000Z</time>
      </trkpt>
      <trkpt lat="47.77736" lon="6.70892">
        <ele>763.24</ele>
        <time>2018-11-03T10:01:57.000Z</time>
      </trkpt>
      <trkpt lat="47.77707" lon="6.70903">
        <ele>761.61</ele>
        <time>2018-11-03T10:02:02.000Z</time>
      </trkpt>
      <trkpt lat="47.77689" lon="6.70908">
        <ele>759.97</ele>
        <time>2018-11-03T10:02:07.000Z</time>
      </trkpt>
      <trkpt lat="47.77669" lon="6.7092">
        <ele>758.34</ele>
        <time>2018-11-03T10:02:12.000Z</time>
      </trkpt>
      <trkpt lat="47.77654" lon="6.7094">
        <ele>758.29</ele>
        <time>2018-11-03T10:02:17.000Z</time>
      </trkpt>
      <trkpt lat="47.77649" lon="6.70954">
        <ele>758.25</ele>
        <time>2018-11-03T10:02:22.000Z</time>
      </trkpt>
      <trkpt lat="47.7765" lon="6.70954">
        <ele>758.21</ele>
        <time>2018-11-03T10:02:27.000Z</time>
      </trkpt>
      <trkpt lat="47.77649" lon="6.70954">
        <ele>758.1</ele>
        <time>2018-11-03T10:02:32.000Z</time>
      </trkpt>
      <trkpt lat="47.77649" lon="6.70955">
        <ele>758</ele>
        <time>2018-11-03T10:02:37.000Z</time>
      </trkpt>
      <trkpt lat="47.77649" lon="6.70955">
        <ele>757.9</ele>
        <time>2018-11-03T10:02:42.000Z</time>
      </trkpt>
      <trkpt lat="47.77648" lon="6.70961">
        <ele>757.79</ele>
        <time>2018-11-03T10:02:47.000Z</time>
      </trkpt>
      <trkpt lat="47.77644" lon="6.70987">
        <ele>757.69</ele>
        <time>2018-11-03T10:02:52.000Z</time>
      </trkpt>
      <trkpt lat="47.77642" lon="6.71039">
        <ele>757.58</ele>
        <time>2018-11-03T10:02:57.000Z</time>
      </trkpt>
      <trkpt lat="47.7764" lon="6.71105">
        <ele>756.63</ele>
        <time>2018-11-03T10:03:02.000Z</time>
      </trkpt>
      <trkpt lat="47.7764" lon="6.71158">
        <ele>755.69</ele>
        <time>2018-11-03T10:03:07.000Z</time>
      </trkpt>
      <trkpt lat="47.77643" lon="6.71168">
        <ele>754.74</ele>
        <time>2018-11-03T10:03:12.000Z</time>
      </trkpt>
      <trkpt lat="47.77648" lon="6.71165">
        <ele>756.23</ele>
        <time>2018-11-03T10:03:17.000Z</time>
      </trkpt>
      <trkpt lat="47.77655" lon="6.71163">
        <ele>757.72</ele>
        <time>2018-11-03T10:03:22.000Z</time>
      </trkpt>
      <trkpt lat="47.77663" lon="6.71166">
        <ele>759.2</ele>
        <time>2018-11-03T10:03:27.000Z</time>
      </trkpt>
      <trkpt lat="47.77674" lon="6.71168">
        <ele>760.04</ele>
        <time>2018-11-03T10:03:32.000Z</time>
      </trkpt>
      <trkpt lat="47.77683" lon="6.71173">
        <ele>760.89</ele>
        <time>2018-11-03T10:03:37.000Z</time>
      </trkpt>
      <trkpt lat="47.77693" lon="6.71177">
        <ele>761.73</ele>
        <time>2018-11-03T10:03:42.000Z</time>
      </trkpt>
      <trkpt lat="47.77701" lon="6.71182">
        <ele>763.12</ele>
        <time>2018-11-03T10:03:47.000Z</time>
      </trkpt>
      <trkpt lat="47.7771" lon="6.71187">
        <ele>764.52</ele>
        <time>2018-11-03T10:03:52.000Z</time>
      </trkpt>
      <trkpt lat="47.7772" lon="6.71192">
        <ele>765.91</ele>
        <time>2018-11-03T10:03:57.000Z</time>
      </trkpt>
      <trkpt lat="47.7773" lon="6.71195">
        <ele>767.28</ele>
        <time>2018-11-03T10:04:02.000Z</time>
      </trkpt>
      <trkpt lat="47.77738" lon="6.71203">
        <ele>768.64</ele>
        <time>2018-11-03T10:04:07.000Z</time>
      </trkpt>
      <trkpt lat="47.77745" lon="6.7121">
        <ele>770.01</ele>
        <time>2018-11-03T10:04:12.000Z</time>
      </trkpt>
      <trkpt lat="47.77752" lon="6.71217">
        <ele>770.76</ele>
        <time>2018-11-03T10:04:17.000Z</time>
      </trkpt>
      <trkpt lat="47.77757" lon="6.71225">
        <ele>771.52</ele>
        <time>2018-11-03T10:04:22.000Z</time>
      </trkpt>
      <trkpt lat="47.77762" lon="6.71234">
        <ele>772.28</ele>
        <time>2018-11-03T10:04:27.000Z</time>
      </trkpt>
      <trkpt lat="47.77768" lon="6.71241">
        <ele>772.92</ele>
        <time>2018-11-03T10:04:32.000Z</time>
      </trkpt>
      <trkpt lat="47.77773" lon="6.71247">
        <ele>773.56</ele>
        <time>2018-11-03T10:04:37.000Z</time>
      </trkpt>
      <trkpt lat="47.77779" lon="6.71256">
        <ele>774.19</ele>
        <time>2018-11-03T10:04:42.000Z</time>
      </trkpt>
      <trkpt lat="47.77784" lon="6.71266">
        <ele>775.36</ele>
        <time>2018-11-03T10:04:47.000Z</time>
      </trkpt>
      <trkpt lat="47.77789" lon="6.71273">
        <ele>776.53</ele>
        <time>2018-11-03T10:04:52.000Z</time>
      </trkpt>
      <trkpt lat="47.77792" lon="6.71278">
        <ele>777.7</ele>
        <time>2018-11-03T10:04:57.000Z</time>
      </trkpt>
      <trkpt lat="47.77795" lon="6.71287">
        <ele>779.15</ele>
        <time>2018-11-03T10:05:02.000Z</time>
      </trkpt>
      <trkpt lat="47.77798" lon="6.71297">
        <ele>780.6</ele>
        <time>2018-11-03T10:05:07.000Z</time>
      </trkpt>
      <trkpt lat="47.77798" lon="6.7131">
        <ele>782.05</ele>
        <time>2018-11-03T10:05:12.000Z</time>
      </trkpt>
      <trkpt lat="47.77798" lon="6.71321">
        <ele>782.13</ele>
        <time>2018-11-03T10:05:17.000Z</time>
      </trkpt>
      <trkpt lat="47.77797" lon="6.71329">
        <ele>782.21</ele>
        <time>2018-11-03T10:05:22.000Z</time>
      </trkpt>
      <trkpt lat="47.77797" lon="6.7134">
        <ele>782.29</ele>
        <time>2018-11-03T10:05:27.000Z</time>
      </trkpt>
      <trkpt lat="47.77799" lon="6.71352">
        <ele>783.54</ele>
        <time>2018-11-03T10:05:32.000Z</time>
      </trkpt>
      <trkpt lat="47.778" lon="6.71365">
        <ele>784.79</ele>
        <time>2018-11-03T10:05:37.000Z</time>
      </trkpt>
      <trkpt lat="47.778" lon="6.71376">
        <ele>786.05</ele>
        <time>2018-11-03T10:05:42.000Z</time>
      </trkpt>
      <trkpt lat="47.77801" lon="6.71388">
        <ele>786.76</ele>
        <time>2018-11-03T10:05:47.000Z</time>
      </trkpt>
      <trkpt lat="47.77799" lon="6.71399">
        <ele>787.47</ele>
        <time>2018-11-03T10:05:52.000Z</time>
      </trkpt>
      <trkpt lat="47.77799" lon="6.71413">
        <ele>788.18</ele>
        <time>2018-11-03T10:05:57.000Z</time>
      </trkpt>
      <trkpt lat="47.77797" lon="6.71425">
        <ele>788.61</ele>
        <time>2018-11-03T10:06:02.000Z</time>
      </trkpt>
      <trkpt lat="47.77792" lon="6.71433">
        <ele>789.04</ele>
        <time>2018-11-03T10:06:07.000Z</time>
      </trkpt>
      <trkpt lat="47.77786" lon="6.71438">
        <ele>789.46</ele>
        <time>2018-11-03T10:06:12.000Z</time>
      </trkpt>
      <trkpt lat="47.7778" lon="6.71438">
        <ele>790.26</ele>
        <time>2018-11-03T10:06:17.000Z</time>
      </trkpt>
      <trkpt lat="47.77775" lon="6.71443">
        <ele>791.05</ele>
        <time>2018-11-03T10:06:22.000Z</time>
      </trkpt>
      <trkpt lat="47.77772" lon="6.71452">
        <ele>791.85</ele>
        <time>2018-11-03T10:06:27.000Z</time>
      </trkpt>
      <trkpt lat="47.7777" lon="6.71463">
        <ele>792.5</ele>
        <time>2018-11-03T10:06:32.000Z</time>
      </trkpt>
      <trkpt lat="47.7777" lon="6.71478">
        <ele>793.16</ele>
        <time>2018-11-03T10:06:37.000Z</time>
      </trkpt>
      <trkpt lat="47.7777" lon="6.71488">
        <ele>793.82</ele>
        <time>2018-11-03T10:06:42.000Z</time>
      </trkpt>
      <trkpt lat="47.77768" lon="6.71498">
        <ele>794.88</ele>
        <time>2018-11-03T10:06:47.000Z</time>
      </trkpt>
      <trkpt lat="47.77765" lon="6.71511">
        <ele>795.94</ele>
        <time>2018-11-03T10:06:52.000Z</time>
      </trkpt>
      <trkpt lat="47.77762" lon="6.7152">
        <ele>797</ele>
        <time>2018-11-03T10:06:57.000Z</time>
      </trkpt>
      <trkpt lat="47.77756" lon="6.7153">
        <ele>798.2</ele>
        <time>2018-11-03T10:07:02.000Z</time>
      </trkpt>
      <trkpt lat="47.77749" lon="6.71542">
        <ele>799.4</ele>
        <time>2018-11-03T10:07:07.000Z</time>
      </trkpt>
      <trkpt lat="47.77742" lon="6.71557">
        <ele>800.61</ele>
        <time>2018-11-03T10:07:12.000Z</time>
      </trkpt>
      <trkpt lat="47.77739" lon="6.71574">
        <ele>801.79</ele>
        <time>2018-11-03T10:07:17.000Z</time>
      </trkpt>
      <trkpt lat="47.77737" lon="6.71589">
        <ele>802.98</ele>
        <time>2018-11-03T10:07:22.000Z</time>
      </trkpt>
      <trkpt lat="47.77734" lon="6.71607">
        <ele>804.17</ele>
        <time>2018-11-03T10:07:27.000Z</time>
      </trkpt>
      <trkpt lat="47.77731" lon="6.71628">
        <ele>804.32</ele>
        <time>2018-11-03T10:07:32.000Z</time>
      </trkpt>
      <trkpt lat="47.77722" lon="6.71649">
        <ele>804.48</ele>
        <time>2018-11-03T10:07:37.000Z</time>
      </trkpt>
      <trkpt lat="47.77713" lon="6.7166">
        <ele>804.64</ele>
        <time>2018-11-03T10:07:42.000Z</time>
      </trkpt>
      <trkpt lat="47.77704" lon="6.71667">
        <ele>805.07</ele>
        <time>2018-11-03T10:07:47.000Z</time>
      </trkpt>
      <trkpt lat="47.7769" lon="6.71669">
        <ele>805.5</ele>
        <time>2018-11-03T10:07:52.000Z</time>
      </trkpt>
      <trkpt lat="47.77677" lon="6.71666">
        <ele>805.93</ele>
        <time>2018-11-03T10:07:57.000Z</time>
      </trkpt>
      <trkpt lat="47.77668" lon="6.71655">
        <ele>805.44</ele>
        <time>2018-11-03T10:08:02.000Z</time>
      </trkpt>
      <trkpt lat="47.77656" lon="6.7164">
        <ele>804.95</ele>
        <time>2018-11-03T10:08:07.000Z</time>
      </trkpt>
      <trkpt lat="47.77639" lon="6.71625">
        <ele>804.46</ele>
        <time>2018-11-03T10:08:12.000Z</time>
      </trkpt>
      <trkpt lat="47.77625" lon="6.71618">
        <ele>804.17</ele>
        <time>2018-11-03T10:08:17.000Z</time>
      </trkpt>
      <trkpt lat="47.77612" lon="6.71612">
        <ele>803.88</ele>
        <time>2018-11-03T10:08:22.000Z</time>
      </trkpt>
      <trkpt lat="47.77596" lon="6.71611">
        <ele>803.59</ele>
        <time>2018-11-03T10:08:27.000Z</time>
      </trkpt>
      <trkpt lat="47.77575" lon="6.71609">
        <ele>802.54</ele>
        <time>2018-11-03T10:08:32.000Z</time>
      </trkpt>
      <trkpt lat="47.77549" lon="6.71603">
        <ele>801.49</ele>
        <time>2018-11-03T10:08:37.000Z</time>
      </trkpt>
      <trkpt lat="47.77519" lon="6.7159">
        <ele>800.44</ele>
        <time>2018-11-03T10:08:42.000Z</time>
      </trkpt>
      <trkpt lat="47.77489" lon="6.71574">
        <ele>799.11</ele>
        <time>2018-11-03T10:08:47.000Z</time>
      </trkpt>
      <trkpt lat="47.77462" lon="6.71556">
        <ele>797.77</ele>
        <time>2018-11-03T10:08:52.000Z</time>
      </trkpt>
      <trkpt lat="47.7743" lon="6.71537">
        <ele>796.44</ele>
        <time>2018-11-03T10:08:57.000Z</time>
      </trkpt>
      <trkpt lat="47.774" lon="6.71523">
        <ele>796.49</ele>
        <time>2018-11-03T10:09:02.000Z</time>
      </trkpt>
      <trkpt lat="47.77369" lon="6.71516">
        <ele>796.54</ele>
        <time>2018-11-03T10:09:07.000Z</time>
      </trkpt>
      <trkpt lat="47.7735" lon="6.71509">
        <ele>796.6</ele>
        <time>2018-11-03T10:09:12.000Z</time>
      </trkpt>
      <trkpt lat="47.7735" lon="6.71511">
        <ele>797.02</ele>
        <time>2018-11-03T10:09:17.000Z</time>
      </trkpt>
      <trkpt lat="47.77349" lon="6.71512">
        <ele>797.43</ele>
        <time>2018-11-03T10:09:22.000Z</time>
      </trkpt>
      <trkpt lat="47.77349" lon="6.71512">
        <ele>797.85</ele>
        <time>2018-11-03T10:09:27.000Z</time>
      </trkpt>
      <trkpt lat="47.77348" lon="6.71512">
        <ele>796.89</ele>
        <time>2018-11-03T10:09:32.000Z</time>
      </trkpt>
      <trkpt lat="47.77347" lon="6.71509">
        <ele>795.92</ele>
        <time>2018-11-03T10:09:37.000Z</time>
      </trkpt>
      <trkpt lat="47.77353" lon="6.71507">
        <ele>794.96</ele>
        <time>2018-11-03T10:09:42.000Z</time>
      </trkpt>
      <trkpt lat="47.77361" lon="6.71512">
        <ele>795.39</ele>
        <time>2018-11-03T10:09:47.000Z</time>
      </trkpt>
      <trkpt lat="47.77374" lon="6.71517">
        <ele>795.81</ele>
        <time>2018-11-03T10:09:52.000Z</time>
      </trkpt>
      <trkpt lat="47.77389" lon="6.71521">
        <ele>796.24</ele>
        <time>2018-11-03T10:09:57.000Z</time>
      </trkpt>
      <trkpt lat="47.77396" lon="6.71523">
        <ele>796.17</ele>
        <time>2018-11-03T10:10:02.000Z</time>
      </trkpt>
      <trkpt lat="47.77402" lon="6.71524">
        <ele>796.11</ele>
        <time>2018-11-03T10:10:07.000Z</time>
      </trkpt>
      <trkpt lat="47.77408" lon="6.71525">
        <ele>796.04</ele>
        <time>2018-11-03T10:10:12.000Z</time>
      </trkpt>
      <trkpt lat="47.77413" lon="6.71523">
        <ele>796.29</ele>
        <time>2018-11-03T10:10:17.000Z</time>
      </trkpt>
      <trkpt lat="47.7741" lon="6.71524">
        <ele>796.55</ele>
        <time>2018-11-03T10:10:22.000Z</time>
      </trkpt>
      <trkpt lat="47.77409" lon="6.71525">
        <ele>796.8</ele>
        <time>2018-11-03T10:10:27.000Z</time>
      </trkpt>
      <trkpt lat="47.77408" lon="6.71525">
        <ele>797</ele>
        <time>2018-11-03T10:10:32.000Z</time>
      </trkpt>
      <trkpt lat="47.77407" lon="6.71526">
        <ele>797.19</ele>
        <time>2018-11-03T10:10:37.000Z</time>
      </trkpt>
      <trkpt lat="47.77406" lon="6.71526">
        <ele>797.39</ele>
        <time>2018-11-03T10:10:42.000Z</time>
      </trkpt>
      <trkpt lat="47.77406" lon="6.71527">
        <ele>797.64</ele>
        <time>2018-11-03T10:10:47.000Z</time>
      </trkpt>
      <trkpt lat="47.77404" lon="6.71528">
        <ele>797.89</ele>
        <time>2018-11-03T10:10:52.000Z</time>
      </trkpt>
      <trkpt lat="47.77404" lon="6.71529">
        <ele>798.15</ele>
        <time>2018-11-03T10:10:57.000Z</time>
      </trkpt>
      <trkpt lat="47.77404" lon="6.7153">
        <ele>798.14</ele>
        <time>2018-11-03T10:11:02.000Z</time>
      </trkpt>
      <trkpt lat="47.77404" lon="6.71531">
        <ele>798.13</ele>
        <time>2018-11-03T10:11:07.000Z</time>
      </trkpt>
      <trkpt lat="47.77403" lon="6.71533">
        <ele>798.13</ele>
        <time>2018-11-03T10:11:12.000Z</time>
      </trkpt>
      <trkpt lat="47.77405" lon="6.7153">
        <ele>798.13</ele>
        <time>2018-11-03T10:11:17.000Z</time>
      </trkpt>
      <trkpt lat="47.77406" lon="6.7153">
        <ele>798.13</ele>
        <time>2018-11-03T10:11:22.000Z</time>
      </trkpt>
      <trkpt lat="47.77406" lon="6.71528">
        <ele>798.13</ele>
        <time>2018-11-03T10:11:27.000Z</time>
      </trkpt>
      <trkpt lat="47.77405" lon="6.7153">
        <ele>798.12</ele>
        <time>2018-11-03T10:11:32.000Z</time>
      </trkpt>
      <trkpt lat="47.77406" lon="6.71529">
        <ele>798.12</ele>
        <time>2018-11-03T10:11:37.000Z</time>
      </trkpt>
      <trkpt lat="47.77407" lon="6.7153">
        <ele>798.11</ele>
        <time>2018-11-03T10:11:42.000Z</time>
      </trkpt>
      <trkpt lat="47.77403" lon="6.7153">
        <ele>797.77</ele>
        <time>2018-11-03T10:11:47.000Z</time>
      </trkpt>
      <trkpt lat="47.77397" lon="6.71528">
        <ele>797.42</ele>
        <time>2018-11-03T10:11:52.000Z</time>
      </trkpt>
      <trkpt lat="47.77391" lon="6.71526">
        <ele>797.08</ele>
        <time>2018-11-03T10:11:57.000Z</time>
      </trkpt>
      <trkpt lat="47.77387" lon="6.71529">
        <ele>796.9</ele>
        <time>2018-11-03T10:12:02.000Z</time>
      </trkpt>
      <trkpt lat="47.77387" lon="6.7153">
        <ele>796.72</ele>
        <time>2018-11-03T10:12:07.000Z</time>
      </trkpt>
      <trkpt lat="47.77386" lon="6.71529">
        <ele>796.54</ele>
        <time>2018-11-03T10:12:12.000Z</time>
      </trkpt>
      <trkpt lat="47.77382" lon="6.71525">
        <ele>796.3</ele>
        <time>2018-11-03T10:12:17.000Z</time>
      </trkpt>
      <trkpt lat="47.77376" lon="6.7152">
        <ele>796.06</ele>
        <time>2018-11-03T10:12:22.000Z</time>
      </trkpt>
      <trkpt lat="47.7737" lon="6.71517">
        <ele>795.82</ele>
        <time>2018-11-03T10:12:27.000Z</time>
      </trkpt>
      <trkpt lat="47.77361" lon="6.71515">
        <ele>794.94</ele>
        <time>2018-11-03T10:12:32.000Z</time>
      </trkpt>
      <trkpt lat="47.77347" lon="6.71507">
        <ele>794.05</ele>
        <time>2018-11-03T10:12:37.000Z</time>
      </trkpt>
      <trkpt lat="47.77331" lon="6.71496">
        <ele>793.16</ele>
        <time>2018-11-03T10:12:42.000Z</time>
      </trkpt>
      <trkpt lat="47.77309" lon="6.71486">
        <ele>792.18</ele>
        <time>2018-11-03T10:12:47.000Z</time>
      </trkpt>
      <trkpt lat="47.77287" lon="6.71475">
        <ele>791.19</ele>
        <time>2018-11-03T10:12:52.000Z</time>
      </trkpt>
      <trkpt lat="47.77268" lon="6.71456">
        <ele>790.2</ele>
        <time>2018-11-03T10:12:57.000Z</time>
      </trkpt>
      <trkpt lat="47.77247" lon="6.71433">
        <ele>792.75</ele>
        <time>2018-11-03T10:13:02.000Z</time>
      </trkpt>
      <trkpt lat="47.7723" lon="6.71421">
        <ele>795.3</ele>
        <time>2018-11-03T10:13:07.000Z</time>
      </trkpt>
      <trkpt lat="47.77222" lon="6.71418">
        <ele>797.84</ele>
        <time>2018-11-03T10:13:12.000Z</time>
      </trkpt>
      <trkpt lat="47.77218" lon="6.71416">
        <ele>799.3</ele>
        <time>2018-11-03T10:13:17.000Z</time>
      </trkpt>
      <trkpt lat="47.77215" lon="6.71412">
        <ele>800.75</ele>
        <time>2018-11-03T10:13:22.000Z</time>
      </trkpt>
      <trkpt lat="47.77211" lon="6.71412">
        <ele>802.2</ele>
        <time>2018-11-03T10:13:27.000Z</time>
      </trkpt>
      <trkpt lat="47.77208" lon="6.71413">
        <ele>802.83</ele>
        <time>2018-11-03T10:13:32.000Z</time>
      </trkpt>
      <trkpt lat="47.77205" lon="6.71412">
        <ele>803.46</ele>
        <time>2018-11-03T10:13:37.000Z</time>
      </trkpt>
      <trkpt lat="47.77203" lon="6.71414">
        <ele>804.09</ele>
        <time>2018-11-03T10:13:42.000Z</time>
      </trkpt>
      <trkpt lat="47.77201" lon="6.71414">
        <ele>805.07</ele>
        <time>2018-11-03T10:13:47.000Z</time>
      </trkpt>
      <trkpt lat="47.77198" lon="6.71412">
        <ele>806.06</ele>
        <time>2018-11-03T10:13:52.000Z</time>
      </trkpt>
      <trkpt lat="47.77193" lon="6.71412">
        <ele>807.04</ele>
        <time>2018-11-03T10:13:57.000Z</time>
      </trkpt>
      <trkpt lat="47.77189" lon="6.71411">
        <ele>807.58</ele>
        <time>2018-11-03T10:14:02.000Z</time>
      </trkpt>
      <trkpt lat="47.77184" lon="6.71413">
        <ele>808.13</ele>
        <time>2018-11-03T10:14:07.000Z</time>
      </trkpt>
      <trkpt lat="47.77184" lon="6.71416">
        <ele>808.67</ele>
        <time>2018-11-03T10:14:12.000Z</time>
      </trkpt>
      <trkpt lat="47.7718" lon="6.71417">
        <ele>808.91</ele>
        <time>2018-11-03T10:14:17.000Z</time>
      </trkpt>
      <trkpt lat="47.77178" lon="6.71414">
        <ele>809.14</ele>
        <time>2018-11-03T10:14:22.000Z</time>
      </trkpt>
      <trkpt lat="47.77175" lon="6.71412">
        <ele>809.38</ele>
        <time>2018-11-03T10:14:27.000Z</time>
      </trkpt>
      <trkpt lat="47.77172" lon="6.71412">
        <ele>809.95</ele>
        <time>2018-11-03T10:14:32.000Z</time>
      </trkpt>
      <trkpt lat="47.77169" lon="6.71412">
        <ele>810.52</ele>
        <time>2018-11-03T10:14:37.000Z</time>
      </trkpt>
      <trkpt lat="47.77166" lon="6.71413">
        <ele>811.09</ele>
        <time>2018-11-03T10:14:42.000Z</time>
      </trkpt>
      <trkpt lat="47.77162" lon="6.71415">
        <ele>812.38</ele>
        <time>2018-11-03T10:14:47.000Z</time>
      </trkpt>
      <trkpt lat="47.77157" lon="6.71415">
        <ele>813.67</ele>
        <time>2018-11-03T10:14:52.000Z</time>
      </trkpt>
      <trkpt lat="47.77152" lon="6.71416">
        <ele>814.97</ele>
        <time>2018-11-03T10:14:57.000Z</time>
      </trkpt>
      <trkpt lat="47.7715" lon="6.71415">
        <ele>814.38</ele>
        <time>2018-11-03T10:15:02.000Z</time>
      </trkpt>
      <trkpt lat="47.77145" lon="6.71414">
        <ele>813.79</ele>
        <time>2018-11-03T10:15:07.000Z</time>
      </trkpt>
      <trkpt lat="47.7714" lon="6.71411">
        <ele>813.2</ele>
        <time>2018-11-03T10:15:12.000Z</time>
      </trkpt>
      <trkpt lat="47.77137" lon="6.71408">
        <ele>811.75</ele>
        <time>2018-11-03T10:15:17.000Z</time>
      </trkpt>
      <trkpt lat="47.77133" lon="6.71407">
        <ele>810.3</ele>
        <time>2018-11-03T10:15:22.000Z</time>
      </trkpt>
      <trkpt lat="47.77127" lon="6.71411">
        <ele>808.86</ele>
        <time>2018-11-03T10:15:27.000Z</time>
      </trkpt>
      <trkpt lat="47.77122" lon="6.71411">
        <ele>808.05</ele>
        <time>2018-11-03T10:15:32.000Z</time>
      </trkpt>
      <trkpt lat="47.77116" lon="6.71411">
        <ele>807.23</ele>
        <time>2018-11-03T10:15:37.000Z</time>
      </trkpt>
      <trkpt lat="47.77111" lon="6.71411">
        <ele>806.42</ele>
        <time>2018-11-03T10:15:42.000Z</time>
      </trkpt>
      <trkpt lat="47.77107" lon="6.71415">
        <ele>806.34</ele>
        <time>2018-11-03T10:15:47.000Z</time>
      </trkpt>
      <trkpt lat="47.77101" lon="6.71418">
        <ele>806.26</ele>
        <time>2018-11-03T10:15:52.000Z</time>
      </trkpt>
      <trkpt lat="47.77098" lon="6.71424">
        <ele>806.18</ele>
        <time>2018-11-03T10:15:57.000Z</time>
      </trkpt>
      <trkpt lat="47.77099" lon="6.71434">
        <ele>806.88</ele>
        <time>2018-11-03T10:16:02.000Z</time>
      </trkpt>
      <trkpt lat="47.771" lon="6.71444">
        <ele>807.58</ele>
        <time>2018-11-03T10:16:07.000Z</time>
      </trkpt>
      <trkpt lat="47.77105" lon="6.7145">
        <ele>808.28</ele>
        <time>2018-11-03T10:16:12.000Z</time>
      </trkpt>
      <trkpt lat="47.7711" lon="6.71457">
        <ele>808.83</ele>
        <time>2018-11-03T10:16:17.000Z</time>
      </trkpt>
      <trkpt lat="47.77115" lon="6.71462">
        <ele>809.39</ele>
        <time>2018-11-03T10:16:22.000Z</time>
      </trkpt>
      <trkpt lat="47.77121" lon="6.71472">
        <ele>809.94</ele>
        <time>2018-11-03T10:16:27.000Z</time>
      </trkpt>
      <trkpt lat="47.77122" lon="6.7148">
        <ele>810.4</ele>
        <time>2018-11-03T10:16:32.000Z</time>
      </trkpt>
      <trkpt lat="47.77124" lon="6.71488">
        <ele>810.86</ele>
        <time>2018-11-03T10:16:37.000Z</time>
      </trkpt>
      <trkpt lat="47.77127" lon="6.71497">
        <ele>811.32</ele>
        <time>2018-11-03T10:16:42.000Z</time>
      </trkpt>
      <trkpt lat="47.77131" lon="6.71502">
        <ele>811.7</ele>
        <time>2018-11-03T10:16:47.000Z</time>
      </trkpt>
      <trkpt lat="47.77133" lon="6.7151">
        <ele>812.08</ele>
        <time>2018-11-03T10:16:52.000Z</time>
      </trkpt>
      <trkpt lat="47.77134" lon="6.71516">
        <ele>812.45</ele>
        <time>2018-11-03T10:16:57.000Z</time>
      </trkpt>
      <trkpt lat="47.77131" lon="6.71524">
        <ele>812.74</ele>
        <time>2018-11-03T10:17:02.000Z</time>
      </trkpt>
      <trkpt lat="47.77127" lon="6.71529">
        <ele>813.02</ele>
        <time>2018-11-03T10:17:07.000Z</time>
      </trkpt>
      <trkpt lat="47.77126" lon="6.71536">
        <ele>813.3</ele>
        <time>2018-11-03T10:17:12.000Z</time>
      </trkpt>
      <trkpt lat="47.77126" lon="6.71546">
        <ele>813.64</ele>
        <time>2018-11-03T10:17:17.000Z</time>
      </trkpt>
      <trkpt lat="47.77128" lon="6.71549">
        <ele>813.97</ele>
        <time>2018-11-03T10:17:22.000Z</time>
      </trkpt>
      <trkpt lat="47.77128" lon="6.71553">
        <ele>814.31</ele>
        <time>2018-11-03T10:17:27.000Z</time>
      </trkpt>
      <trkpt lat="47.77128" lon="6.71557">
        <ele>815.4</ele>
        <time>2018-11-03T10:17:32.000Z</time>
      </trkpt>
      <trkpt lat="47.77129" lon="6.71561">
        <ele>816.48</ele>
        <time>2018-11-03T10:17:37.000Z</time>
      </trkpt>
      <trkpt lat="47.77132" lon="6.71573">
        <ele>817.56</ele>
        <time>2018-11-03T10:17:42.000Z</time>
      </trkpt>
      <trkpt lat="47.77135" lon="6.71582">
        <ele>819.14</ele>
        <time>2018-11-03T10:17:47.000Z</time>
      </trkpt>
      <trkpt lat="47.77139" lon="6.71592">
        <ele>820.72</ele>
        <time>2018-11-03T10:17:52.000Z</time>
      </trkpt>
      <trkpt lat="47.77144" lon="6.716">
        <ele>822.29</ele>
        <time>2018-11-03T10:17:57.000Z</time>
      </trkpt>
      <trkpt lat="47.77146" lon="6.71607">
        <ele>823.55</ele>
        <time>2018-11-03T10:18:02.000Z</time>
      </trkpt>
      <trkpt lat="47.77148" lon="6.71615">
        <ele>824.81</ele>
        <time>2018-11-03T10:18:07.000Z</time>
      </trkpt>
      <trkpt lat="47.77148" lon="6.71625">
        <ele>826.07</ele>
        <time>2018-11-03T10:18:12.000Z</time>
      </trkpt>
      <trkpt lat="47.77152" lon="6.71634">
        <ele>827.9</ele>
        <time>2018-11-03T10:18:17.000Z</time>
      </trkpt>
      <trkpt lat="47.77157" lon="6.71643">
        <ele>829.72</ele>
        <time>2018-11-03T10:18:22.000Z</time>
      </trkpt>
      <trkpt lat="47.77159" lon="6.71653">
        <ele>831.55</ele>
        <time>2018-11-03T10:18:27.000Z</time>
      </trkpt>
      <trkpt lat="47.77161" lon="6.71663">
        <ele>833.12</ele>
        <time>2018-11-03T10:18:32.000Z</time>
      </trkpt>
      <trkpt lat="47.77167" lon="6.71671">
        <ele>834.68</ele>
        <time>2018-11-03T10:18:37.000Z</time>
      </trkpt>
      <trkpt lat="47.77173" lon="6.71676">
        <ele>836.25</ele>
        <time>2018-11-03T10:18:42.000Z</time>
      </trkpt>
      <trkpt lat="47.7718" lon="6.71678">
        <ele>838.06</ele>
        <time>2018-11-03T10:18:47.000Z</time>
      </trkpt>
      <trkpt lat="47.77191" lon="6.71686">
        <ele>839.87</ele>
        <time>2018-11-03T10:18:52.000Z</time>
      </trkpt>
      <trkpt lat="47.77199" lon="6.71694">
        <ele>841.68</ele>
        <time>2018-11-03T10:18:57.000Z</time>
      </trkpt>
      <trkpt lat="47.77205" lon="6.71702">
        <ele>843.41</ele>
        <time>2018-11-03T10:19:02.000Z</time>
      </trkpt>
      <trkpt lat="47.77211" lon="6.7171">
        <ele>845.13</ele>
        <time>2018-11-03T10:19:07.000Z</time>
      </trkpt>
      <trkpt lat="47.77215" lon="6.71719">
        <ele>846.86</ele>
        <time>2018-11-03T10:19:12.000Z</time>
      </trkpt>
      <trkpt lat="47.77218" lon="6.71728">
        <ele>848.54</ele>
        <time>2018-11-03T10:19:17.000Z</time>
      </trkpt>
      <trkpt lat="47.7722" lon="6.71735">
        <ele>850.23</ele>
        <time>2018-11-03T10:19:22.000Z</time>
      </trkpt>
      <trkpt lat="47.77223" lon="6.71743">
        <ele>851.92</ele>
        <time>2018-11-03T10:19:27.000Z</time>
      </trkpt>
      <trkpt lat="47.77224" lon="6.71751">
        <ele>853.12</ele>
        <time>2018-11-03T10:19:32.000Z</time>
      </trkpt>
      <trkpt lat="47.77227" lon="6.7176">
        <ele>854.31</ele>
        <time>2018-11-03T10:19:37.000Z</time>
      </trkpt>
      <trkpt lat="47.77231" lon="6.71767">
        <ele>855.51</ele>
        <time>2018-11-03T10:19:42.000Z</time>
      </trkpt>
      <trkpt lat="47.77235" lon="6.71773">
        <ele>856.55</ele>
        <time>2018-11-03T10:19:47.000Z</time>
      </trkpt>
      <trkpt lat="47.7724" lon="6.7178">
        <ele>857.6</ele>
        <time>2018-11-03T10:19:52.000Z</time>
      </trkpt>
      <trkpt lat="47.77244" lon="6.71786">
        <ele>858.64</ele>
        <time>2018-11-03T10:19:57.000Z</time>
      </trkpt>
      <trkpt lat="47.77248" lon="6.71794">
        <ele>859.43</ele>
        <time>2018-11-03T10:20:02.000Z</time>
      </trkpt>
      <trkpt lat="47.77252" lon="6.71801">
        <ele>860.23</ele>
        <time>2018-11-03T10:20:07.000Z</time>
      </trkpt>
      <trkpt lat="47.77256" lon="6.71807">
        <ele>861.02</ele>
        <time>2018-11-03T10:20:12.000Z</time>
      </trkpt>
      <trkpt lat="47.77261" lon="6.71814">
        <ele>861.97</ele>
        <time>2018-11-03T10:20:17.000Z</time>
      </trkpt>
      <trkpt lat="47.77266" lon="6.71823">
        <ele>862.93</ele>
        <time>2018-11-03T10:20:22.000Z</time>
      </trkpt>
      <trkpt lat="47.7727" lon="6.71831">
        <ele>863.89</ele>
        <time>2018-11-03T10:20:27.000Z</time>
      </trkpt>
      <trkpt lat="47.77274" lon="6.71839">
        <ele>864.25</ele>
        <time>2018-11-03T10:20:32.000Z</time>
      </trkpt>
      <trkpt lat="47.77279" lon="6.71846">
        <ele>864.62</ele>
        <time>2018-11-03T10:20:37.000Z</time>
      </trkpt>
      <trkpt lat="47.77285" lon="6.71853">
        <ele>864.99</ele>
        <time>2018-11-03T10:20:42.000Z</time>
      </trkpt>
      <trkpt lat="47.77292" lon="6.7186">
        <ele>865.74</ele>
        <time>2018-11-03T10:20:47.000Z</time>
      </trkpt>
      <trkpt lat="47.77299" lon="6.71867">
        <ele>866.5</ele>
        <time>2018-11-03T10:20:52.000Z</time>
      </trkpt>
      <trkpt lat="47.77306" lon="6.71875">
        <ele>867.25</ele>
        <time>2018-11-03T10:20:57.000Z</time>
      </trkpt>
      <trkpt lat="47.77313" lon="6.71882">
        <ele>867.81</ele>
        <time>2018-11-03T10:21:02.000Z</time>
      </trkpt>
      <trkpt lat="47.77319" lon="6.71888">
        <ele>868.37</ele>
        <time>2018-11-03T10:21:07.000Z</time>
      </trkpt>
      <trkpt lat="47.77327" lon="6.71894">
        <ele>868.93</ele>
        <time>2018-11-03T10:21:12.000Z</time>
      </trkpt>
      <trkpt lat="47.77336" lon="6.71901">
        <ele>869.21</ele>
        <time>2018-11-03T10:21:17.000Z</time>
      </trkpt>
      <trkpt lat="47.77344" lon="6.71906">
        <ele>869.5</ele>
        <time>2018-11-03T10:21:22.000Z</time>
      </trkpt>
      <trkpt lat="47.77351" lon="6.71911">
        <ele>869.78</ele>
        <time>2018-11-03T10:21:27.000Z</time>
      </trkpt>
      <trkpt lat="47.77358" lon="6.71917">
        <ele>870.73</ele>
        <time>2018-11-03T10:21:32.000Z</time>
      </trkpt>
      <trkpt lat="47.77365" lon="6.71926">
        <ele>871.67</ele>
        <time>2018-11-03T10:21:37.000Z</time>
      </trkpt>
      <trkpt lat="47.77368" lon="6.71938">
        <ele>872.62</ele>
        <time>2018-11-03T10:21:42.000Z</time>
      </trkpt>
      <trkpt lat="47.7737" lon="6.71948">
        <ele>872.98</ele>
        <time>2018-11-03T10:21:47.000Z</time>
      </trkpt>
      <trkpt lat="47.77373" lon="6.71962">
        <ele>873.35</ele>
        <time>2018-11-03T10:21:52.000Z</time>
      </trkpt>
      <trkpt lat="47.77375" lon="6.71976">
        <ele>873.71</ele>
        <time>2018-11-03T10:21:57.000Z</time>
      </trkpt>
      <trkpt lat="47.77377" lon="6.71991">
        <ele>873.91</ele>
        <time>2018-11-03T10:22:02.000Z</time>
      </trkpt>
      <trkpt lat="47.77379" lon="6.71995">
        <ele>874.1</ele>
        <time>2018-11-03T10:22:07.000Z</time>
      </trkpt>
      <trkpt lat="47.7738" lon="6.71997">
        <ele>874.29</ele>
        <time>2018-11-03T10:22:12.000Z</time>
      </trkpt>
      <trkpt lat="47.77381" lon="6.71999">
        <ele>874.3</ele>
        <time>2018-11-03T10:22:17.000Z</time>
      </trkpt>
      <trkpt lat="47.77381" lon="6.71998">
        <ele>874.31</ele>
        <time>2018-11-03T10:22:22.000Z</time>
      </trkpt>
      <trkpt lat="47.77381" lon="6.71997">
        <ele>874.32</ele>
        <time>2018-11-03T10:22:27.000Z</time>
      </trkpt>
      <trkpt lat="47.77381" lon="6.71997">
        <ele>874.23</ele>
        <time>2018-11-03T10:22:32.000Z</time>
      </trkpt>
      <trkpt lat="47.77381" lon="6.71996">
        <ele>874.15</ele>
        <time>2018-11-03T10:22:37.000Z</time>
      </trkpt>
      <trkpt lat="47.77381" lon="6.71996">
        <ele>874.06</ele>
        <time>2018-11-03T10:22:42.000Z</time>
      </trkpt>
      <trkpt lat="47.7738" lon="6.72001">
        <ele>871.43</ele>
        <time>2018-11-03T10:22:47.000Z</time>
      </trkpt>
      <trkpt lat="47.77376" lon="6.72014">
        <ele>868.81</ele>
        <time>2018-11-03T10:22:52.000Z</time>
      </trkpt>
      <trkpt lat="47.77368" lon="6.72036">
        <ele>866.18</ele>
        <time>2018-11-03T10:22:57.000Z</time>
      </trkpt>
      <trkpt lat="47.77364" lon="6.72061">
        <ele>862.26</ele>
        <time>2018-11-03T10:23:02.000Z</time>
      </trkpt>
      <trkpt lat="47.77361" lon="6.72089">
        <ele>858.35</ele>
        <time>2018-11-03T10:23:07.000Z</time>
      </trkpt>
      <trkpt lat="47.77354" lon="6.72123">
        <ele>854.44</ele>
        <time>2018-11-03T10:23:12.000Z</time>
      </trkpt>
      <trkpt lat="47.77339" lon="6.72146">
        <ele>852.81</ele>
        <time>2018-11-03T10:23:17.000Z</time>
      </trkpt>
      <trkpt lat="47.77328" lon="6.72169">
        <ele>851.19</ele>
        <time>2018-11-03T10:23:22.000Z</time>
      </trkpt>
      <trkpt lat="47.77324" lon="6.72182">
        <ele>849.56</ele>
        <time>2018-11-03T10:23:27.000Z</time>
      </trkpt>
      <trkpt lat="47.77326" lon="6.72183">
        <ele>849.53</ele>
        <time>2018-11-03T10:23:32.000Z</time>
      </trkpt>
      <trkpt lat="47.77327" lon="6.72183">
        <ele>849.49</ele>
        <time>2018-11-03T10:23:37.000Z</time>
      </trkpt>
      <trkpt lat="47.77327" lon="6.72184">
        <ele>849.46</ele>
        <time>2018-11-03T10:23:42.000Z</time>
      </trkpt>
      <trkpt lat="47.77325" lon="6.72183">
        <ele>849.6</ele>
        <time>2018-11-03T10:23:47.000Z</time>
      </trkpt>
      <trkpt lat="47.77326" lon="6.72181">
        <ele>849.75</ele>
        <time>2018-11-03T10:23:52.000Z</time>
      </trkpt>
      <trkpt lat="47.77325" lon="6.72183">
        <ele>849.9</ele>
        <time>2018-11-03T10:23:57.000Z</time>
      </trkpt>
      <trkpt lat="47.77327" lon="6.72186">
        <ele>851.07</ele>
        <time>2018-11-03T10:24:02.000Z</time>
      </trkpt>
      <trkpt lat="47.77331" lon="6.72188">
        <ele>852.25</ele>
        <time>2018-11-03T10:24:07.000Z</time>
      </trkpt>
      <trkpt lat="47.77334" lon="6.72188">
        <ele>853.42</ele>
        <time>2018-11-03T10:24:12.000Z</time>
      </trkpt>
      <trkpt lat="47.77337" lon="6.7219">
        <ele>854.3</ele>
        <time>2018-11-03T10:24:17.000Z</time>
      </trkpt>
      <trkpt lat="47.7734" lon="6.7219">
        <ele>855.18</ele>
        <time>2018-11-03T10:24:22.000Z</time>
      </trkpt>
      <trkpt lat="47.77343" lon="6.72189">
        <ele>856.05</ele>
        <time>2018-11-03T10:24:27.000Z</time>
      </trkpt>
      <trkpt lat="47.77346" lon="6.72189">
        <ele>856.97</ele>
        <time>2018-11-03T10:24:32.000Z</time>
      </trkpt>
      <trkpt lat="47.77348" lon="6.72193">
        <ele>857.88</ele>
        <time>2018-11-03T10:24:37.000Z</time>
      </trkpt>
      <trkpt lat="47.77349" lon="6.722">
        <ele>858.8</ele>
        <time>2018-11-03T10:24:42.000Z</time>
      </trkpt>
      <trkpt lat="47.77349" lon="6.72201">
        <ele>859.25</ele>
        <time>2018-11-03T10:24:47.000Z</time>
      </trkpt>
      <trkpt lat="47.77347" lon="6.72204">
        <ele>859.71</ele>
        <time>2018-11-03T10:24:52.000Z</time>
      </trkpt>
      <trkpt lat="47.77345" lon="6.72212">
        <ele>860.17</ele>
        <time>2018-11-03T10:24:57.000Z</time>
      </trkpt>
      <trkpt lat="47.77343" lon="6.72217">
        <ele>860.59</ele>
        <time>2018-11-03T10:25:02.000Z</time>
      </trkpt>
      <trkpt lat="47.77342" lon="6.72222">
        <ele>861.02</ele>
        <time>2018-11-03T10:25:07.000Z</time>
      </trkpt>
      <trkpt lat="47.77341" lon="6.72228">
        <ele>861.45</ele>
        <time>2018-11-03T10:25:12.000Z</time>
      </trkpt>
      <trkpt lat="47.77341" lon="6.72234">
        <ele>862.36</ele>
        <time>2018-11-03T10:25:17.000Z</time>
      </trkpt>
      <trkpt lat="47.77342" lon="6.7224">
        <ele>863.27</ele>
        <time>2018-11-03T10:25:22.000Z</time>
      </trkpt>
      <trkpt lat="47.77342" lon="6.72246">
        <ele>864.17</ele>
        <time>2018-11-03T10:25:27.000Z</time>
      </trkpt>
      <trkpt lat="47.77343" lon="6.72254">
        <ele>864.88</ele>
        <time>2018-11-03T10:25:32.000Z</time>
      </trkpt>
      <trkpt lat="47.77341" lon="6.72259">
        <ele>865.59</ele>
        <time>2018-11-03T10:25:37.000Z</time>
      </trkpt>
      <trkpt lat="47.77341" lon="6.72264">
        <ele>866.3</ele>
        <time>2018-11-03T10:25:42.000Z</time>
      </trkpt>
      <trkpt lat="47.7734" lon="6.7227">
        <ele>866.87</ele>
        <time>2018-11-03T10:25:47.000Z</time>
      </trkpt>
      <trkpt lat="47.77341" lon="6.72274">
        <ele>867.44</ele>
        <time>2018-11-03T10:25:52.000Z</time>
      </trkpt>
      <trkpt lat="47.77339" lon="6.72278">
        <ele>868.01</ele>
        <time>2018-11-03T10:25:57.000Z</time>
      </trkpt>
      <trkpt lat="47.77336" lon="6.72286">
        <ele>868.3</ele>
        <time>2018-11-03T10:26:02.000Z</time>
      </trkpt>
      <trkpt lat="47.77332" lon="6.72295">
        <ele>868.59</ele>
        <time>2018-11-03T10:26:07.000Z</time>
      </trkpt>
      <trkpt lat="47.77327" lon="6.72304">
        <ele>868.87</ele>
        <time>2018-11-03T10:26:12.000Z</time>
      </trkpt>
      <trkpt lat="47.77322" lon="6.72315">
        <ele>869.75</ele>
        <time>2018-11-03T10:26:17.000Z</time>
      </trkpt>
      <trkpt lat="47.77319" lon="6.72326">
        <ele>870.62</ele>
        <time>2018-11-03T10:26:22.000Z</time>
      </trkpt>
      <trkpt lat="47.77319" lon="6.72337">
        <ele>871.5</ele>
        <time>2018-11-03T10:26:27.000Z</time>
      </trkpt>
      <trkpt lat="47.77318" lon="6.72346">
        <ele>872.28</ele>
        <time>2018-11-03T10:26:32.000Z</time>
      </trkpt>
      <trkpt lat="47.77318" lon="6.72351">
        <ele>873.07</ele>
        <time>2018-11-03T10:26:37.000Z</time>
      </trkpt>
      <trkpt lat="47.77317" lon="6.72354">
        <ele>873.86</ele>
        <time>2018-11-03T10:26:42.000Z</time>
      </trkpt>
      <trkpt lat="47.77318" lon="6.72357">
        <ele>874.66</ele>
        <time>2018-11-03T10:26:47.000Z</time>
      </trkpt>
      <trkpt lat="47.77319" lon="6.7236">
        <ele>875.47</ele>
        <time>2018-11-03T10:26:52.000Z</time>
      </trkpt>
      <trkpt lat="47.77319" lon="6.72364">
        <ele>876.28</ele>
        <time>2018-11-03T10:26:57.000Z</time>
      </trkpt>
      <trkpt lat="47.77318" lon="6.72366">
        <ele>877.18</ele>
        <time>2018-11-03T10:27:02.000Z</time>
      </trkpt>
      <trkpt lat="47.77318" lon="6.7237">
        <ele>878.08</ele>
        <time>2018-11-03T10:27:07.000Z</time>
      </trkpt>
      <trkpt lat="47.77318" lon="6.72377">
        <ele>878.97</ele>
        <time>2018-11-03T10:27:12.000Z</time>
      </trkpt>
      <trkpt lat="47.77318" lon="6.7238">
        <ele>879.62</ele>
        <time>2018-11-03T10:27:17.000Z</time>
      </trkpt>
      <trkpt lat="47.77316" lon="6.72386">
        <ele>880.27</ele>
        <time>2018-11-03T10:27:22.000Z</time>
      </trkpt>
      <trkpt lat="47.77314" lon="6.72389">
        <ele>880.91</ele>
        <time>2018-11-03T10:27:27.000Z</time>
      </trkpt>
      <trkpt lat="47.77315" lon="6.72393">
        <ele>881.61</ele>
        <time>2018-11-03T10:27:32.000Z</time>
      </trkpt>
      <trkpt lat="47.77316" lon="6.72395">
        <ele>882.3</ele>
        <time>2018-11-03T10:27:37.000Z</time>
      </trkpt>
      <trkpt lat="47.77317" lon="6.724">
        <ele>883</ele>
        <time>2018-11-03T10:27:42.000Z</time>
      </trkpt>
      <trkpt lat="47.77316" lon="6.72404">
        <ele>883.15</ele>
        <time>2018-11-03T10:27:47.000Z</time>
      </trkpt>
      <trkpt lat="47.77316" lon="6.72407">
        <ele>883.3</ele>
        <time>2018-11-03T10:27:52.000Z</time>
      </trkpt>
      <trkpt lat="47.77317" lon="6.7241">
        <ele>883.46</ele>
        <time>2018-11-03T10:27:57.000Z</time>
      </trkpt>
      <trkpt lat="47.77316" lon="6.72414">
        <ele>883.64</ele>
        <time>2018-11-03T10:28:02.000Z</time>
      </trkpt>
      <trkpt lat="47.77315" lon="6.72417">
        <ele>883.83</ele>
        <time>2018-11-03T10:28:07.000Z</time>
      </trkpt>
      <trkpt lat="47.77314" lon="6.72422">
        <ele>884.01</ele>
        <time>2018-11-03T10:28:12.000Z</time>
      </trkpt>
      <trkpt lat="47.77312" lon="6.72426">
        <ele>884.22</ele>
        <time>2018-11-03T10:28:17.000Z</time>
      </trkpt>
      <trkpt lat="47.77311" lon="6.72429">
        <ele>884.43</ele>
        <time>2018-11-03T10:28:22.000Z</time>
      </trkpt>
      <trkpt lat="47.7731" lon="6.72433">
        <ele>884.64</ele>
        <time>2018-11-03T10:28:27.000Z</time>
      </trkpt>
      <trkpt lat="47.77308" lon="6.72441">
        <ele>884.94</ele>
        <time>2018-11-03T10:28:32.000Z</time>
      </trkpt>
      <trkpt lat="47.77307" lon="6.72449">
        <ele>885.24</ele>
        <time>2018-11-03T10:28:37.000Z</time>
      </trkpt>
      <trkpt lat="47.77305" lon="6.72454">
        <ele>885.54</ele>
        <time>2018-11-03T10:28:42.000Z</time>
      </trkpt>
      <trkpt lat="47.77302" lon="6.7246">
        <ele>885.93</ele>
        <time>2018-11-03T10:28:47.000Z</time>
      </trkpt>
      <trkpt lat="47.77299" lon="6.72469">
        <ele>886.32</ele>
        <time>2018-11-03T10:28:52.000Z</time>
      </trkpt>
      <trkpt lat="47.77297" lon="6.72477">
        <ele>886.71</ele>
        <time>2018-11-03T10:28:57.000Z</time>
      </trkpt>
      <trkpt lat="47.77295" lon="6.72484">
        <ele>887.23</ele>
        <time>2018-11-03T10:29:02.000Z</time>
      </trkpt>
      <trkpt lat="47.77292" lon="6.72492">
        <ele>887.74</ele>
        <time>2018-11-03T10:29:07.000Z</time>
      </trkpt>
      <trkpt lat="47.7729" lon="6.72502">
        <ele>888.26</ele>
        <time>2018-11-03T10:29:12.000Z</time>
      </trkpt>
      <trkpt lat="47.77287" lon="6.72514">
        <ele>888.52</ele>
        <time>2018-11-03T10:29:17.000Z</time>
      </trkpt>
      <trkpt lat="47.77282" lon="6.72519">
        <ele>888.79</ele>
        <time>2018-11-03T10:29:22.000Z</time>
      </trkpt>
      <trkpt lat="47.77282" lon="6.7252">
        <ele>889.06</ele>
        <time>2018-11-03T10:29:27.000Z</time>
      </trkpt>
      <trkpt lat="47.77279" lon="6.72525">
        <ele>889.27</ele>
        <time>2018-11-03T10:29:32.000Z</time>
      </trkpt>
      <trkpt lat="47.77277" lon="6.72533">
        <ele>889.48</ele>
        <time>2018-11-03T10:29:37.000Z</time>
      </trkpt>
      <trkpt lat="47.7727" lon="6.72545">
        <ele>889.7</ele>
        <time>2018-11-03T10:29:42.000Z</time>
      </trkpt>
      <trkpt lat="47.77263" lon="6.72567">
        <ele>890</ele>
        <time>2018-11-03T10:29:47.000Z</time>
      </trkpt>
      <trkpt lat="47.77255" lon="6.7259">
        <ele>890.31</ele>
        <time>2018-11-03T10:29:52.000Z</time>
      </trkpt>
      <trkpt lat="47.77245" lon="6.72621">
        <ele>890.61</ele>
        <time>2018-11-03T10:29:57.000Z</time>
      </trkpt>
      <trkpt lat="47.77248" lon="6.72646">
        <ele>889.66</ele>
        <time>2018-11-03T10:30:02.000Z</time>
      </trkpt>
      <trkpt lat="47.77246" lon="6.72668">
        <ele>888.71</ele>
        <time>2018-11-03T10:30:07.000Z</time>
      </trkpt>
      <trkpt lat="47.77244" lon="6.72697">
        <ele>887.76</ele>
        <time>2018-11-03T10:30:12.000Z</time>
      </trkpt>
      <trkpt lat="47.7724" lon="6.72725">
        <ele>886.31</ele>
        <time>2018-11-03T10:30:17.000Z</time>
      </trkpt>
      <trkpt lat="47.7724" lon="6.72752">
        <ele>884.86</ele>
        <time>2018-11-03T10:30:22.000Z</time>
      </trkpt>
      <trkpt lat="47.77233" lon="6.72777">
        <ele>883.41</ele>
        <time>2018-11-03T10:30:27.000Z</time>
      </trkpt>
      <trkpt lat="47.77222" lon="6.728">
        <ele>881.01</ele>
        <time>2018-11-03T10:30:32.000Z</time>
      </trkpt>
      <trkpt lat="47.77212" lon="6.72804">
        <ele>878.62</ele>
        <time>2018-11-03T10:30:37.000Z</time>
      </trkpt>
      <trkpt lat="47.77193" lon="6.72809">
        <ele>876.22</ele>
        <time>2018-11-03T10:30:42.000Z</time>
      </trkpt>
      <trkpt lat="47.77176" lon="6.72821">
        <ele>872.32</ele>
        <time>2018-11-03T10:30:47.000Z</time>
      </trkpt>
      <trkpt lat="47.77162" lon="6.7283">
        <ele>868.42</ele>
        <time>2018-11-03T10:30:52.000Z</time>
      </trkpt>
      <trkpt lat="47.77143" lon="6.72832">
        <ele>864.52</ele>
        <time>2018-11-03T10:30:57.000Z</time>
      </trkpt>
      <trkpt lat="47.77124" lon="6.72834">
        <ele>860.84</ele>
        <time>2018-11-03T10:31:02.000Z</time>
      </trkpt>
      <trkpt lat="47.77106" lon="6.72828">
        <ele>857.16</ele>
        <time>2018-11-03T10:31:07.000Z</time>
      </trkpt>
      <trkpt lat="47.77088" lon="6.72817">
        <ele>853.48</ele>
        <time>2018-11-03T10:31:12.000Z</time>
      </trkpt>
      <trkpt lat="47.77072" lon="6.72808">
        <ele>850.14</ele>
        <time>2018-11-03T10:31:17.000Z</time>
      </trkpt>
      <trkpt lat="47.77059" lon="6.72803">
        <ele>846.79</ele>
        <time>2018-11-03T10:31:22.000Z</time>
      </trkpt>
      <trkpt lat="47.77044" lon="6.72801">
        <ele>843.45</ele>
        <time>2018-11-03T10:31:27.000Z</time>
      </trkpt>
      <trkpt lat="47.77029" lon="6.728">
        <ele>842.6</ele>
        <time>2018-11-03T10:31:32.000Z</time>
      </trkpt>
      <trkpt lat="47.77019" lon="6.72808">
        <ele>841.74</ele>
        <time>2018-11-03T10:31:37.000Z</time>
      </trkpt>
      <trkpt lat="47.77027" lon="6.72828">
        <ele>840.88</ele>
        <time>2018-11-03T10:31:42.000Z</time>
      </trkpt>
      <trkpt lat="47.77035" lon="6.72837">
        <ele>841.99</ele>
        <time>2018-11-03T10:31:47.000Z</time>
      </trkpt>
      <trkpt lat="47.77045" lon="6.72846">
        <ele>843.09</ele>
        <time>2018-11-03T10:31:52.000Z</time>
      </trkpt>
      <trkpt lat="47.77054" lon="6.72858">
        <ele>844.2</ele>
        <time>2018-11-03T10:31:57.000Z</time>
      </trkpt>
      <trkpt lat="47.77062" lon="6.72871">
        <ele>845.83</ele>
        <time>2018-11-03T10:32:02.000Z</time>
      </trkpt>
      <trkpt lat="47.77074" lon="6.72888">
        <ele>847.46</ele>
        <time>2018-11-03T10:32:07.000Z</time>
      </trkpt>
      <trkpt lat="47.77086" lon="6.72904">
        <ele>849.09</ele>
        <time>2018-11-03T10:32:12.000Z</time>
      </trkpt>
      <trkpt lat="47.77097" lon="6.72921">
        <ele>851.99</ele>
        <time>2018-11-03T10:32:17.000Z</time>
      </trkpt>
      <trkpt lat="47.77106" lon="6.72937">
        <ele>854.89</ele>
        <time>2018-11-03T10:32:22.000Z</time>
      </trkpt>
      <trkpt lat="47.77118" lon="6.72951">
        <ele>857.79</ele>
        <time>2018-11-03T10:32:27.000Z</time>
      </trkpt>
      <trkpt lat="47.77132" lon="6.72963">
        <ele>860.54</ele>
        <time>2018-11-03T10:32:32.000Z</time>
      </trkpt>
      <trkpt lat="47.77142" lon="6.72977">
        <ele>863.28</ele>
        <time>2018-11-03T10:32:37.000Z</time>
      </trkpt>
      <trkpt lat="47.77155" lon="6.72992">
        <ele>866.03</ele>
        <time>2018-11-03T10:32:42.000Z</time>
      </trkpt>
      <trkpt lat="47.77168" lon="6.73011">
        <ele>863.01</ele>
        <time>2018-11-03T10:32:47.000Z</time>
      </trkpt>
      <trkpt lat="47.77183" lon="6.73028">
        <ele>859.99</ele>
        <time>2018-11-03T10:32:52.000Z</time>
      </trkpt>
      <trkpt lat="47.77191" lon="6.73047">
        <ele>856.97</ele>
        <time>2018-11-03T10:32:57.000Z</time>
      </trkpt>
      <trkpt lat="47.77204" lon="6.73061">
        <ele>855.96</ele>
        <time>2018-11-03T10:33:02.000Z</time>
      </trkpt>
      <trkpt lat="47.77218" lon="6.73076">
        <ele>854.96</ele>
        <time>2018-11-03T10:33:07.000Z</time>
      </trkpt>
      <trkpt lat="47.77237" lon="6.7309">
        <ele>853.95</ele>
        <time>2018-11-03T10:33:12.000Z</time>
      </trkpt>
      <trkpt lat="47.77258" lon="6.73102">
        <ele>854.68</ele>
        <time>2018-11-03T10:33:17.000Z</time>
      </trkpt>
      <trkpt lat="47.77291" lon="6.73106">
        <ele>855.42</ele>
        <time>2018-11-03T10:33:22.000Z</time>
      </trkpt>
      <trkpt lat="47.77323" lon="6.73118">
        <ele>856.15</ele>
        <time>2018-11-03T10:33:27.000Z</time>
      </trkpt>
      <trkpt lat="47.77362" lon="6.73125">
        <ele>849.44</ele>
        <time>2018-11-03T10:33:32.000Z</time>
      </trkpt>
      <trkpt lat="47.77392" lon="6.73166">
        <ele>842.74</ele>
        <time>2018-11-03T10:33:37.000Z</time>
      </trkpt>
      <trkpt lat="47.77416" lon="6.73197">
        <ele>836.03</ele>
        <time>2018-11-03T10:33:42.000Z</time>
      </trkpt>
      <trkpt lat="47.77445" lon="6.73195">
        <ele>832.88</ele>
        <time>2018-11-03T10:33:47.000Z</time>
      </trkpt>
      <trkpt lat="47.77465" lon="6.73194">
        <ele>829.73</ele>
        <time>2018-11-03T10:33:52.000Z</time>
      </trkpt>
      <trkpt lat="47.775" lon="6.73194">
        <ele>826.58</ele>
        <time>2018-11-03T10:33:57.000Z</time>
      </trkpt>
      <trkpt lat="47.77535" lon="6.7321">
        <ele>823.22</ele>
        <time>2018-11-03T10:34:02.000Z</time>
      </trkpt>
      <trkpt lat="47.7756" lon="6.73219">
        <ele>819.86</ele>
        <time>2018-11-03T10:34:07.000Z</time>
      </trkpt>
      <trkpt lat="47.77593" lon="6.73231">
        <ele>816.49</ele>
        <time>2018-11-03T10:34:12.000Z</time>
      </trkpt>
      <trkpt lat="47.77623" lon="6.73239">
        <ele>816.59</ele>
        <time>2018-11-03T10:34:17.000Z</time>
      </trkpt>
      <trkpt lat="47.77619" lon="6.73258">
        <ele>816.68</ele>
        <time>2018-11-03T10:34:22.000Z</time>
      </trkpt>
      <trkpt lat="47.776" lon="6.73276">
        <ele>816.78</ele>
        <time>2018-11-03T10:34:27.000Z</time>
      </trkpt>
      <trkpt lat="47.77581" lon="6.73305">
        <ele>811</ele>
        <time>2018-11-03T10:34:32.000Z</time>
      </trkpt>
      <trkpt lat="47.77567" lon="6.73346">
        <ele>805.21</ele>
        <time>2018-11-03T10:34:37.000Z</time>
      </trkpt>
      <trkpt lat="47.77551" lon="6.73389">
        <ele>799.43</ele>
        <time>2018-11-03T10:34:42.000Z</time>
      </trkpt>
      <trkpt lat="47.77523" lon="6.73412">
        <ele>797.77</ele>
        <time>2018-11-03T10:34:47.000Z</time>
      </trkpt>
      <trkpt lat="47.77496" lon="6.73423">
        <ele>796.12</ele>
        <time>2018-11-03T10:34:52.000Z</time>
      </trkpt>
      <trkpt lat="47.77471" lon="6.73427">
        <ele>794.46</ele>
        <time>2018-11-03T10:34:57.000Z</time>
      </trkpt>
      <trkpt lat="47.77447" lon="6.73422">
        <ele>793.81</ele>
        <time>2018-11-03T10:35:02.000Z</time>
      </trkpt>
      <trkpt lat="47.7742" lon="6.73413">
        <ele>793.16</ele>
        <time>2018-11-03T10:35:07.000Z</time>
      </trkpt>
      <trkpt lat="47.77398" lon="6.73396">
        <ele>792.52</ele>
        <time>2018-11-03T10:35:12.000Z</time>
      </trkpt>
      <trkpt lat="47.77369" lon="6.73397">
        <ele>791.78</ele>
        <time>2018-11-03T10:35:17.000Z</time>
      </trkpt>
      <trkpt lat="47.77339" lon="6.73401">
        <ele>791.04</ele>
        <time>2018-11-03T10:35:22.000Z</time>
      </trkpt>
      <trkpt lat="47.77318" lon="6.73405">
        <ele>790.31</ele>
        <time>2018-11-03T10:35:27.000Z</time>
      </trkpt>
      <trkpt lat="47.77296" lon="6.73413">
        <ele>785.63</ele>
        <time>2018-11-03T10:35:32.000Z</time>
      </trkpt>
      <trkpt lat="47.77272" lon="6.7341">
        <ele>780.95</ele>
        <time>2018-11-03T10:35:37.000Z</time>
      </trkpt>
      <trkpt lat="47.77254" lon="6.73423">
        <ele>776.28</ele>
        <time>2018-11-03T10:35:42.000Z</time>
      </trkpt>
      <trkpt lat="47.77225" lon="6.73444">
        <ele>769.72</ele>
        <time>2018-11-03T10:35:47.000Z</time>
      </trkpt>
      <trkpt lat="47.77201" lon="6.7346">
        <ele>763.16</ele>
        <time>2018-11-03T10:35:52.000Z</time>
      </trkpt>
      <trkpt lat="47.77185" lon="6.73478">
        <ele>756.6</ele>
        <time>2018-11-03T10:35:57.000Z</time>
      </trkpt>
      <trkpt lat="47.77174" lon="6.735">
        <ele>752.83</ele>
        <time>2018-11-03T10:36:02.000Z</time>
      </trkpt>
      <trkpt lat="47.77154" lon="6.73505">
        <ele>749.06</ele>
        <time>2018-11-03T10:36:07.000Z</time>
      </trkpt>
      <trkpt lat="47.77131" lon="6.73489">
        <ele>745.3</ele>
        <time>2018-11-03T10:36:12.000Z</time>
      </trkpt>
      <trkpt lat="47.77111" lon="6.7347">
        <ele>742.62</ele>
        <time>2018-11-03T10:36:17.000Z</time>
      </trkpt>
      <trkpt lat="47.77091" lon="6.7345">
        <ele>739.93</ele>
        <time>2018-11-03T10:36:22.000Z</time>
      </trkpt>
      <trkpt lat="47.77073" lon="6.73438">
        <ele>737.25</ele>
        <time>2018-11-03T10:36:27.000Z</time>
      </trkpt>
      <trkpt lat="47.77058" lon="6.73426">
        <ele>733.48</ele>
        <time>2018-11-03T10:36:32.000Z</time>
      </trkpt>
      <trkpt lat="47.77035" lon="6.73405">
        <ele>729.7</ele>
        <time>2018-11-03T10:36:37.000Z</time>
      </trkpt>
      <trkpt lat="47.77011" lon="6.73381">
        <ele>725.93</ele>
        <time>2018-11-03T10:36:42.000Z</time>
      </trkpt>
      <trkpt lat="47.76992" lon="6.73363">
        <ele>721.8</ele>
        <time>2018-11-03T10:36:47.000Z</time>
      </trkpt>
      <trkpt lat="47.76975" lon="6.73359">
        <ele>717.67</ele>
        <time>2018-11-03T10:36:52.000Z</time>
      </trkpt>
      <trkpt lat="47.76958" lon="6.73364">
        <ele>713.54</ele>
        <time>2018-11-03T10:36:57.000Z</time>
      </trkpt>
      <trkpt lat="47.76935" lon="6.73356">
        <ele>713.19</ele>
        <time>2018-11-03T10:37:02.000Z</time>
      </trkpt>
      <trkpt lat="47.76913" lon="6.73343">
        <ele>712.84</ele>
        <time>2018-11-03T10:37:07.000Z</time>
      </trkpt>
      <trkpt lat="47.76891" lon="6.73341">
        <ele>712.49</ele>
        <time>2018-11-03T10:37:12.000Z</time>
      </trkpt>
      <trkpt lat="47.76873" lon="6.73347">
        <ele>712.37</ele>
        <time>2018-11-03T10:37:17.000Z</time>
      </trkpt>
      <trkpt lat="47.76853" lon="6.73357">
        <ele>712.26</ele>
        <time>2018-11-03T10:37:22.000Z</time>
      </trkpt>
      <trkpt lat="47.7685" lon="6.73362">
        <ele>712.14</ele>
        <time>2018-11-03T10:37:27.000Z</time>
      </trkpt>
      <trkpt lat="47.76849" lon="6.73363">
        <ele>711.56</ele>
        <time>2018-11-03T10:37:32.000Z</time>
      </trkpt>
      <trkpt lat="47.76848" lon="6.73366">
        <ele>710.99</ele>
        <time>2018-11-03T10:37:37.000Z</time>
      </trkpt>
      <trkpt lat="47.76848" lon="6.73371">
        <ele>710.41</ele>
        <time>2018-11-03T10:37:42.000Z</time>
      </trkpt>
      <trkpt lat="47.76847" lon="6.73374">
        <ele>709.94</ele>
        <time>2018-11-03T10:37:47.000Z</time>
      </trkpt>
      <trkpt lat="47.76848" lon="6.73377">
        <ele>709.48</ele>
        <time>2018-11-03T10:37:52.000Z</time>
      </trkpt>
      <trkpt lat="47.76847" lon="6.73381">
        <ele>709.01</ele>
        <time>2018-11-03T10:37:57.000Z</time>
      </trkpt>
      <trkpt lat="47.76848" lon="6.73381">
        <ele>709.06</ele>
        <time>2018-11-03T10:38:02.000Z</time>
      </trkpt>
      <trkpt lat="47.76851" lon="6.73378">
        <ele>709.12</ele>
        <time>2018-11-03T10:38:07.000Z</time>
      </trkpt>
      <trkpt lat="47.76851" lon="6.73376">
        <ele>709.17</ele>
        <time>2018-11-03T10:38:12.000Z</time>
      </trkpt>
      <trkpt lat="47.76849" lon="6.73379">
        <ele>706.08</ele>
        <time>2018-11-03T10:38:17.000Z</time>
      </trkpt>
      <trkpt lat="47.76843" lon="6.73396">
        <ele>703</ele>
        <time>2018-11-03T10:38:22.000Z</time>
      </trkpt>
      <trkpt lat="47.76827" lon="6.73405">
        <ele>699.91</ele>
        <time>2018-11-03T10:38:27.000Z</time>
      </trkpt>
      <trkpt lat="47.76815" lon="6.73427">
        <ele>698.7</ele>
        <time>2018-11-03T10:38:32.000Z</time>
      </trkpt>
      <trkpt lat="47.76799" lon="6.73458">
        <ele>697.5</ele>
        <time>2018-11-03T10:38:37.000Z</time>
      </trkpt>
      <trkpt lat="47.76787" lon="6.73473">
        <ele>696.29</ele>
        <time>2018-11-03T10:38:42.000Z</time>
      </trkpt>
      <trkpt lat="47.76775" lon="6.73487">
        <ele>693.7</ele>
        <time>2018-11-03T10:38:47.000Z</time>
      </trkpt>
      <trkpt lat="47.76767" lon="6.73498">
        <ele>691.11</ele>
        <time>2018-11-03T10:38:52.000Z</time>
      </trkpt>
      <trkpt lat="47.76758" lon="6.73514">
        <ele>688.51</ele>
        <time>2018-11-03T10:38:57.000Z</time>
      </trkpt>
      <trkpt lat="47.76752" lon="6.73522">
        <ele>686.35</ele>
        <time>2018-11-03T10:39:02.000Z</time>
      </trkpt>
      <trkpt lat="47.76745" lon="6.73533">
        <ele>684.18</ele>
        <time>2018-11-03T10:39:07.000Z</time>
      </trkpt>
      <trkpt lat="47.76736" lon="6.73541">
        <ele>682.01</ele>
        <time>2018-11-03T10:39:12.000Z</time>
      </trkpt>
      <trkpt lat="47.76722" lon="6.73547">
        <ele>678.65</ele>
        <time>2018-11-03T10:39:17.000Z</time>
      </trkpt>
      <trkpt lat="47.7671" lon="6.73553">
        <ele>675.3</ele>
        <time>2018-11-03T10:39:22.000Z</time>
      </trkpt>
      <trkpt lat="47.767" lon="6.73565">
        <ele>671.94</ele>
        <time>2018-11-03T10:39:27.000Z</time>
      </trkpt>
      <trkpt lat="47.76683" lon="6.73579">
        <ele>668.35</ele>
        <time>2018-11-03T10:39:32.000Z</time>
      </trkpt>
      <trkpt lat="47.76661" lon="6.7359">
        <ele>664.76</ele>
        <time>2018-11-03T10:39:37.000Z</time>
      </trkpt>
      <trkpt lat="47.76637" lon="6.73605">
        <ele>661.18</ele>
        <time>2018-11-03T10:39:42.000Z</time>
      </trkpt>
      <trkpt lat="47.76622" lon="6.73619">
        <ele>657.1</ele>
        <time>2018-11-03T10:39:47.000Z</time>
      </trkpt>
      <trkpt lat="47.76605" lon="6.73629">
        <ele>653.02</ele>
        <time>2018-11-03T10:39:52.000Z</time>
      </trkpt>
      <trkpt lat="47.76591" lon="6.73642">
        <ele>648.95</ele>
        <time>2018-11-03T10:39:57.000Z</time>
      </trkpt>
      <trkpt lat="47.76573" lon="6.73656">
        <ele>646.88</ele>
        <time>2018-11-03T10:40:02.000Z</time>
      </trkpt>
      <trkpt lat="47.76554" lon="6.73665">
        <ele>644.82</ele>
        <time>2018-11-03T10:40:07.000Z</time>
      </trkpt>
      <trkpt lat="47.76538" lon="6.73678">
        <ele>642.75</ele>
        <time>2018-11-03T10:40:12.000Z</time>
      </trkpt>
      <trkpt lat="47.76531" lon="6.73685">
        <ele>642.47</ele>
        <time>2018-11-03T10:40:17.000Z</time>
      </trkpt>
      <trkpt lat="47.76529" lon="6.73688">
        <ele>642.2</ele>
        <time>2018-11-03T10:40:22.000Z</time>
      </trkpt>
      <trkpt lat="47.76527" lon="6.73689">
        <ele>641.92</ele>
        <time>2018-11-03T10:40:27.000Z</time>
      </trkpt>
      <trkpt lat="47.76525" lon="6.7369">
        <ele>641.28</ele>
        <time>2018-11-03T10:40:32.000Z</time>
      </trkpt>
      <trkpt lat="47.76515" lon="6.73691">
        <ele>640.64</ele>
        <time>2018-11-03T10:40:37.000Z</time>
      </trkpt>
      <trkpt lat="47.76503" lon="6.73697">
        <ele>640</ele>
        <time>2018-11-03T10:40:42.000Z</time>
      </trkpt>
      <trkpt lat="47.76489" lon="6.73702">
        <ele>637.31</ele>
        <time>2018-11-03T10:40:47.000Z</time>
      </trkpt>
      <trkpt lat="47.76474" lon="6.73711">
        <ele>634.61</ele>
        <time>2018-11-03T10:40:52.000Z</time>
      </trkpt>
      <trkpt lat="47.76462" lon="6.73726">
        <ele>631.92</ele>
        <time>2018-11-03T10:40:57.000Z</time>
      </trkpt>
      <trkpt lat="47.76462" lon="6.73741">
        <ele>628.93</ele>
        <time>2018-11-03T10:41:02.000Z</time>
      </trkpt>
      <trkpt lat="47.76464" lon="6.73757">
        <ele>625.94</ele>
        <time>2018-11-03T10:41:07.000Z</time>
      </trkpt>
      <trkpt lat="47.7646" lon="6.73782">
        <ele>622.94</ele>
        <time>2018-11-03T10:41:12.000Z</time>
      </trkpt>
      <trkpt lat="47.76465" lon="6.73786">
        <ele>623.23</ele>
        <time>2018-11-03T10:41:17.000Z</time>
      </trkpt>
      <trkpt lat="47.76469" lon="6.73777">
        <ele>623.52</ele>
        <time>2018-11-03T10:41:22.000Z</time>
      </trkpt>
      <trkpt lat="47.7647" lon="6.73775">
        <ele>623.81</ele>
        <time>2018-11-03T10:41:27.000Z</time>
      </trkpt>
      <trkpt lat="47.7647" lon="6.73776">
        <ele>623.24</ele>
        <time>2018-11-03T10:41:32.000Z</time>
      </trkpt>
      <trkpt lat="47.76471" lon="6.73778">
        <ele>622.66</ele>
        <time>2018-11-03T10:41:37.000Z</time>
      </trkpt>
      <trkpt lat="47.76472" lon="6.7378">
        <ele>622.08</ele>
        <time>2018-11-03T10:41:42.000Z</time>
      </trkpt>
      <trkpt lat="47.76471" lon="6.73782">
        <ele>620.87</ele>
        <time>2018-11-03T10:41:47.000Z</time>
      </trkpt>
      <trkpt lat="47.7647" lon="6.73786">
        <ele>619.65</ele>
        <time>2018-11-03T10:41:52.000Z</time>
      </trkpt>
      <trkpt lat="47.76471" lon="6.73792">
        <ele>618.44</ele>
        <time>2018-11-03T10:41:57.000Z</time>
      </trkpt>
      <trkpt lat="47.76469" lon="6.73802">
        <ele>617.36</ele>
        <time>2018-11-03T10:42:02.000Z</time>
      </trkpt>
      <trkpt lat="47.76461" lon="6.73816">
        <ele>616.27</ele>
        <time>2018-11-03T10:42:07.000Z</time>
      </trkpt>
      <trkpt lat="47.76454" lon="6.73836">
        <ele>615.19</ele>
        <time>2018-11-03T10:42:12.000Z</time>
      </trkpt>
      <trkpt lat="47.76448" lon="6.73856">
        <ele>611.24</ele>
        <time>2018-11-03T10:42:17.000Z</time>
      </trkpt>
      <trkpt lat="47.76442" lon="6.73876">
        <ele>607.29</ele>
        <time>2018-11-03T10:42:22.000Z</time>
      </trkpt>
      <trkpt lat="47.76437" lon="6.73888">
        <ele>603.34</ele>
        <time>2018-11-03T10:42:27.000Z</time>
      </trkpt>
      <trkpt lat="47.76447" lon="6.73891">
        <ele>602.2</ele>
        <time>2018-11-03T10:42:32.000Z</time>
      </trkpt>
      <trkpt lat="47.7646" lon="6.73877">
        <ele>601.06</ele>
        <time>2018-11-03T10:42:37.000Z</time>
      </trkpt>
      <trkpt lat="47.76467" lon="6.73871">
        <ele>599.92</ele>
        <time>2018-11-03T10:42:42.000Z</time>
      </trkpt>
      <trkpt lat="47.76477" lon="6.73868">
        <ele>599.16</ele>
        <time>2018-11-03T10:42:47.000Z</time>
      </trkpt>
      <trkpt lat="47.76478" lon="6.73865">
        <ele>598.39</ele>
        <time>2018-11-03T10:42:52.000Z</time>
      </trkpt>
      <trkpt lat="47.76484" lon="6.73859">
        <ele>597.63</ele>
        <time>2018-11-03T10:42:57.000Z</time>
      </trkpt>
      <trkpt lat="47.76482" lon="6.73874">
        <ele>593.79</ele>
        <time>2018-11-03T10:43:02.000Z</time>
      </trkpt>
      <trkpt lat="47.7648" lon="6.73884">
        <ele>589.95</ele>
        <time>2018-11-03T10:43:07.000Z</time>
      </trkpt>
      <trkpt lat="47.76476" lon="6.73902">
        <ele>586.11</ele>
        <time>2018-11-03T10:43:12.000Z</time>
      </trkpt>
      <trkpt lat="47.76473" lon="6.7392">
        <ele>582.55</ele>
        <time>2018-11-03T10:43:17.000Z</time>
      </trkpt>
      <trkpt lat="47.76467" lon="6.73935">
        <ele>579</ele>
        <time>2018-11-03T10:43:22.000Z</time>
      </trkpt>
      <trkpt lat="47.76463" lon="6.73945">
        <ele>575.45</ele>
        <time>2018-11-03T10:43:27.000Z</time>
      </trkpt>
      <trkpt lat="47.76462" lon="6.73952">
        <ele>572.8</ele>
        <time>2018-11-03T10:43:32.000Z</time>
      </trkpt>
      <trkpt lat="47.76459" lon="6.73963">
        <ele>570.16</ele>
        <time>2018-11-03T10:43:37.000Z</time>
      </trkpt>
      <trkpt lat="47.76459" lon="6.73966">
        <ele>567.51</ele>
        <time>2018-11-03T10:43:42.000Z</time>
      </trkpt>
      <trkpt lat="47.76456" lon="6.73977">
        <ele>557.84</ele>
        <time>2018-11-03T10:43:47.000Z</time>
      </trkpt>
      <trkpt lat="47.76447" lon="6.73996">
        <ele>548.17</ele>
        <time>2018-11-03T10:43:52.000Z</time>
      </trkpt>
      <trkpt lat="47.76435" lon="6.74014">
        <ele>538.5</ele>
        <time>2018-11-03T10:43:57.000Z</time>
      </trkpt>
      <trkpt lat="47.7643" lon="6.7404">
        <ele>535.65</ele>
        <time>2018-11-03T10:44:02.000Z</time>
      </trkpt>
      <trkpt lat="47.76425" lon="6.74065">
        <ele>532.8</ele>
        <time>2018-11-03T10:44:07.000Z</time>
      </trkpt>
      <trkpt lat="47.76417" lon="6.74085">
        <ele>529.95</ele>
        <time>2018-11-03T10:44:12.000Z</time>
      </trkpt>
      <trkpt lat="47.76409" lon="6.74098">
        <ele>527.54</ele>
        <time>2018-11-03T10:44:17.000Z</time>
      </trkpt>
      <trkpt lat="47.76418" lon="6.74101">
        <ele>525.12</ele>
        <time>2018-11-03T10:44:22.000Z</time>
      </trkpt>
      <trkpt lat="47.76431" lon="6.74097">
        <ele>522.71</ele>
        <time>2018-11-03T10:44:27.000Z</time>
      </trkpt>
      <trkpt lat="47.76431" lon="6.74094">
        <ele>523.47</ele>
        <time>2018-11-03T10:44:32.000Z</time>
      </trkpt>
      <trkpt lat="47.76429" lon="6.74092">
        <ele>524.23</ele>
        <time>2018-11-03T10:44:37.000Z</time>
      </trkpt>
      <trkpt lat="47.76429" lon="6.74091">
        <ele>525</ele>
        <time>2018-11-03T10:44:42.000Z</time>
      </trkpt>
      <trkpt lat="47.76427" lon="6.7409">
        <ele>523.27</ele>
        <time>2018-11-03T10:44:47.000Z</time>
      </trkpt>
      <trkpt lat="47.76427" lon="6.7409">
        <ele>521.54</ele>
        <time>2018-11-03T10:44:52.000Z</time>
      </trkpt>
      <trkpt lat="47.76426" lon="6.74088">
        <ele>519.82</ele>
        <time>2018-11-03T10:44:57.000Z</time>
      </trkpt>
      <trkpt lat="47.7644" lon="6.74094">
        <ele>516.13</ele>
        <time>2018-11-03T10:45:02.000Z</time>
      </trkpt>
      <trkpt lat="47.76461" lon="6.741">
        <ele>512.44</ele>
        <time>2018-11-03T10:45:07.000Z</time>
      </trkpt>
      <trkpt lat="47.76471" lon="6.7411">
        <ele>508.75</ele>
        <time>2018-11-03T10:45:12.000Z</time>
      </trkpt>
      <trkpt lat="47.76468" lon="6.74128">
        <ele>507.38</ele>
        <time>2018-11-03T10:45:17.000Z</time>
      </trkpt>
      <trkpt lat="47.76467" lon="6.74163">
        <ele>506.01</ele>
        <time>2018-11-03T10:45:22.000Z</time>
      </trkpt>
      <trkpt lat="47.7645" lon="6.74172">
        <ele>504.65</ele>
        <time>2018-11-03T10:45:27.000Z</time>
      </trkpt>
      <trkpt lat="47.7643" lon="6.74173">
        <ele>503.75</ele>
        <time>2018-11-03T10:45:32.000Z</time>
      </trkpt>
      <trkpt lat="47.76408" lon="6.74183">
        <ele>502.86</ele>
        <time>2018-11-03T10:45:37.000Z</time>
      </trkpt>
      <trkpt lat="47.76385" lon="6.74196">
        <ele>501.96</ele>
        <time>2018-11-03T10:45:42.000Z</time>
      </trkpt>
      <trkpt lat="47.76364" lon="6.74206">
        <ele>501.82</ele>
        <time>2018-11-03T10:45:47.000Z</time>
      </trkpt>
      <trkpt lat="47.76345" lon="6.74211">
        <ele>501.67</ele>
        <time>2018-11-03T10:45:52.000Z</time>
      </trkpt>
      <trkpt lat="47.76327" lon="6.74215">
        <ele>501.53</ele>
        <time>2018-11-03T10:45:57.000Z</time>
      </trkpt>
      <trkpt lat="47.76301" lon="6.74217">
        <ele>501.7</ele>
        <time>2018-11-03T10:46:02.000Z</time>
      </trkpt>
      <trkpt lat="47.76275" lon="6.74219">
        <ele>501.88</ele>
        <time>2018-11-03T10:46:07.000Z</time>
      </trkpt>
      <trkpt lat="47.76248" lon="6.74219">
        <ele>502.06</ele>
        <time>2018-11-03T10:46:12.000Z</time>
      </trkpt>
      <trkpt lat="47.76223" lon="6.74227">
        <ele>500.54</ele>
        <time>2018-11-03T10:46:17.000Z</time>
      </trkpt>
      <trkpt lat="47.76198" lon="6.7424">
        <ele>499.03</ele>
        <time>2018-11-03T10:46:22.000Z</time>
      </trkpt>
      <trkpt lat="47.76171" lon="6.74252">
        <ele>497.52</ele>
        <time>2018-11-03T10:46:27.000Z</time>
      </trkpt>
      <trkpt lat="47.76146" lon="6.7425">
        <ele>497.02</ele>
        <time>2018-11-03T10:46:32.000Z</time>
      </trkpt>
      <trkpt lat="47.76125" lon="6.74233">
        <ele>496.52</ele>
        <time>2018-11-03T10:46:37.000Z</time>
      </trkpt>
      <trkpt lat="47.7611" lon="6.74205">
        <ele>496.03</ele>
        <time>2018-11-03T10:46:42.000Z</time>
      </trkpt>
      <trkpt lat="47.76097" lon="6.74177">
        <ele>496.08</ele>
        <time>2018-11-03T10:46:47.000Z</time>
      </trkpt>
      <trkpt lat="47.76081" lon="6.74154">
        <ele>496.13</ele>
        <time>2018-11-03T10:46:52.000Z</time>
      </trkpt>
      <trkpt lat="47.76058" lon="6.74138">
        <ele>496.18</ele>
        <time>2018-11-03T10:46:57.000Z</time>
      </trkpt>
      <trkpt lat="47.76032" lon="6.74126">
        <ele>495.57</ele>
        <time>2018-11-03T10:47:02.000Z</time>
      </trkpt>
      <trkpt lat="47.76014" lon="6.74114">
        <ele>494.95</ele>
        <time>2018-11-03T10:47:07.000Z</time>
      </trkpt>
      <trkpt lat="47.7599" lon="6.74103">
        <ele>494.34</ele>
        <time>2018-11-03T10:47:12.000Z</time>
      </trkpt>
      <trkpt lat="47.75967" lon="6.74079">
        <ele>493.95</ele>
        <time>2018-11-03T10:47:17.000Z</time>
      </trkpt>
      <trkpt lat="47.75945" lon="6.74052">
        <ele>493.57</ele>
        <time>2018-11-03T10:47:22.000Z</time>
      </trkpt>
      <trkpt lat="47.75921" lon="6.74024">
        <ele>493.19</ele>
        <time>2018-11-03T10:47:27.000Z</time>
      </trkpt>
      <trkpt lat="47.75895" lon="6.73999">
        <ele>492.12</ele>
        <time>2018-11-03T10:47:32.000Z</time>
      </trkpt>
      <trkpt lat="47.75867" lon="6.73979">
        <ele>491.05</ele>
        <time>2018-11-03T10:47:37.000Z</time>
      </trkpt>
      <trkpt lat="47.75837" lon="6.73958">
        <ele>489.98</ele>
        <time>2018-11-03T10:47:42.000Z</time>
      </trkpt>
      <trkpt lat="47.7581" lon="6.73929">
        <ele>489.98</ele>
        <time>2018-11-03T10:47:47.000Z</time>
      </trkpt>
      <trkpt lat="47.75783" lon="6.73895">
        <ele>489.99</ele>
        <time>2018-11-03T10:47:52.000Z</time>
      </trkpt>
      <trkpt lat="47.7579" lon="6.73868">
        <ele>489.99</ele>
        <time>2018-11-03T10:47:57.000Z</time>
      </trkpt>
      <trkpt lat="47.75799" lon="6.73844">
        <ele>490.2</ele>
        <time>2018-11-03T10:48:02.000Z</time>
      </trkpt>
      <trkpt lat="47.75804" lon="6.73828">
        <ele>490.41</ele>
        <time>2018-11-03T10:48:07.000Z</time>
      </trkpt>
      <trkpt lat="47.75804" lon="6.73827">
        <ele>490.61</ele>
        <time>2018-11-03T10:48:12.000Z</time>
      </trkpt>
      <trkpt lat="47.75805" lon="6.73826">
        <ele>490.62</ele>
        <time>2018-11-03T10:48:17.000Z</time>
      </trkpt>
      <trkpt lat="47.75805" lon="6.73823">
        <ele>490.64</ele>
        <time>2018-11-03T10:48:22.000Z</time>
      </trkpt>
      <trkpt lat="47.75804" lon="6.73823">
        <ele>490.65</ele>
        <time>2018-11-03T10:48:27.000Z</time>
      </trkpt>
      <trkpt lat="47.75804" lon="6.73824">
        <ele>490.65</ele>
        <time>2018-11-03T10:48:32.000Z</time>
      </trkpt>
      <trkpt lat="47.75804" lon="6.73823">
        <ele>490.64</ele>
        <time>2018-11-03T10:48:37.000Z</time>
      </trkpt>
      <trkpt lat="47.75804" lon="6.73825">
        <ele>490.64</ele>
        <time>2018-11-03T10:48:42.000Z</time>
      </trkpt>
      <trkpt lat="47.75804" lon="6.73824">
        <ele>490.6</ele>
        <time>2018-11-03T10:48:47.000Z</time>
      </trkpt>
      <trkpt lat="47.75803" lon="6.73824">
        <ele>490.56</ele>
        <time>2018-11-03T10:48:52.000Z</time>
      </trkpt>
      <trkpt lat="47.75804" lon="6.73825">
        <ele>490.52</ele>
        <time>2018-11-03T10:48:57.000Z</time>
      </trkpt>
      <trkpt lat="47.75804" lon="6.73827">
        <ele>490.56</ele>
        <time>2018-11-03T10:49:02.000Z</time>
      </trkpt>
      <trkpt lat="47.75804" lon="6.73827">
        <ele>490.6</ele>
        <time>2018-11-03T10:49:07.000Z</time>
      </trkpt>
      <trkpt lat="47.75803" lon="6.73825">
        <ele>490.64</ele>
        <time>2018-11-03T10:49:12.000Z</time>
      </trkpt>
      <trkpt lat="47.75804" lon="6.73824">
        <ele>490.6</ele>
        <time>2018-11-03T10:49:17.000Z</time>
      </trkpt>
      <trkpt lat="47.75803" lon="6.73822">
        <ele>490.57</ele>
        <time>2018-11-03T10:49:22.000Z</time>
      </trkpt>
      <trkpt lat="47.75802" lon="6.73821">
        <ele>490.53</ele>
        <time>2018-11-03T10:49:27.000Z</time>
      </trkpt>
      <trkpt lat="47.758" lon="6.73821">
        <ele>490.49</ele>
        <time>2018-11-03T10:49:32.000Z</time>
      </trkpt>
      <trkpt lat="47.75799" lon="6.73825">
        <ele>490.44</ele>
        <time>2018-11-03T10:49:37.000Z</time>
      </trkpt>
      <trkpt lat="47.75799" lon="6.73827">
        <ele>490.39</ele>
        <time>2018-11-03T10:49:42.000Z</time>
      </trkpt>
      <trkpt lat="47.75798" lon="6.73828">
        <ele>490.29</ele>
        <time>2018-11-03T10:49:47.000Z</time>
      </trkpt>
      <trkpt lat="47.75798" lon="6.73829">
        <ele>490.19</ele>
        <time>2018-11-03T10:49:52.000Z</time>
      </trkpt>
      <trkpt lat="47.75798" lon="6.73829">
        <ele>490.09</ele>
        <time>2018-11-03T10:49:57.000Z</time>
      </trkpt>
      <trkpt lat="47.75797" lon="6.73845">
        <ele>489.29</ele>
        <time>2018-11-03T10:50:02.000Z</time>
      </trkpt>
      <trkpt lat="47.75788" lon="6.73869">
        <ele>488.5</ele>
        <time>2018-11-03T10:50:07.000Z</time>
      </trkpt>
      <trkpt lat="47.7578" lon="6.7389">
        <ele>487.71</ele>
        <time>2018-11-03T10:50:12.000Z</time>
      </trkpt>
      <trkpt lat="47.75762" lon="6.73873">
        <ele>487.98</ele>
        <time>2018-11-03T10:50:17.000Z</time>
      </trkpt>
      <trkpt lat="47.75744" lon="6.73845">
        <ele>488.25</ele>
        <time>2018-11-03T10:50:22.000Z</time>
      </trkpt>
      <trkpt lat="47.75723" lon="6.73821">
        <ele>488.52</ele>
        <time>2018-11-03T10:50:27.000Z</time>
      </trkpt>
      <trkpt lat="47.75696" lon="6.73805">
        <ele>488.47</ele>
        <time>2018-11-03T10:50:32.000Z</time>
      </trkpt>
      <trkpt lat="47.75666" lon="6.73802">
        <ele>488.42</ele>
        <time>2018-11-03T10:50:37.000Z</time>
      </trkpt>
      <trkpt lat="47.75641" lon="6.73801">
        <ele>488.37</ele>
        <time>2018-11-03T10:50:42.000Z</time>
      </trkpt>
      <trkpt lat="47.75609" lon="6.73793">
        <ele>487.73</ele>
        <time>2018-11-03T10:50:47.000Z</time>
      </trkpt>
      <trkpt lat="47.75584" lon="6.7377">
        <ele>487.08</ele>
        <time>2018-11-03T10:50:52.000Z</time>
      </trkpt>
      <trkpt lat="47.75565" lon="6.73735">
        <ele>486.44</ele>
        <time>2018-11-03T10:50:57.000Z</time>
      </trkpt>
      <trkpt lat="47.75559" lon="6.73689">
        <ele>486.08</ele>
        <time>2018-11-03T10:51:02.000Z</time>
      </trkpt>
      <trkpt lat="47.75555" lon="6.73644">
        <ele>485.72</ele>
        <time>2018-11-03T10:51:07.000Z</time>
      </trkpt>
      <trkpt lat="47.75552" lon="6.736">
        <ele>485.36</ele>
        <time>2018-11-03T10:51:12.000Z</time>
      </trkpt>
      <trkpt lat="47.75548" lon="6.73559">
        <ele>485.48</ele>
        <time>2018-11-03T10:51:17.000Z</time>
      </trkpt>
      <trkpt lat="47.75536" lon="6.73521">
        <ele>485.6</ele>
        <time>2018-11-03T10:51:22.000Z</time>
      </trkpt>
      <trkpt lat="47.75521" lon="6.73486">
        <ele>485.72</ele>
        <time>2018-11-03T10:51:27.000Z</time>
      </trkpt>
      <trkpt lat="47.75502" lon="6.73454">
        <ele>485.05</ele>
        <time>2018-11-03T10:51:32.000Z</time>
      </trkpt>
      <trkpt lat="47.75479" lon="6.73421">
        <ele>484.37</ele>
        <time>2018-11-03T10:51:37.000Z</time>
      </trkpt>
      <trkpt lat="47.75459" lon="6.73389">
        <ele>483.7</ele>
        <time>2018-11-03T10:51:42.000Z</time>
      </trkpt>
      <trkpt lat="47.75437" lon="6.73355">
        <ele>483.54</ele>
        <time>2018-11-03T10:51:47.000Z</time>
      </trkpt>
      <trkpt lat="47.75416" lon="6.73321">
        <ele>483.38</ele>
        <time>2018-11-03T10:51:52.000Z</time>
      </trkpt>
      <trkpt lat="47.75391" lon="6.73292">
        <ele>483.22</ele>
        <time>2018-11-03T10:51:57.000Z</time>
      </trkpt>
      <trkpt lat="47.75361" lon="6.73271">
        <ele>483.21</ele>
        <time>2018-11-03T10:52:02.000Z</time>
      </trkpt>
      <trkpt lat="47.75328" lon="6.73252">
        <ele>483.19</ele>
        <time>2018-11-03T10:52:07.000Z</time>
      </trkpt>
      <trkpt lat="47.75292" lon="6.73235">
        <ele>483.17</ele>
        <time>2018-11-03T10:52:12.000Z</time>
      </trkpt>
      <trkpt lat="47.75257" lon="6.73214">
        <ele>482.09</ele>
        <time>2018-11-03T10:52:17.000Z</time>
      </trkpt>
      <trkpt lat="47.75227" lon="6.73187">
        <ele>481</ele>
        <time>2018-11-03T10:52:22.000Z</time>
      </trkpt>
      <trkpt lat="47.75197" lon="6.73159">
        <ele>479.92</ele>
        <time>2018-11-03T10:52:27.000Z</time>
      </trkpt>
      <trkpt lat="47.75166" lon="6.7313">
        <ele>478.8</ele>
        <time>2018-11-03T10:52:32.000Z</time>
      </trkpt>
      <trkpt lat="47.75131" lon="6.73105">
        <ele>477.69</ele>
        <time>2018-11-03T10:52:37.000Z</time>
      </trkpt>
      <trkpt lat="47.75088" lon="6.73084">
        <ele>476.58</ele>
        <time>2018-11-03T10:52:42.000Z</time>
      </trkpt>
      <trkpt lat="47.75051" lon="6.73071">
        <ele>476.07</ele>
        <time>2018-11-03T10:52:47.000Z</time>
      </trkpt>
      <trkpt lat="47.75013" lon="6.7307">
        <ele>475.56</ele>
        <time>2018-11-03T10:52:52.000Z</time>
      </trkpt>
      <trkpt lat="47.74978" lon="6.73069">
        <ele>475.04</ele>
        <time>2018-11-03T10:52:57.000Z</time>
      </trkpt>
      <trkpt lat="47.74945" lon="6.73058">
        <ele>474.52</ele>
        <time>2018-11-03T10:53:02.000Z</time>
      </trkpt>
      <trkpt lat="47.74913" lon="6.73045">
        <ele>473.99</ele>
        <time>2018-11-03T10:53:07.000Z</time>
      </trkpt>
      <trkpt lat="47.74892" lon="6.73039">
        <ele>473.47</ele>
        <time>2018-11-03T10:53:12.000Z</time>
      </trkpt>
      <trkpt lat="47.74844" lon="6.73037">
        <ele>472.87</ele>
        <time>2018-11-03T10:53:17.000Z</time>
      </trkpt>
      <trkpt lat="47.74817" lon="6.73042">
        <ele>472.26</ele>
        <time>2018-11-03T10:53:22.000Z</time>
      </trkpt>
      <trkpt lat="47.74783" lon="6.73053">
        <ele>471.66</ele>
        <time>2018-11-03T10:53:27.000Z</time>
      </trkpt>
      <trkpt lat="47.74747" lon="6.73052">
        <ele>470.7</ele>
        <time>2018-11-03T10:53:32.000Z</time>
      </trkpt>
      <trkpt lat="47.74716" lon="6.73018">
        <ele>469.74</ele>
        <time>2018-11-03T10:53:37.000Z</time>
      </trkpt>
      <trkpt lat="47.74687" lon="6.72981">
        <ele>468.79</ele>
        <time>2018-11-03T10:53:42.000Z</time>
      </trkpt>
      <trkpt lat="47.74661" lon="6.72965">
        <ele>469.55</ele>
        <time>2018-11-03T10:53:47.000Z</time>
      </trkpt>
      <trkpt lat="47.74637" lon="6.72984">
        <ele>470.31</ele>
        <time>2018-11-03T10:53:52.000Z</time>
      </trkpt>
      <trkpt lat="47.74641" lon="6.73022">
        <ele>471.08</ele>
        <time>2018-11-03T10:53:57.000Z</time>
      </trkpt>
      <trkpt lat="47.74652" lon="6.73056">
        <ele>475.82</ele>
        <time>2018-11-03T10:54:02.000Z</time>
      </trkpt>
      <trkpt lat="47.74662" lon="6.7309">
        <ele>480.56</ele>
        <time>2018-11-03T10:54:07.000Z</time>
      </trkpt>
      <trkpt lat="47.74669" lon="6.73121">
        <ele>485.3</ele>
        <time>2018-11-03T10:54:12.000Z</time>
      </trkpt>
      <trkpt lat="47.74672" lon="6.7314">
        <ele>488.35</ele>
        <time>2018-11-03T10:54:17.000Z</time>
      </trkpt>
      <trkpt lat="47.74674" lon="6.73149">
        <ele>491.39</ele>
        <time>2018-11-03T10:54:22.000Z</time>
      </trkpt>
      <trkpt lat="47.74672" lon="6.73155">
        <ele>494.44</ele>
        <time>2018-11-03T10:54:27.000Z</time>
      </trkpt>
      <trkpt lat="47.74665" lon="6.73157">
        <ele>494.31</ele>
        <time>2018-11-03T10:54:32.000Z</time>
      </trkpt>
      <trkpt lat="47.74658" lon="6.73159">
        <ele>494.19</ele>
        <time>2018-11-03T10:54:37.000Z</time>
      </trkpt>
      <trkpt lat="47.74652" lon="6.73151">
        <ele>494.06</ele>
        <time>2018-11-03T10:54:42.000Z</time>
      </trkpt>
      <trkpt lat="47.74646" lon="6.73146">
        <ele>491.6</ele>
        <time>2018-11-03T10:54:47.000Z</time>
      </trkpt>
      <trkpt lat="47.74639" lon="6.73143">
        <ele>489.15</ele>
        <time>2018-11-03T10:54:52.000Z</time>
      </trkpt>
      <trkpt lat="47.74631" lon="6.73138">
        <ele>486.69</ele>
        <time>2018-11-03T10:54:57.000Z</time>
      </trkpt>
      <trkpt lat="47.7462" lon="6.73136">
        <ele>487.55</ele>
        <time>2018-11-03T10:55:02.000Z</time>
      </trkpt>
      <trkpt lat="47.74612" lon="6.73144">
        <ele>488.4</ele>
        <time>2018-11-03T10:55:07.000Z</time>
      </trkpt>
      <trkpt lat="47.74603" lon="6.7315">
        <ele>489.25</ele>
        <time>2018-11-03T10:55:12.000Z</time>
      </trkpt>
      <trkpt lat="47.74592" lon="6.7315">
        <ele>492.25</ele>
        <time>2018-11-03T10:55:17.000Z</time>
      </trkpt>
      <trkpt lat="47.74583" lon="6.73148">
        <ele>495.26</ele>
        <time>2018-11-03T10:55:22.000Z</time>
      </trkpt>
      <trkpt lat="47.74577" lon="6.73149">
        <ele>498.26</ele>
        <time>2018-11-03T10:55:27.000Z</time>
      </trkpt>
      <trkpt lat="47.74572" lon="6.7315">
        <ele>500.77</ele>
        <time>2018-11-03T10:55:32.000Z</time>
      </trkpt>
      <trkpt lat="47.74568" lon="6.73155">
        <ele>503.29</ele>
        <time>2018-11-03T10:55:37.000Z</time>
      </trkpt>
      <trkpt lat="47.74559" lon="6.73154">
        <ele>505.8</ele>
        <time>2018-11-03T10:55:42.000Z</time>
      </trkpt>
      <trkpt lat="47.74553" lon="6.7315">
        <ele>506.1</ele>
        <time>2018-11-03T10:55:47.000Z</time>
      </trkpt>
      <trkpt lat="47.74546" lon="6.73149">
        <ele>506.4</ele>
        <time>2018-11-03T10:55:52.000Z</time>
      </trkpt>
      <trkpt lat="47.74538" lon="6.73146">
        <ele>506.69</ele>
        <time>2018-11-03T10:55:57.000Z</time>
      </trkpt>
      <trkpt lat="47.7453" lon="6.73142">
        <ele>505.95</ele>
        <time>2018-11-03T10:56:02.000Z</time>
      </trkpt>
      <trkpt lat="47.74522" lon="6.73137">
        <ele>505.21</ele>
        <time>2018-11-03T10:56:07.000Z</time>
      </trkpt>
      <trkpt lat="47.74513" lon="6.73132">
        <ele>504.47</ele>
        <time>2018-11-03T10:56:12.000Z</time>
      </trkpt>
      <trkpt lat="47.74504" lon="6.73131">
        <ele>503.98</ele>
        <time>2018-11-03T10:56:17.000Z</time>
      </trkpt>
      <trkpt lat="47.74497" lon="6.7313">
        <ele>503.48</ele>
        <time>2018-11-03T10:56:22.000Z</time>
      </trkpt>
      <trkpt lat="47.74491" lon="6.73122">
        <ele>502.99</ele>
        <time>2018-11-03T10:56:27.000Z</time>
      </trkpt>
      <trkpt lat="47.7448" lon="6.73113">
        <ele>503.33</ele>
        <time>2018-11-03T10:56:32.000Z</time>
      </trkpt>
      <trkpt lat="47.74471" lon="6.7311">
        <ele>503.68</ele>
        <time>2018-11-03T10:56:37.000Z</time>
      </trkpt>
      <trkpt lat="47.74465" lon="6.73108">
        <ele>504.02</ele>
        <time>2018-11-03T10:56:42.000Z</time>
      </trkpt>
      <trkpt lat="47.74462" lon="6.73107">
        <ele>504.51</ele>
        <time>2018-11-03T10:56:47.000Z</time>
      </trkpt>
      <trkpt lat="47.74461" lon="6.73106">
        <ele>505</ele>
        <time>2018-11-03T10:56:52.000Z</time>
      </trkpt>
      <trkpt lat="47.74459" lon="6.73108">
        <ele>505.49</ele>
        <time>2018-11-03T10:56:57.000Z</time>
      </trkpt>
      <trkpt lat="47.74457" lon="6.73109">
        <ele>506.86</ele>
        <time>2018-11-03T10:57:02.000Z</time>
      </trkpt>
      <trkpt lat="47.74456" lon="6.73109">
        <ele>508.24</ele>
        <time>2018-11-03T10:57:07.000Z</time>
      </trkpt>
      <trkpt lat="47.74454" lon="6.73113">
        <ele>509.61</ele>
        <time>2018-11-03T10:57:12.000Z</time>
      </trkpt>
      <trkpt lat="47.74451" lon="6.73117">
        <ele>510.89</ele>
        <time>2018-11-03T10:57:17.000Z</time>
      </trkpt>
      <trkpt lat="47.7445" lon="6.7312">
        <ele>512.17</ele>
        <time>2018-11-03T10:57:22.000Z</time>
      </trkpt>
      <trkpt lat="47.74446" lon="6.73122">
        <ele>513.45</ele>
        <time>2018-11-03T10:57:27.000Z</time>
      </trkpt>
      <trkpt lat="47.74442" lon="6.73126">
        <ele>514.15</ele>
        <time>2018-11-03T10:57:32.000Z</time>
      </trkpt>
      <trkpt lat="47.74438" lon="6.73128">
        <ele>514.84</ele>
        <time>2018-11-03T10:57:37.000Z</time>
      </trkpt>
      <trkpt lat="47.74435" lon="6.73133">
        <ele>515.54</ele>
        <time>2018-11-03T10:57:42.000Z</time>
      </trkpt>
      <trkpt lat="47.74434" lon="6.73138">
        <ele>516.1</ele>
        <time>2018-11-03T10:57:47.000Z</time>
      </trkpt>
      <trkpt lat="47.74437" lon="6.73139">
        <ele>516.66</ele>
        <time>2018-11-03T10:57:52.000Z</time>
      </trkpt>
      <trkpt lat="47.7444" lon="6.73139">
        <ele>517.23</ele>
        <time>2018-11-03T10:57:57.000Z</time>
      </trkpt>
      <trkpt lat="47.74441" lon="6.7314">
        <ele>517.14</ele>
        <time>2018-11-03T10:58:02.000Z</time>
      </trkpt>
      <trkpt lat="47.74443" lon="6.73141">
        <ele>517.06</ele>
        <time>2018-11-03T10:58:07.000Z</time>
      </trkpt>
      <trkpt lat="47.74442" lon="6.73138">
        <ele>516.98</ele>
        <time>2018-11-03T10:58:12.000Z</time>
      </trkpt>
      <trkpt lat="47.74441" lon="6.73139">
        <ele>514.47</ele>
        <time>2018-11-03T10:58:17.000Z</time>
      </trkpt>
      <trkpt lat="47.74435" lon="6.7314">
        <ele>511.95</ele>
        <time>2018-11-03T10:58:22.000Z</time>
      </trkpt>
      <trkpt lat="47.74425" lon="6.73137">
        <ele>509.44</ele>
        <time>2018-11-03T10:58:27.000Z</time>
      </trkpt>
      <trkpt lat="47.74412" lon="6.73133">
        <ele>507.85</ele>
        <time>2018-11-03T10:58:32.000Z</time>
      </trkpt>
      <trkpt lat="47.74401" lon="6.7313">
        <ele>506.26</ele>
        <time>2018-11-03T10:58:37.000Z</time>
      </trkpt>
      <trkpt lat="47.74393" lon="6.73128">
        <ele>504.68</ele>
        <time>2018-11-03T10:58:42.000Z</time>
      </trkpt>
      <trkpt lat="47.74388" lon="6.73127">
        <ele>503.71</ele>
        <time>2018-11-03T10:58:47.000Z</time>
      </trkpt>
      <trkpt lat="47.74383" lon="6.73124">
        <ele>502.75</ele>
        <time>2018-11-03T10:58:52.000Z</time>
      </trkpt>
      <trkpt lat="47.74378" lon="6.7312">
        <ele>501.78</ele>
        <time>2018-11-03T10:58:57.000Z</time>
      </trkpt>
      <trkpt lat="47.74371" lon="6.73118">
        <ele>498.81</ele>
        <time>2018-11-03T10:59:02.000Z</time>
      </trkpt>
      <trkpt lat="47.74354" lon="6.73104">
        <ele>495.84</ele>
        <time>2018-11-03T10:59:07.000Z</time>
      </trkpt>
      <trkpt lat="47.74334" lon="6.73113">
        <ele>492.87</ele>
        <time>2018-11-03T10:59:12.000Z</time>
      </trkpt>
      <trkpt lat="47.74321" lon="6.73137">
        <ele>493.25</ele>
        <time>2018-11-03T10:59:17.000Z</time>
      </trkpt>
      <trkpt lat="47.74317" lon="6.73148">
        <ele>493.62</ele>
        <time>2018-11-03T10:59:22.000Z</time>
      </trkpt>
      <trkpt lat="47.74309" lon="6.73158">
        <ele>494</ele>
        <time>2018-11-03T10:59:27.000Z</time>
      </trkpt>
      <trkpt lat="47.74301" lon="6.73165">
        <ele>492.71</ele>
        <time>2018-11-03T10:59:32.000Z</time>
      </trkpt>
      <trkpt lat="47.7429" lon="6.73175">
        <ele>491.41</ele>
        <time>2018-11-03T10:59:37.000Z</time>
      </trkpt>
      <trkpt lat="47.7428" lon="6.73193">
        <ele>490.12</ele>
        <time>2018-11-03T10:59:42.000Z</time>
      </trkpt>
      <trkpt lat="47.74267" lon="6.73229">
        <ele>492.87</ele>
        <time>2018-11-03T10:59:47.000Z</time>
      </trkpt>
      <trkpt lat="47.74265" lon="6.73275">
        <ele>495.61</ele>
        <time>2018-11-03T10:59:52.000Z</time>
      </trkpt>
      <trkpt lat="47.74263" lon="6.73305">
        <ele>498.35</ele>
        <time>2018-11-03T10:59:57.000Z</time>
      </trkpt>
      <trkpt lat="47.74253" lon="6.73324">
        <ele>497.31</ele>
        <time>2018-11-03T11:00:02.000Z</time>
      </trkpt>
      <trkpt lat="47.74237" lon="6.73346">
        <ele>496.26</ele>
        <time>2018-11-03T11:00:07.000Z</time>
      </trkpt>
      <trkpt lat="47.74218" lon="6.73383">
        <ele>495.21</ele>
        <time>2018-11-03T11:00:12.000Z</time>
      </trkpt>
      <trkpt lat="47.74198" lon="6.73416">
        <ele>493.8</ele>
        <time>2018-11-03T11:00:17.000Z</time>
      </trkpt>
      <trkpt lat="47.74184" lon="6.73439">
        <ele>492.38</ele>
        <time>2018-11-03T11:00:22.000Z</time>
      </trkpt>
      <trkpt lat="47.74164" lon="6.73468">
        <ele>490.97</ele>
        <time>2018-11-03T11:00:27.000Z</time>
      </trkpt>
      <trkpt lat="47.74158" lon="6.735">
        <ele>493.76</ele>
        <time>2018-11-03T11:00:32.000Z</time>
      </trkpt>
      <trkpt lat="47.74154" lon="6.73523">
        <ele>496.54</ele>
        <time>2018-11-03T11:00:37.000Z</time>
      </trkpt>
      <trkpt lat="47.74147" lon="6.73548">
        <ele>499.33</ele>
        <time>2018-11-03T11:00:42.000Z</time>
      </trkpt>
      <trkpt lat="47.74141" lon="6.73568">
        <ele>500.55</ele>
        <time>2018-11-03T11:00:47.000Z</time>
      </trkpt>
      <trkpt lat="47.74135" lon="6.73586">
        <ele>501.77</ele>
        <time>2018-11-03T11:00:52.000Z</time>
      </trkpt>
      <trkpt lat="47.74133" lon="6.736">
        <ele>502.99</ele>
        <time>2018-11-03T11:00:57.000Z</time>
      </trkpt>
      <trkpt lat="47.7413" lon="6.73611">
        <ele>503.3</ele>
        <time>2018-11-03T11:01:02.000Z</time>
      </trkpt>
      <trkpt lat="47.74128" lon="6.73625">
        <ele>503.62</ele>
        <time>2018-11-03T11:01:07.000Z</time>
      </trkpt>
      <trkpt lat="47.7412" lon="6.73635">
        <ele>503.94</ele>
        <time>2018-11-03T11:01:12.000Z</time>
      </trkpt>
      <trkpt lat="47.74114" lon="6.73646">
        <ele>504.58</ele>
        <time>2018-11-03T11:01:17.000Z</time>
      </trkpt>
      <trkpt lat="47.74111" lon="6.73657">
        <ele>505.23</ele>
        <time>2018-11-03T11:01:22.000Z</time>
      </trkpt>
      <trkpt lat="47.74107" lon="6.73668">
        <ele>505.87</ele>
        <time>2018-11-03T11:01:27.000Z</time>
      </trkpt>
      <trkpt lat="47.74101" lon="6.73682">
        <ele>506.36</ele>
        <time>2018-11-03T11:01:32.000Z</time>
      </trkpt>
      <trkpt lat="47.74094" lon="6.737">
        <ele>506.85</ele>
        <time>2018-11-03T11:01:37.000Z</time>
      </trkpt>
      <trkpt lat="47.74088" lon="6.7371">
        <ele>507.34</ele>
        <time>2018-11-03T11:01:42.000Z</time>
      </trkpt>
      <trkpt lat="47.74084" lon="6.73721">
        <ele>507.99</ele>
        <time>2018-11-03T11:01:47.000Z</time>
      </trkpt>
      <trkpt lat="47.74079" lon="6.73732">
        <ele>508.63</ele>
        <time>2018-11-03T11:01:52.000Z</time>
      </trkpt>
      <trkpt lat="47.74076" lon="6.73742">
        <ele>509.27</ele>
        <time>2018-11-03T11:01:57.000Z</time>
      </trkpt>
      <trkpt lat="47.74072" lon="6.73753">
        <ele>509.79</ele>
        <time>2018-11-03T11:02:02.000Z</time>
      </trkpt>
      <trkpt lat="47.74068" lon="6.73761">
        <ele>510.3</ele>
        <time>2018-11-03T11:02:07.000Z</time>
      </trkpt>
      <trkpt lat="47.74062" lon="6.73769">
        <ele>510.82</ele>
        <time>2018-11-03T11:02:12.000Z</time>
      </trkpt>
      <trkpt lat="47.74054" lon="6.73779">
        <ele>511.15</ele>
        <time>2018-11-03T11:02:17.000Z</time>
      </trkpt>
      <trkpt lat="47.74044" lon="6.73793">
        <ele>511.48</ele>
        <time>2018-11-03T11:02:22.000Z</time>
      </trkpt>
      <trkpt lat="47.74036" lon="6.73808">
        <ele>511.82</ele>
        <time>2018-11-03T11:02:27.000Z</time>
      </trkpt>
      <trkpt lat="47.74024" lon="6.73822">
        <ele>512.6</ele>
        <time>2018-11-03T11:02:32.000Z</time>
      </trkpt>
      <trkpt lat="47.74018" lon="6.73835">
        <ele>513.38</ele>
        <time>2018-11-03T11:02:37.000Z</time>
      </trkpt>
      <trkpt lat="47.74014" lon="6.73855">
        <ele>514.17</ele>
        <time>2018-11-03T11:02:42.000Z</time>
      </trkpt>
      <trkpt lat="47.74012" lon="6.73867">
        <ele>514.81</ele>
        <time>2018-11-03T11:02:47.000Z</time>
      </trkpt>
      <trkpt lat="47.74008" lon="6.7388">
        <ele>515.45</ele>
        <time>2018-11-03T11:02:52.000Z</time>
      </trkpt>
      <trkpt lat="47.74004" lon="6.7389">
        <ele>516.09</ele>
        <time>2018-11-03T11:02:57.000Z</time>
      </trkpt>
      <trkpt lat="47.74004" lon="6.7389">
        <ele>516.94</ele>
        <time>2018-11-03T11:03:02.000Z</time>
      </trkpt>
      <trkpt lat="47.74006" lon="6.73896">
        <ele>517.8</ele>
        <time>2018-11-03T11:03:07.000Z</time>
      </trkpt>
      <trkpt lat="47.74007" lon="6.73906">
        <ele>518.65</ele>
        <time>2018-11-03T11:03:12.000Z</time>
      </trkpt>
      <trkpt lat="47.74003" lon="6.73918">
        <ele>519.59</ele>
        <time>2018-11-03T11:03:17.000Z</time>
      </trkpt>
      <trkpt lat="47.73999" lon="6.7393">
        <ele>520.53</ele>
        <time>2018-11-03T11:03:22.000Z</time>
      </trkpt>
      <trkpt lat="47.73998" lon="6.73944">
        <ele>521.48</ele>
        <time>2018-11-03T11:03:27.000Z</time>
      </trkpt>
      <trkpt lat="47.73998" lon="6.73958">
        <ele>522.41</ele>
        <time>2018-11-03T11:03:32.000Z</time>
      </trkpt>
      <trkpt lat="47.73998" lon="6.73974">
        <ele>523.34</ele>
        <time>2018-11-03T11:03:37.000Z</time>
      </trkpt>
      <trkpt lat="47.74" lon="6.73989">
        <ele>524.27</ele>
        <time>2018-11-03T11:03:42.000Z</time>
      </trkpt>
      <trkpt lat="47.73998" lon="6.73999">
        <ele>524.35</ele>
        <time>2018-11-03T11:03:47.000Z</time>
      </trkpt>
      <trkpt lat="47.73992" lon="6.74005">
        <ele>524.43</ele>
        <time>2018-11-03T11:03:52.000Z</time>
      </trkpt>
      <trkpt lat="47.73982" lon="6.74013">
        <ele>524.51</ele>
        <time>2018-11-03T11:03:57.000Z</time>
      </trkpt>
      <trkpt lat="47.73972" lon="6.74018">
        <ele>524.25</ele>
        <time>2018-11-03T11:04:02.000Z</time>
      </trkpt>
      <trkpt lat="47.73959" lon="6.74017">
        <ele>523.98</ele>
        <time>2018-11-03T11:04:07.000Z</time>
      </trkpt>
      <trkpt lat="47.73949" lon="6.74024">
        <ele>523.72</ele>
        <time>2018-11-03T11:04:12.000Z</time>
      </trkpt>
      <trkpt lat="47.73942" lon="6.74028">
        <ele>522.54</ele>
        <time>2018-11-03T11:04:17.000Z</time>
      </trkpt>
      <trkpt lat="47.73934" lon="6.74024">
        <ele>521.37</ele>
        <time>2018-11-03T11:04:22.000Z</time>
      </trkpt>
      <trkpt lat="47.73928" lon="6.74013">
        <ele>520.2</ele>
        <time>2018-11-03T11:04:27.000Z</time>
      </trkpt>
      <trkpt lat="47.7392" lon="6.74014">
        <ele>519.08</ele>
        <time>2018-11-03T11:04:32.000Z</time>
      </trkpt>
      <trkpt lat="47.73915" lon="6.74023">
        <ele>517.95</ele>
        <time>2018-11-03T11:04:37.000Z</time>
      </trkpt>
      <trkpt lat="47.73907" lon="6.74031">
        <ele>516.83</ele>
        <time>2018-11-03T11:04:42.000Z</time>
      </trkpt>
      <trkpt lat="47.73894" lon="6.74033">
        <ele>514.55</ele>
        <time>2018-11-03T11:04:47.000Z</time>
      </trkpt>
      <trkpt lat="47.73884" lon="6.7404">
        <ele>512.26</ele>
        <time>2018-11-03T11:04:52.000Z</time>
      </trkpt>
      <trkpt lat="47.73877" lon="6.74033">
        <ele>509.98</ele>
        <time>2018-11-03T11:04:57.000Z</time>
      </trkpt>
      <trkpt lat="47.73863" lon="6.74033">
        <ele>507.31</ele>
        <time>2018-11-03T11:05:02.000Z</time>
      </trkpt>
      <trkpt lat="47.73853" lon="6.74032">
        <ele>504.64</ele>
        <time>2018-11-03T11:05:07.000Z</time>
      </trkpt>
      <trkpt lat="47.73845" lon="6.74027">
        <ele>501.97</ele>
        <time>2018-11-03T11:05:12.000Z</time>
      </trkpt>
      <trkpt lat="47.73831" lon="6.74028">
        <ele>498.31</ele>
        <time>2018-11-03T11:05:17.000Z</time>
      </trkpt>
      <trkpt lat="47.7383" lon="6.74037">
        <ele>494.66</ele>
        <time>2018-11-03T11:05:22.000Z</time>
      </trkpt>
      <trkpt lat="47.73824" lon="6.74054">
        <ele>491.01</ele>
        <time>2018-11-03T11:05:27.000Z</time>
      </trkpt>
      <trkpt lat="47.73804" lon="6.74061">
        <ele>489.15</ele>
        <time>2018-11-03T11:05:32.000Z</time>
      </trkpt>
      <trkpt lat="47.73791" lon="6.74059">
        <ele>487.29</ele>
        <time>2018-11-03T11:05:37.000Z</time>
      </trkpt>
      <trkpt lat="47.73796" lon="6.74077">
        <ele>485.43</ele>
        <time>2018-11-03T11:05:42.000Z</time>
      </trkpt>
      <trkpt lat="47.738" lon="6.74093">
        <ele>486.64</ele>
        <time>2018-11-03T11:05:47.000Z</time>
      </trkpt>
      <trkpt lat="47.73805" lon="6.7411">
        <ele>487.86</ele>
        <time>2018-11-03T11:05:52.000Z</time>
      </trkpt>
      <trkpt lat="47.73809" lon="6.74126">
        <ele>489.08</ele>
        <time>2018-11-03T11:05:57.000Z</time>
      </trkpt>
      <trkpt lat="47.73813" lon="6.74139">
        <ele>489.88</ele>
        <time>2018-11-03T11:06:02.000Z</time>
      </trkpt>
      <trkpt lat="47.73817" lon="6.74157">
        <ele>490.67</ele>
        <time>2018-11-03T11:06:07.000Z</time>
      </trkpt>
      <trkpt lat="47.73821" lon="6.7417">
        <ele>491.47</ele>
        <time>2018-11-03T11:06:12.000Z</time>
      </trkpt>
      <trkpt lat="47.73824" lon="6.74183">
        <ele>493.45</ele>
        <time>2018-11-03T11:06:17.000Z</time>
      </trkpt>
      <trkpt lat="47.73827" lon="6.74196">
        <ele>495.43</ele>
        <time>2018-11-03T11:06:22.000Z</time>
      </trkpt>
      <trkpt lat="47.73831" lon="6.74211">
        <ele>497.4</ele>
        <time>2018-11-03T11:06:27.000Z</time>
      </trkpt>
      <trkpt lat="47.73838" lon="6.74228">
        <ele>499.04</ele>
        <time>2018-11-03T11:06:32.000Z</time>
      </trkpt>
      <trkpt lat="47.73843" lon="6.74239">
        <ele>500.67</ele>
        <time>2018-11-03T11:06:37.000Z</time>
      </trkpt>
      <trkpt lat="47.73849" lon="6.74251">
        <ele>502.3</ele>
        <time>2018-11-03T11:06:42.000Z</time>
      </trkpt>
      <trkpt lat="47.73858" lon="6.74264">
        <ele>503</ele>
        <time>2018-11-03T11:06:47.000Z</time>
      </trkpt>
      <trkpt lat="47.73864" lon="6.74273">
        <ele>503.7</ele>
        <time>2018-11-03T11:06:52.000Z</time>
      </trkpt>
      <trkpt lat="47.73874" lon="6.74285">
        <ele>504.39</ele>
        <time>2018-11-03T11:06:57.000Z</time>
      </trkpt>
      <trkpt lat="47.73882" lon="6.74295">
        <ele>503.51</ele>
        <time>2018-11-03T11:07:02.000Z</time>
      </trkpt>
      <trkpt lat="47.73888" lon="6.74309">
        <ele>502.62</ele>
        <time>2018-11-03T11:07:07.000Z</time>
      </trkpt>
      <trkpt lat="47.73891" lon="6.74329">
        <ele>501.73</ele>
        <time>2018-11-03T11:07:12.000Z</time>
      </trkpt>
      <trkpt lat="47.73891" lon="6.74347">
        <ele>501.4</ele>
        <time>2018-11-03T11:07:17.000Z</time>
      </trkpt>
      <trkpt lat="47.73894" lon="6.74365">
        <ele>501.07</ele>
        <time>2018-11-03T11:07:22.000Z</time>
      </trkpt>
      <trkpt lat="47.73898" lon="6.74381">
        <ele>500.74</ele>
        <time>2018-11-03T11:07:27.000Z</time>
      </trkpt>
      <trkpt lat="47.73902" lon="6.74395">
        <ele>501.89</ele>
        <time>2018-11-03T11:07:32.000Z</time>
      </trkpt>
      <trkpt lat="47.73904" lon="6.74408">
        <ele>503.03</ele>
        <time>2018-11-03T11:07:37.000Z</time>
      </trkpt>
      <trkpt lat="47.73907" lon="6.74427">
        <ele>504.18</ele>
        <time>2018-11-03T11:07:42.000Z</time>
      </trkpt>
      <trkpt lat="47.7391" lon="6.74443">
        <ele>504.89</ele>
        <time>2018-11-03T11:07:47.000Z</time>
      </trkpt>
      <trkpt lat="47.73913" lon="6.74457">
        <ele>505.61</ele>
        <time>2018-11-03T11:07:52.000Z</time>
      </trkpt>
      <trkpt lat="47.73917" lon="6.74468">
        <ele>506.33</ele>
        <time>2018-11-03T11:07:57.000Z</time>
      </trkpt>
      <trkpt lat="47.73918" lon="6.7448">
        <ele>505.31</ele>
        <time>2018-11-03T11:08:02.000Z</time>
      </trkpt>
      <trkpt lat="47.73918" lon="6.74494">
        <ele>504.3</ele>
        <time>2018-11-03T11:08:07.000Z</time>
      </trkpt>
      <trkpt lat="47.7392" lon="6.74504">
        <ele>503.29</ele>
        <time>2018-11-03T11:08:12.000Z</time>
      </trkpt>
      <trkpt lat="47.73922" lon="6.74516">
        <ele>504.52</ele>
        <time>2018-11-03T11:08:17.000Z</time>
      </trkpt>
      <trkpt lat="47.73924" lon="6.74531">
        <ele>505.76</ele>
        <time>2018-11-03T11:08:22.000Z</time>
      </trkpt>
      <trkpt lat="47.73924" lon="6.74535">
        <ele>507</ele>
        <time>2018-11-03T11:08:27.000Z</time>
      </trkpt>
      <trkpt lat="47.73925" lon="6.74541">
        <ele>507.34</ele>
        <time>2018-11-03T11:08:32.000Z</time>
      </trkpt>
      <trkpt lat="47.73926" lon="6.74547">
        <ele>507.67</ele>
        <time>2018-11-03T11:08:37.000Z</time>
      </trkpt>
      <trkpt lat="47.73927" lon="6.74551">
        <ele>508.01</ele>
        <time>2018-11-03T11:08:42.000Z</time>
      </trkpt>
      <trkpt lat="47.73927" lon="6.74555">
        <ele>508.82</ele>
        <time>2018-11-03T11:08:47.000Z</time>
      </trkpt>
      <trkpt lat="47.73928" lon="6.74559">
        <ele>509.62</ele>
        <time>2018-11-03T11:08:52.000Z</time>
      </trkpt>
      <trkpt lat="47.73929" lon="6.74566">
        <ele>510.43</ele>
        <time>2018-11-03T11:08:57.000Z</time>
      </trkpt>
      <trkpt lat="47.73932" lon="6.74581">
        <ele>511.58</ele>
        <time>2018-11-03T11:09:02.000Z</time>
      </trkpt>
      <trkpt lat="47.73937" lon="6.74595">
        <ele>512.74</ele>
        <time>2018-11-03T11:09:07.000Z</time>
      </trkpt>
      <trkpt lat="47.73942" lon="6.74607">
        <ele>513.89</ele>
        <time>2018-11-03T11:09:12.000Z</time>
      </trkpt>
      <trkpt lat="47.73946" lon="6.74617">
        <ele>513.84</ele>
        <time>2018-11-03T11:09:17.000Z</time>
      </trkpt>
      <trkpt lat="47.7395" lon="6.74628">
        <ele>513.78</ele>
        <time>2018-11-03T11:09:22.000Z</time>
      </trkpt>
      <trkpt lat="47.73951" lon="6.74637">
        <ele>513.72</ele>
        <time>2018-11-03T11:09:27.000Z</time>
      </trkpt>
      <trkpt lat="47.73948" lon="6.74639">
        <ele>513.54</ele>
        <time>2018-11-03T11:09:32.000Z</time>
      </trkpt>
      <trkpt lat="47.73948" lon="6.74644">
        <ele>513.37</ele>
        <time>2018-11-03T11:09:37.000Z</time>
      </trkpt>
      <trkpt lat="47.73948" lon="6.74646">
        <ele>513.19</ele>
        <time>2018-11-03T11:09:42.000Z</time>
      </trkpt>
      <trkpt lat="47.73948" lon="6.7465">
        <ele>513.41</ele>
        <time>2018-11-03T11:09:47.000Z</time>
      </trkpt>
      <trkpt lat="47.7395" lon="6.74655">
        <ele>513.62</ele>
        <time>2018-11-03T11:09:52.000Z</time>
      </trkpt>
      <trkpt lat="47.73952" lon="6.74658">
        <ele>513.84</ele>
        <time>2018-11-03T11:09:57.000Z</time>
      </trkpt>
      <trkpt lat="47.73953" lon="6.74664">
        <ele>513.85</ele>
        <time>2018-11-03T11:10:02.000Z</time>
      </trkpt>
      <trkpt lat="47.73958" lon="6.7467">
        <ele>513.86</ele>
        <time>2018-11-03T11:10:07.000Z</time>
      </trkpt>
      <trkpt lat="47.73963" lon="6.74677">
        <ele>513.87</ele>
        <time>2018-11-03T11:10:12.000Z</time>
      </trkpt>
      <trkpt lat="47.73967" lon="6.74682">
        <ele>514.53</ele>
        <time>2018-11-03T11:10:17.000Z</time>
      </trkpt>
      <trkpt lat="47.7397" lon="6.74689">
        <ele>515.18</ele>
        <time>2018-11-03T11:10:22.000Z</time>
      </trkpt>
      <trkpt lat="47.73973" lon="6.74696">
        <ele>515.84</ele>
        <time>2018-11-03T11:10:27.000Z</time>
      </trkpt>
      <trkpt lat="47.73974" lon="6.74701">
        <ele>515.9</ele>
        <time>2018-11-03T11:10:32.000Z</time>
      </trkpt>
      <trkpt lat="47.73974" lon="6.74707">
        <ele>515.96</ele>
        <time>2018-11-03T11:10:37.000Z</time>
      </trkpt>
      <trkpt lat="47.73976" lon="6.74717">
        <ele>516.02</ele>
        <time>2018-11-03T11:10:42.000Z</time>
      </trkpt>
      <trkpt lat="47.73977" lon="6.74721">
        <ele>516.16</ele>
        <time>2018-11-03T11:10:47.000Z</time>
      </trkpt>
      <trkpt lat="47.73979" lon="6.74725">
        <ele>516.3</ele>
        <time>2018-11-03T11:10:52.000Z</time>
      </trkpt>
      <trkpt lat="47.73981" lon="6.74732">
        <ele>516.44</ele>
        <time>2018-11-03T11:10:57.000Z</time>
      </trkpt>
      <trkpt lat="47.73982" lon="6.74738">
        <ele>516.49</ele>
        <time>2018-11-03T11:11:02.000Z</time>
      </trkpt>
      <trkpt lat="47.73982" lon="6.74741">
        <ele>516.53</ele>
        <time>2018-11-03T11:11:07.000Z</time>
      </trkpt>
      <trkpt lat="47.73984" lon="6.74747">
        <ele>516.58</ele>
        <time>2018-11-03T11:11:12.000Z</time>
      </trkpt>
      <trkpt lat="47.73984" lon="6.74753">
        <ele>516.97</ele>
        <time>2018-11-03T11:11:17.000Z</time>
      </trkpt>
      <trkpt lat="47.73985" lon="6.74758">
        <ele>517.37</ele>
        <time>2018-11-03T11:11:22.000Z</time>
      </trkpt>
      <trkpt lat="47.73987" lon="6.74764">
        <ele>517.76</ele>
        <time>2018-11-03T11:11:27.000Z</time>
      </trkpt>
      <trkpt lat="47.73989" lon="6.74769">
        <ele>519.88</ele>
        <time>2018-11-03T11:11:32.000Z</time>
      </trkpt>
      <trkpt lat="47.73991" lon="6.74777">
        <ele>522.01</ele>
        <time>2018-11-03T11:11:37.000Z</time>
      </trkpt>
      <trkpt lat="47.73994" lon="6.74789">
        <ele>524.13</ele>
        <time>2018-11-03T11:11:42.000Z</time>
      </trkpt>
      <trkpt lat="47.73998" lon="6.74799">
        <ele>524.87</ele>
        <time>2018-11-03T11:11:47.000Z</time>
      </trkpt>
      <trkpt lat="47.74" lon="6.7481">
        <ele>525.61</ele>
        <time>2018-11-03T11:11:52.000Z</time>
      </trkpt>
      <trkpt lat="47.74" lon="6.74823">
        <ele>526.35</ele>
        <time>2018-11-03T11:11:57.000Z</time>
      </trkpt>
      <trkpt lat="47.74002" lon="6.74838">
        <ele>526.37</ele>
        <time>2018-11-03T11:12:02.000Z</time>
      </trkpt>
      <trkpt lat="47.74" lon="6.74845">
        <ele>526.39</ele>
        <time>2018-11-03T11:12:07.000Z</time>
      </trkpt>
      <trkpt lat="47.73999" lon="6.74849">
        <ele>526.4</ele>
        <time>2018-11-03T11:12:12.000Z</time>
      </trkpt>
      <trkpt lat="47.74001" lon="6.74855">
        <ele>526.43</ele>
        <time>2018-11-03T11:12:17.000Z</time>
      </trkpt>
      <trkpt lat="47.73999" lon="6.74863">
        <ele>526.45</ele>
        <time>2018-11-03T11:12:22.000Z</time>
      </trkpt>
      <trkpt lat="47.73997" lon="6.74871">
        <ele>526.48</ele>
        <time>2018-11-03T11:12:27.000Z</time>
      </trkpt>
      <trkpt lat="47.73996" lon="6.74877">
        <ele>526.53</ele>
        <time>2018-11-03T11:12:32.000Z</time>
      </trkpt>
      <trkpt lat="47.73994" lon="6.74883">
        <ele>526.58</ele>
        <time>2018-11-03T11:12:37.000Z</time>
      </trkpt>
      <trkpt lat="47.73997" lon="6.74884">
        <ele>526.63</ele>
        <time>2018-11-03T11:12:42.000Z</time>
      </trkpt>
      <trkpt lat="47.73999" lon="6.74883">
        <ele>526.71</ele>
        <time>2018-11-03T11:12:47.000Z</time>
      </trkpt>
      <trkpt lat="47.74" lon="6.74887">
        <ele>526.79</ele>
        <time>2018-11-03T11:12:52.000Z</time>
      </trkpt>
      <trkpt lat="47.74001" lon="6.74889">
        <ele>526.87</ele>
        <time>2018-11-03T11:12:57.000Z</time>
      </trkpt>
      <trkpt lat="47.74005" lon="6.74889">
        <ele>526.84</ele>
        <time>2018-11-03T11:13:02.000Z</time>
      </trkpt>
      <trkpt lat="47.74009" lon="6.74897">
        <ele>526.81</ele>
        <time>2018-11-03T11:13:07.000Z</time>
      </trkpt>
      <trkpt lat="47.7401" lon="6.74908">
        <ele>526.78</ele>
        <time>2018-11-03T11:13:12.000Z</time>
      </trkpt>
      <trkpt lat="47.74011" lon="6.7492">
        <ele>527.1</ele>
        <time>2018-11-03T11:13:17.000Z</time>
      </trkpt>
      <trkpt lat="47.74013" lon="6.74931">
        <ele>527.41</ele>
        <time>2018-11-03T11:13:22.000Z</time>
      </trkpt>
      <trkpt lat="47.74015" lon="6.74941">
        <ele>527.73</ele>
        <time>2018-11-03T11:13:27.000Z</time>
      </trkpt>
      <trkpt lat="47.74017" lon="6.74952">
        <ele>528.49</ele>
        <time>2018-11-03T11:13:32.000Z</time>
      </trkpt>
      <trkpt lat="47.74019" lon="6.74964">
        <ele>529.26</ele>
        <time>2018-11-03T11:13:37.000Z</time>
      </trkpt>
      <trkpt lat="47.74021" lon="6.74978">
        <ele>530.03</ele>
        <time>2018-11-03T11:13:42.000Z</time>
      </trkpt>
      <trkpt lat="47.74024" lon="6.74991">
        <ele>530.45</ele>
        <time>2018-11-03T11:13:47.000Z</time>
      </trkpt>
      <trkpt lat="47.74024" lon="6.75004">
        <ele>530.87</ele>
        <time>2018-11-03T11:13:52.000Z</time>
      </trkpt>
      <trkpt lat="47.74021" lon="6.75015">
        <ele>531.29</ele>
        <time>2018-11-03T11:13:57.000Z</time>
      </trkpt>
      <trkpt lat="47.74024" lon="6.75026">
        <ele>532.96</ele>
        <time>2018-11-03T11:14:02.000Z</time>
      </trkpt>
      <trkpt lat="47.74025" lon="6.75038">
        <ele>534.62</ele>
        <time>2018-11-03T11:14:07.000Z</time>
      </trkpt>
      <trkpt lat="47.74025" lon="6.75052">
        <ele>536.28</ele>
        <time>2018-11-03T11:14:12.000Z</time>
      </trkpt>
      <trkpt lat="47.7403" lon="6.75062">
        <ele>536.89</ele>
        <time>2018-11-03T11:14:17.000Z</time>
      </trkpt>
      <trkpt lat="47.74025" lon="6.75072">
        <ele>537.5</ele>
        <time>2018-11-03T11:14:22.000Z</time>
      </trkpt>
      <trkpt lat="47.74018" lon="6.75081">
        <ele>538.1</ele>
        <time>2018-11-03T11:14:27.000Z</time>
      </trkpt>
      <trkpt lat="47.74011" lon="6.75087">
        <ele>538.53</ele>
        <time>2018-11-03T11:14:32.000Z</time>
      </trkpt>
      <trkpt lat="47.74006" lon="6.75091">
        <ele>538.95</ele>
        <time>2018-11-03T11:14:37.000Z</time>
      </trkpt>
      <trkpt lat="47.74007" lon="6.75097">
        <ele>539.38</ele>
        <time>2018-11-03T11:14:42.000Z</time>
      </trkpt>
      <trkpt lat="47.74014" lon="6.75105">
        <ele>540.32</ele>
        <time>2018-11-03T11:14:47.000Z</time>
      </trkpt>
      <trkpt lat="47.74019" lon="6.75112">
        <ele>541.27</ele>
        <time>2018-11-03T11:14:52.000Z</time>
      </trkpt>
      <trkpt lat="47.74026" lon="6.7512">
        <ele>542.21</ele>
        <time>2018-11-03T11:14:57.000Z</time>
      </trkpt>
      <trkpt lat="47.74033" lon="6.75133">
        <ele>542.62</ele>
        <time>2018-11-03T11:15:02.000Z</time>
      </trkpt>
      <trkpt lat="47.74036" lon="6.75142">
        <ele>543.04</ele>
        <time>2018-11-03T11:15:07.000Z</time>
      </trkpt>
      <trkpt lat="47.74037" lon="6.75151">
        <ele>543.45</ele>
        <time>2018-11-03T11:15:12.000Z</time>
      </trkpt>
      <trkpt lat="47.74038" lon="6.75158">
        <ele>544.19</ele>
        <time>2018-11-03T11:15:17.000Z</time>
      </trkpt>
      <trkpt lat="47.74039" lon="6.75164">
        <ele>544.94</ele>
        <time>2018-11-03T11:15:22.000Z</time>
      </trkpt>
      <trkpt lat="47.74042" lon="6.75172">
        <ele>545.68</ele>
        <time>2018-11-03T11:15:27.000Z</time>
      </trkpt>
      <trkpt lat="47.74044" lon="6.75179">
        <ele>545.53</ele>
        <time>2018-11-03T11:15:32.000Z</time>
      </trkpt>
      <trkpt lat="47.74046" lon="6.75184">
        <ele>545.39</ele>
        <time>2018-11-03T11:15:37.000Z</time>
      </trkpt>
      <trkpt lat="47.7405" lon="6.75192">
        <ele>545.24</ele>
        <time>2018-11-03T11:15:42.000Z</time>
      </trkpt>
      <trkpt lat="47.74054" lon="6.75198">
        <ele>545.74</ele>
        <time>2018-11-03T11:15:47.000Z</time>
      </trkpt>
      <trkpt lat="47.74055" lon="6.75203">
        <ele>546.24</ele>
        <time>2018-11-03T11:15:52.000Z</time>
      </trkpt>
      <trkpt lat="47.74057" lon="6.75209">
        <ele>546.73</ele>
        <time>2018-11-03T11:15:57.000Z</time>
      </trkpt>
      <trkpt lat="47.74057" lon="6.75214">
        <ele>548.07</ele>
        <time>2018-11-03T11:16:02.000Z</time>
      </trkpt>
      <trkpt lat="47.74058" lon="6.75223">
        <ele>549.41</ele>
        <time>2018-11-03T11:16:07.000Z</time>
      </trkpt>
      <trkpt lat="47.74058" lon="6.75231">
        <ele>550.74</ele>
        <time>2018-11-03T11:16:12.000Z</time>
      </trkpt>
      <trkpt lat="47.74059" lon="6.75239">
        <ele>551.78</ele>
        <time>2018-11-03T11:16:17.000Z</time>
      </trkpt>
      <trkpt lat="47.74061" lon="6.75249">
        <ele>552.82</ele>
        <time>2018-11-03T11:16:22.000Z</time>
      </trkpt>
      <trkpt lat="47.74062" lon="6.75256">
        <ele>553.86</ele>
        <time>2018-11-03T11:16:27.000Z</time>
      </trkpt>
      <trkpt lat="47.74061" lon="6.7526">
        <ele>554.46</ele>
        <time>2018-11-03T11:16:32.000Z</time>
      </trkpt>
      <trkpt lat="47.74058" lon="6.75263">
        <ele>555.05</ele>
        <time>2018-11-03T11:16:37.000Z</time>
      </trkpt>
      <trkpt lat="47.7406" lon="6.75268">
        <ele>555.64</ele>
        <time>2018-11-03T11:16:42.000Z</time>
      </trkpt>
      <trkpt lat="47.74061" lon="6.75274">
        <ele>556.19</ele>
        <time>2018-11-03T11:16:47.000Z</time>
      </trkpt>
      <trkpt lat="47.74061" lon="6.75277">
        <ele>556.74</ele>
        <time>2018-11-03T11:16:52.000Z</time>
      </trkpt>
      <trkpt lat="47.7406" lon="6.75282">
        <ele>557.29</ele>
        <time>2018-11-03T11:16:57.000Z</time>
      </trkpt>
      <trkpt lat="47.7406" lon="6.75284">
        <ele>558.19</ele>
        <time>2018-11-03T11:17:02.000Z</time>
      </trkpt>
      <trkpt lat="47.74062" lon="6.75291">
        <ele>559.1</ele>
        <time>2018-11-03T11:17:07.000Z</time>
      </trkpt>
      <trkpt lat="47.74064" lon="6.75293">
        <ele>560</ele>
        <time>2018-11-03T11:17:12.000Z</time>
      </trkpt>
      <trkpt lat="47.74063" lon="6.75299">
        <ele>560.96</ele>
        <time>2018-11-03T11:17:17.000Z</time>
      </trkpt>
      <trkpt lat="47.74062" lon="6.75304">
        <ele>561.92</ele>
        <time>2018-11-03T11:17:22.000Z</time>
      </trkpt>
      <trkpt lat="47.74062" lon="6.75308">
        <ele>562.88</ele>
        <time>2018-11-03T11:17:27.000Z</time>
      </trkpt>
      <trkpt lat="47.74062" lon="6.75312">
        <ele>563.71</ele>
        <time>2018-11-03T11:17:32.000Z</time>
      </trkpt>
      <trkpt lat="47.74061" lon="6.75317">
        <ele>564.55</ele>
        <time>2018-11-03T11:17:37.000Z</time>
      </trkpt>
      <trkpt lat="47.74062" lon="6.75321">
        <ele>565.38</ele>
        <time>2018-11-03T11:17:42.000Z</time>
      </trkpt>
      <trkpt lat="47.74062" lon="6.75321">
        <ele>566.16</ele>
        <time>2018-11-03T11:17:47.000Z</time>
      </trkpt>
      <trkpt lat="47.74063" lon="6.75324">
        <ele>566.94</ele>
        <time>2018-11-03T11:17:52.000Z</time>
      </trkpt>
      <trkpt lat="47.74064" lon="6.7533">
        <ele>567.73</ele>
        <time>2018-11-03T11:17:57.000Z</time>
      </trkpt>
      <trkpt lat="47.74065" lon="6.75335">
        <ele>568.27</ele>
        <time>2018-11-03T11:18:02.000Z</time>
      </trkpt>
      <trkpt lat="47.74064" lon="6.75338">
        <ele>568.82</ele>
        <time>2018-11-03T11:18:07.000Z</time>
      </trkpt>
      <trkpt lat="47.74063" lon="6.75341">
        <ele>569.36</ele>
        <time>2018-11-03T11:18:12.000Z</time>
      </trkpt>
      <trkpt lat="47.74062" lon="6.75343">
        <ele>569.89</ele>
        <time>2018-11-03T11:18:17.000Z</time>
      </trkpt>
      <trkpt lat="47.74062" lon="6.75345">
        <ele>570.42</ele>
        <time>2018-11-03T11:18:22.000Z</time>
      </trkpt>
      <trkpt lat="47.74062" lon="6.7535">
        <ele>570.94</ele>
        <time>2018-11-03T11:18:27.000Z</time>
      </trkpt>
      <trkpt lat="47.74062" lon="6.75356">
        <ele>571.84</ele>
        <time>2018-11-03T11:18:32.000Z</time>
      </trkpt>
      <trkpt lat="47.74063" lon="6.75362">
        <ele>572.74</ele>
        <time>2018-11-03T11:18:37.000Z</time>
      </trkpt>
      <trkpt lat="47.74061" lon="6.75371">
        <ele>573.64</ele>
        <time>2018-11-03T11:18:42.000Z</time>
      </trkpt>
      <trkpt lat="47.74058" lon="6.75375">
        <ele>574.62</ele>
        <time>2018-11-03T11:18:47.000Z</time>
      </trkpt>
      <trkpt lat="47.74057" lon="6.75377">
        <ele>575.61</ele>
        <time>2018-11-03T11:18:52.000Z</time>
      </trkpt>
      <trkpt lat="47.74057" lon="6.75383">
        <ele>576.59</ele>
        <time>2018-11-03T11:18:57.000Z</time>
      </trkpt>
      <trkpt lat="47.74056" lon="6.7539">
        <ele>576.45</ele>
        <time>2018-11-03T11:19:02.000Z</time>
      </trkpt>
      <trkpt lat="47.74058" lon="6.75398">
        <ele>576.3</ele>
        <time>2018-11-03T11:19:07.000Z</time>
      </trkpt>
      <trkpt lat="47.74058" lon="6.75403">
        <ele>576.15</ele>
        <time>2018-11-03T11:19:12.000Z</time>
      </trkpt>
      <trkpt lat="47.74061" lon="6.75405">
        <ele>576.98</ele>
        <time>2018-11-03T11:19:17.000Z</time>
      </trkpt>
      <trkpt lat="47.74063" lon="6.75413">
        <ele>577.82</ele>
        <time>2018-11-03T11:19:22.000Z</time>
      </trkpt>
      <trkpt lat="47.74066" lon="6.75421">
        <ele>578.65</ele>
        <time>2018-11-03T11:19:27.000Z</time>
      </trkpt>
      <trkpt lat="47.74068" lon="6.75428">
        <ele>580.48</ele>
        <time>2018-11-03T11:19:32.000Z</time>
      </trkpt>
      <trkpt lat="47.74071" lon="6.7544">
        <ele>582.31</ele>
        <time>2018-11-03T11:19:37.000Z</time>
      </trkpt>
      <trkpt lat="47.74073" lon="6.75447">
        <ele>584.15</ele>
        <time>2018-11-03T11:19:42.000Z</time>
      </trkpt>
      <trkpt lat="47.74077" lon="6.75457">
        <ele>585.55</ele>
        <time>2018-11-03T11:19:47.000Z</time>
      </trkpt>
      <trkpt lat="47.74079" lon="6.75463">
        <ele>586.95</ele>
        <time>2018-11-03T11:19:52.000Z</time>
      </trkpt>
      <trkpt lat="47.74081" lon="6.7547">
        <ele>588.35</ele>
        <time>2018-11-03T11:19:57.000Z</time>
      </trkpt>
      <trkpt lat="47.74084" lon="6.75474">
        <ele>588.63</ele>
        <time>2018-11-03T11:20:02.000Z</time>
      </trkpt>
      <trkpt lat="47.74085" lon="6.75477">
        <ele>588.91</ele>
        <time>2018-11-03T11:20:07.000Z</time>
      </trkpt>
      <trkpt lat="47.74085" lon="6.75479">
        <ele>589.19</ele>
        <time>2018-11-03T11:20:12.000Z</time>
      </trkpt>
      <trkpt lat="47.74083" lon="6.75483">
        <ele>589.22</ele>
        <time>2018-11-03T11:20:17.000Z</time>
      </trkpt>
      <trkpt lat="47.74082" lon="6.75486">
        <ele>589.24</ele>
        <time>2018-11-03T11:20:22.000Z</time>
      </trkpt>
      <trkpt lat="47.74081" lon="6.75489">
        <ele>589.27</ele>
        <time>2018-11-03T11:20:27.000Z</time>
      </trkpt>
      <trkpt lat="47.74079" lon="6.75492">
        <ele>588.94</ele>
        <time>2018-11-03T11:20:32.000Z</time>
      </trkpt>
      <trkpt lat="47.74078" lon="6.75495">
        <ele>588.6</ele>
        <time>2018-11-03T11:20:37.000Z</time>
      </trkpt>
      <trkpt lat="47.74078" lon="6.75499">
        <ele>588.27</ele>
        <time>2018-11-03T11:20:42.000Z</time>
      </trkpt>
      <trkpt lat="47.74076" lon="6.75501">
        <ele>588.09</ele>
        <time>2018-11-03T11:20:47.000Z</time>
      </trkpt>
      <trkpt lat="47.74075" lon="6.75504">
        <ele>587.9</ele>
        <time>2018-11-03T11:20:52.000Z</time>
      </trkpt>
      <trkpt lat="47.74075" lon="6.75508">
        <ele>587.72</ele>
        <time>2018-11-03T11:20:57.000Z</time>
      </trkpt>
      <trkpt lat="47.74075" lon="6.75512">
        <ele>588.1</ele>
        <time>2018-11-03T11:21:02.000Z</time>
      </trkpt>
      <trkpt lat="47.74076" lon="6.75515">
        <ele>588.47</ele>
        <time>2018-11-03T11:21:07.000Z</time>
      </trkpt>
      <trkpt lat="47.74076" lon="6.75518">
        <ele>588.85</ele>
        <time>2018-11-03T11:21:12.000Z</time>
      </trkpt>
      <trkpt lat="47.74077" lon="6.75522">
        <ele>589.78</ele>
        <time>2018-11-03T11:21:17.000Z</time>
      </trkpt>
      <trkpt lat="47.74077" lon="6.75523">
        <ele>590.71</ele>
        <time>2018-11-03T11:21:22.000Z</time>
      </trkpt>
      <trkpt lat="47.74075" lon="6.75525">
        <ele>591.64</ele>
        <time>2018-11-03T11:21:27.000Z</time>
      </trkpt>
      <trkpt lat="47.74073" lon="6.75528">
        <ele>593.25</ele>
        <time>2018-11-03T11:21:32.000Z</time>
      </trkpt>
      <trkpt lat="47.74072" lon="6.75533">
        <ele>594.87</ele>
        <time>2018-11-03T11:21:37.000Z</time>
      </trkpt>
      <trkpt lat="47.74073" lon="6.7554">
        <ele>596.49</ele>
        <time>2018-11-03T11:21:42.000Z</time>
      </trkpt>
      <trkpt lat="47.74073" lon="6.75546">
        <ele>596.9</ele>
        <time>2018-11-03T11:21:47.000Z</time>
      </trkpt>
      <trkpt lat="47.74074" lon="6.75548">
        <ele>597.32</ele>
        <time>2018-11-03T11:21:52.000Z</time>
      </trkpt>
      <trkpt lat="47.74074" lon="6.75552">
        <ele>597.73</ele>
        <time>2018-11-03T11:21:57.000Z</time>
      </trkpt>
      <trkpt lat="47.74074" lon="6.75556">
        <ele>598.55</ele>
        <time>2018-11-03T11:22:02.000Z</time>
      </trkpt>
      <trkpt lat="47.74074" lon="6.75559">
        <ele>599.37</ele>
        <time>2018-11-03T11:22:07.000Z</time>
      </trkpt>
      <trkpt lat="47.74075" lon="6.75566">
        <ele>600.19</ele>
        <time>2018-11-03T11:22:12.000Z</time>
      </trkpt>
      <trkpt lat="47.74075" lon="6.7557">
        <ele>600.32</ele>
        <time>2018-11-03T11:22:17.000Z</time>
      </trkpt>
      <trkpt lat="47.74076" lon="6.75575">
        <ele>600.45</ele>
        <time>2018-11-03T11:22:22.000Z</time>
      </trkpt>
      <trkpt lat="47.74077" lon="6.7558">
        <ele>600.57</ele>
        <time>2018-11-03T11:22:27.000Z</time>
      </trkpt>
      <trkpt lat="47.74079" lon="6.7558">
        <ele>601.75</ele>
        <time>2018-11-03T11:22:32.000Z</time>
      </trkpt>
      <trkpt lat="47.7408" lon="6.75588">
        <ele>602.92</ele>
        <time>2018-11-03T11:22:37.000Z</time>
      </trkpt>
      <trkpt lat="47.7408" lon="6.75592">
        <ele>604.1</ele>
        <time>2018-11-03T11:22:42.000Z</time>
      </trkpt>
      <trkpt lat="47.74078" lon="6.75594">
        <ele>604.76</ele>
        <time>2018-11-03T11:22:47.000Z</time>
      </trkpt>
      <trkpt lat="47.74078" lon="6.75597">
        <ele>605.42</ele>
        <time>2018-11-03T11:22:52.000Z</time>
      </trkpt>
      <trkpt lat="47.74079" lon="6.75601">
        <ele>606.09</ele>
        <time>2018-11-03T11:22:57.000Z</time>
      </trkpt>
      <trkpt lat="47.74081" lon="6.75608">
        <ele>607.41</ele>
        <time>2018-11-03T11:23:02.000Z</time>
      </trkpt>
      <trkpt lat="47.74083" lon="6.75616">
        <ele>608.73</ele>
        <time>2018-11-03T11:23:07.000Z</time>
      </trkpt>
      <trkpt lat="47.74081" lon="6.75619">
        <ele>610.05</ele>
        <time>2018-11-03T11:23:12.000Z</time>
      </trkpt>
      <trkpt lat="47.74082" lon="6.75623">
        <ele>610.53</ele>
        <time>2018-11-03T11:23:17.000Z</time>
      </trkpt>
      <trkpt lat="47.74082" lon="6.75627">
        <ele>611</ele>
        <time>2018-11-03T11:23:22.000Z</time>
      </trkpt>
      <trkpt lat="47.74083" lon="6.75628">
        <ele>611.48</ele>
        <time>2018-11-03T11:23:27.000Z</time>
      </trkpt>
      <trkpt lat="47.74084" lon="6.75631">
        <ele>612.67</ele>
        <time>2018-11-03T11:23:32.000Z</time>
      </trkpt>
      <trkpt lat="47.74082" lon="6.75633">
        <ele>613.86</ele>
        <time>2018-11-03T11:23:37.000Z</time>
      </trkpt>
      <trkpt lat="47.74082" lon="6.75636">
        <ele>615.05</ele>
        <time>2018-11-03T11:23:42.000Z</time>
      </trkpt>
      <trkpt lat="47.74082" lon="6.75641">
        <ele>615.95</ele>
        <time>2018-11-03T11:23:47.000Z</time>
      </trkpt>
      <trkpt lat="47.74082" lon="6.75648">
        <ele>616.85</ele>
        <time>2018-11-03T11:23:52.000Z</time>
      </trkpt>
      <trkpt lat="47.74084" lon="6.75653">
        <ele>617.75</ele>
        <time>2018-11-03T11:23:57.000Z</time>
      </trkpt>
      <trkpt lat="47.74085" lon="6.75658">
        <ele>618.43</ele>
        <time>2018-11-03T11:24:02.000Z</time>
      </trkpt>
      <trkpt lat="47.74086" lon="6.75663">
        <ele>619.11</ele>
        <time>2018-11-03T11:24:07.000Z</time>
      </trkpt>
      <trkpt lat="47.74089" lon="6.75665">
        <ele>619.79</ele>
        <time>2018-11-03T11:24:12.000Z</time>
      </trkpt>
      <trkpt lat="47.74093" lon="6.75669">
        <ele>619.76</ele>
        <time>2018-11-03T11:24:17.000Z</time>
      </trkpt>
      <trkpt lat="47.74095" lon="6.75671">
        <ele>619.74</ele>
        <time>2018-11-03T11:24:22.000Z</time>
      </trkpt>
      <trkpt lat="47.74097" lon="6.75671">
        <ele>619.71</ele>
        <time>2018-11-03T11:24:27.000Z</time>
      </trkpt>
      <trkpt lat="47.741" lon="6.75674">
        <ele>619.75</ele>
        <time>2018-11-03T11:24:32.000Z</time>
      </trkpt>
      <trkpt lat="47.74099" lon="6.75676">
        <ele>619.78</ele>
        <time>2018-11-03T11:24:37.000Z</time>
      </trkpt>
      <trkpt lat="47.74099" lon="6.75679">
        <ele>619.82</ele>
        <time>2018-11-03T11:24:42.000Z</time>
      </trkpt>
      <trkpt lat="47.74102" lon="6.75681">
        <ele>621.39</ele>
        <time>2018-11-03T11:24:47.000Z</time>
      </trkpt>
      <trkpt lat="47.74102" lon="6.75686">
        <ele>622.96</ele>
        <time>2018-11-03T11:24:52.000Z</time>
      </trkpt>
      <trkpt lat="47.74103" lon="6.75692">
        <ele>624.53</ele>
        <time>2018-11-03T11:24:57.000Z</time>
      </trkpt>
      <trkpt lat="47.74103" lon="6.75694">
        <ele>624.92</ele>
        <time>2018-11-03T11:25:02.000Z</time>
      </trkpt>
      <trkpt lat="47.74104" lon="6.75696">
        <ele>625.3</ele>
        <time>2018-11-03T11:25:07.000Z</time>
      </trkpt>
      <trkpt lat="47.74105" lon="6.75695">
        <ele>625.68</ele>
        <time>2018-11-03T11:25:12.000Z</time>
      </trkpt>
      <trkpt lat="47.74106" lon="6.75698">
        <ele>626.48</ele>
        <time>2018-11-03T11:25:17.000Z</time>
      </trkpt>
      <trkpt lat="47.74105" lon="6.75701">
        <ele>627.28</ele>
        <time>2018-11-03T11:25:22.000Z</time>
      </trkpt>
      <trkpt lat="47.74104" lon="6.75704">
        <ele>628.08</ele>
        <time>2018-11-03T11:25:27.000Z</time>
      </trkpt>
      <trkpt lat="47.74106" lon="6.75708">
        <ele>627.97</ele>
        <time>2018-11-03T11:25:32.000Z</time>
      </trkpt>
      <trkpt lat="47.74108" lon="6.75711">
        <ele>627.86</ele>
        <time>2018-11-03T11:25:37.000Z</time>
      </trkpt>
      <trkpt lat="47.74111" lon="6.75712">
        <ele>627.74</ele>
        <time>2018-11-03T11:25:42.000Z</time>
      </trkpt>
      <trkpt lat="47.74112" lon="6.75713">
        <ele>627.67</ele>
        <time>2018-11-03T11:25:47.000Z</time>
      </trkpt>
      <trkpt lat="47.74113" lon="6.75713">
        <ele>627.6</ele>
        <time>2018-11-03T11:25:52.000Z</time>
      </trkpt>
      <trkpt lat="47.74116" lon="6.75713">
        <ele>627.52</ele>
        <time>2018-11-03T11:25:57.000Z</time>
      </trkpt>
      <trkpt lat="47.74116" lon="6.75713">
        <ele>628.33</ele>
        <time>2018-11-03T11:26:02.000Z</time>
      </trkpt>
      <trkpt lat="47.74113" lon="6.75718">
        <ele>629.14</ele>
        <time>2018-11-03T11:26:07.000Z</time>
      </trkpt>
      <trkpt lat="47.74112" lon="6.75719">
        <ele>629.95</ele>
        <time>2018-11-03T11:26:12.000Z</time>
      </trkpt>
      <trkpt lat="47.7411" lon="6.75721">
        <ele>630.57</ele>
        <time>2018-11-03T11:26:17.000Z</time>
      </trkpt>
      <trkpt lat="47.74108" lon="6.75724">
        <ele>631.19</ele>
        <time>2018-11-03T11:26:22.000Z</time>
      </trkpt>
      <trkpt lat="47.74108" lon="6.75725">
        <ele>631.81</ele>
        <time>2018-11-03T11:26:27.000Z</time>
      </trkpt>
      <trkpt lat="47.74111" lon="6.75727">
        <ele>633.05</ele>
        <time>2018-11-03T11:26:32.000Z</time>
      </trkpt>
      <trkpt lat="47.74113" lon="6.75732">
        <ele>634.3</ele>
        <time>2018-11-03T11:26:37.000Z</time>
      </trkpt>
      <trkpt lat="47.74115" lon="6.75737">
        <ele>635.55</ele>
        <time>2018-11-03T11:26:42.000Z</time>
      </trkpt>
      <trkpt lat="47.74116" lon="6.75741">
        <ele>635.92</ele>
        <time>2018-11-03T11:26:47.000Z</time>
      </trkpt>
      <trkpt lat="47.74117" lon="6.75747">
        <ele>636.29</ele>
        <time>2018-11-03T11:26:52.000Z</time>
      </trkpt>
      <trkpt lat="47.74122" lon="6.75753">
        <ele>636.66</ele>
        <time>2018-11-03T11:26:57.000Z</time>
      </trkpt>
      <trkpt lat="47.74127" lon="6.75752">
        <ele>636.96</ele>
        <time>2018-11-03T11:27:02.000Z</time>
      </trkpt>
      <trkpt lat="47.74129" lon="6.75754">
        <ele>637.26</ele>
        <time>2018-11-03T11:27:07.000Z</time>
      </trkpt>
      <trkpt lat="47.7413" lon="6.75755">
        <ele>637.57</ele>
        <time>2018-11-03T11:27:12.000Z</time>
      </trkpt>
      <trkpt lat="47.74131" lon="6.75757">
        <ele>637.89</ele>
        <time>2018-11-03T11:27:17.000Z</time>
      </trkpt>
      <trkpt lat="47.74129" lon="6.7576">
        <ele>638.2</ele>
        <time>2018-11-03T11:27:22.000Z</time>
      </trkpt>
      <trkpt lat="47.74127" lon="6.75763">
        <ele>638.52</ele>
        <time>2018-11-03T11:27:27.000Z</time>
      </trkpt>
      <trkpt lat="47.74126" lon="6.75769">
        <ele>638.63</ele>
        <time>2018-11-03T11:27:32.000Z</time>
      </trkpt>
      <trkpt lat="47.74125" lon="6.75778">
        <ele>638.74</ele>
        <time>2018-11-03T11:27:37.000Z</time>
      </trkpt>
      <trkpt lat="47.74124" lon="6.75784">
        <ele>638.86</ele>
        <time>2018-11-03T11:27:42.000Z</time>
      </trkpt>
      <trkpt lat="47.74123" lon="6.75788">
        <ele>638.91</ele>
        <time>2018-11-03T11:27:47.000Z</time>
      </trkpt>
      <trkpt lat="47.74123" lon="6.75794">
        <ele>638.97</ele>
        <time>2018-11-03T11:27:52.000Z</time>
      </trkpt>
      <trkpt lat="47.74127" lon="6.75797">
        <ele>639.03</ele>
        <time>2018-11-03T11:27:57.000Z</time>
      </trkpt>
      <trkpt lat="47.74129" lon="6.75798">
        <ele>639.03</ele>
        <time>2018-11-03T11:28:02.000Z</time>
      </trkpt>
      <trkpt lat="47.74131" lon="6.75799">
        <ele>639.04</ele>
        <time>2018-11-03T11:28:07.000Z</time>
      </trkpt>
      <trkpt lat="47.7413" lon="6.75799">
        <ele>639.04</ele>
        <time>2018-11-03T11:28:12.000Z</time>
      </trkpt>
      <trkpt lat="47.74129" lon="6.75799">
        <ele>639.06</ele>
        <time>2018-11-03T11:28:17.000Z</time>
      </trkpt>
      <trkpt lat="47.74125" lon="6.75799">
        <ele>639.09</ele>
        <time>2018-11-03T11:28:22.000Z</time>
      </trkpt>
      <trkpt lat="47.74125" lon="6.75799">
        <ele>639.11</ele>
        <time>2018-11-03T11:28:27.000Z</time>
      </trkpt>
      <trkpt lat="47.74131" lon="6.75803">
        <ele>639.17</ele>
        <time>2018-11-03T11:28:32.000Z</time>
      </trkpt>
      <trkpt lat="47.74132" lon="6.75807">
        <ele>639.24</ele>
        <time>2018-11-03T11:28:37.000Z</time>
      </trkpt>
      <trkpt lat="47.74132" lon="6.75809">
        <ele>639.3</ele>
        <time>2018-11-03T11:28:42.000Z</time>
      </trkpt>
      <trkpt lat="47.74135" lon="6.75812">
        <ele>639.7</ele>
        <time>2018-11-03T11:28:47.000Z</time>
      </trkpt>
      <trkpt lat="47.74135" lon="6.75816">
        <ele>640.09</ele>
        <time>2018-11-03T11:28:52.000Z</time>
      </trkpt>
      <trkpt lat="47.74141" lon="6.7582">
        <ele>640.49</ele>
        <time>2018-11-03T11:28:57.000Z</time>
      </trkpt>
      <trkpt lat="47.74146" lon="6.75824">
        <ele>641.28</ele>
        <time>2018-11-03T11:29:02.000Z</time>
      </trkpt>
      <trkpt lat="47.74151" lon="6.7583">
        <ele>642.08</ele>
        <time>2018-11-03T11:29:07.000Z</time>
      </trkpt>
      <trkpt lat="47.74157" lon="6.75836">
        <ele>642.87</ele>
        <time>2018-11-03T11:29:12.000Z</time>
      </trkpt>
      <trkpt lat="47.74163" lon="6.75841">
        <ele>643.65</ele>
        <time>2018-11-03T11:29:17.000Z</time>
      </trkpt>
      <trkpt lat="47.74167" lon="6.75844">
        <ele>644.42</ele>
        <time>2018-11-03T11:29:22.000Z</time>
      </trkpt>
      <trkpt lat="47.74173" lon="6.75848">
        <ele>645.19</ele>
        <time>2018-11-03T11:29:27.000Z</time>
      </trkpt>
      <trkpt lat="47.74176" lon="6.75852">
        <ele>646.1</ele>
        <time>2018-11-03T11:29:32.000Z</time>
      </trkpt>
      <trkpt lat="47.74179" lon="6.75853">
        <ele>647.01</ele>
        <time>2018-11-03T11:29:37.000Z</time>
      </trkpt>
      <trkpt lat="47.74183" lon="6.75854">
        <ele>647.92</ele>
        <time>2018-11-03T11:29:42.000Z</time>
      </trkpt>
      <trkpt lat="47.74189" lon="6.75858">
        <ele>648.16</ele>
        <time>2018-11-03T11:29:47.000Z</time>
      </trkpt>
      <trkpt lat="47.7419" lon="6.75859">
        <ele>648.41</ele>
        <time>2018-11-03T11:29:52.000Z</time>
      </trkpt>
      <trkpt lat="47.74191" lon="6.75862">
        <ele>648.65</ele>
        <time>2018-11-03T11:29:57.000Z</time>
      </trkpt>
      <trkpt lat="47.74193" lon="6.75865">
        <ele>649.01</ele>
        <time>2018-11-03T11:30:02.000Z</time>
      </trkpt>
      <trkpt lat="47.74194" lon="6.75867">
        <ele>649.36</ele>
        <time>2018-11-03T11:30:07.000Z</time>
      </trkpt>
      <trkpt lat="47.74196" lon="6.75868">
        <ele>649.72</ele>
        <time>2018-11-03T11:30:12.000Z</time>
      </trkpt>
      <trkpt lat="47.74198" lon="6.75872">
        <ele>650.57</ele>
        <time>2018-11-03T11:30:17.000Z</time>
      </trkpt>
      <trkpt lat="47.74199" lon="6.75873">
        <ele>651.42</ele>
        <time>2018-11-03T11:30:22.000Z</time>
      </trkpt>
      <trkpt lat="47.74203" lon="6.75876">
        <ele>652.28</ele>
        <time>2018-11-03T11:30:27.000Z</time>
      </trkpt>
      <trkpt lat="47.74207" lon="6.7588">
        <ele>652.85</ele>
        <time>2018-11-03T11:30:32.000Z</time>
      </trkpt>
      <trkpt lat="47.7421" lon="6.75883">
        <ele>653.42</ele>
        <time>2018-11-03T11:30:37.000Z</time>
      </trkpt>
      <trkpt lat="47.74211" lon="6.75886">
        <ele>653.99</ele>
        <time>2018-11-03T11:30:42.000Z</time>
      </trkpt>
      <trkpt lat="47.74213" lon="6.7589">
        <ele>654.34</ele>
        <time>2018-11-03T11:30:47.000Z</time>
      </trkpt>
      <trkpt lat="47.74216" lon="6.75896">
        <ele>654.68</ele>
        <time>2018-11-03T11:30:52.000Z</time>
      </trkpt>
      <trkpt lat="47.74217" lon="6.75902">
        <ele>655.02</ele>
        <time>2018-11-03T11:30:57.000Z</time>
      </trkpt>
      <trkpt lat="47.74218" lon="6.7591">
        <ele>655.31</ele>
        <time>2018-11-03T11:31:02.000Z</time>
      </trkpt>
      <trkpt lat="47.74218" lon="6.75919">
        <ele>655.6</ele>
        <time>2018-11-03T11:31:07.000Z</time>
      </trkpt>
      <trkpt lat="47.74217" lon="6.75932">
        <ele>655.89</ele>
        <time>2018-11-03T11:31:12.000Z</time>
      </trkpt>
      <trkpt lat="47.74217" lon="6.75944">
        <ele>656.05</ele>
        <time>2018-11-03T11:31:17.000Z</time>
      </trkpt>
      <trkpt lat="47.74218" lon="6.75953">
        <ele>656.22</ele>
        <time>2018-11-03T11:31:22.000Z</time>
      </trkpt>
      <trkpt lat="47.74219" lon="6.75953">
        <ele>656.38</ele>
        <time>2018-11-03T11:31:27.000Z</time>
      </trkpt>
      <trkpt lat="47.74218" lon="6.75952">
        <ele>656.26</ele>
        <time>2018-11-03T11:31:32.000Z</time>
      </trkpt>
      <trkpt lat="47.74218" lon="6.7595">
        <ele>656.14</ele>
        <time>2018-11-03T11:31:37.000Z</time>
      </trkpt>
      <trkpt lat="47.74217" lon="6.7595">
        <ele>656.03</ele>
        <time>2018-11-03T11:31:42.000Z</time>
      </trkpt>
      <trkpt lat="47.74217" lon="6.7595">
        <ele>656.1</ele>
        <time>2018-11-03T11:31:47.000Z</time>
      </trkpt>
      <trkpt lat="47.74219" lon="6.75949">
        <ele>656.17</ele>
        <time>2018-11-03T11:31:52.000Z</time>
      </trkpt>
      <trkpt lat="47.74218" lon="6.75951">
        <ele>656.24</ele>
        <time>2018-11-03T11:31:57.000Z</time>
      </trkpt>
      <trkpt lat="47.74218" lon="6.75954">
        <ele>656.08</ele>
        <time>2018-11-03T11:32:02.000Z</time>
      </trkpt>
      <trkpt lat="47.74216" lon="6.75958">
        <ele>655.92</ele>
        <time>2018-11-03T11:32:07.000Z</time>
      </trkpt>
      <trkpt lat="47.74213" lon="6.75968">
        <ele>655.76</ele>
        <time>2018-11-03T11:32:12.000Z</time>
      </trkpt>
      <trkpt lat="47.74213" lon="6.75984">
        <ele>655.15</ele>
        <time>2018-11-03T11:32:17.000Z</time>
      </trkpt>
      <trkpt lat="47.74209" lon="6.76003">
        <ele>654.54</ele>
        <time>2018-11-03T11:32:22.000Z</time>
      </trkpt>
      <trkpt lat="47.74207" lon="6.76024">
        <ele>653.93</ele>
        <time>2018-11-03T11:32:27.000Z</time>
      </trkpt>
      <trkpt lat="47.74204" lon="6.76044">
        <ele>653.72</ele>
        <time>2018-11-03T11:32:32.000Z</time>
      </trkpt>
      <trkpt lat="47.742" lon="6.76066">
        <ele>653.51</ele>
        <time>2018-11-03T11:32:37.000Z</time>
      </trkpt>
      <trkpt lat="47.74189" lon="6.76084">
        <ele>653.3</ele>
        <time>2018-11-03T11:32:42.000Z</time>
      </trkpt>
      <trkpt lat="47.74181" lon="6.76101">
        <ele>652.86</ele>
        <time>2018-11-03T11:32:47.000Z</time>
      </trkpt>
      <trkpt lat="47.74177" lon="6.76117">
        <ele>652.42</ele>
        <time>2018-11-03T11:32:52.000Z</time>
      </trkpt>
      <trkpt lat="47.74172" lon="6.76133">
        <ele>651.97</ele>
        <time>2018-11-03T11:32:57.000Z</time>
      </trkpt>
      <trkpt lat="47.74167" lon="6.76152">
        <ele>651.77</ele>
        <time>2018-11-03T11:33:02.000Z</time>
      </trkpt>
      <trkpt lat="47.74162" lon="6.76174">
        <ele>651.57</ele>
        <time>2018-11-03T11:33:07.000Z</time>
      </trkpt>
      <trkpt lat="47.74159" lon="6.762">
        <ele>651.37</ele>
        <time>2018-11-03T11:33:12.000Z</time>
      </trkpt>
      <trkpt lat="47.74153" lon="6.76234">
        <ele>651.39</ele>
        <time>2018-11-03T11:33:17.000Z</time>
      </trkpt>
      <trkpt lat="47.74154" lon="6.76277">
        <ele>651.4</ele>
        <time>2018-11-03T11:33:22.000Z</time>
      </trkpt>
      <trkpt lat="47.74159" lon="6.76317">
        <ele>651.42</ele>
        <time>2018-11-03T11:33:27.000Z</time>
      </trkpt>
      <trkpt lat="47.74167" lon="6.76352">
        <ele>650.93</ele>
        <time>2018-11-03T11:33:32.000Z</time>
      </trkpt>
      <trkpt lat="47.74181" lon="6.76383">
        <ele>650.44</ele>
        <time>2018-11-03T11:33:37.000Z</time>
      </trkpt>
      <trkpt lat="47.74193" lon="6.76414">
        <ele>649.95</ele>
        <time>2018-11-03T11:33:42.000Z</time>
      </trkpt>
      <trkpt lat="47.74205" lon="6.76441">
        <ele>648.92</ele>
        <time>2018-11-03T11:33:47.000Z</time>
      </trkpt>
      <trkpt lat="47.74233" lon="6.76456">
        <ele>647.9</ele>
        <time>2018-11-03T11:33:52.000Z</time>
      </trkpt>
      <trkpt lat="47.74271" lon="6.7644">
        <ele>646.87</ele>
        <time>2018-11-03T11:33:57.000Z</time>
      </trkpt>
      <trkpt lat="47.74318" lon="6.76436">
        <ele>641.27</ele>
        <time>2018-11-03T11:34:02.000Z</time>
      </trkpt>
      <trkpt lat="47.74359" lon="6.76455">
        <ele>635.67</ele>
        <time>2018-11-03T11:34:07.000Z</time>
      </trkpt>
      <trkpt lat="47.74389" lon="6.76503">
        <ele>630.07</ele>
        <time>2018-11-03T11:34:12.000Z</time>
      </trkpt>
      <trkpt lat="47.744" lon="6.76567">
        <ele>627.65</ele>
        <time>2018-11-03T11:34:17.000Z</time>
      </trkpt>
      <trkpt lat="47.74379" lon="6.76613">
        <ele>625.24</ele>
        <time>2018-11-03T11:34:22.000Z</time>
      </trkpt>
      <trkpt lat="47.74363" lon="6.76673">
        <ele>622.82</ele>
        <time>2018-11-03T11:34:27.000Z</time>
      </trkpt>
      <trkpt lat="47.74338" lon="6.76726">
        <ele>617.93</ele>
        <time>2018-11-03T11:34:32.000Z</time>
      </trkpt>
      <trkpt lat="47.74301" lon="6.76767">
        <ele>613.05</ele>
        <time>2018-11-03T11:34:37.000Z</time>
      </trkpt>
      <trkpt lat="47.74266" lon="6.76811">
        <ele>608.16</ele>
        <time>2018-11-03T11:34:42.000Z</time>
      </trkpt>
      <trkpt lat="47.74234" lon="6.76823">
        <ele>603.81</ele>
        <time>2018-11-03T11:34:47.000Z</time>
      </trkpt>
      <trkpt lat="47.7419" lon="6.76847">
        <ele>599.47</ele>
        <time>2018-11-03T11:34:52.000Z</time>
      </trkpt>
      <trkpt lat="47.74147" lon="6.76865">
        <ele>595.12</ele>
        <time>2018-11-03T11:34:57.000Z</time>
      </trkpt>
      <trkpt lat="47.7411" lon="6.76873">
        <ele>592.4</ele>
        <time>2018-11-03T11:35:02.000Z</time>
      </trkpt>
      <trkpt lat="47.74076" lon="6.76907">
        <ele>589.67</ele>
        <time>2018-11-03T11:35:07.000Z</time>
      </trkpt>
      <trkpt lat="47.74043" lon="6.76938">
        <ele>586.94</ele>
        <time>2018-11-03T11:35:12.000Z</time>
      </trkpt>
      <trkpt lat="47.74013" lon="6.76971">
        <ele>582.98</ele>
        <time>2018-11-03T11:35:17.000Z</time>
      </trkpt>
      <trkpt lat="47.73994" lon="6.77021">
        <ele>579.02</ele>
        <time>2018-11-03T11:35:22.000Z</time>
      </trkpt>
      <trkpt lat="47.73975" lon="6.77087">
        <ele>575.05</ele>
        <time>2018-11-03T11:35:27.000Z</time>
      </trkpt>
      <trkpt lat="47.73947" lon="6.77148">
        <ele>569.25</ele>
        <time>2018-11-03T11:35:32.000Z</time>
      </trkpt>
      <trkpt lat="47.73909" lon="6.77163">
        <ele>563.44</ele>
        <time>2018-11-03T11:35:37.000Z</time>
      </trkpt>
      <trkpt lat="47.73868" lon="6.77168">
        <ele>557.63</ele>
        <time>2018-11-03T11:35:42.000Z</time>
      </trkpt>
      <trkpt lat="47.73823" lon="6.77205">
        <ele>550.32</ele>
        <time>2018-11-03T11:35:47.000Z</time>
      </trkpt>
      <trkpt lat="47.73779" lon="6.77229">
        <ele>543.01</ele>
        <time>2018-11-03T11:35:52.000Z</time>
      </trkpt>
      <trkpt lat="47.7372" lon="6.77266">
        <ele>535.7</ele>
        <time>2018-11-03T11:35:57.000Z</time>
      </trkpt>
      <trkpt lat="47.73675" lon="6.77244">
        <ele>531.33</ele>
        <time>2018-11-03T11:36:02.000Z</time>
      </trkpt>
      <trkpt lat="47.73625" lon="6.77221">
        <ele>526.96</ele>
        <time>2018-11-03T11:36:07.000Z</time>
      </trkpt>
      <trkpt lat="47.73577" lon="6.77211">
        <ele>522.59</ele>
        <time>2018-11-03T11:36:12.000Z</time>
      </trkpt>
      <trkpt lat="47.73534" lon="6.77177">
        <ele>520.5</ele>
        <time>2018-11-03T11:36:17.000Z</time>
      </trkpt>
      <trkpt lat="47.73496" lon="6.77123">
        <ele>518.42</ele>
        <time>2018-11-03T11:36:22.000Z</time>
      </trkpt>
      <trkpt lat="47.73454" lon="6.77083">
        <ele>516.33</ele>
        <time>2018-11-03T11:36:27.000Z</time>
      </trkpt>
      <trkpt lat="47.73415" lon="6.77056">
        <ele>516.19</ele>
        <time>2018-11-03T11:36:32.000Z</time>
      </trkpt>
      <trkpt lat="47.73381" lon="6.77023">
        <ele>516.04</ele>
        <time>2018-11-03T11:36:37.000Z</time>
      </trkpt>
      <trkpt lat="47.73353" lon="6.76986">
        <ele>515.9</ele>
        <time>2018-11-03T11:36:42.000Z</time>
      </trkpt>
      <trkpt lat="47.73333" lon="6.76958">
        <ele>515.69</ele>
        <time>2018-11-03T11:36:47.000Z</time>
      </trkpt>
      <trkpt lat="47.73307" lon="6.76931">
        <ele>515.48</ele>
        <time>2018-11-03T11:36:52.000Z</time>
      </trkpt>
      <trkpt lat="47.73278" lon="6.76913">
        <ele>515.27</ele>
        <time>2018-11-03T11:36:57.000Z</time>
      </trkpt>
      <trkpt lat="47.73253" lon="6.76898">
        <ele>515.12</ele>
        <time>2018-11-03T11:37:02.000Z</time>
      </trkpt>
      <trkpt lat="47.73228" lon="6.76889">
        <ele>514.97</ele>
        <time>2018-11-03T11:37:07.000Z</time>
      </trkpt>
      <trkpt lat="47.73208" lon="6.76895">
        <ele>514.83</ele>
        <time>2018-11-03T11:37:12.000Z</time>
      </trkpt>
      <trkpt lat="47.73188" lon="6.76886">
        <ele>514.52</ele>
        <time>2018-11-03T11:37:17.000Z</time>
      </trkpt>
      <trkpt lat="47.73165" lon="6.76874">
        <ele>514.21</ele>
        <time>2018-11-03T11:37:22.000Z</time>
      </trkpt>
      <trkpt lat="47.7314" lon="6.76867">
        <ele>513.9</ele>
        <time>2018-11-03T11:37:27.000Z</time>
      </trkpt>
      <trkpt lat="47.73114" lon="6.76874">
        <ele>514.35</ele>
        <time>2018-11-03T11:37:32.000Z</time>
      </trkpt>
      <trkpt lat="47.73098" lon="6.76905">
        <ele>514.8</ele>
        <time>2018-11-03T11:37:37.000Z</time>
      </trkpt>
      <trkpt lat="47.73089" lon="6.7694">
        <ele>515.25</ele>
        <time>2018-11-03T11:37:42.000Z</time>
      </trkpt>
      <trkpt lat="47.73081" lon="6.76974">
        <ele>516.47</ele>
        <time>2018-11-03T11:37:47.000Z</time>
      </trkpt>
      <trkpt lat="47.73076" lon="6.77005">
        <ele>517.7</ele>
        <time>2018-11-03T11:37:52.000Z</time>
      </trkpt>
      <trkpt lat="47.73068" lon="6.77039">
        <ele>518.92</ele>
        <time>2018-11-03T11:37:57.000Z</time>
      </trkpt>
      <trkpt lat="47.73056" lon="6.77065">
        <ele>520.03</ele>
        <time>2018-11-03T11:38:02.000Z</time>
      </trkpt>
      <trkpt lat="47.73041" lon="6.77083">
        <ele>521.15</ele>
        <time>2018-11-03T11:38:07.000Z</time>
      </trkpt>
      <trkpt lat="47.73023" lon="6.77091">
        <ele>522.26</ele>
        <time>2018-11-03T11:38:12.000Z</time>
      </trkpt>
      <trkpt lat="47.73005" lon="6.771">
        <ele>522.76</ele>
        <time>2018-11-03T11:38:17.000Z</time>
      </trkpt>
      <trkpt lat="47.72985" lon="6.77107">
        <ele>523.26</ele>
        <time>2018-11-03T11:38:22.000Z</time>
      </trkpt>
      <trkpt lat="47.72968" lon="6.77113">
        <ele>523.76</ele>
        <time>2018-11-03T11:38:27.000Z</time>
      </trkpt>
      <trkpt lat="47.72953" lon="6.77117">
        <ele>524.09</ele>
        <time>2018-11-03T11:38:32.000Z</time>
      </trkpt>
      <trkpt lat="47.72939" lon="6.77122">
        <ele>524.42</ele>
        <time>2018-11-03T11:38:37.000Z</time>
      </trkpt>
      <trkpt lat="47.72926" lon="6.77128">
        <ele>524.75</ele>
        <time>2018-11-03T11:38:42.000Z</time>
      </trkpt>
      <trkpt lat="47.72914" lon="6.77131">
        <ele>526.11</ele>
        <time>2018-11-03T11:38:47.000Z</time>
      </trkpt>
      <trkpt lat="47.72905" lon="6.77131">
        <ele>527.47</ele>
        <time>2018-11-03T11:38:52.000Z</time>
      </trkpt>
      <trkpt lat="47.72896" lon="6.77127">
        <ele>528.83</ele>
        <time>2018-11-03T11:38:57.000Z</time>
      </trkpt>
      <trkpt lat="47.72886" lon="6.77124">
        <ele>530.33</ele>
        <time>2018-11-03T11:39:02.000Z</time>
      </trkpt>
      <trkpt lat="47.72876" lon="6.77126">
        <ele>531.83</ele>
        <time>2018-11-03T11:39:07.000Z</time>
      </trkpt>
      <trkpt lat="47.72868" lon="6.77126">
        <ele>533.33</ele>
        <time>2018-11-03T11:39:12.000Z</time>
      </trkpt>
      <trkpt lat="47.72858" lon="6.77127">
        <ele>533.95</ele>
        <time>2018-11-03T11:39:17.000Z</time>
      </trkpt>
      <trkpt lat="47.72849" lon="6.77127">
        <ele>534.57</ele>
        <time>2018-11-03T11:39:22.000Z</time>
      </trkpt>
      <trkpt lat="47.72841" lon="6.77129">
        <ele>535.2</ele>
        <time>2018-11-03T11:39:27.000Z</time>
      </trkpt>
      <trkpt lat="47.72831" lon="6.77131">
        <ele>536.99</ele>
        <time>2018-11-03T11:39:32.000Z</time>
      </trkpt>
      <trkpt lat="47.72824" lon="6.77132">
        <ele>538.79</ele>
        <time>2018-11-03T11:39:37.000Z</time>
      </trkpt>
      <trkpt lat="47.72814" lon="6.77135">
        <ele>540.59</ele>
        <time>2018-11-03T11:39:42.000Z</time>
      </trkpt>
      <trkpt lat="47.72803" lon="6.77138">
        <ele>541.06</ele>
        <time>2018-11-03T11:39:47.000Z</time>
      </trkpt>
      <trkpt lat="47.72792" lon="6.77141">
        <ele>541.53</ele>
        <time>2018-11-03T11:39:52.000Z</time>
      </trkpt>
      <trkpt lat="47.7278" lon="6.77143">
        <ele>542</ele>
        <time>2018-11-03T11:39:57.000Z</time>
      </trkpt>
      <trkpt lat="47.72766" lon="6.77144">
        <ele>541.04</ele>
        <time>2018-11-03T11:40:02.000Z</time>
      </trkpt>
      <trkpt lat="47.72751" lon="6.77149">
        <ele>540.07</ele>
        <time>2018-11-03T11:40:07.000Z</time>
      </trkpt>
      <trkpt lat="47.72736" lon="6.77152">
        <ele>539.11</ele>
        <time>2018-11-03T11:40:12.000Z</time>
      </trkpt>
      <trkpt lat="47.72719" lon="6.77152">
        <ele>537.36</ele>
        <time>2018-11-03T11:40:17.000Z</time>
      </trkpt>
      <trkpt lat="47.72696" lon="6.77147">
        <ele>535.6</ele>
        <time>2018-11-03T11:40:22.000Z</time>
      </trkpt>
      <trkpt lat="47.72673" lon="6.77135">
        <ele>533.85</ele>
        <time>2018-11-03T11:40:27.000Z</time>
      </trkpt>
      <trkpt lat="47.72644" lon="6.77111">
        <ele>531.54</ele>
        <time>2018-11-03T11:40:32.000Z</time>
      </trkpt>
      <trkpt lat="47.72606" lon="6.77088">
        <ele>529.24</ele>
        <time>2018-11-03T11:40:37.000Z</time>
      </trkpt>
      <trkpt lat="47.72557" lon="6.77065">
        <ele>526.93</ele>
        <time>2018-11-03T11:40:42.000Z</time>
      </trkpt>
      <trkpt lat="47.72509" lon="6.77054">
        <ele>528.93</ele>
        <time>2018-11-03T11:40:47.000Z</time>
      </trkpt>
      <trkpt lat="47.72473" lon="6.77057">
        <ele>530.93</ele>
        <time>2018-11-03T11:40:52.000Z</time>
      </trkpt>
      <trkpt lat="47.72451" lon="6.77066">
        <ele>532.93</ele>
        <time>2018-11-03T11:40:57.000Z</time>
      </trkpt>
      <trkpt lat="47.7244" lon="6.77069">
        <ele>535.27</ele>
        <time>2018-11-03T11:41:02.000Z</time>
      </trkpt>
      <trkpt lat="47.72431" lon="6.77071">
        <ele>537.61</ele>
        <time>2018-11-03T11:41:07.000Z</time>
      </trkpt>
      <trkpt lat="47.72421" lon="6.77072">
        <ele>539.95</ele>
        <time>2018-11-03T11:41:12.000Z</time>
      </trkpt>
      <trkpt lat="47.72414" lon="6.77072">
        <ele>541.26</ele>
        <time>2018-11-03T11:41:17.000Z</time>
      </trkpt>
      <trkpt lat="47.72407" lon="6.77073">
        <ele>542.57</ele>
        <time>2018-11-03T11:41:22.000Z</time>
      </trkpt>
      <trkpt lat="47.72398" lon="6.77074">
        <ele>543.88</ele>
        <time>2018-11-03T11:41:27.000Z</time>
      </trkpt>
      <trkpt lat="47.72392" lon="6.77078">
        <ele>544.49</ele>
        <time>2018-11-03T11:41:32.000Z</time>
      </trkpt>
      <trkpt lat="47.72387" lon="6.77081">
        <ele>545.1</ele>
        <time>2018-11-03T11:41:37.000Z</time>
      </trkpt>
      <trkpt lat="47.72381" lon="6.77083">
        <ele>545.71</ele>
        <time>2018-11-03T11:41:42.000Z</time>
      </trkpt>
      <trkpt lat="47.72375" lon="6.77085">
        <ele>546.11</ele>
        <time>2018-11-03T11:41:47.000Z</time>
      </trkpt>
      <trkpt lat="47.72369" lon="6.77086">
        <ele>546.51</ele>
        <time>2018-11-03T11:41:52.000Z</time>
      </trkpt>
      <trkpt lat="47.72362" lon="6.77092">
        <ele>546.91</ele>
        <time>2018-11-03T11:41:57.000Z</time>
      </trkpt>
      <trkpt lat="47.72355" lon="6.77095">
        <ele>546.05</ele>
        <time>2018-11-03T11:42:02.000Z</time>
      </trkpt>
      <trkpt lat="47.72347" lon="6.77097">
        <ele>545.19</ele>
        <time>2018-11-03T11:42:07.000Z</time>
      </trkpt>
      <trkpt lat="47.7234" lon="6.771">
        <ele>544.33</ele>
        <time>2018-11-03T11:42:12.000Z</time>
      </trkpt>
      <trkpt lat="47.7233" lon="6.77104">
        <ele>542.13</ele>
        <time>2018-11-03T11:42:17.000Z</time>
      </trkpt>
      <trkpt lat="47.72321" lon="6.77108">
        <ele>539.93</ele>
        <time>2018-11-03T11:42:22.000Z</time>
      </trkpt>
      <trkpt lat="47.72307" lon="6.77121">
        <ele>537.73</ele>
        <time>2018-11-03T11:42:27.000Z</time>
      </trkpt>
      <trkpt lat="47.72291" lon="6.77139">
        <ele>533.17</ele>
        <time>2018-11-03T11:42:32.000Z</time>
      </trkpt>
      <trkpt lat="47.72271" lon="6.77158">
        <ele>528.6</ele>
        <time>2018-11-03T11:42:37.000Z</time>
      </trkpt>
      <trkpt lat="47.72252" lon="6.77204">
        <ele>524.04</ele>
        <time>2018-11-03T11:42:42.000Z</time>
      </trkpt>
      <trkpt lat="47.72243" lon="6.77259">
        <ele>521.83</ele>
        <time>2018-11-03T11:42:47.000Z</time>
      </trkpt>
      <trkpt lat="47.72244" lon="6.77316">
        <ele>519.63</ele>
        <time>2018-11-03T11:42:52.000Z</time>
      </trkpt>
      <trkpt lat="47.72238" lon="6.77372">
        <ele>517.42</ele>
        <time>2018-11-03T11:42:57.000Z</time>
      </trkpt>
      <trkpt lat="47.72208" lon="6.77394">
        <ele>516.42</ele>
        <time>2018-11-03T11:43:02.000Z</time>
      </trkpt>
      <trkpt lat="47.72191" lon="6.77434">
        <ele>515.43</ele>
        <time>2018-11-03T11:43:07.000Z</time>
      </trkpt>
      <trkpt lat="47.72173" lon="6.77491">
        <ele>514.43</ele>
        <time>2018-11-03T11:43:12.000Z</time>
      </trkpt>
      <trkpt lat="47.7216" lon="6.77528">
        <ele>512.85</ele>
        <time>2018-11-03T11:43:17.000Z</time>
      </trkpt>
      <trkpt lat="47.72146" lon="6.7757">
        <ele>511.28</ele>
        <time>2018-11-03T11:43:22.000Z</time>
      </trkpt>
      <trkpt lat="47.72132" lon="6.77612">
        <ele>509.7</ele>
        <time>2018-11-03T11:43:27.000Z</time>
      </trkpt>
      <trkpt lat="47.72117" lon="6.77649">
        <ele>505.86</ele>
        <time>2018-11-03T11:43:32.000Z</time>
      </trkpt>
      <trkpt lat="47.72103" lon="6.77686">
        <ele>502.02</ele>
        <time>2018-11-03T11:43:37.000Z</time>
      </trkpt>
      <trkpt lat="47.72083" lon="6.7772">
        <ele>498.17</ele>
        <time>2018-11-03T11:43:42.000Z</time>
      </trkpt>
      <trkpt lat="47.72056" lon="6.7777">
        <ele>499.85</ele>
        <time>2018-11-03T11:43:47.000Z</time>
      </trkpt>
      <trkpt lat="47.72034" lon="6.77755">
        <ele>501.53</ele>
        <time>2018-11-03T11:43:52.000Z</time>
      </trkpt>
      <trkpt lat="47.72031" lon="6.77729">
        <ele>503.21</ele>
        <time>2018-11-03T11:43:57.000Z</time>
      </trkpt>
      <trkpt lat="47.72024" lon="6.777">
        <ele>501.33</ele>
        <time>2018-11-03T11:44:02.000Z</time>
      </trkpt>
      <trkpt lat="47.72008" lon="6.77672">
        <ele>499.45</ele>
        <time>2018-11-03T11:44:07.000Z</time>
      </trkpt>
      <trkpt lat="47.71989" lon="6.77641">
        <ele>497.58</ele>
        <time>2018-11-03T11:44:12.000Z</time>
      </trkpt>
      <trkpt lat="47.71965" lon="6.77603">
        <ele>495.34</ele>
        <time>2018-11-03T11:44:17.000Z</time>
      </trkpt>
      <trkpt lat="47.7194" lon="6.7756">
        <ele>493.11</ele>
        <time>2018-11-03T11:44:22.000Z</time>
      </trkpt>
      <trkpt lat="47.7192" lon="6.77505">
        <ele>490.88</ele>
        <time>2018-11-03T11:44:27.000Z</time>
      </trkpt>
      <trkpt lat="47.71901" lon="6.77471">
        <ele>491.2</ele>
        <time>2018-11-03T11:44:32.000Z</time>
      </trkpt>
      <trkpt lat="47.71883" lon="6.77447">
        <ele>491.51</ele>
        <time>2018-11-03T11:44:37.000Z</time>
      </trkpt>
      <trkpt lat="47.71872" lon="6.77428">
        <ele>491.83</ele>
        <time>2018-11-03T11:44:42.000Z</time>
      </trkpt>
      <trkpt lat="47.71861" lon="6.77416">
        <ele>492.73</ele>
        <time>2018-11-03T11:44:47.000Z</time>
      </trkpt>
      <trkpt lat="47.71851" lon="6.77404">
        <ele>493.64</ele>
        <time>2018-11-03T11:44:52.000Z</time>
      </trkpt>
      <trkpt lat="47.71845" lon="6.77392">
        <ele>494.54</ele>
        <time>2018-11-03T11:44:57.000Z</time>
      </trkpt>
      <trkpt lat="47.71839" lon="6.7738">
        <ele>495.16</ele>
        <time>2018-11-03T11:45:02.000Z</time>
      </trkpt>
      <trkpt lat="47.71834" lon="6.77366">
        <ele>495.79</ele>
        <time>2018-11-03T11:45:07.000Z</time>
      </trkpt>
      <trkpt lat="47.7183" lon="6.77353">
        <ele>496.42</ele>
        <time>2018-11-03T11:45:12.000Z</time>
      </trkpt>
      <trkpt lat="47.71826" lon="6.7734">
        <ele>497.08</ele>
        <time>2018-11-03T11:45:17.000Z</time>
      </trkpt>
      <trkpt lat="47.71823" lon="6.7733">
        <ele>497.75</ele>
        <time>2018-11-03T11:45:22.000Z</time>
      </trkpt>
      <trkpt lat="47.71818" lon="6.77321">
        <ele>498.41</ele>
        <time>2018-11-03T11:45:27.000Z</time>
      </trkpt>
      <trkpt lat="47.71813" lon="6.77311">
        <ele>499.41</ele>
        <time>2018-11-03T11:45:32.000Z</time>
      </trkpt>
      <trkpt lat="47.71805" lon="6.77302">
        <ele>500.42</ele>
        <time>2018-11-03T11:45:37.000Z</time>
      </trkpt>
      <trkpt lat="47.71799" lon="6.77296">
        <ele>501.42</ele>
        <time>2018-11-03T11:45:42.000Z</time>
      </trkpt>
      <trkpt lat="47.71794" lon="6.77291">
        <ele>502.74</ele>
        <time>2018-11-03T11:45:47.000Z</time>
      </trkpt>
      <trkpt lat="47.7179" lon="6.77283">
        <ele>504.05</ele>
        <time>2018-11-03T11:45:52.000Z</time>
      </trkpt>
      <trkpt lat="47.71785" lon="6.77276">
        <ele>505.37</ele>
        <time>2018-11-03T11:45:57.000Z</time>
      </trkpt>
      <trkpt lat="47.71783" lon="6.77268">
        <ele>505.82</ele>
        <time>2018-11-03T11:46:02.000Z</time>
      </trkpt>
      <trkpt lat="47.71781" lon="6.77261">
        <ele>506.27</ele>
        <time>2018-11-03T11:46:07.000Z</time>
      </trkpt>
      <trkpt lat="47.71778" lon="6.77252">
        <ele>506.72</ele>
        <time>2018-11-03T11:46:12.000Z</time>
      </trkpt>
      <trkpt lat="47.71775" lon="6.77244">
        <ele>507.39</ele>
        <time>2018-11-03T11:46:17.000Z</time>
      </trkpt>
      <trkpt lat="47.71771" lon="6.77238">
        <ele>508.07</ele>
        <time>2018-11-03T11:46:22.000Z</time>
      </trkpt>
      <trkpt lat="47.71769" lon="6.77232">
        <ele>508.75</ele>
        <time>2018-11-03T11:46:27.000Z</time>
      </trkpt>
      <trkpt lat="47.71767" lon="6.77227">
        <ele>510.12</ele>
        <time>2018-11-03T11:46:32.000Z</time>
      </trkpt>
      <trkpt lat="47.71764" lon="6.7722">
        <ele>511.49</ele>
        <time>2018-11-03T11:46:37.000Z</time>
      </trkpt>
      <trkpt lat="47.71761" lon="6.77213">
        <ele>512.86</ele>
        <time>2018-11-03T11:46:42.000Z</time>
      </trkpt>
      <trkpt lat="47.71758" lon="6.77207">
        <ele>514.15</ele>
        <time>2018-11-03T11:46:47.000Z</time>
      </trkpt>
      <trkpt lat="47.71753" lon="6.77201">
        <ele>515.45</ele>
        <time>2018-11-03T11:46:52.000Z</time>
      </trkpt>
      <trkpt lat="47.71749" lon="6.77194">
        <ele>516.75</ele>
        <time>2018-11-03T11:46:57.000Z</time>
      </trkpt>
      <trkpt lat="47.71745" lon="6.77187">
        <ele>517.89</ele>
        <time>2018-11-03T11:47:02.000Z</time>
      </trkpt>
      <trkpt lat="47.71741" lon="6.77183">
        <ele>519.03</ele>
        <time>2018-11-03T11:47:07.000Z</time>
      </trkpt>
      <trkpt lat="47.71736" lon="6.77177">
        <ele>520.17</ele>
        <time>2018-11-03T11:47:12.000Z</time>
      </trkpt>
      <trkpt lat="47.71732" lon="6.77171">
        <ele>521.38</ele>
        <time>2018-11-03T11:47:17.000Z</time>
      </trkpt>
      <trkpt lat="47.71728" lon="6.77166">
        <ele>522.58</ele>
        <time>2018-11-03T11:47:22.000Z</time>
      </trkpt>
      <trkpt lat="47.71722" lon="6.77162">
        <ele>523.79</ele>
        <time>2018-11-03T11:47:27.000Z</time>
      </trkpt>
      <trkpt lat="47.71716" lon="6.77159">
        <ele>524.97</ele>
        <time>2018-11-03T11:47:32.000Z</time>
      </trkpt>
      <trkpt lat="47.71711" lon="6.77157">
        <ele>526.15</ele>
        <time>2018-11-03T11:47:37.000Z</time>
      </trkpt>
      <trkpt lat="47.71704" lon="6.77155">
        <ele>527.34</ele>
        <time>2018-11-03T11:47:42.000Z</time>
      </trkpt>
      <trkpt lat="47.71698" lon="6.77153">
        <ele>528.09</ele>
        <time>2018-11-03T11:47:47.000Z</time>
      </trkpt>
      <trkpt lat="47.71692" lon="6.77151">
        <ele>528.85</ele>
        <time>2018-11-03T11:47:52.000Z</time>
      </trkpt>
      <trkpt lat="47.71686" lon="6.77149">
        <ele>529.6</ele>
        <time>2018-11-03T11:47:57.000Z</time>
      </trkpt>
      <trkpt lat="47.71678" lon="6.77144">
        <ele>530.31</ele>
        <time>2018-11-03T11:48:02.000Z</time>
      </trkpt>
      <trkpt lat="47.7167" lon="6.77139">
        <ele>531.01</ele>
        <time>2018-11-03T11:48:07.000Z</time>
      </trkpt>
      <trkpt lat="47.71662" lon="6.77137">
        <ele>531.72</ele>
        <time>2018-11-03T11:48:12.000Z</time>
      </trkpt>
      <trkpt lat="47.71654" lon="6.77138">
        <ele>532.71</ele>
        <time>2018-11-03T11:48:17.000Z</time>
      </trkpt>
      <trkpt lat="47.71645" lon="6.77143">
        <ele>533.7</ele>
        <time>2018-11-03T11:48:22.000Z</time>
      </trkpt>
      <trkpt lat="47.71636" lon="6.77147">
        <ele>534.69</ele>
        <time>2018-11-03T11:48:27.000Z</time>
      </trkpt>
      <trkpt lat="47.71626" lon="6.77153">
        <ele>535.56</ele>
        <time>2018-11-03T11:48:32.000Z</time>
      </trkpt>
      <trkpt lat="47.71616" lon="6.77158">
        <ele>536.44</ele>
        <time>2018-11-03T11:48:37.000Z</time>
      </trkpt>
      <trkpt lat="47.71607" lon="6.77163">
        <ele>537.31</ele>
        <time>2018-11-03T11:48:42.000Z</time>
      </trkpt>
      <trkpt lat="47.71601" lon="6.77166">
        <ele>537.81</ele>
        <time>2018-11-03T11:48:47.000Z</time>
      </trkpt>
      <trkpt lat="47.71592" lon="6.7717">
        <ele>538.32</ele>
        <time>2018-11-03T11:48:52.000Z</time>
      </trkpt>
      <trkpt lat="47.71584" lon="6.77172">
        <ele>538.83</ele>
        <time>2018-11-03T11:48:57.000Z</time>
      </trkpt>
      <trkpt lat="47.71577" lon="6.77172">
        <ele>539.17</ele>
        <time>2018-11-03T11:49:02.000Z</time>
      </trkpt>
      <trkpt lat="47.7157" lon="6.7717">
        <ele>539.52</ele>
        <time>2018-11-03T11:49:07.000Z</time>
      </trkpt>
      <trkpt lat="47.71562" lon="6.77169">
        <ele>539.86</ele>
        <time>2018-11-03T11:49:12.000Z</time>
      </trkpt>
      <trkpt lat="47.71556" lon="6.77167">
        <ele>540.15</ele>
        <time>2018-11-03T11:49:17.000Z</time>
      </trkpt>
      <trkpt lat="47.71549" lon="6.77163">
        <ele>540.43</ele>
        <time>2018-11-03T11:49:22.000Z</time>
      </trkpt>
      <trkpt lat="47.71541" lon="6.77164">
        <ele>540.72</ele>
        <time>2018-11-03T11:49:27.000Z</time>
      </trkpt>
      <trkpt lat="47.71533" lon="6.77169">
        <ele>541.5</ele>
        <time>2018-11-03T11:49:32.000Z</time>
      </trkpt>
      <trkpt lat="47.71522" lon="6.77178">
        <ele>542.27</ele>
        <time>2018-11-03T11:49:37.000Z</time>
      </trkpt>
      <trkpt lat="47.71513" lon="6.77184">
        <ele>543.05</ele>
        <time>2018-11-03T11:49:42.000Z</time>
      </trkpt>
      <trkpt lat="47.71502" lon="6.77194">
        <ele>543.3</ele>
        <time>2018-11-03T11:49:47.000Z</time>
      </trkpt>
      <trkpt lat="47.71488" lon="6.77201">
        <ele>543.55</ele>
        <time>2018-11-03T11:49:52.000Z</time>
      </trkpt>
      <trkpt lat="47.71475" lon="6.77208">
        <ele>543.79</ele>
        <time>2018-11-03T11:49:57.000Z</time>
      </trkpt>
      <trkpt lat="47.71458" lon="6.77213">
        <ele>543.75</ele>
        <time>2018-11-03T11:50:02.000Z</time>
      </trkpt>
      <trkpt lat="47.71438" lon="6.77221">
        <ele>543.7</ele>
        <time>2018-11-03T11:50:07.000Z</time>
      </trkpt>
      <trkpt lat="47.71421" lon="6.77221">
        <ele>543.65</ele>
        <time>2018-11-03T11:50:12.000Z</time>
      </trkpt>
      <trkpt lat="47.71407" lon="6.77221">
        <ele>544.5</ele>
        <time>2018-11-03T11:50:17.000Z</time>
      </trkpt>
      <trkpt lat="47.71394" lon="6.77227">
        <ele>545.36</ele>
        <time>2018-11-03T11:50:22.000Z</time>
      </trkpt>
      <trkpt lat="47.71385" lon="6.77232">
        <ele>546.21</ele>
        <time>2018-11-03T11:50:27.000Z</time>
      </trkpt>
      <trkpt lat="47.7138" lon="6.77242">
        <ele>546.63</ele>
        <time>2018-11-03T11:50:32.000Z</time>
      </trkpt>
      <trkpt lat="47.71377" lon="6.77253">
        <ele>547.04</ele>
        <time>2018-11-03T11:50:37.000Z</time>
      </trkpt>
      <trkpt lat="47.71378" lon="6.77263">
        <ele>547.45</ele>
        <time>2018-11-03T11:50:42.000Z</time>
      </trkpt>
      <trkpt lat="47.71383" lon="6.77264">
        <ele>547.27</ele>
        <time>2018-11-03T11:50:47.000Z</time>
      </trkpt>
      <trkpt lat="47.71393" lon="6.77262">
        <ele>547.08</ele>
        <time>2018-11-03T11:50:52.000Z</time>
      </trkpt>
      <trkpt lat="47.71403" lon="6.77261">
        <ele>546.9</ele>
        <time>2018-11-03T11:50:57.000Z</time>
      </trkpt>
      <trkpt lat="47.71412" lon="6.77258">
        <ele>547.45</ele>
        <time>2018-11-03T11:51:02.000Z</time>
      </trkpt>
      <trkpt lat="47.71423" lon="6.77255">
        <ele>547.99</ele>
        <time>2018-11-03T11:51:07.000Z</time>
      </trkpt>
      <trkpt lat="47.71434" lon="6.7726">
        <ele>548.54</ele>
        <time>2018-11-03T11:51:12.000Z</time>
      </trkpt>
      <trkpt lat="47.71445" lon="6.77269">
        <ele>550.17</ele>
        <time>2018-11-03T11:51:17.000Z</time>
      </trkpt>
      <trkpt lat="47.71458" lon="6.77284">
        <ele>551.8</ele>
        <time>2018-11-03T11:51:22.000Z</time>
      </trkpt>
      <trkpt lat="47.71466" lon="6.77298">
        <ele>553.43</ele>
        <time>2018-11-03T11:51:27.000Z</time>
      </trkpt>
      <trkpt lat="47.71473" lon="6.77316">
        <ele>553.83</ele>
        <time>2018-11-03T11:51:32.000Z</time>
      </trkpt>
      <trkpt lat="47.71483" lon="6.7733">
        <ele>554.23</ele>
        <time>2018-11-03T11:51:37.000Z</time>
      </trkpt>
      <trkpt lat="47.7149" lon="6.77339">
        <ele>554.63</ele>
        <time>2018-11-03T11:51:42.000Z</time>
      </trkpt>
      <trkpt lat="47.71496" lon="6.77347">
        <ele>554.82</ele>
        <time>2018-11-03T11:51:47.000Z</time>
      </trkpt>
      <trkpt lat="47.71504" lon="6.77354">
        <ele>555.01</ele>
        <time>2018-11-03T11:51:52.000Z</time>
      </trkpt>
      <trkpt lat="47.71513" lon="6.77363">
        <ele>555.19</ele>
        <time>2018-11-03T11:51:57.000Z</time>
      </trkpt>
      <trkpt lat="47.71519" lon="6.77372">
        <ele>555.35</ele>
        <time>2018-11-03T11:52:02.000Z</time>
      </trkpt>
      <trkpt lat="47.71527" lon="6.77381">
        <ele>555.51</ele>
        <time>2018-11-03T11:52:07.000Z</time>
      </trkpt>
      <trkpt lat="47.71535" lon="6.7739">
        <ele>555.67</ele>
        <time>2018-11-03T11:52:12.000Z</time>
      </trkpt>
      <trkpt lat="47.71543" lon="6.77399">
        <ele>555.13</ele>
        <time>2018-11-03T11:52:17.000Z</time>
      </trkpt>
      <trkpt lat="47.7155" lon="6.77409">
        <ele>554.59</ele>
        <time>2018-11-03T11:52:22.000Z</time>
      </trkpt>
      <trkpt lat="47.71559" lon="6.7742">
        <ele>554.05</ele>
        <time>2018-11-03T11:52:27.000Z</time>
      </trkpt>
      <trkpt lat="47.71568" lon="6.77432">
        <ele>553.44</ele>
        <time>2018-11-03T11:52:32.000Z</time>
      </trkpt>
      <trkpt lat="47.71576" lon="6.77446">
        <ele>552.84</ele>
        <time>2018-11-03T11:52:37.000Z</time>
      </trkpt>
      <trkpt lat="47.71584" lon="6.77467">
        <ele>552.23</ele>
        <time>2018-11-03T11:52:42.000Z</time>
      </trkpt>
      <trkpt lat="47.71591" lon="6.77494">
        <ele>550.42</ele>
        <time>2018-11-03T11:52:47.000Z</time>
      </trkpt>
      <trkpt lat="47.716" lon="6.77525">
        <ele>548.6</ele>
        <time>2018-11-03T11:52:52.000Z</time>
      </trkpt>
      <trkpt lat="47.71609" lon="6.77571">
        <ele>546.78</ele>
        <time>2018-11-03T11:52:57.000Z</time>
      </trkpt>
      <trkpt lat="47.71618" lon="6.77617">
        <ele>546.07</ele>
        <time>2018-11-03T11:53:02.000Z</time>
      </trkpt>
      <trkpt lat="47.71628" lon="6.77665">
        <ele>545.35</ele>
        <time>2018-11-03T11:53:07.000Z</time>
      </trkpt>
      <trkpt lat="47.71634" lon="6.77708">
        <ele>544.63</ele>
        <time>2018-11-03T11:53:12.000Z</time>
      </trkpt>
      <trkpt lat="47.71643" lon="6.77749">
        <ele>544.23</ele>
        <time>2018-11-03T11:53:17.000Z</time>
      </trkpt>
      <trkpt lat="47.71651" lon="6.77797">
        <ele>543.83</ele>
        <time>2018-11-03T11:53:22.000Z</time>
      </trkpt>
      <trkpt lat="47.71664" lon="6.77841">
        <ele>543.43</ele>
        <time>2018-11-03T11:53:27.000Z</time>
      </trkpt>
      <trkpt lat="47.71674" lon="6.77887">
        <ele>545.01</ele>
        <time>2018-11-03T11:53:32.000Z</time>
      </trkpt>
      <trkpt lat="47.71679" lon="6.77919">
        <ele>546.6</ele>
        <time>2018-11-03T11:53:37.000Z</time>
      </trkpt>
      <trkpt lat="47.71682" lon="6.7796">
        <ele>548.19</ele>
        <time>2018-11-03T11:53:42.000Z</time>
      </trkpt>
      <trkpt lat="47.71685" lon="6.77991">
        <ele>548.12</ele>
        <time>2018-11-03T11:53:47.000Z</time>
      </trkpt>
      <trkpt lat="47.71686" lon="6.78022">
        <ele>548.05</ele>
        <time>2018-11-03T11:53:52.000Z</time>
      </trkpt>
      <trkpt lat="47.71688" lon="6.78051">
        <ele>547.99</ele>
        <time>2018-11-03T11:53:57.000Z</time>
      </trkpt>
      <trkpt lat="47.71694" lon="6.7808">
        <ele>547.33</ele>
        <time>2018-11-03T11:54:02.000Z</time>
      </trkpt>
      <trkpt lat="47.71696" lon="6.78114">
        <ele>546.68</ele>
        <time>2018-11-03T11:54:07.000Z</time>
      </trkpt>
      <trkpt lat="47.7169" lon="6.78145">
        <ele>546.02</ele>
        <time>2018-11-03T11:54:12.000Z</time>
      </trkpt>
      <trkpt lat="47.71677" lon="6.78174">
        <ele>542.64</ele>
        <time>2018-11-03T11:54:17.000Z</time>
      </trkpt>
      <trkpt lat="47.71654" lon="6.7822">
        <ele>539.25</ele>
        <time>2018-11-03T11:54:22.000Z</time>
      </trkpt>
      <trkpt lat="47.71644" lon="6.78281">
        <ele>535.87</ele>
        <time>2018-11-03T11:54:27.000Z</time>
      </trkpt>
      <trkpt lat="47.71633" lon="6.78331">
        <ele>534.91</ele>
        <time>2018-11-03T11:54:32.000Z</time>
      </trkpt>
      <trkpt lat="47.71618" lon="6.78365">
        <ele>533.96</ele>
        <time>2018-11-03T11:54:37.000Z</time>
      </trkpt>
      <trkpt lat="47.716" lon="6.78388">
        <ele>533.01</ele>
        <time>2018-11-03T11:54:42.000Z</time>
      </trkpt>
      <trkpt lat="47.71579" lon="6.78411">
        <ele>531.73</ele>
        <time>2018-11-03T11:54:47.000Z</time>
      </trkpt>
      <trkpt lat="47.71559" lon="6.78441">
        <ele>530.45</ele>
        <time>2018-11-03T11:54:52.000Z</time>
      </trkpt>
      <trkpt lat="47.71549" lon="6.78475">
        <ele>529.18</ele>
        <time>2018-11-03T11:54:57.000Z</time>
      </trkpt>
      <trkpt lat="47.71537" lon="6.78518">
        <ele>528.02</ele>
        <time>2018-11-03T11:55:02.000Z</time>
      </trkpt>
      <trkpt lat="47.71512" lon="6.78556">
        <ele>526.87</ele>
        <time>2018-11-03T11:55:07.000Z</time>
      </trkpt>
      <trkpt lat="47.7149" lon="6.78589">
        <ele>525.71</ele>
        <time>2018-11-03T11:55:12.000Z</time>
      </trkpt>
      <trkpt lat="47.7147" lon="6.78638">
        <ele>520.38</ele>
        <time>2018-11-03T11:55:17.000Z</time>
      </trkpt>
      <trkpt lat="47.71456" lon="6.78686">
        <ele>515.05</ele>
        <time>2018-11-03T11:55:22.000Z</time>
      </trkpt>
      <trkpt lat="47.71431" lon="6.78718">
        <ele>509.72</ele>
        <time>2018-11-03T11:55:27.000Z</time>
      </trkpt>
      <trkpt lat="47.71398" lon="6.78744">
        <ele>507.11</ele>
        <time>2018-11-03T11:55:32.000Z</time>
      </trkpt>
      <trkpt lat="47.71361" lon="6.78764">
        <ele>504.5</ele>
        <time>2018-11-03T11:55:37.000Z</time>
      </trkpt>
      <trkpt lat="47.71344" lon="6.78796">
        <ele>501.89</ele>
        <time>2018-11-03T11:55:42.000Z</time>
      </trkpt>
      <trkpt lat="47.71341" lon="6.78841">
        <ele>501.26</ele>
        <time>2018-11-03T11:55:47.000Z</time>
      </trkpt>
      <trkpt lat="47.7133" lon="6.78889">
        <ele>500.62</ele>
        <time>2018-11-03T11:55:52.000Z</time>
      </trkpt>
      <trkpt lat="47.71314" lon="6.7891">
        <ele>499.99</ele>
        <time>2018-11-03T11:55:57.000Z</time>
      </trkpt>
      <trkpt lat="47.71298" lon="6.78912">
        <ele>500.71</ele>
        <time>2018-11-03T11:56:02.000Z</time>
      </trkpt>
      <trkpt lat="47.7128" lon="6.78922">
        <ele>501.43</ele>
        <time>2018-11-03T11:56:07.000Z</time>
      </trkpt>
      <trkpt lat="47.71264" lon="6.78921">
        <ele>502.15</ele>
        <time>2018-11-03T11:56:12.000Z</time>
      </trkpt>
      <trkpt lat="47.71249" lon="6.78918">
        <ele>499.55</ele>
        <time>2018-11-03T11:56:17.000Z</time>
      </trkpt>
      <trkpt lat="47.71229" lon="6.78919">
        <ele>496.96</ele>
        <time>2018-11-03T11:56:22.000Z</time>
      </trkpt>
      <trkpt lat="47.71208" lon="6.78924">
        <ele>494.37</ele>
        <time>2018-11-03T11:56:27.000Z</time>
      </trkpt>
      <trkpt lat="47.71189" lon="6.78937">
        <ele>493.27</ele>
        <time>2018-11-03T11:56:32.000Z</time>
      </trkpt>
      <trkpt lat="47.7117" lon="6.78953">
        <ele>492.17</ele>
        <time>2018-11-03T11:56:37.000Z</time>
      </trkpt>
      <trkpt lat="47.71152" lon="6.78973">
        <ele>491.07</ele>
        <time>2018-11-03T11:56:42.000Z</time>
      </trkpt>
      <trkpt lat="47.71131" lon="6.78998">
        <ele>490.57</ele>
        <time>2018-11-03T11:56:47.000Z</time>
      </trkpt>
      <trkpt lat="47.711" lon="6.79025">
        <ele>490.06</ele>
        <time>2018-11-03T11:56:52.000Z</time>
      </trkpt>
      <trkpt lat="47.71063" lon="6.79051">
        <ele>489.56</ele>
        <time>2018-11-03T11:56:57.000Z</time>
      </trkpt>
      <trkpt lat="47.7103" lon="6.79086">
        <ele>489.53</ele>
        <time>2018-11-03T11:57:02.000Z</time>
      </trkpt>
      <trkpt lat="47.71009" lon="6.79127">
        <ele>489.5</ele>
        <time>2018-11-03T11:57:07.000Z</time>
      </trkpt>
      <trkpt lat="47.71004" lon="6.79174">
        <ele>489.46</ele>
        <time>2018-11-03T11:57:12.000Z</time>
      </trkpt>
      <trkpt lat="47.71003" lon="6.79216">
        <ele>489.42</ele>
        <time>2018-11-03T11:57:17.000Z</time>
      </trkpt>
      <trkpt lat="47.71009" lon="6.79251">
        <ele>489.38</ele>
        <time>2018-11-03T11:57:22.000Z</time>
      </trkpt>
      <trkpt lat="47.70995" lon="6.79288">
        <ele>489.34</ele>
        <time>2018-11-03T11:57:27.000Z</time>
      </trkpt>
      <trkpt lat="47.70953" lon="6.79313">
        <ele>483.12</ele>
        <time>2018-11-03T11:57:32.000Z</time>
      </trkpt>
      <trkpt lat="47.70908" lon="6.79322">
        <ele>476.9</ele>
        <time>2018-11-03T11:57:37.000Z</time>
      </trkpt>
      <trkpt lat="47.70873" lon="6.79343">
        <ele>470.69</ele>
        <time>2018-11-03T11:57:42.000Z</time>
      </trkpt>
      <trkpt lat="47.7085" lon="6.79371">
        <ele>466.09</ele>
        <time>2018-11-03T11:57:47.000Z</time>
      </trkpt>
      <trkpt lat="47.70825" lon="6.79395">
        <ele>461.49</ele>
        <time>2018-11-03T11:57:52.000Z</time>
      </trkpt>
      <trkpt lat="47.70796" lon="6.79419">
        <ele>456.89</ele>
        <time>2018-11-03T11:57:57.000Z</time>
      </trkpt>
      <trkpt lat="47.70761" lon="6.79447">
        <ele>453.09</ele>
        <time>2018-11-03T11:58:02.000Z</time>
      </trkpt>
      <trkpt lat="47.70724" lon="6.79456">
        <ele>449.29</ele>
        <time>2018-11-03T11:58:07.000Z</time>
      </trkpt>
      <trkpt lat="47.70699" lon="6.79468">
        <ele>445.49</ele>
        <time>2018-11-03T11:58:12.000Z</time>
      </trkpt>
      <trkpt lat="47.70678" lon="6.79493">
        <ele>443.39</ele>
        <time>2018-11-03T11:58:17.000Z</time>
      </trkpt>
      <trkpt lat="47.70665" lon="6.79528">
        <ele>441.3</ele>
        <time>2018-11-03T11:58:22.000Z</time>
      </trkpt>
      <trkpt lat="47.70648" lon="6.79551">
        <ele>439.2</ele>
        <time>2018-11-03T11:58:27.000Z</time>
      </trkpt>
      <trkpt lat="47.70645" lon="6.79538">
        <ele>441.13</ele>
        <time>2018-11-03T11:58:32.000Z</time>
      </trkpt>
      <trkpt lat="47.7065" lon="6.79507">
        <ele>443.07</ele>
        <time>2018-11-03T11:58:37.000Z</time>
      </trkpt>
      <trkpt lat="47.70651" lon="6.79477">
        <ele>445.01</ele>
        <time>2018-11-03T11:58:42.000Z</time>
      </trkpt>
      <trkpt lat="47.70651" lon="6.79443">
        <ele>445.7</ele>
        <time>2018-11-03T11:58:47.000Z</time>
      </trkpt>
      <trkpt lat="47.7065" lon="6.79405">
        <ele>446.39</ele>
        <time>2018-11-03T11:58:52.000Z</time>
      </trkpt>
      <trkpt lat="47.70652" lon="6.79366">
        <ele>447.08</ele>
        <time>2018-11-03T11:58:57.000Z</time>
      </trkpt>
      <trkpt lat="47.70656" lon="6.79332">
        <ele>447.19</ele>
        <time>2018-11-03T11:59:02.000Z</time>
      </trkpt>
      <trkpt lat="47.70665" lon="6.793">
        <ele>447.31</ele>
        <time>2018-11-03T11:59:07.000Z</time>
      </trkpt>
      <trkpt lat="47.70674" lon="6.79275">
        <ele>447.43</ele>
        <time>2018-11-03T11:59:12.000Z</time>
      </trkpt>
      <trkpt lat="47.70684" lon="6.79254">
        <ele>447.92</ele>
        <time>2018-11-03T11:59:17.000Z</time>
      </trkpt>
      <trkpt lat="47.70697" lon="6.79234">
        <ele>448.42</ele>
        <time>2018-11-03T11:59:22.000Z</time>
      </trkpt>
      <trkpt lat="47.70708" lon="6.79213">
        <ele>448.92</ele>
        <time>2018-11-03T11:59:27.000Z</time>
      </trkpt>
      <trkpt lat="47.70717" lon="6.79191">
        <ele>448.93</ele>
        <time>2018-11-03T11:59:32.000Z</time>
      </trkpt>
      <trkpt lat="47.70715" lon="6.79163">
        <ele>448.94</ele>
        <time>2018-11-03T11:59:37.000Z</time>
      </trkpt>
      <trkpt lat="47.70701" lon="6.79151">
        <ele>448.95</ele>
        <time>2018-11-03T11:59:42.000Z</time>
      </trkpt>
      <trkpt lat="47.70688" lon="6.79155">
        <ele>451.68</ele>
        <time>2018-11-03T11:59:47.000Z</time>
      </trkpt>
      <trkpt lat="47.70675" lon="6.79165">
        <ele>454.42</ele>
        <time>2018-11-03T11:59:52.000Z</time>
      </trkpt>
      <trkpt lat="47.70664" lon="6.79178">
        <ele>457.16</ele>
        <time>2018-11-03T11:59:57.000Z</time>
      </trkpt>
      <trkpt lat="47.7065" lon="6.79199">
        <ele>458.07</ele>
        <time>2018-11-03T12:00:02.000Z</time>
      </trkpt>
      <trkpt lat="47.70641" lon="6.79208">
        <ele>458.98</ele>
        <time>2018-11-03T12:00:07.000Z</time>
      </trkpt>
      <trkpt lat="47.7063" lon="6.79229">
        <ele>459.89</ele>
        <time>2018-11-03T12:00:12.000Z</time>
      </trkpt>
      <trkpt lat="47.70618" lon="6.79253">
        <ele>457.92</ele>
        <time>2018-11-03T12:00:17.000Z</time>
      </trkpt>
      <trkpt lat="47.70606" lon="6.7928">
        <ele>455.94</ele>
        <time>2018-11-03T12:00:22.000Z</time>
      </trkpt>
      <trkpt lat="47.70588" lon="6.79318">
        <ele>453.97</ele>
        <time>2018-11-03T12:00:27.000Z</time>
      </trkpt>
      <trkpt lat="47.70578" lon="6.79356">
        <ele>452.36</ele>
        <time>2018-11-03T12:00:32.000Z</time>
      </trkpt>
      <trkpt lat="47.70565" lon="6.79391">
        <ele>450.75</ele>
        <time>2018-11-03T12:00:37.000Z</time>
      </trkpt>
      <trkpt lat="47.70554" lon="6.79424">
        <ele>449.15</ele>
        <time>2018-11-03T12:00:42.000Z</time>
      </trkpt>
      <trkpt lat="47.70543" lon="6.7945">
        <ele>448.85</ele>
        <time>2018-11-03T12:00:47.000Z</time>
      </trkpt>
      <trkpt lat="47.70533" lon="6.79468">
        <ele>448.55</ele>
        <time>2018-11-03T12:00:52.000Z</time>
      </trkpt>
      <trkpt lat="47.70521" lon="6.79489">
        <ele>448.25</ele>
        <time>2018-11-03T12:00:57.000Z</time>
      </trkpt>
      <trkpt lat="47.70506" lon="6.79496">
        <ele>448.42</ele>
        <time>2018-11-03T12:01:02.000Z</time>
      </trkpt>
      <trkpt lat="47.70498" lon="6.7951">
        <ele>448.59</ele>
        <time>2018-11-03T12:01:07.000Z</time>
      </trkpt>
      <trkpt lat="47.70496" lon="6.79553">
        <ele>448.76</ele>
        <time>2018-11-03T12:01:12.000Z</time>
      </trkpt>
      <trkpt lat="47.70484" lon="6.79602">
        <ele>446.42</ele>
        <time>2018-11-03T12:01:17.000Z</time>
      </trkpt>
      <trkpt lat="47.70479" lon="6.79657">
        <ele>444.08</ele>
        <time>2018-11-03T12:01:22.000Z</time>
      </trkpt>
      <trkpt lat="47.70487" lon="6.79684">
        <ele>441.75</ele>
        <time>2018-11-03T12:01:27.000Z</time>
      </trkpt>
      <trkpt lat="47.70476" lon="6.79688">
        <ele>441.97</ele>
        <time>2018-11-03T12:01:32.000Z</time>
      </trkpt>
      <trkpt lat="47.70468" lon="6.7969">
        <ele>442.18</ele>
        <time>2018-11-03T12:01:37.000Z</time>
      </trkpt>
      <trkpt lat="47.70461" lon="6.7969">
        <ele>442.4</ele>
        <time>2018-11-03T12:01:42.000Z</time>
      </trkpt>
      <trkpt lat="47.70454" lon="6.79699">
        <ele>442.52</ele>
        <time>2018-11-03T12:01:47.000Z</time>
      </trkpt>
      <trkpt lat="47.70445" lon="6.79703">
        <ele>442.63</ele>
        <time>2018-11-03T12:01:52.000Z</time>
      </trkpt>
      <trkpt lat="47.70435" lon="6.79712">
        <ele>442.74</ele>
        <time>2018-11-03T12:01:57.000Z</time>
      </trkpt>
      <trkpt lat="47.70426" lon="6.79719">
        <ele>443.01</ele>
        <time>2018-11-03T12:02:02.000Z</time>
      </trkpt>
      <trkpt lat="47.70417" lon="6.79721">
        <ele>443.28</ele>
        <time>2018-11-03T12:02:07.000Z</time>
      </trkpt>
      <trkpt lat="47.70408" lon="6.79722">
        <ele>443.54</ele>
        <time>2018-11-03T12:02:12.000Z</time>
      </trkpt>
      <trkpt lat="47.70398" lon="6.79724">
        <ele>443.08</ele>
        <time>2018-11-03T12:02:17.000Z</time>
      </trkpt>
      <trkpt lat="47.70385" lon="6.79722">
        <ele>442.62</ele>
        <time>2018-11-03T12:02:22.000Z</time>
      </trkpt>
      <trkpt lat="47.70365" lon="6.79723">
        <ele>442.15</ele>
        <time>2018-11-03T12:02:27.000Z</time>
      </trkpt>
      <trkpt lat="47.70337" lon="6.79714">
        <ele>439.11</ele>
        <time>2018-11-03T12:02:32.000Z</time>
      </trkpt>
      <trkpt lat="47.70312" lon="6.79715">
        <ele>436.07</ele>
        <time>2018-11-03T12:02:37.000Z</time>
      </trkpt>
      <trkpt lat="47.70298" lon="6.79739">
        <ele>433.03</ele>
        <time>2018-11-03T12:02:42.000Z</time>
      </trkpt>
      <trkpt lat="47.70275" lon="6.79773">
        <ele>430.92</ele>
        <time>2018-11-03T12:02:47.000Z</time>
      </trkpt>
      <trkpt lat="47.70258" lon="6.79812">
        <ele>428.8</ele>
        <time>2018-11-03T12:02:52.000Z</time>
      </trkpt>
      <trkpt lat="47.70244" lon="6.79844">
        <ele>426.68</ele>
        <time>2018-11-03T12:02:57.000Z</time>
      </trkpt>
      <trkpt lat="47.7023" lon="6.79884">
        <ele>425.95</ele>
        <time>2018-11-03T12:03:02.000Z</time>
      </trkpt>
      <trkpt lat="47.70216" lon="6.7992">
        <ele>425.23</ele>
        <time>2018-11-03T12:03:07.000Z</time>
      </trkpt>
      <trkpt lat="47.70198" lon="6.79955">
        <ele>424.5</ele>
        <time>2018-11-03T12:03:12.000Z</time>
      </trkpt>
      <trkpt lat="47.70178" lon="6.79979">
        <ele>423.82</ele>
        <time>2018-11-03T12:03:17.000Z</time>
      </trkpt>
      <trkpt lat="47.70153" lon="6.80008">
        <ele>423.14</ele>
        <time>2018-11-03T12:03:22.000Z</time>
      </trkpt>
      <trkpt lat="47.70127" lon="6.80042">
        <ele>422.46</ele>
        <time>2018-11-03T12:03:27.000Z</time>
      </trkpt>
      <trkpt lat="47.70104" lon="6.80075">
        <ele>422.16</ele>
        <time>2018-11-03T12:03:32.000Z</time>
      </trkpt>
      <trkpt lat="47.70083" lon="6.801">
        <ele>421.86</ele>
        <time>2018-11-03T12:03:37.000Z</time>
      </trkpt>
      <trkpt lat="47.70055" lon="6.80137">
        <ele>421.56</ele>
        <time>2018-11-03T12:03:42.000Z</time>
      </trkpt>
      <trkpt lat="47.70045" lon="6.80179">
        <ele>422.23</ele>
        <time>2018-11-03T12:03:47.000Z</time>
      </trkpt>
      <trkpt lat="47.70046" lon="6.80219">
        <ele>422.9</ele>
        <time>2018-11-03T12:03:52.000Z</time>
      </trkpt>
      <trkpt lat="47.70049" lon="6.80255">
        <ele>423.56</ele>
        <time>2018-11-03T12:03:57.000Z</time>
      </trkpt>
      <trkpt lat="47.70053" lon="6.80292">
        <ele>423.71</ele>
        <time>2018-11-03T12:04:02.000Z</time>
      </trkpt>
      <trkpt lat="47.70057" lon="6.80329">
        <ele>423.85</ele>
        <time>2018-11-03T12:04:07.000Z</time>
      </trkpt>
      <trkpt lat="47.70053" lon="6.80365">
        <ele>424</ele>
        <time>2018-11-03T12:04:12.000Z</time>
      </trkpt>
      <trkpt lat="47.70032" lon="6.80385">
        <ele>423.83</ele>
        <time>2018-11-03T12:04:17.000Z</time>
      </trkpt>
      <trkpt lat="47.7001" lon="6.80404">
        <ele>423.67</ele>
        <time>2018-11-03T12:04:22.000Z</time>
      </trkpt>
      <trkpt lat="47.69987" lon="6.80421">
        <ele>423.51</ele>
        <time>2018-11-03T12:04:27.000Z</time>
      </trkpt>
      <trkpt lat="47.69964" lon="6.80438">
        <ele>423.37</ele>
        <time>2018-11-03T12:04:32.000Z</time>
      </trkpt>
      <trkpt lat="47.69941" lon="6.80461">
        <ele>423.24</ele>
        <time>2018-11-03T12:04:37.000Z</time>
      </trkpt>
      <trkpt lat="47.69924" lon="6.8049">
        <ele>423.1</ele>
        <time>2018-11-03T12:04:42.000Z</time>
      </trkpt>
      <trkpt lat="47.69907" lon="6.80521">
        <ele>421.48</ele>
        <time>2018-11-03T12:04:47.000Z</time>
      </trkpt>
      <trkpt lat="47.69888" lon="6.80554">
        <ele>419.85</ele>
        <time>2018-11-03T12:04:52.000Z</time>
      </trkpt>
      <trkpt lat="47.69861" lon="6.80547">
        <ele>418.23</ele>
        <time>2018-11-03T12:04:57.000Z</time>
      </trkpt>
      <trkpt lat="47.69825" lon="6.80537">
        <ele>416.12</ele>
        <time>2018-11-03T12:05:02.000Z</time>
      </trkpt>
      <trkpt lat="47.69785" lon="6.80521">
        <ele>414.02</ele>
        <time>2018-11-03T12:05:07.000Z</time>
      </trkpt>
      <trkpt lat="47.69749" lon="6.80502">
        <ele>411.91</ele>
        <time>2018-11-03T12:05:12.000Z</time>
      </trkpt>
      <trkpt lat="47.6971" lon="6.80472">
        <ele>408</ele>
        <time>2018-11-03T12:05:17.000Z</time>
      </trkpt>
      <trkpt lat="47.69669" lon="6.80462">
        <ele>404.09</ele>
        <time>2018-11-03T12:05:22.000Z</time>
      </trkpt>
      <trkpt lat="47.69621" lon="6.80458">
        <ele>400.17</ele>
        <time>2018-11-03T12:05:27.000Z</time>
      </trkpt>
      <trkpt lat="47.69571" lon="6.80439">
        <ele>398.68</ele>
        <time>2018-11-03T12:05:32.000Z</time>
      </trkpt>
      <trkpt lat="47.69524" lon="6.8041">
        <ele>397.18</ele>
        <time>2018-11-03T12:05:37.000Z</time>
      </trkpt>
      <trkpt lat="47.69488" lon="6.80398">
        <ele>395.68</ele>
        <time>2018-11-03T12:05:42.000Z</time>
      </trkpt>
      <trkpt lat="47.6945" lon="6.80388">
        <ele>395.78</ele>
        <time>2018-11-03T12:05:47.000Z</time>
      </trkpt>
      <trkpt lat="47.69423" lon="6.80385">
        <ele>395.88</ele>
        <time>2018-11-03T12:05:52.000Z</time>
      </trkpt>
      <trkpt lat="47.69384" lon="6.80377">
        <ele>395.98</ele>
        <time>2018-11-03T12:05:57.000Z</time>
      </trkpt>
      <trkpt lat="47.69354" lon="6.80368">
        <ele>395.14</ele>
        <time>2018-11-03T12:06:02.000Z</time>
      </trkpt>
      <trkpt lat="47.69323" lon="6.80359">
        <ele>394.3</ele>
        <time>2018-11-03T12:06:07.000Z</time>
      </trkpt>
      <trkpt lat="47.6929" lon="6.80362">
        <ele>393.46</ele>
        <time>2018-11-03T12:06:12.000Z</time>
      </trkpt>
      <trkpt lat="47.69256" lon="6.80366">
        <ele>393.97</ele>
        <time>2018-11-03T12:06:17.000Z</time>
      </trkpt>
      <trkpt lat="47.69228" lon="6.80368">
        <ele>394.49</ele>
        <time>2018-11-03T12:06:22.000Z</time>
      </trkpt>
      <trkpt lat="47.69205" lon="6.8037">
        <ele>395</ele>
        <time>2018-11-03T12:06:27.000Z</time>
      </trkpt>
      <trkpt lat="47.6918" lon="6.8037">
        <ele>394.75</ele>
        <time>2018-11-03T12:06:32.000Z</time>
      </trkpt>
      <trkpt lat="47.69154" lon="6.80364">
        <ele>394.5</ele>
        <time>2018-11-03T12:06:37.000Z</time>
      </trkpt>
      <trkpt lat="47.69129" lon="6.80361">
        <ele>394.25</ele>
        <time>2018-11-03T12:06:42.000Z</time>
      </trkpt>
      <trkpt lat="47.69103" lon="6.80348">
        <ele>394.79</ele>
        <time>2018-11-03T12:06:47.000Z</time>
      </trkpt>
      <trkpt lat="47.69076" lon="6.80352">
        <ele>395.33</ele>
        <time>2018-11-03T12:06:52.000Z</time>
      </trkpt>
      <trkpt lat="47.69054" lon="6.80371">
        <ele>395.87</ele>
        <time>2018-11-03T12:06:57.000Z</time>
      </trkpt>
      <trkpt lat="47.69044" lon="6.80413">
        <ele>395.75</ele>
        <time>2018-11-03T12:07:02.000Z</time>
      </trkpt>
      <trkpt lat="47.6904" lon="6.80452">
        <ele>395.64</ele>
        <time>2018-11-03T12:07:07.000Z</time>
      </trkpt>
      <trkpt lat="47.6903" lon="6.80487">
        <ele>395.52</ele>
        <time>2018-11-03T12:07:12.000Z</time>
      </trkpt>
      <trkpt lat="47.69009" lon="6.80519">
        <ele>395.86</ele>
        <time>2018-11-03T12:07:17.000Z</time>
      </trkpt>
      <trkpt lat="47.68986" lon="6.80537">
        <ele>396.2</ele>
        <time>2018-11-03T12:07:22.000Z</time>
      </trkpt>
      <trkpt lat="47.68967" lon="6.80567">
        <ele>396.55</ele>
        <time>2018-11-03T12:07:27.000Z</time>
      </trkpt>
      <trkpt lat="47.68952" lon="6.80605">
        <ele>396.66</ele>
        <time>2018-11-03T12:07:32.000Z</time>
      </trkpt>
      <trkpt lat="47.68932" lon="6.80635">
        <ele>396.77</ele>
        <time>2018-11-03T12:07:37.000Z</time>
      </trkpt>
      <trkpt lat="47.68919" lon="6.80665">
        <ele>396.89</ele>
        <time>2018-11-03T12:07:42.000Z</time>
      </trkpt>
      <trkpt lat="47.68903" lon="6.80688">
        <ele>395.89</ele>
        <time>2018-11-03T12:07:47.000Z</time>
      </trkpt>
      <trkpt lat="47.68881" lon="6.80702">
        <ele>394.9</ele>
        <time>2018-11-03T12:07:52.000Z</time>
      </trkpt>
      <trkpt lat="47.68855" lon="6.80713">
        <ele>393.9</ele>
        <time>2018-11-03T12:07:57.000Z</time>
      </trkpt>
      <trkpt lat="47.68835" lon="6.80723">
        <ele>393.24</ele>
        <time>2018-11-03T12:08:02.000Z</time>
      </trkpt>
      <trkpt lat="47.68818" lon="6.80732">
        <ele>392.58</ele>
        <time>2018-11-03T12:08:07.000Z</time>
      </trkpt>
      <trkpt lat="47.68797" lon="6.80749">
        <ele>391.91</ele>
        <time>2018-11-03T12:08:12.000Z</time>
      </trkpt>
      <trkpt lat="47.68777" lon="6.80765">
        <ele>392.06</ele>
        <time>2018-11-03T12:08:17.000Z</time>
      </trkpt>
      <trkpt lat="47.68758" lon="6.80787">
        <ele>392.21</ele>
        <time>2018-11-03T12:08:22.000Z</time>
      </trkpt>
      <trkpt lat="47.68738" lon="6.80812">
        <ele>392.35</ele>
        <time>2018-11-03T12:08:27.000Z</time>
      </trkpt>
      <trkpt lat="47.6872" lon="6.80834">
        <ele>392.39</ele>
        <time>2018-11-03T12:08:32.000Z</time>
      </trkpt>
      <trkpt lat="47.687" lon="6.80856">
        <ele>392.43</ele>
        <time>2018-11-03T12:08:37.000Z</time>
      </trkpt>
      <trkpt lat="47.68678" lon="6.80877">
        <ele>392.47</ele>
        <time>2018-11-03T12:08:42.000Z</time>
      </trkpt>
      <trkpt lat="47.68654" lon="6.80896">
        <ele>392.06</ele>
        <time>2018-11-03T12:08:47.000Z</time>
      </trkpt>
      <trkpt lat="47.68631" lon="6.80914">
        <ele>391.65</ele>
        <time>2018-11-03T12:08:52.000Z</time>
      </trkpt>
      <trkpt lat="47.68609" lon="6.80931">
        <ele>391.24</ele>
        <time>2018-11-03T12:08:57.000Z</time>
      </trkpt>
      <trkpt lat="47.68588" lon="6.80949">
        <ele>391.62</ele>
        <time>2018-11-03T12:09:02.000Z</time>
      </trkpt>
      <trkpt lat="47.68568" lon="6.80971">
        <ele>392</ele>
        <time>2018-11-03T12:09:07.000Z</time>
      </trkpt>
      <trkpt lat="47.68548" lon="6.80987">
        <ele>392.38</ele>
        <time>2018-11-03T12:09:12.000Z</time>
      </trkpt>
      <trkpt lat="47.68523" lon="6.80999">
        <ele>392.32</ele>
        <time>2018-11-03T12:09:17.000Z</time>
      </trkpt>
      <trkpt lat="47.68498" lon="6.81013">
        <ele>392.25</ele>
        <time>2018-11-03T12:09:22.000Z</time>
      </trkpt>
      <trkpt lat="47.68478" lon="6.81033">
        <ele>392.19</ele>
        <time>2018-11-03T12:09:27.000Z</time>
      </trkpt>
      <trkpt lat="47.68465" lon="6.8106">
        <ele>391.92</ele>
        <time>2018-11-03T12:09:32.000Z</time>
      </trkpt>
      <trkpt lat="47.68457" lon="6.81093">
        <ele>391.65</ele>
        <time>2018-11-03T12:09:37.000Z</time>
      </trkpt>
      <trkpt lat="47.68452" lon="6.81132">
        <ele>391.38</ele>
        <time>2018-11-03T12:09:42.000Z</time>
      </trkpt>
      <trkpt lat="47.68449" lon="6.81165">
        <ele>390.76</ele>
        <time>2018-11-03T12:09:47.000Z</time>
      </trkpt>
      <trkpt lat="47.6845" lon="6.81198">
        <ele>390.13</ele>
        <time>2018-11-03T12:09:52.000Z</time>
      </trkpt>
      <trkpt lat="47.68448" lon="6.81232">
        <ele>389.51</ele>
        <time>2018-11-03T12:09:57.000Z</time>
      </trkpt>
      <trkpt lat="47.68429" lon="6.8126">
        <ele>389.38</ele>
        <time>2018-11-03T12:10:02.000Z</time>
      </trkpt>
      <trkpt lat="47.68409" lon="6.81287">
        <ele>389.25</ele>
        <time>2018-11-03T12:10:07.000Z</time>
      </trkpt>
      <trkpt lat="47.68392" lon="6.81314">
        <ele>389.11</ele>
        <time>2018-11-03T12:10:12.000Z</time>
      </trkpt>
      <trkpt lat="47.68374" lon="6.81338">
        <ele>388.65</ele>
        <time>2018-11-03T12:10:17.000Z</time>
      </trkpt>
      <trkpt lat="47.6836" lon="6.81359">
        <ele>388.18</ele>
        <time>2018-11-03T12:10:22.000Z</time>
      </trkpt>
      <trkpt lat="47.68359" lon="6.81381">
        <ele>387.72</ele>
        <time>2018-11-03T12:10:27.000Z</time>
      </trkpt>
      <trkpt lat="47.68352" lon="6.81409">
        <ele>387.65</ele>
        <time>2018-11-03T12:10:32.000Z</time>
      </trkpt>
      <trkpt lat="47.6834" lon="6.81436">
        <ele>387.58</ele>
        <time>2018-11-03T12:10:37.000Z</time>
      </trkpt>
      <trkpt lat="47.68333" lon="6.81467">
        <ele>387.51</ele>
        <time>2018-11-03T12:10:42.000Z</time>
      </trkpt>
      <trkpt lat="47.68326" lon="6.81498">
        <ele>387.76</ele>
        <time>2018-11-03T12:10:47.000Z</time>
      </trkpt>
      <trkpt lat="47.68317" lon="6.81528">
        <ele>388</ele>
        <time>2018-11-03T12:10:52.000Z</time>
      </trkpt>
      <trkpt lat="47.68304" lon="6.81555">
        <ele>388.25</ele>
        <time>2018-11-03T12:10:57.000Z</time>
      </trkpt>
      <trkpt lat="47.68298" lon="6.81587">
        <ele>388.26</ele>
        <time>2018-11-03T12:11:02.000Z</time>
      </trkpt>
      <trkpt lat="47.68286" lon="6.81615">
        <ele>388.28</ele>
        <time>2018-11-03T12:11:07.000Z</time>
      </trkpt>
      <trkpt lat="47.68282" lon="6.81642">
        <ele>388.29</ele>
        <time>2018-11-03T12:11:12.000Z</time>
      </trkpt>
      <trkpt lat="47.68276" lon="6.81676">
        <ele>388.1</ele>
        <time>2018-11-03T12:11:17.000Z</time>
      </trkpt>
      <trkpt lat="47.68262" lon="6.81705">
        <ele>387.91</ele>
        <time>2018-11-03T12:11:22.000Z</time>
      </trkpt>
      <trkpt lat="47.68245" lon="6.81735">
        <ele>387.72</ele>
        <time>2018-11-03T12:11:27.000Z</time>
      </trkpt>
      <trkpt lat="47.68226" lon="6.81767">
        <ele>388.53</ele>
        <time>2018-11-03T12:11:32.000Z</time>
      </trkpt>
      <trkpt lat="47.68212" lon="6.81796">
        <ele>389.34</ele>
        <time>2018-11-03T12:11:37.000Z</time>
      </trkpt>
      <trkpt lat="47.68207" lon="6.81833">
        <ele>390.15</ele>
        <time>2018-11-03T12:11:42.000Z</time>
      </trkpt>
      <trkpt lat="47.68211" lon="6.8187">
        <ele>390.4</ele>
        <time>2018-11-03T12:11:47.000Z</time>
      </trkpt>
      <trkpt lat="47.68215" lon="6.81895">
        <ele>390.66</ele>
        <time>2018-11-03T12:11:52.000Z</time>
      </trkpt>
      <trkpt lat="47.68218" lon="6.81927">
        <ele>390.92</ele>
        <time>2018-11-03T12:11:57.000Z</time>
      </trkpt>
      <trkpt lat="47.68219" lon="6.81961">
        <ele>389.5</ele>
        <time>2018-11-03T12:12:02.000Z</time>
      </trkpt>
      <trkpt lat="47.68208" lon="6.82006">
        <ele>388.09</ele>
        <time>2018-11-03T12:12:07.000Z</time>
      </trkpt>
      <trkpt lat="47.68187" lon="6.82037">
        <ele>386.68</ele>
        <time>2018-11-03T12:12:12.000Z</time>
      </trkpt>
      <trkpt lat="47.68171" lon="6.82068">
        <ele>386.5</ele>
        <time>2018-11-03T12:12:17.000Z</time>
      </trkpt>
      <trkpt lat="47.68153" lon="6.821">
        <ele>386.32</ele>
        <time>2018-11-03T12:12:22.000Z</time>
      </trkpt>
      <trkpt lat="47.68133" lon="6.8212">
        <ele>386.14</ele>
        <time>2018-11-03T12:12:27.000Z</time>
      </trkpt>
      <trkpt lat="47.68112" lon="6.82139">
        <ele>386.19</ele>
        <time>2018-11-03T12:12:32.000Z</time>
      </trkpt>
      <trkpt lat="47.6809" lon="6.82161">
        <ele>386.24</ele>
        <time>2018-11-03T12:12:37.000Z</time>
      </trkpt>
      <trkpt lat="47.68067" lon="6.82185">
        <ele>386.29</ele>
        <time>2018-11-03T12:12:42.000Z</time>
      </trkpt>
      <trkpt lat="47.6804" lon="6.82196">
        <ele>386.29</ele>
        <time>2018-11-03T12:12:47.000Z</time>
      </trkpt>
      <trkpt lat="47.68018" lon="6.82191">
        <ele>386.3</ele>
        <time>2018-11-03T12:12:52.000Z</time>
      </trkpt>
      <trkpt lat="47.67991" lon="6.82184">
        <ele>386.31</ele>
        <time>2018-11-03T12:12:57.000Z</time>
      </trkpt>
      <trkpt lat="47.67966" lon="6.82185">
        <ele>386.3</ele>
        <time>2018-11-03T12:13:02.000Z</time>
      </trkpt>
      <trkpt lat="47.6794" lon="6.82195">
        <ele>386.29</ele>
        <time>2018-11-03T12:13:07.000Z</time>
      </trkpt>
      <trkpt lat="47.67916" lon="6.82206">
        <ele>386.28</ele>
        <time>2018-11-03T12:13:12.000Z</time>
      </trkpt>
      <trkpt lat="47.67892" lon="6.82218">
        <ele>385.82</ele>
        <time>2018-11-03T12:13:17.000Z</time>
      </trkpt>
      <trkpt lat="47.67866" lon="6.82223">
        <ele>385.35</ele>
        <time>2018-11-03T12:13:22.000Z</time>
      </trkpt>
      <trkpt lat="47.67842" lon="6.82223">
        <ele>384.89</ele>
        <time>2018-11-03T12:13:27.000Z</time>
      </trkpt>
      <trkpt lat="47.67817" lon="6.82217">
        <ele>384.9</ele>
        <time>2018-11-03T12:13:32.000Z</time>
      </trkpt>
      <trkpt lat="47.67792" lon="6.82216">
        <ele>384.91</ele>
        <time>2018-11-03T12:13:37.000Z</time>
      </trkpt>
      <trkpt lat="47.67776" lon="6.82245">
        <ele>384.91</ele>
        <time>2018-11-03T12:13:42.000Z</time>
      </trkpt>
      <trkpt lat="47.6776" lon="6.82272">
        <ele>385.33</ele>
        <time>2018-11-03T12:13:47.000Z</time>
      </trkpt>
      <trkpt lat="47.67737" lon="6.82292">
        <ele>385.74</ele>
        <time>2018-11-03T12:13:52.000Z</time>
      </trkpt>
      <trkpt lat="47.6772" lon="6.82319">
        <ele>386.16</ele>
        <time>2018-11-03T12:13:57.000Z</time>
      </trkpt>
      <trkpt lat="47.67699" lon="6.82342">
        <ele>388.47</ele>
        <time>2018-11-03T12:14:02.000Z</time>
      </trkpt>
      <trkpt lat="47.67677" lon="6.82362">
        <ele>390.79</ele>
        <time>2018-11-03T12:14:07.000Z</time>
      </trkpt>
      <trkpt lat="47.67653" lon="6.82382">
        <ele>393.11</ele>
        <time>2018-11-03T12:14:12.000Z</time>
      </trkpt>
      <trkpt lat="47.67637" lon="6.82407">
        <ele>391.38</ele>
        <time>2018-11-03T12:14:17.000Z</time>
      </trkpt>
      <trkpt lat="47.67612" lon="6.82415">
        <ele>389.66</ele>
        <time>2018-11-03T12:14:22.000Z</time>
      </trkpt>
      <trkpt lat="47.67586" lon="6.82429">
        <ele>387.93</ele>
        <time>2018-11-03T12:14:27.000Z</time>
      </trkpt>
      <trkpt lat="47.67553" lon="6.82459">
        <ele>386.7</ele>
        <time>2018-11-03T12:14:32.000Z</time>
      </trkpt>
      <trkpt lat="47.67532" lon="6.82479">
        <ele>385.47</ele>
        <time>2018-11-03T12:14:37.000Z</time>
      </trkpt>
      <trkpt lat="47.67515" lon="6.82514">
        <ele>384.24</ele>
        <time>2018-11-03T12:14:42.000Z</time>
      </trkpt>
      <trkpt lat="47.67505" lon="6.82553">
        <ele>385.39</ele>
        <time>2018-11-03T12:14:47.000Z</time>
      </trkpt>
      <trkpt lat="47.6749" lon="6.82593">
        <ele>386.55</ele>
        <time>2018-11-03T12:14:52.000Z</time>
      </trkpt>
      <trkpt lat="47.67478" lon="6.82628">
        <ele>387.71</ele>
        <time>2018-11-03T12:14:57.000Z</time>
      </trkpt>
      <trkpt lat="47.67469" lon="6.82663">
        <ele>387.15</ele>
        <time>2018-11-03T12:15:02.000Z</time>
      </trkpt>
      <trkpt lat="47.67457" lon="6.82698">
        <ele>386.6</ele>
        <time>2018-11-03T12:15:07.000Z</time>
      </trkpt>
      <trkpt lat="47.67446" lon="6.82734">
        <ele>386.05</ele>
        <time>2018-11-03T12:15:12.000Z</time>
      </trkpt>
      <trkpt lat="47.67439" lon="6.82765">
        <ele>385.82</ele>
        <time>2018-11-03T12:15:17.000Z</time>
      </trkpt>
      <trkpt lat="47.67433" lon="6.82806">
        <ele>385.58</ele>
        <time>2018-11-03T12:15:22.000Z</time>
      </trkpt>
      <trkpt lat="47.6742" lon="6.82845">
        <ele>385.35</ele>
        <time>2018-11-03T12:15:27.000Z</time>
      </trkpt>
      <trkpt lat="47.674" lon="6.82873">
        <ele>384.82</ele>
        <time>2018-11-03T12:15:32.000Z</time>
      </trkpt>
      <trkpt lat="47.67391" lon="6.82901">
        <ele>384.28</ele>
        <time>2018-11-03T12:15:37.000Z</time>
      </trkpt>
      <trkpt lat="47.6739" lon="6.8294">
        <ele>383.75</ele>
        <time>2018-11-03T12:15:42.000Z</time>
      </trkpt>
      <trkpt lat="47.67392" lon="6.82966">
        <ele>383.27</ele>
        <time>2018-11-03T12:15:47.000Z</time>
      </trkpt>
      <trkpt lat="47.67382" lon="6.82992">
        <ele>382.79</ele>
        <time>2018-11-03T12:15:52.000Z</time>
      </trkpt>
      <trkpt lat="47.67366" lon="6.83016">
        <ele>382.31</ele>
        <time>2018-11-03T12:15:57.000Z</time>
      </trkpt>
      <trkpt lat="47.67352" lon="6.83044">
        <ele>381.97</ele>
        <time>2018-11-03T12:16:02.000Z</time>
      </trkpt>
      <trkpt lat="47.67339" lon="6.83073">
        <ele>381.64</ele>
        <time>2018-11-03T12:16:07.000Z</time>
      </trkpt>
      <trkpt lat="47.67324" lon="6.83105">
        <ele>381.3</ele>
        <time>2018-11-03T12:16:12.000Z</time>
      </trkpt>
      <trkpt lat="47.67319" lon="6.83134">
        <ele>381.3</ele>
        <time>2018-11-03T12:16:17.000Z</time>
      </trkpt>
      <trkpt lat="47.67333" lon="6.8316">
        <ele>381.31</ele>
        <time>2018-11-03T12:16:22.000Z</time>
      </trkpt>
      <trkpt lat="47.67349" lon="6.83183">
        <ele>381.31</ele>
        <time>2018-11-03T12:16:27.000Z</time>
      </trkpt>
      <trkpt lat="47.67364" lon="6.83206">
        <ele>381.16</ele>
        <time>2018-11-03T12:16:32.000Z</time>
      </trkpt>
      <trkpt lat="47.67368" lon="6.83236">
        <ele>381.01</ele>
        <time>2018-11-03T12:16:37.000Z</time>
      </trkpt>
      <trkpt lat="47.67363" lon="6.83269">
        <ele>380.86</ele>
        <time>2018-11-03T12:16:42.000Z</time>
      </trkpt>
      <trkpt lat="47.67359" lon="6.83299">
        <ele>380.46</ele>
        <time>2018-11-03T12:16:47.000Z</time>
      </trkpt>
      <trkpt lat="47.67355" lon="6.83332">
        <ele>380.07</ele>
        <time>2018-11-03T12:16:52.000Z</time>
      </trkpt>
      <trkpt lat="47.67343" lon="6.83371">
        <ele>379.67</ele>
        <time>2018-11-03T12:16:57.000Z</time>
      </trkpt>
      <trkpt lat="47.67326" lon="6.83405">
        <ele>380.26</ele>
        <time>2018-11-03T12:17:02.000Z</time>
      </trkpt>
      <trkpt lat="47.67308" lon="6.83436">
        <ele>380.85</ele>
        <time>2018-11-03T12:17:07.000Z</time>
      </trkpt>
      <trkpt lat="47.67296" lon="6.83469">
        <ele>381.44</ele>
        <time>2018-11-03T12:17:12.000Z</time>
      </trkpt>
      <trkpt lat="47.67296" lon="6.83498">
        <ele>382.19</ele>
        <time>2018-11-03T12:17:17.000Z</time>
      </trkpt>
      <trkpt lat="47.67292" lon="6.83525">
        <ele>382.94</ele>
        <time>2018-11-03T12:17:22.000Z</time>
      </trkpt>
      <trkpt lat="47.67275" lon="6.83543">
        <ele>383.69</ele>
        <time>2018-11-03T12:17:27.000Z</time>
      </trkpt>
      <trkpt lat="47.67256" lon="6.83562">
        <ele>384.41</ele>
        <time>2018-11-03T12:17:32.000Z</time>
      </trkpt>
      <trkpt lat="47.67239" lon="6.83586">
        <ele>385.12</ele>
        <time>2018-11-03T12:17:37.000Z</time>
      </trkpt>
      <trkpt lat="47.67231" lon="6.83612">
        <ele>385.84</ele>
        <time>2018-11-03T12:17:42.000Z</time>
      </trkpt>
      <trkpt lat="47.67224" lon="6.83652">
        <ele>385.77</ele>
        <time>2018-11-03T12:17:47.000Z</time>
      </trkpt>
      <trkpt lat="47.67217" lon="6.83687">
        <ele>385.69</ele>
        <time>2018-11-03T12:17:52.000Z</time>
      </trkpt>
      <trkpt lat="47.67209" lon="6.83729">
        <ele>385.61</ele>
        <time>2018-11-03T12:17:57.000Z</time>
      </trkpt>
      <trkpt lat="47.67199" lon="6.83767">
        <ele>385.59</ele>
        <time>2018-11-03T12:18:02.000Z</time>
      </trkpt>
      <trkpt lat="47.67184" lon="6.83797">
        <ele>385.57</ele>
        <time>2018-11-03T12:18:07.000Z</time>
      </trkpt>
      <trkpt lat="47.67163" lon="6.83817">
        <ele>385.54</ele>
        <time>2018-11-03T12:18:12.000Z</time>
      </trkpt>
      <trkpt lat="47.6714" lon="6.83837">
        <ele>385.65</ele>
        <time>2018-11-03T12:18:17.000Z</time>
      </trkpt>
      <trkpt lat="47.67116" lon="6.8386">
        <ele>385.76</ele>
        <time>2018-11-03T12:18:22.000Z</time>
      </trkpt>
      <trkpt lat="47.67088" lon="6.83875">
        <ele>385.87</ele>
        <time>2018-11-03T12:18:27.000Z</time>
      </trkpt>
      <trkpt lat="47.67062" lon="6.83886">
        <ele>383.3</ele>
        <time>2018-11-03T12:18:32.000Z</time>
      </trkpt>
      <trkpt lat="47.67033" lon="6.83896">
        <ele>380.73</ele>
        <time>2018-11-03T12:18:37.000Z</time>
      </trkpt>
      <trkpt lat="47.67005" lon="6.83904">
        <ele>378.16</ele>
        <time>2018-11-03T12:18:42.000Z</time>
      </trkpt>
      <trkpt lat="47.66983" lon="6.83918">
        <ele>377.67</ele>
        <time>2018-11-03T12:18:47.000Z</time>
      </trkpt>
      <trkpt lat="47.66966" lon="6.83943">
        <ele>377.19</ele>
        <time>2018-11-03T12:18:52.000Z</time>
      </trkpt>
      <trkpt lat="47.66942" lon="6.83931">
        <ele>376.7</ele>
        <time>2018-11-03T12:18:57.000Z</time>
      </trkpt>
      <trkpt lat="47.66916" lon="6.83922">
        <ele>376.68</ele>
        <time>2018-11-03T12:19:02.000Z</time>
      </trkpt>
      <trkpt lat="47.66889" lon="6.83915">
        <ele>376.67</ele>
        <time>2018-11-03T12:19:07.000Z</time>
      </trkpt>
      <trkpt lat="47.66868" lon="6.83932">
        <ele>376.65</ele>
        <time>2018-11-03T12:19:12.000Z</time>
      </trkpt>
      <trkpt lat="47.6686" lon="6.83968">
        <ele>376.54</ele>
        <time>2018-11-03T12:19:17.000Z</time>
      </trkpt>
      <trkpt lat="47.66843" lon="6.83991">
        <ele>376.42</ele>
        <time>2018-11-03T12:19:22.000Z</time>
      </trkpt>
      <trkpt lat="47.66819" lon="6.83986">
        <ele>376.31</ele>
        <time>2018-11-03T12:19:27.000Z</time>
      </trkpt>
      <trkpt lat="47.66793" lon="6.83984">
        <ele>375.97</ele>
        <time>2018-11-03T12:19:32.000Z</time>
      </trkpt>
      <trkpt lat="47.66768" lon="6.83982">
        <ele>375.63</ele>
        <time>2018-11-03T12:19:37.000Z</time>
      </trkpt>
      <trkpt lat="47.66742" lon="6.83979">
        <ele>375.29</ele>
        <time>2018-11-03T12:19:42.000Z</time>
      </trkpt>
      <trkpt lat="47.66718" lon="6.83985">
        <ele>375.1</ele>
        <time>2018-11-03T12:19:47.000Z</time>
      </trkpt>
      <trkpt lat="47.6671" lon="6.84018">
        <ele>374.91</ele>
        <time>2018-11-03T12:19:52.000Z</time>
      </trkpt>
      <trkpt lat="47.66702" lon="6.84057">
        <ele>374.72</ele>
        <time>2018-11-03T12:19:57.000Z</time>
      </trkpt>
      <trkpt lat="47.66692" lon="6.84093">
        <ele>374.85</ele>
        <time>2018-11-03T12:20:02.000Z</time>
      </trkpt>
      <trkpt lat="47.66682" lon="6.84123">
        <ele>374.97</ele>
        <time>2018-11-03T12:20:07.000Z</time>
      </trkpt>
      <trkpt lat="47.66671" lon="6.8416">
        <ele>375.1</ele>
        <time>2018-11-03T12:20:12.000Z</time>
      </trkpt>
      <trkpt lat="47.66662" lon="6.8419">
        <ele>375</ele>
        <time>2018-11-03T12:20:17.000Z</time>
      </trkpt>
      <trkpt lat="47.6665" lon="6.84225">
        <ele>374.9</ele>
        <time>2018-11-03T12:20:22.000Z</time>
      </trkpt>
      <trkpt lat="47.66641" lon="6.84251">
        <ele>374.81</ele>
        <time>2018-11-03T12:20:27.000Z</time>
      </trkpt>
      <trkpt lat="47.66633" lon="6.84272">
        <ele>374.65</ele>
        <time>2018-11-03T12:20:32.000Z</time>
      </trkpt>
      <trkpt lat="47.66617" lon="6.84289">
        <ele>374.49</ele>
        <time>2018-11-03T12:20:37.000Z</time>
      </trkpt>
      <trkpt lat="47.66597" lon="6.84304">
        <ele>374.32</ele>
        <time>2018-11-03T12:20:42.000Z</time>
      </trkpt>
      <trkpt lat="47.66575" lon="6.84317">
        <ele>373.51</ele>
        <time>2018-11-03T12:20:47.000Z</time>
      </trkpt>
      <trkpt lat="47.66556" lon="6.84338">
        <ele>372.7</ele>
        <time>2018-11-03T12:20:52.000Z</time>
      </trkpt>
      <trkpt lat="47.66537" lon="6.84361">
        <ele>371.89</ele>
        <time>2018-11-03T12:20:57.000Z</time>
      </trkpt>
      <trkpt lat="47.6652" lon="6.84382">
        <ele>372.04</ele>
        <time>2018-11-03T12:21:02.000Z</time>
      </trkpt>
      <trkpt lat="47.66504" lon="6.84402">
        <ele>372.19</ele>
        <time>2018-11-03T12:21:07.000Z</time>
      </trkpt>
      <trkpt lat="47.665" lon="6.84406">
        <ele>372.34</ele>
        <time>2018-11-03T12:21:12.000Z</time>
      </trkpt>
      <trkpt lat="47.665" lon="6.84406">
        <ele>372.3</ele>
        <time>2018-11-03T12:21:17.000Z</time>
      </trkpt>
      <trkpt lat="47.66499" lon="6.84407">
        <ele>372.26</ele>
        <time>2018-11-03T12:21:22.000Z</time>
      </trkpt>
      <trkpt lat="47.66491" lon="6.84413">
        <ele>372.22</ele>
        <time>2018-11-03T12:21:27.000Z</time>
      </trkpt>
      <trkpt lat="47.66481" lon="6.84395">
        <ele>372.54</ele>
        <time>2018-11-03T12:21:32.000Z</time>
      </trkpt>
      <trkpt lat="47.66462" lon="6.84403">
        <ele>372.87</ele>
        <time>2018-11-03T12:21:37.000Z</time>
      </trkpt>
      <trkpt lat="47.66439" lon="6.84429">
        <ele>373.19</ele>
        <time>2018-11-03T12:21:42.000Z</time>
      </trkpt>
      <trkpt lat="47.66411" lon="6.8446">
        <ele>372.99</ele>
        <time>2018-11-03T12:21:47.000Z</time>
      </trkpt>
      <trkpt lat="47.66392" lon="6.84487">
        <ele>372.79</ele>
        <time>2018-11-03T12:21:52.000Z</time>
      </trkpt>
      <trkpt lat="47.66369" lon="6.84514">
        <ele>372.6</ele>
        <time>2018-11-03T12:21:57.000Z</time>
      </trkpt>
      <trkpt lat="47.66343" lon="6.84531">
        <ele>372.06</ele>
        <time>2018-11-03T12:22:02.000Z</time>
      </trkpt>
      <trkpt lat="47.66318" lon="6.84555">
        <ele>371.52</ele>
        <time>2018-11-03T12:22:07.000Z</time>
      </trkpt>
      <trkpt lat="47.66299" lon="6.84593">
        <ele>370.98</ele>
        <time>2018-11-03T12:22:12.000Z</time>
      </trkpt>
      <trkpt lat="47.66281" lon="6.8463">
        <ele>370.75</ele>
        <time>2018-11-03T12:22:17.000Z</time>
      </trkpt>
      <trkpt lat="47.66271" lon="6.84666">
        <ele>370.52</ele>
        <time>2018-11-03T12:22:22.000Z</time>
      </trkpt>
      <trkpt lat="47.6626" lon="6.84708">
        <ele>370.29</ele>
        <time>2018-11-03T12:22:27.000Z</time>
      </trkpt>
      <trkpt lat="47.66262" lon="6.84746">
        <ele>370.25</ele>
        <time>2018-11-03T12:22:32.000Z</time>
      </trkpt>
      <trkpt lat="47.66271" lon="6.84785">
        <ele>370.21</ele>
        <time>2018-11-03T12:22:37.000Z</time>
      </trkpt>
      <trkpt lat="47.6626" lon="6.84805">
        <ele>370.17</ele>
        <time>2018-11-03T12:22:42.000Z</time>
      </trkpt>
      <trkpt lat="47.66243" lon="6.84825">
        <ele>370.15</ele>
        <time>2018-11-03T12:22:47.000Z</time>
      </trkpt>
      <trkpt lat="47.66218" lon="6.84834">
        <ele>370.12</ele>
        <time>2018-11-03T12:22:52.000Z</time>
      </trkpt>
      <trkpt lat="47.66192" lon="6.84844">
        <ele>370.1</ele>
        <time>2018-11-03T12:22:57.000Z</time>
      </trkpt>
      <trkpt lat="47.66169" lon="6.84858">
        <ele>370.01</ele>
        <time>2018-11-03T12:23:02.000Z</time>
      </trkpt>
      <trkpt lat="47.66145" lon="6.84879">
        <ele>369.91</ele>
        <time>2018-11-03T12:23:07.000Z</time>
      </trkpt>
      <trkpt lat="47.66121" lon="6.8489">
        <ele>369.81</ele>
        <time>2018-11-03T12:23:12.000Z</time>
      </trkpt>
      <trkpt lat="47.66096" lon="6.84903">
        <ele>369.62</ele>
        <time>2018-11-03T12:23:17.000Z</time>
      </trkpt>
      <trkpt lat="47.66071" lon="6.84907">
        <ele>369.43</ele>
        <time>2018-11-03T12:23:22.000Z</time>
      </trkpt>
      <trkpt lat="47.66059" lon="6.84924">
        <ele>369.24</ele>
        <time>2018-11-03T12:23:27.000Z</time>
      </trkpt>
      <trkpt lat="47.6607" lon="6.84955">
        <ele>369.85</ele>
        <time>2018-11-03T12:23:32.000Z</time>
      </trkpt>
      <trkpt lat="47.66079" lon="6.84986">
        <ele>370.45</ele>
        <time>2018-11-03T12:23:37.000Z</time>
      </trkpt>
      <trkpt lat="47.66088" lon="6.8501">
        <ele>371.05</ele>
        <time>2018-11-03T12:23:42.000Z</time>
      </trkpt>
      <trkpt lat="47.66097" lon="6.85034">
        <ele>370.66</ele>
        <time>2018-11-03T12:23:47.000Z</time>
      </trkpt>
      <trkpt lat="47.66092" lon="6.85062">
        <ele>370.27</ele>
        <time>2018-11-03T12:23:52.000Z</time>
      </trkpt>
      <trkpt lat="47.66083" lon="6.85086">
        <ele>369.88</ele>
        <time>2018-11-03T12:23:57.000Z</time>
      </trkpt>
      <trkpt lat="47.66067" lon="6.85113">
        <ele>369.79</ele>
        <time>2018-11-03T12:24:02.000Z</time>
      </trkpt>
      <trkpt lat="47.66052" lon="6.85138">
        <ele>369.71</ele>
        <time>2018-11-03T12:24:07.000Z</time>
      </trkpt>
      <trkpt lat="47.66031" lon="6.85172">
        <ele>369.62</ele>
        <time>2018-11-03T12:24:12.000Z</time>
      </trkpt>
      <trkpt lat="47.66011" lon="6.85193">
        <ele>369.07</ele>
        <time>2018-11-03T12:24:17.000Z</time>
      </trkpt>
      <trkpt lat="47.65992" lon="6.85218">
        <ele>368.53</ele>
        <time>2018-11-03T12:24:22.000Z</time>
      </trkpt>
      <trkpt lat="47.65972" lon="6.85245">
        <ele>367.98</ele>
        <time>2018-11-03T12:24:27.000Z</time>
      </trkpt>
      <trkpt lat="47.65952" lon="6.85274">
        <ele>367.66</ele>
        <time>2018-11-03T12:24:32.000Z</time>
      </trkpt>
      <trkpt lat="47.65931" lon="6.85304">
        <ele>367.34</ele>
        <time>2018-11-03T12:24:37.000Z</time>
      </trkpt>
      <trkpt lat="47.65913" lon="6.85335">
        <ele>367.01</ele>
        <time>2018-11-03T12:24:42.000Z</time>
      </trkpt>
      <trkpt lat="47.65903" lon="6.85369">
        <ele>367.44</ele>
        <time>2018-11-03T12:24:47.000Z</time>
      </trkpt>
      <trkpt lat="47.65903" lon="6.85408">
        <ele>367.86</ele>
        <time>2018-11-03T12:24:52.000Z</time>
      </trkpt>
      <trkpt lat="47.65896" lon="6.85426">
        <ele>368.28</ele>
        <time>2018-11-03T12:24:57.000Z</time>
      </trkpt>
      <trkpt lat="47.65903" lon="6.85459">
        <ele>367.95</ele>
        <time>2018-11-03T12:25:02.000Z</time>
      </trkpt>
      <trkpt lat="47.659" lon="6.85494">
        <ele>367.62</ele>
        <time>2018-11-03T12:25:07.000Z</time>
      </trkpt>
      <trkpt lat="47.65883" lon="6.85524">
        <ele>367.29</ele>
        <time>2018-11-03T12:25:12.000Z</time>
      </trkpt>
      <trkpt lat="47.65877" lon="6.8555">
        <ele>367.09</ele>
        <time>2018-11-03T12:25:17.000Z</time>
      </trkpt>
      <trkpt lat="47.65864" lon="6.8559">
        <ele>366.88</ele>
        <time>2018-11-03T12:25:22.000Z</time>
      </trkpt>
      <trkpt lat="47.6585" lon="6.85623">
        <ele>366.67</ele>
        <time>2018-11-03T12:25:27.000Z</time>
      </trkpt>
      <trkpt lat="47.65839" lon="6.85651">
        <ele>366.44</ele>
        <time>2018-11-03T12:25:32.000Z</time>
      </trkpt>
      <trkpt lat="47.6583" lon="6.85674">
        <ele>366.2</ele>
        <time>2018-11-03T12:25:37.000Z</time>
      </trkpt>
      <trkpt lat="47.65829" lon="6.85687">
        <ele>365.96</ele>
        <time>2018-11-03T12:25:42.000Z</time>
      </trkpt>
      <trkpt lat="47.65821" lon="6.85711">
        <ele>366.04</ele>
        <time>2018-11-03T12:25:47.000Z</time>
      </trkpt>
      <trkpt lat="47.65811" lon="6.85736">
        <ele>366.12</ele>
        <time>2018-11-03T12:25:52.000Z</time>
      </trkpt>
      <trkpt lat="47.65797" lon="6.85761">
        <ele>366.2</ele>
        <time>2018-11-03T12:25:57.000Z</time>
      </trkpt>
      <trkpt lat="47.65782" lon="6.85789">
        <ele>366.32</ele>
        <time>2018-11-03T12:26:02.000Z</time>
      </trkpt>
      <trkpt lat="47.65769" lon="6.85818">
        <ele>366.43</ele>
        <time>2018-11-03T12:26:07.000Z</time>
      </trkpt>
      <trkpt lat="47.6576" lon="6.85846">
        <ele>366.55</ele>
        <time>2018-11-03T12:26:12.000Z</time>
      </trkpt>
      <trkpt lat="47.65752" lon="6.85872">
        <ele>367.17</ele>
        <time>2018-11-03T12:26:17.000Z</time>
      </trkpt>
      <trkpt lat="47.65754" lon="6.85877">
        <ele>367.78</ele>
        <time>2018-11-03T12:26:22.000Z</time>
      </trkpt>
      <trkpt lat="47.65753" lon="6.85886">
        <ele>368.4</ele>
        <time>2018-11-03T12:26:27.000Z</time>
      </trkpt>
      <trkpt lat="47.65749" lon="6.85902">
        <ele>368.3</ele>
        <time>2018-11-03T12:26:32.000Z</time>
      </trkpt>
      <trkpt lat="47.65742" lon="6.85923">
        <ele>368.2</ele>
        <time>2018-11-03T12:26:37.000Z</time>
      </trkpt>
      <trkpt lat="47.65729" lon="6.85952">
        <ele>368.09</ele>
        <time>2018-11-03T12:26:42.000Z</time>
      </trkpt>
      <trkpt lat="47.65713" lon="6.85976">
        <ele>368.39</ele>
        <time>2018-11-03T12:26:47.000Z</time>
      </trkpt>
      <trkpt lat="47.65697" lon="6.86006">
        <ele>368.69</ele>
        <time>2018-11-03T12:26:52.000Z</time>
      </trkpt>
      <trkpt lat="47.65681" lon="6.86031">
        <ele>368.99</ele>
        <time>2018-11-03T12:26:57.000Z</time>
      </trkpt>
      <trkpt lat="47.65672" lon="6.86059">
        <ele>369.42</ele>
        <time>2018-11-03T12:27:02.000Z</time>
      </trkpt>
      <trkpt lat="47.65668" lon="6.86091">
        <ele>369.85</ele>
        <time>2018-11-03T12:27:07.000Z</time>
      </trkpt>
      <trkpt lat="47.6567" lon="6.86134">
        <ele>370.28</ele>
        <time>2018-11-03T12:27:12.000Z</time>
      </trkpt>
      <trkpt lat="47.65671" lon="6.86174">
        <ele>369.16</ele>
        <time>2018-11-03T12:27:17.000Z</time>
      </trkpt>
      <trkpt lat="47.65674" lon="6.86203">
        <ele>368.04</ele>
        <time>2018-11-03T12:27:22.000Z</time>
      </trkpt>
      <trkpt lat="47.65681" lon="6.86222">
        <ele>366.92</ele>
        <time>2018-11-03T12:27:27.000Z</time>
      </trkpt>
      <trkpt lat="47.65687" lon="6.86236">
        <ele>367.02</ele>
        <time>2018-11-03T12:27:32.000Z</time>
      </trkpt>
      <trkpt lat="47.65703" lon="6.86228">
        <ele>367.12</ele>
        <time>2018-11-03T12:27:37.000Z</time>
      </trkpt>
      <trkpt lat="47.65717" lon="6.86235">
        <ele>367.22</ele>
        <time>2018-11-03T12:27:42.000Z</time>
      </trkpt>
      <trkpt lat="47.65725" lon="6.86257">
        <ele>366.93</ele>
        <time>2018-11-03T12:27:47.000Z</time>
      </trkpt>
      <trkpt lat="47.65735" lon="6.86271">
        <ele>366.64</ele>
        <time>2018-11-03T12:27:52.000Z</time>
      </trkpt>
      <trkpt lat="47.65738" lon="6.86286">
        <ele>366.35</ele>
        <time>2018-11-03T12:27:57.000Z</time>
      </trkpt>
      <trkpt lat="47.65724" lon="6.86303">
        <ele>366.56</ele>
        <time>2018-11-03T12:28:02.000Z</time>
      </trkpt>
      <trkpt lat="47.65733" lon="6.86324">
        <ele>366.78</ele>
        <time>2018-11-03T12:28:07.000Z</time>
      </trkpt>
      <trkpt lat="47.65746" lon="6.86341">
        <ele>366.99</ele>
        <time>2018-11-03T12:28:12.000Z</time>
      </trkpt>
      <trkpt lat="47.65754" lon="6.86358">
        <ele>366.83</ele>
        <time>2018-11-03T12:28:17.000Z</time>
      </trkpt>
      <trkpt lat="47.65768" lon="6.86379">
        <ele>366.67</ele>
        <time>2018-11-03T12:28:22.000Z</time>
      </trkpt>
      <trkpt lat="47.65774" lon="6.86403">
        <ele>366.51</ele>
        <time>2018-11-03T12:28:27.000Z</time>
      </trkpt>
      <trkpt lat="47.65758" lon="6.86424">
        <ele>366.55</ele>
        <time>2018-11-03T12:28:32.000Z</time>
      </trkpt>
      <trkpt lat="47.65748" lon="6.86449">
        <ele>366.6</ele>
        <time>2018-11-03T12:28:37.000Z</time>
      </trkpt>
      <trkpt lat="47.65743" lon="6.86473">
        <ele>366.65</ele>
        <time>2018-11-03T12:28:42.000Z</time>
      </trkpt>
      <trkpt lat="47.65749" lon="6.86488">
        <ele>367.37</ele>
        <time>2018-11-03T12:28:47.000Z</time>
      </trkpt>
      <trkpt lat="47.65753" lon="6.86508">
        <ele>368.1</ele>
        <time>2018-11-03T12:28:52.000Z</time>
      </trkpt>
      <trkpt lat="47.65768" lon="6.86529">
        <ele>368.83</ele>
        <time>2018-11-03T12:28:57.000Z</time>
      </trkpt>
      <trkpt lat="47.65787" lon="6.86557">
        <ele>368.94</ele>
        <time>2018-11-03T12:29:02.000Z</time>
      </trkpt>
      <trkpt lat="47.65802" lon="6.8658">
        <ele>369.04</ele>
        <time>2018-11-03T12:29:07.000Z</time>
      </trkpt>
      <trkpt lat="47.65818" lon="6.86604">
        <ele>369.15</ele>
        <time>2018-11-03T12:29:12.000Z</time>
      </trkpt>
      <trkpt lat="47.65835" lon="6.86628">
        <ele>369.79</ele>
        <time>2018-11-03T12:29:17.000Z</time>
      </trkpt>
      <trkpt lat="47.65853" lon="6.86654">
        <ele>370.43</ele>
        <time>2018-11-03T12:29:22.000Z</time>
      </trkpt>
      <trkpt lat="47.65869" lon="6.86679">
        <ele>371.07</ele>
        <time>2018-11-03T12:29:27.000Z</time>
      </trkpt>
      <trkpt lat="47.65885" lon="6.86703">
        <ele>371.69</ele>
        <time>2018-11-03T12:29:32.000Z</time>
      </trkpt>
      <trkpt lat="47.65901" lon="6.86726">
        <ele>372.3</ele>
        <time>2018-11-03T12:29:37.000Z</time>
      </trkpt>
      <trkpt lat="47.65916" lon="6.86748">
        <ele>372.92</ele>
        <time>2018-11-03T12:29:42.000Z</time>
      </trkpt>
      <trkpt lat="47.65928" lon="6.86767">
        <ele>373.23</ele>
        <time>2018-11-03T12:29:47.000Z</time>
      </trkpt>
      <trkpt lat="47.65944" lon="6.8679">
        <ele>373.54</ele>
        <time>2018-11-03T12:29:52.000Z</time>
      </trkpt>
      <trkpt lat="47.6596" lon="6.86813">
        <ele>373.85</ele>
        <time>2018-11-03T12:29:57.000Z</time>
      </trkpt>
      <trkpt lat="47.65977" lon="6.86836">
        <ele>374.37</ele>
        <time>2018-11-03T12:30:02.000Z</time>
      </trkpt>
      <trkpt lat="47.65995" lon="6.8686">
        <ele>374.88</ele>
        <time>2018-11-03T12:30:07.000Z</time>
      </trkpt>
      <trkpt lat="47.6601" lon="6.86883">
        <ele>375.39</ele>
        <time>2018-11-03T12:30:12.000Z</time>
      </trkpt>
      <trkpt lat="47.66025" lon="6.86907">
        <ele>375.27</ele>
        <time>2018-11-03T12:30:17.000Z</time>
      </trkpt>
      <trkpt lat="47.66034" lon="6.86932">
        <ele>375.15</ele>
        <time>2018-11-03T12:30:22.000Z</time>
      </trkpt>
      <trkpt lat="47.66044" lon="6.86958">
        <ele>375.03</ele>
        <time>2018-11-03T12:30:27.000Z</time>
      </trkpt>
      <trkpt lat="47.66058" lon="6.86985">
        <ele>375.29</ele>
        <time>2018-11-03T12:30:32.000Z</time>
      </trkpt>
      <trkpt lat="47.6606" lon="6.87013">
        <ele>375.56</ele>
        <time>2018-11-03T12:30:37.000Z</time>
      </trkpt>
      <trkpt lat="47.66059" lon="6.87043">
        <ele>375.83</ele>
        <time>2018-11-03T12:30:42.000Z</time>
      </trkpt>
      <trkpt lat="47.6606" lon="6.87077">
        <ele>375.17</ele>
        <time>2018-11-03T12:30:47.000Z</time>
      </trkpt>
      <trkpt lat="47.66061" lon="6.87109">
        <ele>374.5</ele>
        <time>2018-11-03T12:30:52.000Z</time>
      </trkpt>
      <trkpt lat="47.66062" lon="6.87141">
        <ele>373.84</ele>
        <time>2018-11-03T12:30:57.000Z</time>
      </trkpt>
      <trkpt lat="47.66062" lon="6.87172">
        <ele>373.72</ele>
        <time>2018-11-03T12:31:02.000Z</time>
      </trkpt>
      <trkpt lat="47.66061" lon="6.87184">
        <ele>373.61</ele>
        <time>2018-11-03T12:31:07.000Z</time>
      </trkpt>
      <trkpt lat="47.6606" lon="6.87188">
        <ele>373.49</ele>
        <time>2018-11-03T12:31:12.000Z</time>
      </trkpt>
      <trkpt lat="47.66059" lon="6.87205">
        <ele>373.69</ele>
        <time>2018-11-03T12:31:17.000Z</time>
      </trkpt>
      <trkpt lat="47.6606" lon="6.87225">
        <ele>373.9</ele>
        <time>2018-11-03T12:31:22.000Z</time>
      </trkpt>
      <trkpt lat="47.66061" lon="6.8726">
        <ele>374.1</ele>
        <time>2018-11-03T12:31:27.000Z</time>
      </trkpt>
      <trkpt lat="47.66061" lon="6.87292">
        <ele>373.4</ele>
        <time>2018-11-03T12:31:32.000Z</time>
      </trkpt>
      <trkpt lat="47.66062" lon="6.87324">
        <ele>372.69</ele>
        <time>2018-11-03T12:31:37.000Z</time>
      </trkpt>
      <trkpt lat="47.66063" lon="6.8736">
        <ele>371.99</ele>
        <time>2018-11-03T12:31:42.000Z</time>
      </trkpt>
      <trkpt lat="47.66064" lon="6.87397">
        <ele>372.85</ele>
        <time>2018-11-03T12:31:47.000Z</time>
      </trkpt>
      <trkpt lat="47.66064" lon="6.87439">
        <ele>373.71</ele>
        <time>2018-11-03T12:31:52.000Z</time>
      </trkpt>
      <trkpt lat="47.66066" lon="6.87477">
        <ele>374.58</ele>
        <time>2018-11-03T12:31:57.000Z</time>
      </trkpt>
      <trkpt lat="47.66067" lon="6.8752">
        <ele>374.31</ele>
        <time>2018-11-03T12:32:02.000Z</time>
      </trkpt>
      <trkpt lat="47.66073" lon="6.87558">
        <ele>374.04</ele>
        <time>2018-11-03T12:32:07.000Z</time>
      </trkpt>
      <trkpt lat="47.66079" lon="6.87592">
        <ele>373.77</ele>
        <time>2018-11-03T12:32:12.000Z</time>
      </trkpt>
      <trkpt lat="47.6609" lon="6.87628">
        <ele>372.47</ele>
        <time>2018-11-03T12:32:17.000Z</time>
      </trkpt>
      <trkpt lat="47.66102" lon="6.87668">
        <ele>371.16</ele>
        <time>2018-11-03T12:32:22.000Z</time>
      </trkpt>
      <trkpt lat="47.66113" lon="6.87705">
        <ele>369.85</ele>
        <time>2018-11-03T12:32:27.000Z</time>
      </trkpt>
      <trkpt lat="47.66122" lon="6.87735">
        <ele>369.89</ele>
        <time>2018-11-03T12:32:32.000Z</time>
      </trkpt>
      <trkpt lat="47.66129" lon="6.87748">
        <ele>369.93</ele>
        <time>2018-11-03T12:32:37.000Z</time>
      </trkpt>
      <trkpt lat="47.66132" lon="6.87756">
        <ele>369.97</ele>
        <time>2018-11-03T12:32:42.000Z</time>
      </trkpt>
      <trkpt lat="47.66134" lon="6.87757">
        <ele>370</ele>
        <time>2018-11-03T12:32:47.000Z</time>
      </trkpt>
      <trkpt lat="47.66134" lon="6.87757">
        <ele>370.02</ele>
        <time>2018-11-03T12:32:52.000Z</time>
      </trkpt>
      <trkpt lat="47.66134" lon="6.87756">
        <ele>370.05</ele>
        <time>2018-11-03T12:32:57.000Z</time>
      </trkpt>
      <trkpt lat="47.66134" lon="6.87756">
        <ele>369.84</ele>
        <time>2018-11-03T12:33:02.000Z</time>
      </trkpt>
      <trkpt lat="47.66135" lon="6.87757">
        <ele>369.63</ele>
        <time>2018-11-03T12:33:07.000Z</time>
      </trkpt>
      <trkpt lat="47.66139" lon="6.87769">
        <ele>369.41</ele>
        <time>2018-11-03T12:33:12.000Z</time>
      </trkpt>
      <trkpt lat="47.66148" lon="6.87789">
        <ele>369.14</ele>
        <time>2018-11-03T12:33:17.000Z</time>
      </trkpt>
      <trkpt lat="47.66153" lon="6.87813">
        <ele>368.87</ele>
        <time>2018-11-03T12:33:22.000Z</time>
      </trkpt>
      <trkpt lat="47.66162" lon="6.87838">
        <ele>368.6</ele>
        <time>2018-11-03T12:33:27.000Z</time>
      </trkpt>
      <trkpt lat="47.66171" lon="6.87865">
        <ele>368.99</ele>
        <time>2018-11-03T12:33:32.000Z</time>
      </trkpt>
      <trkpt lat="47.66178" lon="6.87891">
        <ele>369.37</ele>
        <time>2018-11-03T12:33:37.000Z</time>
      </trkpt>
      <trkpt lat="47.66186" lon="6.87916">
        <ele>369.76</ele>
        <time>2018-11-03T12:33:42.000Z</time>
      </trkpt>
      <trkpt lat="47.66191" lon="6.87946">
        <ele>369.86</ele>
        <time>2018-11-03T12:33:47.000Z</time>
      </trkpt>
      <trkpt lat="47.66201" lon="6.87982">
        <ele>369.97</ele>
        <time>2018-11-03T12:33:52.000Z</time>
      </trkpt>
      <trkpt lat="47.66209" lon="6.88006">
        <ele>370.07</ele>
        <time>2018-11-03T12:33:57.000Z</time>
      </trkpt>
      <trkpt lat="47.66217" lon="6.8803">
        <ele>370.31</ele>
        <time>2018-11-03T12:34:02.000Z</time>
      </trkpt>
      <trkpt lat="47.66227" lon="6.88054">
        <ele>370.54</ele>
        <time>2018-11-03T12:34:07.000Z</time>
      </trkpt>
      <trkpt lat="47.66236" lon="6.88081">
        <ele>370.78</ele>
        <time>2018-11-03T12:34:12.000Z</time>
      </trkpt>
      <trkpt lat="47.66247" lon="6.88108">
        <ele>370.29</ele>
        <time>2018-11-03T12:34:17.000Z</time>
      </trkpt>
      <trkpt lat="47.66256" lon="6.88135">
        <ele>369.8</ele>
        <time>2018-11-03T12:34:22.000Z</time>
      </trkpt>
      <trkpt lat="47.66265" lon="6.88163">
        <ele>369.32</ele>
        <time>2018-11-03T12:34:27.000Z</time>
      </trkpt>
      <trkpt lat="47.66274" lon="6.88192">
        <ele>369.13</ele>
        <time>2018-11-03T12:34:32.000Z</time>
      </trkpt>
      <trkpt lat="47.66281" lon="6.88214">
        <ele>368.94</ele>
        <time>2018-11-03T12:34:37.000Z</time>
      </trkpt>
      <trkpt lat="47.66288" lon="6.8824">
        <ele>368.75</ele>
        <time>2018-11-03T12:34:42.000Z</time>
      </trkpt>
      <trkpt lat="47.66294" lon="6.88267">
        <ele>368.7</ele>
        <time>2018-11-03T12:34:47.000Z</time>
      </trkpt>
      <trkpt lat="47.66294" lon="6.88291">
        <ele>368.64</ele>
        <time>2018-11-03T12:34:52.000Z</time>
      </trkpt>
      <trkpt lat="47.66281" lon="6.88313">
        <ele>368.59</ele>
        <time>2018-11-03T12:34:57.000Z</time>
      </trkpt>
      <trkpt lat="47.66278" lon="6.88338">
        <ele>368.97</ele>
        <time>2018-11-03T12:35:02.000Z</time>
      </trkpt>
      <trkpt lat="47.66285" lon="6.88362">
        <ele>369.35</ele>
        <time>2018-11-03T12:35:07.000Z</time>
      </trkpt>
      <trkpt lat="47.66291" lon="6.88382">
        <ele>369.74</ele>
        <time>2018-11-03T12:35:12.000Z</time>
      </trkpt>
      <trkpt lat="47.6628" lon="6.88399">
        <ele>369.69</ele>
        <time>2018-11-03T12:35:17.000Z</time>
      </trkpt>
      <trkpt lat="47.66268" lon="6.88418">
        <ele>369.65</ele>
        <time>2018-11-03T12:35:22.000Z</time>
      </trkpt>
      <trkpt lat="47.66254" lon="6.88441">
        <ele>369.61</ele>
        <time>2018-11-03T12:35:27.000Z</time>
      </trkpt>
      <trkpt lat="47.66242" lon="6.88464">
        <ele>369.41</ele>
        <time>2018-11-03T12:35:32.000Z</time>
      </trkpt>
      <trkpt lat="47.66227" lon="6.88488">
        <ele>369.21</ele>
        <time>2018-11-03T12:35:37.000Z</time>
      </trkpt>
      <trkpt lat="47.66212" lon="6.88507">
        <ele>369.02</ele>
        <time>2018-11-03T12:35:42.000Z</time>
      </trkpt>
      <trkpt lat="47.66196" lon="6.88526">
        <ele>369.13</ele>
        <time>2018-11-03T12:35:47.000Z</time>
      </trkpt>
      <trkpt lat="47.66182" lon="6.88542">
        <ele>369.24</ele>
        <time>2018-11-03T12:35:52.000Z</time>
      </trkpt>
      <trkpt lat="47.66168" lon="6.88557">
        <ele>369.35</ele>
        <time>2018-11-03T12:35:57.000Z</time>
      </trkpt>
      <trkpt lat="47.66151" lon="6.88572">
        <ele>370.35</ele>
        <time>2018-11-03T12:36:02.000Z</time>
      </trkpt>
      <trkpt lat="47.66135" lon="6.88584">
        <ele>371.35</ele>
        <time>2018-11-03T12:36:07.000Z</time>
      </trkpt>
      <trkpt lat="47.66122" lon="6.88594">
        <ele>372.35</ele>
        <time>2018-11-03T12:36:12.000Z</time>
      </trkpt>
      <trkpt lat="47.6611" lon="6.88605">
        <ele>373.4</ele>
        <time>2018-11-03T12:36:17.000Z</time>
      </trkpt>
      <trkpt lat="47.66102" lon="6.88613">
        <ele>374.45</ele>
        <time>2018-11-03T12:36:22.000Z</time>
      </trkpt>
      <trkpt lat="47.66094" lon="6.88621">
        <ele>375.49</ele>
        <time>2018-11-03T12:36:27.000Z</time>
      </trkpt>
      <trkpt lat="47.66086" lon="6.88628">
        <ele>376.22</ele>
        <time>2018-11-03T12:36:32.000Z</time>
      </trkpt>
      <trkpt lat="47.66079" lon="6.88635">
        <ele>376.94</ele>
        <time>2018-11-03T12:36:37.000Z</time>
      </trkpt>
      <trkpt lat="47.66073" lon="6.88643">
        <ele>377.66</ele>
        <time>2018-11-03T12:36:42.000Z</time>
      </trkpt>
      <trkpt lat="47.6607" lon="6.88654">
        <ele>378.16</ele>
        <time>2018-11-03T12:36:47.000Z</time>
      </trkpt>
      <trkpt lat="47.66063" lon="6.88651">
        <ele>378.66</ele>
        <time>2018-11-03T12:36:52.000Z</time>
      </trkpt>
      <trkpt lat="47.66055" lon="6.88661">
        <ele>379.16</ele>
        <time>2018-11-03T12:36:57.000Z</time>
      </trkpt>
      <trkpt lat="47.66049" lon="6.88673">
        <ele>379.62</ele>
        <time>2018-11-03T12:37:02.000Z</time>
      </trkpt>
      <trkpt lat="47.66041" lon="6.8868">
        <ele>380.07</ele>
        <time>2018-11-03T12:37:07.000Z</time>
      </trkpt>
      <trkpt lat="47.66031" lon="6.8869">
        <ele>380.52</ele>
        <time>2018-11-03T12:37:12.000Z</time>
      </trkpt>
      <trkpt lat="47.66022" lon="6.88702">
        <ele>380.54</ele>
        <time>2018-11-03T12:37:17.000Z</time>
      </trkpt>
      <trkpt lat="47.66011" lon="6.88717">
        <ele>380.55</ele>
        <time>2018-11-03T12:37:22.000Z</time>
      </trkpt>
      <trkpt lat="47.66" lon="6.88733">
        <ele>380.57</ele>
        <time>2018-11-03T12:37:27.000Z</time>
      </trkpt>
      <trkpt lat="47.65989" lon="6.88748">
        <ele>381.01</ele>
        <time>2018-11-03T12:37:32.000Z</time>
      </trkpt>
      <trkpt lat="47.65987" lon="6.88763">
        <ele>381.45</ele>
        <time>2018-11-03T12:37:37.000Z</time>
      </trkpt>
      <trkpt lat="47.65994" lon="6.88781">
        <ele>381.88</ele>
        <time>2018-11-03T12:37:42.000Z</time>
      </trkpt>
      <trkpt lat="47.66001" lon="6.88795">
        <ele>382.9</ele>
        <time>2018-11-03T12:37:47.000Z</time>
      </trkpt>
      <trkpt lat="47.66008" lon="6.88809">
        <ele>383.91</ele>
        <time>2018-11-03T12:37:52.000Z</time>
      </trkpt>
      <trkpt lat="47.66013" lon="6.88822">
        <ele>384.93</ele>
        <time>2018-11-03T12:37:57.000Z</time>
      </trkpt>
      <trkpt lat="47.66024" lon="6.88823">
        <ele>385.46</ele>
        <time>2018-11-03T12:38:02.000Z</time>
      </trkpt>
      <trkpt lat="47.66037" lon="6.88829">
        <ele>385.99</ele>
        <time>2018-11-03T12:38:07.000Z</time>
      </trkpt>
      <trkpt lat="47.66047" lon="6.88843">
        <ele>386.52</ele>
        <time>2018-11-03T12:38:12.000Z</time>
      </trkpt>
      <trkpt lat="47.66054" lon="6.88861">
        <ele>386.83</ele>
        <time>2018-11-03T12:38:17.000Z</time>
      </trkpt>
      <trkpt lat="47.66063" lon="6.88882">
        <ele>387.13</ele>
        <time>2018-11-03T12:38:22.000Z</time>
      </trkpt>
      <trkpt lat="47.66071" lon="6.88905">
        <ele>387.43</ele>
        <time>2018-11-03T12:38:27.000Z</time>
      </trkpt>
      <trkpt lat="47.6608" lon="6.88925">
        <ele>387.43</ele>
        <time>2018-11-03T12:38:32.000Z</time>
      </trkpt>
      <trkpt lat="47.66091" lon="6.88932">
        <ele>387.43</ele>
        <time>2018-11-03T12:38:37.000Z</time>
      </trkpt>
      <trkpt lat="47.66097" lon="6.88931">
        <ele>387.43</ele>
        <time>2018-11-03T12:38:42.000Z</time>
      </trkpt>
    </trkseg>
  </trk>
</gpx>